# Wetter Temperatur Luftdruck Luftfeuchtigkeit Sichtweite Windgeschwindigkeit Windrichtung Zeit
1 Clouds 8 1027 100 10000 3.1 250 07:42 11.07.2020
2 Clouds 8 1027 100 10000 3.1 250 07:23 11.07.2020
3 Clouds 8 1027 93 10000 2.1 240 06:56 11.07.2020
4 Clouds 8 1026 93 10000 2.1 250 06:22 11.07.2020
5 Clouds 8 1026 93 10000 4.1 280 05:22 11.07.2020
6 Clouds 8 1026 93 10000 3.6 270 04:56 11.07.2020
7 Clouds 8 1026 93 10000 3.6 270 04:33 11.07.2020
8 Clouds 9 1026 87 10000 3.6 290 03:32 11.07.2020
9 Clouds 9 1026 87 10000 3.1 290 02:40 11.07.2020
10 Clouds 10 1026 93 10000 3.1 280 01:49 11.07.2020
11 Clouds 11 1026 81 10000 3.1 310 01:18 11.07.2020
12 Clouds 11 1025 81 10000 3.6 310 00:41 11.07.2020
13 Clouds 12 1025 81 10000 4.1 290 00:22 11.07.2020
14 Clouds 12 1024 71 10000 4.1 300 23:57 10.07.2020
15 Clouds 13 1024 71 10000 4.1 300 23:39 10.07.2020
16 Clouds 13 1024 71 10000 4.6 300 23:19 10.07.2020
17 Clouds 13 1024 76 10000 4.1 300 22:46 10.07.2020
18 Clouds 14 1024 76 10000 4.6 300 22:21 10.07.2020
19 Clouds 14 1024 76 10000 5.1 320 21:58 10.07.2020
20 Clouds 15 1023 72 10000 3.6 340 21:37 10.07.2020
21 Clouds 15 1023 72 10000 3.6 340 21:19 10.07.2020
22 Clouds 15 1023 72 10000 3.6 340 20:43 10.07.2020
23 Clouds 15 1023 82 10000 5.7 350 20:23 10.07.2020
24 Rain 17 1023 55 10000 5.7 300 19:58 10.07.2020
25 Rain 17 1023 55 10000 5.7 300 19:40 10.07.2020
26 Rain 16 1022 63 10000 6.7 300 19:21 10.07.2020
27 Clouds 17 1022 59 10000 7.2 300 18:42 10.07.2020
28 Clouds 16 1022 62 10000 8.2 300 18:22 10.07.2020
29 Clouds 16 1022 59 10000 6.7 300 17:59 10.07.2020
30 Clouds 17 1022 59 10000 6.7 300 17:40 10.07.2020
31 Clouds 16 1022 63 10000 5.7 290 17:22 10.07.2020
32 Rain 16 1022 63 10000 7.2 300 16:44 10.07.2020
33 Rain 16 1022 59 10000 6.7 310 16:21 10.07.2020
34 Rain 16 1022 63 10000 5.1 280 15:57 10.07.2020
35 Clouds 16 1022 62 10000 6.2 310 15:39 10.07.2020
36 Clouds 15 1022 62 10000 6.2 310 15:18 10.07.2020
37 Clouds 15 1022 62 10000 6.7 300 14:41 10.07.2020
38 Clouds 15 1022 67 10000 7.2 310 14:21 10.07.2020
39 Clouds 14 1022 67 10000 7.2 310 13:58 10.07.2020
40 Clouds 14 1022 67 10000 7.2 310 13:39 10.07.2020
41 Clouds 15 1021 67 10000 6.7 320 13:21 10.07.2020
42 Rain 14 1021 66 10000 7.2 310 12:58 10.07.2020
43 Rain 14 1021 66 10000 7.2 310 12:38 10.07.2020
44 Rain 14 1021 62 10000 8.2 330 12:19 10.07.2020
45 Clouds 13 1020 71 10000 7.7 310 11:42 10.07.2020
46 Clouds 13 1020 71 10000 7.7 320 11:21 10.07.2020
47 Clouds 13 1020 71 10000 7.7 320 10:58 10.07.2020
48 Clouds 12 1020 81 10000 6.7 300 10:39 10.07.2020
49 Clouds 12 1020 81 10000 7.2 300 10:20 10.07.2020
50 Clouds 11 1020 81 10000 7.2 300 09:41 10.07.2020
51 Clouds 10 1020 93 10000 6.7 290 09:23 10.07.2020
52 Clouds 9 1019 87 10000 6.2 290 08:59 10.07.2020
53 Clouds 9 1019 87 10000 6.2 290 08:41 10.07.2020
54 Clouds 9 1019 87 10000 6.2 290 08:23 10.07.2020
55 Clouds 9 1019 87 10000 6.2 290 08:23 10.07.2020
56 Clouds 8 1019 93 10000 6.2 290 07:47 10.07.2020
57 Clouds 8 1019 93 10000 6.7 290 07:24 10.07.2020
58 Clouds 8 1019 93 10000 6.2 290 06:57 10.07.2020
59 Clouds 8 1019 93 10000 5.7 280 06:39 10.07.2020
60 Clouds 9 1019 87 10000 4.1 280 05:28 10.07.2020
61 Clouds 11 1018 81 10000 4.6 300 03:54 10.07.2020
62 Clouds 11 1018 87 10000 5.1 300 02:54 10.07.2020
63 Clouds 12 1018 81 10000 3.6 310 01:57 10.07.2020
64 Clouds 13 1018 76 10000 4.6 320 00:55 10.07.2020
65 Clouds 13 1017 76 10000 4.1 320 00:23 10.07.2020
66 Rain 14 1017 71 10000 4.1 350 23:56 09.07.2020
67 Rain 14 1017 71 10000 4.1 350 23:37 09.07.2020
68 Clouds 15 1016 76 10000 4.1 10 23:19 09.07.2020
69 Clouds 15 1016 76 10000 2.6 20 22:56 09.07.2020
70 Clouds 15 1016 76 10000 2.6 20 22:38 09.07.2020
71 Clouds 15 1016 67 10000 1 0 22:19 09.07.2020
72 Clouds 15 1015 82 10000 1 0 21:40 09.07.2020
73 Clouds 15 1015 77 10000 1.5 0 21:20 09.07.2020
74 Clouds 16 1015 72 10000 2.1 60 20:59 09.07.2020
75 Clouds 16 1015 72 10000 2.1 60 20:40 09.07.2020
76 Clouds 16 1015 72 10000 2.1 60 20:22 09.07.2020
77 Clouds 17 1015 67 10000 2.6 50 19:43 09.07.2020
78 Clouds 16 1015 72 10000 3.6 10 19:22 09.07.2020
79 Clouds 17 1015 72 10000 4.6 30 18:57 09.07.2020
80 Clouds 17 1015 67 10000 4.1 10 18:39 09.07.2020
81 Clouds 17 1015 67 10000 4.1 10 18:19 09.07.2020
82 Clouds 16 1015 77 10000 4.1 360 17:43 09.07.2020
83 Clouds 16 1015 77 10000 3.6 20 17:23 09.07.2020
84 Clouds 16 1015 82 10000 3.1 10 16:56 09.07.2020
85 Clouds 16 1015 82 10000 3.1 10 16:38 09.07.2020
86 Clouds 15 1015 87 10000 3.6 360 16:19 09.07.2020
87 Clouds 15 1015 82 10000 3.6 360 15:58 09.07.2020
88 Clouds 15 1015 82 10000 3.6 360 15:37 09.07.2020
89 Clouds 15 1015 82 10000 3.6 360 15:18 09.07.2020
90 Clouds 14 1015 87 10000 4.6 360 14:57 09.07.2020
91 Clouds 14 1015 87 10000 4.6 360 14:39 09.07.2020
92 Clouds 14 1015 87 10000 4.6 360 14:39 09.07.2020
93 Rain 14 1015 87 10000 4.6 10 14:20 09.07.2020
94 Rain 14 1015 87 10000 4.6 10 13:56 09.07.2020
95 Rain 14 1015 87 10000 4.6 10 13:38 09.07.2020
96 Rain 14 1014 87 10000 5.1 20 13:18 09.07.2020
97 Rain 14 1014 87 10000 5.7 10 12:41 09.07.2020
98 Rain 14 1014 87 10000 5.1 20 12:23 09.07.2020
99 Rain 13 1014 93 10000 5.7 10 11:57 09.07.2020
100 Rain 13 1014 93 10000 5.7 10 11:38 09.07.2020
101 Rain 13 1013 93 10000 6.2 10 11:18 09.07.2020
102 Rain 13 1013 93 10000 5.7 20 10:55 09.07.2020
103 Rain 12 1013 93 10000 5.1 20 10:37 09.07.2020
104 Rain 12 1013 93 10000 5.1 20 10:37 09.07.2020
105 Rain 12 1013 93 10000 5.1 20 10:19 09.07.2020
106 Rain 12 1013 93 10000 5.1 20 09:42 09.07.2020
107 Rain 12 1012 100 10000 4.6 40 09:22 09.07.2020
108 Rain 12 1012 100 10000 4.6 30 08:49 09.07.2020
109 Rain 12 1012 100 10000 4.6 30 08:26 09.07.2020
110 Rain 12 1012 100 10000 4.6 30 07:50 09.07.2020
111 Rain 12 1012 100 6000 5.7 40 07:30 09.07.2020
112 Rain 12 1011 100 4000 6.2 50 06:59 09.07.2020
113 Rain 12 1011 100 6000 6.7 50 06:20 09.07.2020
114 Rain 12 1010 93 1200 6.2 30 05:50 09.07.2020
115 Rain 12 1010 100 5000 3.6 20 04:29 09.07.2020
116 Rain 12 1010 100 8000 3.1 30 02:47 09.07.2020
117 Rain 12 1010 100 6000 4.1 40 01:55 09.07.2020
118 Rain 12 1010 100 5000 2.6 60 00:59 09.07.2020
119 Rain 12 1010 100 4000 3.6 60 00:38 09.07.2020
120 Rain 12 1010 100 4000 3.6 60 00:19 09.07.2020
121 Rain 12 1010 100 3000 4.1 80 23:43 08.07.2020
122 Rain 11 1010 100 2500 4.1 90 23:24 08.07.2020
123 Rain 11 1010 100 3000 4.6 100 22:55 08.07.2020
124 Rain 11 1010 100 3000 4.6 100 22:36 08.07.2020
125 Rain 11 1011 100 3000 4.6 100 22:18 08.07.2020
126 Rain 11 1011 100 3000 4.1 100 21:40 08.07.2020
127 Rain 11 1011 100 3500 4.6 90 21:22 08.07.2020
128 Rain 12 1012 93 5000 5.7 90 20:59 08.07.2020
129 Rain 12 1012 93 3500 5.1 90 20:41 08.07.2020
130 Rain 12 1012 93 3500 5.1 90 20:23 08.07.2020
131 Rain 12 1012 93 3500 5.1 90 19:43 08.07.2020
132 Rain 12 1013 93 4000 4.1 100 19:25 08.07.2020
133 Rain 12 1013 100 6000 4.1 110 18:59 08.07.2020
134 Rain 12 1013 100 6000 4.1 110 18:40 08.07.2020
135 Rain 12 1013 100 4000 3.1 120 18:21 08.07.2020
136 Rain 13 1014 87 6000 4.1 110 17:57 08.07.2020
137 Rain 13 1014 87 9000 3.6 140 17:38 08.07.2020
138 Rain 13 1014 87 9000 3.6 140 17:38 08.07.2020
139 Rain 13 1014 87 9000 3.6 140 17:20 08.07.2020
140 Rain 13 1014 87 9000 3.6 140 17:20 08.07.2020
141 Rain 13 1014 87 9000 3.6 140 17:20 08.07.2020
142 Rain 13 1014 87 10000 3.1 130 16:56 08.07.2020
143 Rain 13 1014 87 10000 4.1 90 16:37 08.07.2020
144 Rain 13 1014 87 10000 4.1 90 16:18 08.07.2020
145 Rain 13 1014 87 10000 4.1 90 15:56 08.07.2020
146 Rain 13 1015 82 10000 4.1 100 15:38 08.07.2020
147 Rain 13 1015 82 10000 4.1 100 15:18 08.07.2020
148 Rain 13 1015 87 10000 3.6 90 14:42 08.07.2020
149 Clouds 13 1015 87 10000 3.6 100 14:21 08.07.2020
150 Rain 13 1015 87 10000 3.6 100 13:46 08.07.2020
151 Rain 13 1015 82 10000 4.1 90 13:28 08.07.2020
152 Rain 13 1015 87 10000 3.6 90 12:58 08.07.2020
153 Rain 13 1015 87 10000 3.6 90 12:40 08.07.2020
154 Rain 13 1015 87 10000 3.6 90 12:19 08.07.2020
155 Rain 12 1015 93 10000 3.6 60 11:39 08.07.2020
156 Rain 12 1015 93 10000 3.6 60 11:21 08.07.2020
157 Rain 12 1015 100 10000 4.1 60 10:59 08.07.2020
158 Rain 12 1015 100 10000 4.1 60 10:41 08.07.2020
159 Rain 12 1015 93 5000 3.6 40 10:22 08.07.2020
160 Rain 12 1015 93 10000 3.6 40 09:44 08.07.2020
161 Drizzle 11 1014 100 4000 3.1 40 09:24 08.07.2020
162 Rain 11 1014 100 3000 3.1 50 08:44 08.07.2020
163 Rain 11 1014 100 3000 3.1 30 08:25 08.07.2020
164 Rain 11 1014 100 3000 3.1 30 07:50 08.07.2020
165 Rain 11 1014 100 3000 3.1 30 07:25 08.07.2020
166 Rain 11 1014 100 4000 3.6 30 06:58 08.07.2020
167 Rain 11 1014 100 4000 3.6 30 06:39 08.07.2020
168 Rain 11 1014 100 4000 3.1 30 06:20 08.07.2020
169 Rain 11 1014 100 6000 3.6 40 05:44 08.07.2020
170 Rain 12 1014 100 6000 4.1 40 04:39 08.07.2020
171 Rain 12 1014 93 5000 4.1 40 03:25 08.07.2020
172 Rain 12 1014 100 5000 4.1 30 01:57 08.07.2020
173 Rain 12 1014 100 5000 4.1 30 01:37 08.07.2020
174 Rain 12 1014 100 5000 3.1 40 00:39 08.07.2020
175 Rain 13 1014 100 8000 2.6 10 00:19 08.07.2020
176 Rain 13 1013 100 3500 3.1 40 23:41 07.07.2020
177 Rain 13 1013 100 2500 4.1 30 23:21 07.07.2020
178 Rain 14 1013 93 2500 4.1 30 22:54 07.07.2020
179 Rain 14 1013 93 2500 4.1 30 22:36 07.07.2020
180 Rain 14 1013 100 2500 2.1 10 22:18 07.07.2020
181 Rain 15 1013 100 2500 1 0 21:41 07.07.2020
182 Rain 15 1013 100 2500 1 0 21:41 07.07.2020
183 Rain 15 1013 93 4000 1.5 0 21:22 07.07.2020
184 Drizzle 15 1013 100 4000 1 0 20:59 07.07.2020
185 Rain 15 1013 100 4000 1 0 20:41 07.07.2020
186 Rain 15 1013 100 4000 1 0 20:23 07.07.2020
187 Rain 15 1013 100 5000 1.5 80 19:55 07.07.2020
188 Rain 15 1013 100 5000 2.1 90 19:36 07.07.2020
189 Rain 15 1013 100 5000 2.1 90 19:18 07.07.2020
190 Mist 15 1013 100 4000 2.6 80 18:54 07.07.2020
191 Rain 15 1013 100 3000 2.1 100 18:36 07.07.2020
192 Rain 15 1013 100 3000 2.1 100 18:18 07.07.2020
193 Rain 15 1014 93 6000 2.1 100 17:43 07.07.2020
194 Drizzle 15 1014 93 6000 2.1 100 17:23 07.07.2020
195 Drizzle 14 1014 93 7000 3.6 140 16:58 07.07.2020
196 Drizzle 14 1014 93 7000 3.6 140 16:40 07.07.2020
197 Rain 13 1015 100 6000 4.6 130 16:21 07.07.2020
198 Rain 13 1015 93 5000 3.6 130 15:54 07.07.2020
199 Rain 13 1015 93 5000 3.6 130 15:36 07.07.2020
200 Rain 12 1016 100 6000 4.1 130 15:18 07.07.2020
201 Rain 12 1016 93 9000 3.1 130 14:42 07.07.2020
202 Rain 12 1016 93 8000 3.6 140 14:22 07.07.2020
203 Rain 12 1016 93 8000 3.6 140 13:40 07.07.2020
204 Rain 12 1017 93 7000 2.6 130 13:19 07.07.2020
205 Rain 12 1017 93 8000 2.1 160 12:43 07.07.2020
206 Rain 12 1017 93 7000 4.1 180 12:25 07.07.2020
207 Rain 12 1018 93 10000 3.6 200 11:58 07.07.2020
208 Rain 12 1018 93 10000 3.6 200 11:40 07.07.2020
209 Rain 12 1019 87 10000 2.6 210 11:20 07.07.2020
210 Drizzle 11 1019 93 8000 3.1 220 10:57 07.07.2020
211 Clouds 11 1019 93 10000 2.6 230 10:38 07.07.2020
212 Rain 11 1019 93 10000 2.6 230 10:19 07.07.2020
213 Rain 11 1019 87 10000 3.1 240 09:41 07.07.2020
214 Rain 11 1019 93 10000 2.6 240 09:21 07.07.2020
215 Rain 11 1019 87 10000 3.1 240 08:42 07.07.2020
216 Rain 11 1019 87 10000 3.1 240 08:24 07.07.2020
217 Rain 11 1020 87 10000 2.6 240 07:47 07.07.2020
218 Rain 11 1020 87 10000 3.1 250 07:25 07.07.2020
219 Rain 11 1020 87 10000 2.6 240 06:50 07.07.2020
220 Rain 11 1020 87 10000 2.6 240 06:50 07.07.2020
221 Rain 11 1020 81 10000 2.1 240 06:31 07.07.2020
222 Clouds 11 1021 87 10000 2.6 240 05:54 07.07.2020
223 Clouds 11 1021 87 10000 2.6 240 05:23 07.07.2020
224 Clouds 11 1022 87 10000 3.1 250 04:42 07.07.2020
225 Clouds 12 1022 81 10000 2.6 250 03:41 07.07.2020
226 Clouds 12 1023 76 10000 2.1 260 02:28 07.07.2020
227 Clouds 12 1023 66 10000 2.6 260 01:25 07.07.2020
228 Clouds 11 1023 71 10000 2.6 270 00:44 07.07.2020
229 Clouds 12 1023 76 10000 2.6 300 00:25 07.07.2020
230 Clouds 12 1023 66 10000 4.1 300 23:59 06.07.2020
231 Clouds 12 1023 66 10000 4.1 300 23:40 06.07.2020
232 Clouds 13 1023 71 10000 4.6 300 23:22 06.07.2020
233 Clouds 14 1023 67 10000 5.1 310 22:41 06.07.2020
234 Rain 14 1023 76 10000 4.1 290 22:20 06.07.2020
235 Rain 15 1023 72 10000 4.6 280 21:58 06.07.2020
236 Rain 15 1023 72 10000 4.6 280 21:39 06.07.2020
237 Rain 15 1023 72 10000 4.6 280 21:19 06.07.2020
238 Rain 15 1023 72 10000 4.6 280 21:19 06.07.2020
239 Rain 15 1023 72 10000 4.6 300 20:59 06.07.2020
240 Rain 15 1023 72 10000 4.6 300 20:39 06.07.2020
241 Rain 16 1023 72 10000 4.6 300 20:20 06.07.2020
242 Rain 16 1023 67 10000 5.1 280 19:57 06.07.2020
243 Rain 17 1023 59 10000 5.1 270 19:39 06.07.2020
244 Rain 17 1023 59 10000 5.1 270 19:20 06.07.2020
245 Rain 16 1023 63 10000 6.2 280 18:55 06.07.2020
246 Clouds 16 1023 67 10000 7.2 290 18:37 06.07.2020
247 Clouds 16 1023 67 10000 7.2 290 18:18 06.07.2020
248 Clouds 16 1023 63 10000 5.1 300 17:42 06.07.2020
249 Clouds 16 1023 67 10000 6.2 310 17:24 06.07.2020
250 Clouds 17 1023 63 10000 6.7 300 16:57 06.07.2020
251 Clouds 17 1023 63 10000 6.7 300 16:39 06.07.2020
252 Clouds 17 1023 63 10000 6.7 300 16:21 06.07.2020
253 Clouds 16 1022 55 10000 7.2 290 15:42 06.07.2020
254 Clouds 16 1022 67 10000 7.2 290 15:24 06.07.2020
255 Clouds 16 1022 72 10000 6.7 280 14:57 06.07.2020
256 Clouds 16 1022 72 10000 6.7 280 14:38 06.07.2020
257 Clouds 14 1022 67 10000 6.7 300 14:19 06.07.2020
258 Clouds 15 1022 67 10000 6.7 300 13:51 06.07.2020
259 Clouds 14 1022 67 10000 8.2 300 13:28 06.07.2020
260 Clouds 16 1022 62 10000 7.7 310 12:59 06.07.2020
261 Clouds 15 1022 62 10000 7.7 310 12:41 06.07.2020
262 Clouds 15 1021 71 10000 7.7 290 12:18 06.07.2020
263 Clouds 14 1020 71 10000 8.2 300 11:57 06.07.2020
264 Clouds 14 1020 71 10000 8.2 300 11:37 06.07.2020
265 Clouds 14 1020 71 10000 9.8 300 11:19 06.07.2020
266 Clouds 13 1019 82 10000 9.3 300 10:42 06.07.2020
267 Clouds 13 1019 82 10000 8.2 280 10:22 06.07.2020
268 Clouds 12 1019 81 10000 9.8 290 09:57 06.07.2020
269 Clouds 12 1019 81 10000 9.8 290 09:39 06.07.2020
270 Clouds 12 1018 81 10000 8.7 280 09:21 06.07.2020
271 Clouds 11 1018 87 10000 8.7 280 08:45 06.07.2020
272 Clouds 11 1018 87 10000 8.7 280 08:24 06.07.2020
273 Clouds 11 1017 87 10000 8.7 280 07:58 06.07.2020
274 Clouds 11 1017 87 10000 8.7 280 07:40 06.07.2020
275 Clouds 11 1017 81 10000 8.2 270 07:21 06.07.2020
276 Clouds 10 1016 87 10000 7.7 270 06:39 06.07.2020
277 Clouds 10 1016 87 10000 7.7 270 06:20 06.07.2020
278 Clouds 10 1016 87 10000 7.7 270 06:20 06.07.2020
279 Rain 10 1015 93 10000 7.2 260 05:33 06.07.2020
280 Clouds 10 1015 87 10000 6.7 260 04:52 06.07.2020
281 Clouds 11 1015 81 10000 7.7 270 03:25 06.07.2020
282 Clouds 11 1014 81 10000 7.7 270 02:21 06.07.2020
283 Clouds 11 1013 81 10000 8.7 270 01:22 06.07.2020
284 Clouds 12 1012 87 10000 7.7 270 00:33 06.07.2020
285 Clouds 12 1011 87 10000 9.8 270 23:59 05.07.2020
286 Clouds 12 1011 87 10000 9.8 270 23:40 05.07.2020
287 Rain 12 1011 81 10000 11.8 280 23:22 05.07.2020
288 Rain 12 1010 81 10000 10.3 270 22:58 05.07.2020
289 Rain 13 1010 76 10000 10.3 270 22:39 05.07.2020
290 Rain 13 1010 76 10000 10.3 270 22:19 05.07.2020
291 Rain 13 1009 76 10000 11.8 280 21:57 05.07.2020
292 Rain 13 1009 76 10000 11.8 280 21:37 05.07.2020
293 Rain 13 1009 81 10000 9.8 280 21:18 05.07.2020
294 Rain 13 1009 81 10000 9.8 280 20:56 05.07.2020
295 Rain 13 1009 81 10000 9.8 280 20:38 05.07.2020
296 Rain 14 1008 87 10000 8.7 280 20:19 05.07.2020
297 Rain 15 1008 71 6000 10.8 270 19:42 05.07.2020
298 Rain 14 1007 82 10000 12.9 270 19:21 05.07.2020
299 Rain 14 1007 82 8000 10.8 260 18:55 05.07.2020
300 Rain 15 1006 67 10000 8.7 250 18:37 05.07.2020
301 Rain 15 1006 67 10000 8.7 250 18:18 05.07.2020
302 Rain 14 1007 67 10000 8.7 250 17:42 05.07.2020
303 Rain 15 1006 67 10000 9.3 250 17:19 05.07.2020
304 Rain 15 1006 58 10000 9.8 260 16:58 05.07.2020
305 Rain 15 1006 58 10000 9.8 260 16:40 05.07.2020
306 Rain 15 1006 55 10000 9.3 260 16:20 05.07.2020
307 Clouds 15 1006 54 10000 10.8 260 15:40 05.07.2020
308 Rain 15 1006 67 10000 10.8 260 15:20 05.07.2020
309 Rain 15 1006 67 10000 10.3 260 14:55 05.07.2020
310 Rain 15 1006 67 10000 10.3 260 14:36 05.07.2020
311 Rain 15 1006 67 10000 10.3 260 14:18 05.07.2020
312 Rain 14 1006 87 10000 8.7 260 13:40 05.07.2020
313 Rain 14 1006 76 10000 9.8 260 13:22 05.07.2020
314 Rain 14 1005 62 10000 9.8 250 12:45 05.07.2020
315 Rain 14 1005 62 10000 9.3 250 12:21 05.07.2020
316 Clouds 15 1006 67 10000 8.7 260 11:56 05.07.2020
317 Clouds 15 1006 67 10000 8.7 260 11:38 05.07.2020
318 Clouds 14 1006 67 10000 8.2 250 11:19 05.07.2020
319 Clouds 14 1006 76 10000 8.2 260 10:55 05.07.2020
320 Clouds 14 1006 76 10000 8.2 260 10:36 05.07.2020
321 Rain 13 1006 76 10000 6.7 250 10:18 05.07.2020
322 Clouds 12 1006 76 10000 7.7 250 09:41 05.07.2020
323 Clouds 12 1006 76 10000 5.7 250 09:20 05.07.2020
324 Clouds 12 1006 81 10000 6.2 260 08:57 05.07.2020
325 Clouds 12 1006 81 10000 6.2 260 08:38 05.07.2020
326 Clouds 11 1006 81 10000 6.2 260 08:18 05.07.2020
327 Clouds 11 1005 76 10000 7.2 260 07:39 05.07.2020
328 Clouds 11 1005 76 10000 7.2 260 07:21 05.07.2020
329 Clouds 11 1004 81 10000 9.3 260 06:30 05.07.2020
330 Clouds 13 1001 87 10000 8.2 260 04:27 05.07.2020
331 Drizzle 15 1000 87 10000 8.2 250 03:18 05.07.2020
332 Clouds 15 1000 82 10000 7.7 250 02:40 05.07.2020
333 Rain 16 999 87 8000 9.8 250 01:59 05.07.2020
334 Rain 16 999 93 8000 7.7 240 01:28 05.07.2020
335 Rain 16 999 93 8000 7.2 230 00:52 05.07.2020
336 Drizzle 16 999 93 10000 7.2 230 00:31 05.07.2020
337 Rain 17 999 88 10000 7.2 230 23:57 04.07.2020
338 Rain 17 999 88 10000 7.2 230 23:33 04.07.2020
339 Rain 17 1000 93 4000 5.7 220 22:59 04.07.2020
340 Rain 18 1000 88 9000 5.1 220 22:41 04.07.2020
341 Rain 18 1000 88 9000 5.1 220 22:23 04.07.2020
342 Clouds 18 1001 77 10000 4.6 210 21:58 04.07.2020
343 Clouds 19 1001 77 10000 4.6 210 21:40 04.07.2020
344 Clouds 19 1001 77 10000 4.6 220 21:22 04.07.2020
345 Clouds 20 1001 77 10000 4.6 220 20:43 04.07.2020
346 Clouds 20 1002 77 10000 5.1 240 20:21 04.07.2020
347 Clouds 19 1002 77 10000 4.6 230 19:58 04.07.2020
348 Clouds 19 1003 77 10000 4.1 210 19:39 04.07.2020
349 Clouds 19 1004 77 10000 3.1 200 19:20 04.07.2020
350 Clouds 19 1004 82 10000 3.1 220 18:44 04.07.2020
351 Clouds 19 1004 82 10000 3.1 220 18:23 04.07.2020
352 Drizzle 19 1005 88 10000 3.6 240 17:55 04.07.2020
353 Drizzle 18 1005 93 10000 3.1 230 17:37 04.07.2020
354 Drizzle 18 1005 93 10000 3.1 230 17:18 04.07.2020
355 Drizzle 18 1005 93 10000 2.6 250 16:55 04.07.2020
356 Drizzle 18 1005 93 10000 2.6 250 16:36 04.07.2020
357 Drizzle 17 1005 93 10000 3.1 230 16:18 04.07.2020
358 Drizzle 17 1005 93 7000 4.1 240 15:41 04.07.2020
359 Drizzle 17 1005 87 10000 3.6 240 15:21 04.07.2020
360 Drizzle 17 1005 93 6000 3.6 250 14:57 04.07.2020
361 Drizzle 17 1005 93 6000 3.6 250 14:37 04.07.2020
362 Drizzle 16 1005 100 5000 4.1 240 14:18 04.07.2020
363 Drizzle 16 1005 100 5000 4.1 240 13:42 04.07.2020
364 Rain 16 1005 87 5000 3.6 230 13:19 04.07.2020
365 Rain 16 1005 93 8000 4.1 260 12:56 04.07.2020
366 Rain 16 1005 93 8000 4.1 260 12:38 04.07.2020
367 Drizzle 16 1005 93 5000 3.1 230 12:19 04.07.2020
368 Drizzle 16 1005 93 10000 3.1 240 11:44 04.07.2020
369 Drizzle 16 1005 93 10000 3.1 240 11:23 04.07.2020
370 Drizzle 16 1005 93 10000 4.6 250 10:56 04.07.2020
371 Drizzle 16 1005 93 10000 4.6 250 10:38 04.07.2020
372 Drizzle 16 1005 93 10000 5.1 250 10:19 04.07.2020
373 Drizzle 15 1005 93 10000 4.6 250 09:41 04.07.2020
374 Drizzle 15 1005 100 4500 3.6 250 09:22 04.07.2020
375 Clouds 16 1005 93 10000 4.1 250 08:58 04.07.2020
376 Clouds 16 1005 93 10000 4.1 250 08:39 04.07.2020
377 Clouds 16 1005 93 10000 4.1 250 08:20 04.07.2020
378 Clouds 16 1005 93 10000 4.6 250 07:40 04.07.2020
379 Clouds 16 1004 93 10000 3.6 250 07:18 04.07.2020
380 Rain 16 1004 93 10000 3.1 240 06:38 04.07.2020
381 Rain 15 1004 93 10000 3.1 240 06:18 04.07.2020
382 Clouds 15 1004 93 10000 4.6 250 05:28 04.07.2020
383 Clouds 16 1004 93 10000 3.6 240 04:21 04.07.2020
384 Clouds 16 1004 100 10000 3.6 250 02:41 04.07.2020
385 Drizzle 16 1004 100 8000 4.1 270 01:40 04.07.2020
386 Drizzle 16 1004 93 5000 4.1 260 00:54 04.07.2020
387 Drizzle 16 1004 100 10000 3.6 250 00:36 04.07.2020
388 Drizzle 16 1004 100 10000 3.6 250 00:18 04.07.2020
389 Clouds 17 1004 93 10000 3.6 240 23:39 03.07.2020
390 Clouds 17 1004 93 10000 4.6 240 23:18 03.07.2020
391 Drizzle 17 1004 93 10000 4.1 230 22:42 03.07.2020
392 Clouds 17 1004 88 10000 4.6 230 22:24 03.07.2020
393 Clouds 18 1004 88 10000 5.1 240 21:59 03.07.2020
394 Clouds 17 1004 88 10000 5.1 240 21:38 03.07.2020
395 Clouds 18 1004 88 10000 5.7 230 21:19 03.07.2020
396 Clouds 18 1004 88 10000 5.7 230 20:43 03.07.2020
397 Clouds 18 1004 82 10000 5.1 240 20:25 03.07.2020
398 Clouds 19 1004 77 10000 5.7 240 19:56 03.07.2020
399 Clouds 18 1005 82 10000 5.7 230 19:38 03.07.2020
400 Clouds 18 1005 82 10000 5.7 230 19:18 03.07.2020
401 Clouds 18 1005 77 10000 6.2 230 18:42 03.07.2020
402 Clouds 18 1005 82 10000 7.7 240 18:23 03.07.2020
403 Clouds 18 1005 82 10000 7.2 240 17:56 03.07.2020
404 Clouds 18 1005 82 10000 7.2 240 17:37 03.07.2020
405 Clouds 17 1005 88 10000 6.7 230 17:19 03.07.2020
406 Clouds 17 1006 87 10000 5.7 230 16:40 03.07.2020
407 Clouds 17 1006 87 10000 5.7 230 16:20 03.07.2020
408 Rain 16 1006 93 10000 5.7 230 15:42 03.07.2020
409 Rain 16 1006 93 10000 5.7 230 15:22 03.07.2020
410 Rain 16 1006 87 10000 5.7 230 14:55 03.07.2020
411 Rain 16 1006 87 10000 5.7 230 14:37 03.07.2020
412 Rain 16 1006 87 10000 5.7 230 14:18 03.07.2020
413 Clouds 17 1006 82 10000 7.7 230 13:41 03.07.2020
414 Clouds 16 1006 82 10000 6.2 230 13:23 03.07.2020
415 Drizzle 16 1006 87 10000 7.2 230 12:45 03.07.2020
416 Rain 16 1006 87 10000 6.7 230 12:23 03.07.2020
417 Clouds 15 1006 87 10000 7.2 230 11:57 03.07.2020
418 Clouds 15 1006 87 10000 7.2 230 11:39 03.07.2020
419 Clouds 15 1007 82 10000 6.7 230 11:19 03.07.2020
420 Clouds 15 1006 82 10000 7.2 230 10:54 03.07.2020
421 Clouds 15 1007 87 10000 8.2 230 10:36 03.07.2020
422 Clouds 15 1007 87 10000 8.2 230 10:18 03.07.2020
423 Clouds 15 1007 82 10000 7.2 230 09:40 03.07.2020
424 Clouds 13 1007 87 10000 7.7 230 09:22 03.07.2020
425 Clouds 13 1007 87 10000 7.2 230 08:57 03.07.2020
426 Clouds 13 1007 87 10000 7.2 230 08:38 03.07.2020
427 Clouds 13 1007 87 10000 7.2 230 08:18 03.07.2020
428 Rain 12 1007 93 10000 7.2 230 07:43 03.07.2020
429 Clouds 12 1008 87 10000 7.7 230 07:22 03.07.2020
430 Rain 12 1008 87 10000 7.2 220 06:37 03.07.2020
431 Rain 12 1009 81 10000 5.7 210 05:53 03.07.2020
432 Rain 12 1012 87 10000 3.6 210 03:59 03.07.2020
433 Rain 12 1012 87 10000 2.6 220 02:56 03.07.2020
434 Rain 13 1012 76 10000 2.1 210 02:31 03.07.2020
435 Drizzle 13 1012 76 10000 2.1 210 01:42 03.07.2020
436 Clouds 13 1012 76 10000 2.1 200 01:20 03.07.2020
437 Rain 13 1013 71 10000 2.1 220 00:41 03.07.2020
438 Clouds 14 1013 67 10000 3.1 260 23:58 02.07.2020
439 Clouds 14 1013 67 10000 3.1 260 23:39 02.07.2020
440 Clouds 14 1013 67 10000 2.6 260 23:19 02.07.2020
441 Clouds 14 1013 71 10000 3.1 280 22:55 02.07.2020
442 Clouds 14 1013 71 10000 3.1 280 22:37 02.07.2020
443 Clouds 15 1013 67 10000 3.6 270 22:19 02.07.2020
444 Clouds 15 1013 62 10000 2.6 260 21:42 02.07.2020
445 Clouds 15 1013 62 10000 3.1 250 21:20 02.07.2020
446 Clouds 15 1013 62 10000 3.6 270 20:59 02.07.2020
447 Clouds 16 1013 62 10000 3.6 270 20:41 02.07.2020
448 Clouds 16 1013 62 10000 3.6 270 20:20 02.07.2020
449 Clouds 16 1013 59 10000 3.6 270 19:45 02.07.2020
450 Clouds 16 1013 59 10000 5.7 280 19:26 02.07.2020
451 Clouds 16 1013 59 10000 5.1 290 18:59 02.07.2020
452 Clouds 17 1013 59 10000 5.1 290 18:41 02.07.2020
453 Clouds 17 1013 55 10000 5.1 280 18:41 02.07.2020
454 Clouds 17 1013 55 10000 5.1 280 18:22 02.07.2020
455 Clouds 17 1013 51 10000 5.1 270 17:58 02.07.2020
456 Clouds 17 1013 52 10000 5.7 280 17:39 02.07.2020
457 Clouds 17 1013 52 10000 5.7 280 17:18 02.07.2020
458 Clouds 17 1013 55 10000 4.6 260 16:43 02.07.2020
459 Clouds 16 1013 67 10000 5.1 300 16:21 02.07.2020
460 Clouds 16 1013 63 10000 6.2 280 15:59 02.07.2020
461 Clouds 16 1013 63 10000 6.2 280 15:38 02.07.2020
462 Clouds 16 1013 67 10000 6.7 310 15:20 02.07.2020
463 Clouds 16 1013 67 10000 6.2 300 14:46 02.07.2020
464 Clouds 16 1012 67 10000 5.7 290 14:23 02.07.2020
465 Clouds 16 1012 67 10000 5.7 290 13:57 02.07.2020
466 Clouds 15 1012 67 10000 5.7 290 13:39 02.07.2020
467 Clouds 15 1012 76 10000 4.1 310 13:19 02.07.2020
468 Clouds 15 1012 76 10000 4.1 310 12:57 02.07.2020
469 Clouds 14 1012 82 10000 4.6 300 12:38 02.07.2020
470 Clouds 14 1012 82 10000 4.6 300 12:38 02.07.2020
471 Clouds 14 1012 82 10000 4.6 300 12:19 02.07.2020
472 Clouds 13 1011 87 10000 4.6 300 11:41 02.07.2020
473 Clouds 13 1011 93 10000 4.6 300 11:23 02.07.2020
474 Rain 12 1011 93 10000 5.1 290 10:45 02.07.2020
475 Rain 12 1010 93 10000 4.1 300 10:27 02.07.2020
476 Clouds 12 1010 87 10000 4.1 300 09:56 02.07.2020
477 Clouds 11 1010 87 10000 4.1 300 09:37 02.07.2020
478 Rain 11 1010 93 10000 4.6 300 09:19 02.07.2020
479 Rain 11 1010 93 10000 4.6 300 08:42 02.07.2020
480 Rain 11 1010 93 10000 4.6 300 08:22 02.07.2020
481 Rain 11 1009 93 10000 5.1 300 07:45 02.07.2020
482 Rain 11 1009 93 10000 4.1 300 07:27 02.07.2020
483 Rain 11 1008 100 10000 3.6 310 06:58 02.07.2020
484 Rain 11 1008 93 10000 3.6 310 06:39 02.07.2020
485 Rain 12 1008 93 10000 3.6 310 06:19 02.07.2020
486 Rain 12 1008 93 10000 4.1 300 05:42 02.07.2020
487 Rain 13 1007 100 10000 2.6 320 03:35 02.07.2020
488 Rain 13 1007 93 9000 2.6 300 02:38 02.07.2020
489 Rain 13 1007 100 7000 1.5 300 00:46 02.07.2020
490 Rain 13 1006 100 6000 2.1 290 00:22 02.07.2020
491 Rain 13 1006 100 6000 2.1 300 23:45 01.07.2020
492 Rain 12 1006 100 6000 0.5 0 23:27 01.07.2020
493 Rain 13 1006 93 6000 0.66 320 22:56 01.07.2020
494 Rain 13 1006 93 6000 0.66 320 22:38 01.07.2020
495 Rain 13 1005 93 6000 1 0 22:19 01.07.2020
496 Rain 13 1005 93 6000 2.1 160 21:58 01.07.2020
497 Rain 13 1005 93 6000 2.1 160 21:40 01.07.2020
498 Drizzle 13 1005 93 6000 2.1 150 21:21 01.07.2020
499 Rain 13 1005 93 6000 2.1 150 20:55 01.07.2020
500 Rain 14 1005 87 6000 2.1 140 20:36 01.07.2020
501 Rain 14 1005 87 6000 2.1 140 20:18 01.07.2020
502 Rain 14 1005 87 6000 2.1 110 19:42 01.07.2020
503 Drizzle 14 1005 87 6000 2.1 140 19:24 01.07.2020
504 Drizzle 14 1005 93 6000 1.5 0 18:59 01.07.2020
505 Drizzle 14 1005 93 6000 2.1 150 18:40 01.07.2020
506 Drizzle 14 1005 93 6000 2.1 150 18:21 01.07.2020
507 Rain 14 1005 93 5000 2.1 150 17:56 01.07.2020
508 Rain 14 1005 93 5000 2.1 150 17:37 01.07.2020
509 Drizzle 14 1005 93 7000 3.1 160 17:18 01.07.2020
510 Drizzle 14 1005 93 7000 2.6 160 16:43 01.07.2020
511 Rain 15 1004 93 7000 3.1 170 16:24 01.07.2020
512 Rain 15 1004 93 5000 2.6 190 15:43 01.07.2020
513 Rain 15 1004 87 10000 1.5 0 15:25 01.07.2020
514 Rain 15 1004 82 10000 1 0 14:59 01.07.2020
515 Rain 15 1004 82 10000 1 0 14:41 01.07.2020
516 Rain 14 1004 87 10000 1.5 0 14:20 01.07.2020
517 Rain 14 1004 87 10000 1.5 0 13:55 01.07.2020
518 Rain 14 1004 87 10000 1.5 0 13:37 01.07.2020
519 Rain 14 1004 87 10000 1.5 0 13:37 01.07.2020
520 Rain 14 1004 87 10000 1.5 0 13:18 01.07.2020
521 Rain 14 1003 87 10000 1.5 0 12:41 01.07.2020
522 Rain 14 1003 87 10000 1.5 0 12:41 01.07.2020
523 Drizzle 14 1003 87 10000 1.5 0 12:23 01.07.2020
524 Rain 13 1003 100 7000 2.6 340 11:59 01.07.2020
525 Drizzle 13 1003 100 7000 2.6 340 11:40 01.07.2020
526 Rain 14 1003 100 7000 2.1 330 11:21 01.07.2020
527 Drizzle 14 1003 93 6000 0.5 360 10:56 01.07.2020
528 Drizzle 14 1003 93 10000 1 0 10:38 01.07.2020
529 Drizzle 13 1003 93 10000 1 0 10:20 01.07.2020
530 Clouds 13 1002 93 10000 1.5 90 09:39 01.07.2020
531 Clouds 13 1002 93 10000 1.5 100 09:20 01.07.2020
532 Clouds 13 1002 93 10000 0.5 0 08:59 01.07.2020
533 Clouds 13 1002 93 10000 0.5 0 08:40 01.07.2020
534 Clouds 13 1002 93 10000 1 0 08:19 01.07.2020
535 Clouds 13 1002 93 10000 1 0 07:41 01.07.2020
536 Clouds 13 1002 100 9000 1.5 0 07:23 01.07.2020
537 Clouds 13 1002 93 9000 2.1 100 06:55 01.07.2020
538 Clouds 12 1001 100 7000 2.6 90 06:32 01.07.2020
539 Clouds 12 1002 100 8000 2.1 30 05:46 01.07.2020
540 Clouds 13 1001 100 8000 1.5 90 04:29 01.07.2020
541 Clouds 13 1002 93 9000 1.86 37 03:41 01.07.2020
542 Clouds 13 1002 93 10000 1 120 03:21 01.07.2020
543 Clouds 13 1002 93 10000 1 0 01:56 01.07.2020
544 Clouds 13 1002 93 10000 1.5 0 00:48 01.07.2020
545 Clouds 13 1002 93 10000 2.1 100 00:28 01.07.2020
546 Clouds 13 1002 93 10000 2.1 120 23:59 30.06.2020
547 Clouds 13 1002 93 10000 2.1 140 23:39 30.06.2020
548 Clouds 13 1002 93 10000 2.1 140 23:19 30.06.2020
549 Clouds 14 1002 93 10000 2.1 140 22:42 30.06.2020
550 Clouds 14 1002 87 10000 2.6 130 22:19 30.06.2020
551 Clouds 14 1002 87 10000 3.1 140 21:43 30.06.2020
552 Clouds 14 1002 87 10000 3.6 140 21:19 30.06.2020
553 Clouds 14 1002 87 10000 3.6 140 20:59 30.06.2020
554 Clouds 15 1002 87 10000 3.6 140 20:40 30.06.2020
555 Clouds 15 1002 87 10000 3.1 140 20:20 30.06.2020
556 Clouds 15 1002 82 10000 3.6 140 19:43 30.06.2020
557 Clouds 15 1002 82 10000 3.6 140 19:20 30.06.2020
558 Clouds 16 1002 77 10000 4.1 120 18:55 30.06.2020
559 Clouds 16 1002 77 10000 4.1 130 18:36 30.06.2020
560 Clouds 16 1002 77 10000 4.1 130 18:18 30.06.2020
561 Clouds 16 1003 67 10000 4.1 140 17:39 30.06.2020
562 Clouds 16 1003 72 10000 4.1 150 17:20 30.06.2020
563 Clouds 16 1003 67 10000 3.6 140 16:56 30.06.2020
564 Clouds 16 1003 67 10000 3.6 140 16:37 30.06.2020
565 Clouds 16 1003 67 10000 3.1 130 16:19 30.06.2020
566 Clouds 16 1003 63 10000 2.1 200 15:42 30.06.2020
567 Clouds 15 1003 72 10000 2.1 240 15:23 30.06.2020
568 Clouds 15 1003 72 10000 2.1 240 14:58 30.06.2020
569 Clouds 15 1003 72 10000 2.1 240 14:58 30.06.2020
570 Clouds 15 1003 72 10000 2.1 240 14:40 30.06.2020
571 Clouds 16 1003 67 10000 2.6 200 14:21 30.06.2020
572 Clouds 15 1004 71 10000 2.1 220 13:42 30.06.2020
573 Clouds 15 1004 71 10000 3.1 220 13:21 30.06.2020
574 Clouds 14 1004 71 10000 2.6 240 12:59 30.06.2020
575 Clouds 14 1004 71 10000 2.6 240 12:41 30.06.2020
576 Clouds 14 1004 71 10000 3.1 240 12:23 30.06.2020
577 Clouds 14 1004 82 10000 3.1 240 11:59 30.06.2020
578 Clouds 13 1004 82 10000 3.1 240 11:39 30.06.2020
579 Clouds 13 1004 76 10000 3.6 250 11:20 30.06.2020
580 Clouds 13 1004 76 10000 3.6 250 11:20 30.06.2020
581 Clouds 13 1004 82 10000 3.6 250 10:59 30.06.2020
582 Clouds 14 1002 67 10000 8.7 260 16:44 28.06.2020
583 Clouds 14 1002 71 10000 9.8 260 16:26 28.06.2020
584 Rain 14 1002 76 10000 9.3 250 15:58 28.06.2020
585 Rain 14 1002 76 10000 9.3 250 15:39 28.06.2020
586 Rain 13 1002 81 10000 8.7 250 15:19 28.06.2020
587 Rain 13 1002 81 10000 8.7 250 15:19 28.06.2020
588 Rain 13 1001 76 10000 8.2 250 14:46 28.06.2020
589 Rain 13 1001 76 10000 8.2 250 14:28 28.06.2020
590 Clouds 13 1001 76 10000 8.7 250 13:58 28.06.2020
591 Rain 13 1001 76 10000 8.7 250 13:38 28.06.2020
592 Rain 13 1001 71 10000 8.2 250 13:19 28.06.2020
593 Rain 13 1001 76 10000 9.3 250 12:56 28.06.2020
594 Rain 13 1001 76 10000 8.2 250 12:37 28.06.2020
595 Rain 13 1001 76 10000 8.2 250 12:19 28.06.2020
596 Rain 13 1001 76 8000 9.3 250 11:56 28.06.2020
597 Rain 12 1001 76 8000 9.3 250 11:38 28.06.2020
598 Rain 13 1000 71 10000 8.7 250 11:19 28.06.2020
599 Clouds 13 1000 76 10000 6.7 250 10:55 28.06.2020
600 Clouds 13 1000 76 10000 6.7 250 10:36 28.06.2020
601 Clouds 13 1000 81 10000 8.2 250 10:18 28.06.2020
602 Clouds 12 1000 81 10000 7.2 240 09:39 28.06.2020
603 Clouds 11 1000 87 10000 7.7 250 09:20 28.06.2020
604 Clouds 11 999 87 10000 6.2 250 08:47 28.06.2020
605 Rain 11 1000 87 10000 7.2 250 08:25 28.06.2020
606 Rain 11 1000 87 10000 7.2 250 07:47 28.06.2020
607 Rain 11 1000 87 10000 7.2 250 07:47 28.06.2020
608 Rain 11 999 87 10000 6.7 240 07:28 28.06.2020
609 Rain 11 999 87 10000 7.2 240 06:41 28.06.2020
610 Rain 11 999 87 10000 7.2 240 06:22 28.06.2020
611 Rain 11 999 87 10000 6.7 250 05:26 28.06.2020
612 Rain 11 999 81 10000 6.7 250 03:32 28.06.2020
613 Rain 11 998 87 10000 6.7 250 02:39 28.06.2020
614 Clouds 11 998 87 10000 5.7 240 01:52 28.06.2020
615 Rain 11 998 87 10000 5.7 250 01:25 28.06.2020
616 Rain 11 998 87 10000 5.1 240 00:44 28.06.2020
617 Rain 11 998 87 10000 5.1 240 00:24 28.06.2020
618 Rain 12 998 81 10000 6.2 250 23:41 27.06.2020
619 Rain 12 998 81 10000 6.2 250 23:22 27.06.2020
620 Rain 12 997 87 10000 5.1 240 22:58 27.06.2020
621 Rain 12 997 87 10000 5.1 240 22:39 27.06.2020
622 Rain 12 997 87 10000 5.7 250 22:19 27.06.2020
623 Rain 13 997 87 10000 6.7 250 21:43 27.06.2020
624 Rain 13 997 82 10000 7.2 250 21:21 27.06.2020
625 Clouds 13 997 82 10000 7.2 250 20:57 27.06.2020
626 Clouds 13 997 82 10000 7.2 250 20:57 27.06.2020
627 Clouds 14 997 82 10000 7.2 260 20:37 27.06.2020
628 Clouds 13 997 82 10000 7.2 260 20:18 27.06.2020
629 Rain 14 996 71 10000 8.2 250 19:54 27.06.2020
630 Rain 14 996 71 10000 8.2 250 19:36 27.06.2020
631 Rain 14 996 71 10000 8.2 250 19:18 27.06.2020
632 Clouds 14 996 67 10000 9.3 260 18:43 27.06.2020
633 Rain 14 996 82 10000 8.2 250 18:22 27.06.2020
634 Clouds 15 995 72 10000 9.8 270 17:55 27.06.2020
635 Clouds 15 995 72 10000 9.8 270 17:37 27.06.2020
636 Clouds 15 995 72 10000 9.8 270 17:18 27.06.2020
637 Clouds 15 994 72 10000 10.3 260 16:42 27.06.2020
638 Clouds 15 994 77 10000 8.2 250 16:24 27.06.2020
639 Rain 15 995 87 10000 6.7 250 15:46 27.06.2020
640 Rain 14 995 87 10000 6.2 250 15:25 27.06.2020
641 Rain 14 995 87 10000 6.2 250 14:59 27.06.2020
642 Rain 14 995 87 10000 6.2 250 14:41 27.06.2020
643 Rain 14 994 93 7000 5.1 250 14:22 27.06.2020
644 Rain 14 994 93 3000 7.2 240 13:57 27.06.2020
645 Rain 15 994 93 8000 2.6 210 13:37 27.06.2020
646 Rain 16 994 93 8000 2.6 210 13:19 27.06.2020
647 Clouds 16 994 82 10000 3.6 170 12:43 27.06.2020
648 Clouds 16 995 82 10000 2.6 200 12:22 27.06.2020
649 Rain 15 995 87 10000 3.1 200 11:59 27.06.2020
650 Rain 15 995 87 10000 3.1 200 11:40 27.06.2020
651 Rain 15 995 93 10000 3.1 140 11:22 27.06.2020
652 Rain 15 996 93 10000 4.1 150 10:42 27.06.2020
653 Rain 15 996 87 10000 4.1 140 10:20 27.06.2020
654 Clouds 15 996 93 10000 3.1 140 09:59 27.06.2020
655 Clouds 15 996 93 10000 3.1 140 09:39 27.06.2020
656 Clouds 14 996 93 10000 3.1 140 09:21 27.06.2020
657 Clouds 14 996 93 10000 3.1 140 08:44 27.06.2020
658 Drizzle 14 996 93 10000 3.6 140 08:23 27.06.2020
659 Clouds 14 996 93 10000 4.1 140 07:48 27.06.2020
660 Drizzle 14 997 93 10000 4.1 140 07:27 27.06.2020
661 Drizzle 14 997 93 10000 4.1 140 06:53 27.06.2020
662 Drizzle 14 997 93 10000 4.6 140 06:33 27.06.2020
663 Drizzle 14 999 100 9000 6.7 150 04:55 27.06.2020
664 Drizzle 13 999 100 8000 6.2 140 04:18 27.06.2020
665 Rain 13 1000 93 8000 6.2 140 03:51 27.06.2020
666 Rain 13 1001 93 10000 5.7 150 02:43 27.06.2020
667 Rain 13 1002 87 10000 4.6 140 02:24 27.06.2020
668 Drizzle 14 1002 87 10000 7.2 150 01:34 27.06.2020
669 Clouds 14 1002 82 10000 6.2 140 00:47 27.06.2020
670 Clouds 14 1003 72 10000 5.7 150 23:48 26.06.2020
671 Clouds 15 1003 67 10000 3.6 160 23:29 26.06.2020
672 Clouds 15 1003 59 10000 4.1 160 22:59 26.06.2020
673 Clouds 15 1003 59 10000 4.1 160 22:41 26.06.2020
674 Clouds 15 1003 63 10000 4.6 190 22:23 26.06.2020
675 Rain 15 1003 63 10000 3.1 220 21:58 26.06.2020
676 Rain 15 1003 63 10000 3.1 220 21:58 26.06.2020
677 Rain 16 1003 63 10000 3.1 220 21:39 26.06.2020
678 Clouds 16 1003 59 10000 3.6 190 21:21 26.06.2020
679 Clouds 16 1003 59 10000 3.6 190 21:21 26.06.2020
680 Clouds 16 1003 59 10000 3.6 190 20:57 26.06.2020
681 Clouds 16 1003 59 10000 3.6 190 20:37 26.06.2020
682 Clouds 17 1003 52 10000 3.6 210 20:18 26.06.2020
683 Clouds 17 1003 45 10000 3.6 220 19:40 26.06.2020
684 Rain 18 1003 52 10000 6.2 190 19:20 26.06.2020
685 Clouds 19 1003 52 10000 3.1 220 18:42 26.06.2020
686 Clouds 20 1003 49 10000 5.1 220 18:23 26.06.2020
687 Clouds 21 1003 56 10000 5.7 160 17:46 26.06.2020
688 Clouds 22 1003 56 10000 4.6 150 17:28 26.06.2020
689 Clouds 22 1003 68 10000 4.6 140 16:59 26.06.2020
690 Clouds 21 1003 68 10000 4.6 140 16:41 26.06.2020
691 Clouds 22 1004 73 10000 4.1 140 16:22 26.06.2020
692 Clouds 22 1004 82 10000 2.6 140 15:41 26.06.2020
693 Clouds 22 1004 82 10000 2.6 140 15:22 26.06.2020
694 Clouds 22 1004 77 10000 4.1 130 14:58 26.06.2020
695 Clouds 21 1004 77 10000 4.1 130 14:39 26.06.2020
696 Clouds 21 1004 77 10000 4.6 130 14:21 26.06.2020
697 Clouds 21 1004 77 10000 4.6 130 13:46 26.06.2020
698 Clouds 21 1005 77 10000 4.1 120 13:25 26.06.2020
699 Clouds 21 1005 77 10000 4.1 130 12:57 26.06.2020
700 Clouds 22 1005 73 10000 3.6 130 12:38 26.06.2020
701 Clouds 22 1005 73 10000 3.6 130 12:19 26.06.2020
702 Clouds 21 1005 77 10000 4.6 140 11:57 26.06.2020
703 Clouds 21 1005 77 10000 4.6 140 11:38 26.06.2020
704 Clouds 20 1006 72 10000 5.1 150 11:20 26.06.2020
705 Clouds 20 1006 77 10000 5.1 140 10:56 26.06.2020
706 Clouds 20 1006 77 10000 5.1 140 10:37 26.06.2020
707 Clouds 20 1006 82 10000 5.1 150 10:18 26.06.2020
708 Clouds 19 1006 88 10000 4.1 150 09:42 26.06.2020
709 Clouds 18 1006 88 10000 2.1 140 09:22 26.06.2020
710 Clouds 18 1006 88 10000 2.1 140 08:49 26.06.2020
711 Clouds 18 1006 82 10000 1.5 0 08:28 26.06.2020
712 Clouds 18 1006 88 10000 2.1 120 07:49 26.06.2020
713 Clouds 17 1007 88 10000 3.6 140 07:24 26.06.2020
714 Rain 17 1007 93 10000 3.6 160 06:57 26.06.2020
715 Rain 17 1007 88 10000 2.1 140 06:35 26.06.2020
716 Thunderstorm 16 1008 100 7000 2.6 170 05:57 26.06.2020
717 Rain 16 1008 93 5000 2.1 90 05:30 26.06.2020
718 Rain 17 1010 93 9000 0.5 0 02:41 26.06.2020
719 Rain 17 1010 93 9000 0.5 0 02:21 26.06.2020
720 Clouds 16 1010 93 10000 1 350 00:56 26.06.2020
721 Clouds 17 1010 93 10000 1 350 00:38 26.06.2020
722 Clouds 18 1011 82 10000 2.1 90 23:48 25.06.2020
723 Clouds 18 1011 82 10000 1.5 0 23:23 25.06.2020
724 Clouds 19 1011 82 10000 1 0 22:59 25.06.2020
725 Clouds 19 1011 82 10000 1 0 22:40 25.06.2020
726 Clouds 19 1011 72 10000 2.1 100 22:21 25.06.2020
727 Clouds 20 1011 77 10000 2.1 90 21:58 25.06.2020
728 Clouds 20 1011 77 10000 2.1 90 21:58 25.06.2020
729 Clouds 20 1011 77 10000 2.1 90 21:40 25.06.2020
730 Clouds 20 1011 77 10000 2.1 90 21:21 25.06.2020
731 Clouds 20 1011 68 10000 2.1 100 20:59 25.06.2020
732 Clouds 21 1011 68 10000 1.5 0 20:41 25.06.2020
733 Clouds 21 1011 68 10000 1.5 0 20:22 25.06.2020
734 Clouds 21 1012 68 10000 1.5 0 19:56 25.06.2020
735 Clouds 21 1012 64 10000 2.1 90 19:37 25.06.2020
736 Clouds 21 1012 64 10000 2.1 90 19:18 25.06.2020
737 Clouds 21 1012 64 10000 2.1 90 18:40 25.06.2020
738 Clouds 21 1012 68 10000 5.1 90 18:21 25.06.2020
739 Clouds 22 1012 69 10000 4.1 70 17:46 25.06.2020
740 Clouds 22 1013 69 10000 4.6 70 17:21 25.06.2020
741 Clouds 23 1013 69 10000 3.6 30 16:59 25.06.2020
742 Clouds 23 1013 69 10000 3.6 30 16:40 25.06.2020
743 Clouds 23 1013 69 10000 3.6 30 16:19 25.06.2020
744 Clouds 22 1014 73 10000 3.1 360 15:44 25.06.2020
745 Clouds 22 1014 68 10000 3.1 20 15:26 25.06.2020
746 Clouds 22 1014 68 10000 3.1 20 14:56 25.06.2020
747 Clouds 22 1014 68 10000 3.1 20 14:37 25.06.2020
748 Clouds 21 1014 77 10000 3.1 10 14:19 25.06.2020
749 Clouds 21 1015 77 10000 3.1 10 13:42 25.06.2020
750 Clouds 21 1015 77 10000 3.1 10 13:22 25.06.2020
751 Clouds 21 1015 72 10000 3.6 10 12:59 25.06.2020
752 Clouds 19 1016 77 10000 4.1 10 12:41 25.06.2020
753 Clouds 19 1016 77 10000 4.1 10 12:20 25.06.2020
754 Clouds 19 1016 77 10000 4.1 10 11:43 25.06.2020
755 Clouds 19 1016 77 10000 4.1 20 11:23 25.06.2020
756 Clouds 18 1016 77 10000 4.1 20 10:45 25.06.2020
757 Clouds 18 1016 77 10000 4.1 20 10:26 25.06.2020
758 Clouds 17 1016 87 10000 3.6 30 09:59 25.06.2020
759 Clouds 17 1016 87 10000 3.6 30 09:40 25.06.2020
760 Clouds 16 1016 87 10000 3.6 30 09:20 25.06.2020
761 Clouds 16 1017 87 10000 2.1 340 08:43 25.06.2020
762 Clouds 16 1016 100 10000 1.5 0 08:19 25.06.2020
763 Clouds 13 1017 100 10000 3.1 280 07:45 25.06.2020
764 Clouds 13 1017 100 10000 3.1 280 07:26 25.06.2020
765 Clouds 13 1017 100 10000 2.1 270 06:48 25.06.2020
766 Clouds 13 1017 93 10000 2.6 270 06:27 25.06.2020
767 Clouds 12 1018 100 10000 2.1 260 05:51 25.06.2020
768 Clouds 13 1019 100 10000 2.6 20 03:57 25.06.2020
769 Clouds 13 1020 100 10000 3.1 50 03:29 25.06.2020
770 Clouds 13 1020 100 10000 3.1 50 02:42 25.06.2020
771 Clouds 13 1020 100 10000 2.1 30 01:55 25.06.2020
772 Clouds 13 1020 93 10000 1 0 01:19 25.06.2020
773 Clouds 14 1020 87 10000 2.1 10 00:42 25.06.2020
774 Clouds 14 1020 87 10000 2.1 10 00:20 25.06.2020
775 Clouds 15 1021 87 10000 2.6 60 23:44 24.06.2020
776 Clouds 16 1021 87 10000 3.1 40 23:25 24.06.2020
777 Clouds 16 1020 82 10000 3.6 40 22:58 24.06.2020
778 Clouds 17 1020 82 10000 3.6 40 22:40 24.06.2020
779 Clouds 17 1020 82 10000 3.6 40 22:19 24.06.2020
780 Clouds 17 1020 82 10000 3.6 60 21:55 24.06.2020
781 Clouds 18 1020 72 10000 4.1 70 21:36 24.06.2020
782 Clouds 19 1020 72 10000 4.1 70 21:18 24.06.2020
783 Clouds 19 1020 72 10000 4.1 70 20:56 24.06.2020
784 Clouds 19 1020 72 10000 4.1 70 20:38 24.06.2020
785 Clouds 19 1020 68 10000 3.1 20 20:19 24.06.2020
786 Clouds 20 1020 68 10000 3.1 20 19:55 24.06.2020
787 Clouds 20 1020 68 10000 3.1 20 19:36 24.06.2020
788 Clouds 19 1020 68 10000 3.1 50 19:18 24.06.2020
789 Clouds 19 1020 72 10000 3.1 60 18:56 24.06.2020
790 Clouds 19 1021 72 10000 3.1 60 18:37 24.06.2020
791 Clouds 19 1021 72 10000 3.1 60 18:19 24.06.2020
792 Clouds 19 1021 82 10000 2.6 50 17:43 24.06.2020
793 Clouds 19 1021 77 10000 3.6 70 17:19 24.06.2020
794 Clouds 18 1021 82 10000 3.6 60 16:58 24.06.2020
795 Clouds 18 1021 82 10000 3.6 60 16:39 24.06.2020
796 Clouds 18 1021 82 10000 3.6 60 16:21 24.06.2020
797 Clouds 18 1021 77 10000 3.6 70 15:57 24.06.2020
798 Clouds 18 1021 82 10000 2.1 30 15:38 24.06.2020
799 Clouds 17 1021 82 10000 2.1 30 15:20 24.06.2020
800 Clouds 17 1021 82 10000 2.6 30 14:43 24.06.2020
801 Clouds 17 1021 87 10000 3.1 40 14:25 24.06.2020
802 Clouds 17 1021 87 10000 3.1 360 13:57 24.06.2020
803 Clouds 17 1021 87 10000 3.1 360 13:38 24.06.2020
804 Clouds 17 1020 87 10000 4.1 350 13:18 24.06.2020
805 Clouds 18 1020 82 10000 2.1 300 12:41 24.06.2020
806 Clouds 18 1020 82 10000 2.1 300 12:20 24.06.2020
807 Clouds 18 1020 77 10000 2.6 290 11:56 24.06.2020
808 Clouds 18 1020 82 10000 5.1 270 11:38 24.06.2020
809 Clouds 18 1020 82 10000 5.1 270 11:18 24.06.2020
810 Clouds 18 1020 77 10000 3.1 270 10:43 24.06.2020
811 Clouds 18 1019 82 10000 3.1 200 10:19 24.06.2020
812 Clouds 16 1019 82 10000 4.1 250 09:43 24.06.2020
813 Clouds 16 1019 82 10000 3.1 260 09:22 24.06.2020
814 Clouds 15 1019 93 10000 3.1 290 08:44 24.06.2020
815 Clouds 14 1019 93 10000 1 0 08:26 24.06.2020
816 Clouds 14 1019 93 10000 2.1 150 07:51 24.06.2020
817 Clouds 14 1018 93 10000 2.1 120 07:32 24.06.2020
818 Clouds 13 1018 100 10000 2.1 120 06:51 24.06.2020
819 Clouds 14 1018 100 10000 2.1 130 06:26 24.06.2020
820 Clouds 13 1018 93 10000 2.6 130 05:58 24.06.2020
821 Clouds 13 1018 93 10000 2.1 120 05:20 24.06.2020
822 Clouds 13 1019 93 10000 0.5 0 04:35 24.06.2020
823 Clouds 14 1019 87 10000 1.5 0 03:35 24.06.2020
824 Clouds 14 1019 87 10000 2.1 140 02:51 24.06.2020
825 Clouds 15 1019 87 10000 2.6 90 01:45 24.06.2020
826 Clouds 16 1019 82 10000 2.6 170 00:48 24.06.2020
827 Clouds 16 1019 82 10000 2.6 210 00:27 24.06.2020
828 Clouds 16 1019 77 10000 4.1 210 23:46 23.06.2020
829 Clouds 17 1018 77 10000 3.6 220 23:20 23.06.2020
830 Clouds 17 1018 77 10000 4.6 210 22:57 23.06.2020
831 Clouds 17 1018 77 10000 3.6 220 22:36 23.06.2020
832 Clouds 17 1018 77 10000 3.6 220 22:18 23.06.2020
833 Clouds 17 1018 77 10000 5.7 190 21:41 23.06.2020
834 Clouds 17 1018 77 10000 5.7 190 21:20 23.06.2020
835 Drizzle 18 1018 77 10000 5.1 210 20:56 23.06.2020
836 Drizzle 18 1018 77 10000 5.1 210 20:56 23.06.2020
837 Drizzle 18 1018 77 10000 4.1 190 20:37 23.06.2020
838 Drizzle 18 1018 77 10000 4.1 190 20:19 23.06.2020
839 Clouds 18 1018 72 10000 5.1 190 19:49 23.06.2020
840 Clouds 18 1018 68 10000 5.7 200 19:28 23.06.2020
841 Clouds 18 1018 68 10000 6.2 180 18:42 23.06.2020
842 Clouds 18 1018 68 10000 6.2 180 18:19 23.06.2020
843 Clouds 18 1018 68 10000 6.2 180 18:19 23.06.2020
844 Clouds 18 1018 72 10000 3.6 170 17:59 23.06.2020
845 Clouds 18 1018 77 10000 4.1 210 17:39 23.06.2020
846 Clouds 18 1018 77 10000 4.1 210 17:20 23.06.2020
847 Rain 18 1019 82 10000 5.1 220 16:56 23.06.2020
848 Rain 18 1019 82 10000 5.1 220 16:37 23.06.2020
849 Clouds 18 1018 82 10000 3.1 220 16:18 23.06.2020
850 Clouds 18 1018 82 10000 3.1 220 16:18 23.06.2020
851 Clouds 18 1018 82 10000 6.2 200 15:45 23.06.2020
852 Clouds 18 1018 77 10000 4.6 210 15:25 23.06.2020
853 Clouds 18 1018 82 10000 5.7 210 14:59 23.06.2020
854 Drizzle 18 1018 88 8000 4.1 200 14:41 23.06.2020
855 Drizzle 18 1018 88 10000 3.6 200 14:18 23.06.2020
856 Drizzle 18 1018 88 10000 3.6 200 13:55 23.06.2020
857 Drizzle 17 1018 88 8000 2.6 220 13:37 23.06.2020
858 Drizzle 18 1018 88 8000 2.6 220 13:19 23.06.2020
859 Drizzle 16 1018 93 8000 2.6 230 12:41 23.06.2020
860 Drizzle 16 1018 93 8000 2.6 230 12:22 23.06.2020
861 Drizzle 16 1018 93 6000 2.6 240 11:54 23.06.2020
862 Drizzle 16 1018 93 6000 2.6 240 11:36 23.06.2020
863 Drizzle 16 1018 100 8000 3.1 220 11:18 23.06.2020
864 Rain 16 1018 93 4000 3.6 240 10:41 23.06.2020
865 Rain 16 1018 93 4000 3.6 240 10:41 23.06.2020
866 Rain 16 1018 93 3500 4.1 210 10:22 23.06.2020
867 Drizzle 16 1017 93 10000 4.1 220 09:59 23.06.2020
868 Drizzle 16 1017 93 10000 4.1 220 09:41 23.06.2020
869 Rain 15 1017 93 10000 4.1 210 09:20 23.06.2020
870 Drizzle 16 1017 87 10000 4.6 200 08:47 23.06.2020
871 Drizzle 15 1016 93 10000 4.6 200 08:27 23.06.2020
872 Drizzle 16 1016 93 10000 5.7 210 07:58 23.06.2020
873 Clouds 16 1016 87 10000 7.2 210 07:38 23.06.2020
874 Clouds 16 1016 93 10000 5.7 200 07:19 23.06.2020
875 Clouds 16 1016 93 10000 5.7 200 06:47 23.06.2020
876 Clouds 16 1016 93 10000 4.6 210 06:29 23.06.2020
877 Clouds 16 1016 93 10000 4.6 200 05:39 23.06.2020
878 Drizzle 16 1016 93 10000 4.6 220 03:29 23.06.2020
879 Drizzle 16 1016 93 10000 5.7 210 02:54 23.06.2020
880 Drizzle 16 1016 93 10000 5.7 210 02:35 23.06.2020
881 Clouds 16 1015 82 10000 7.7 210 01:46 23.06.2020
882 Clouds 16 1015 82 10000 6.7 210 01:28 23.06.2020
883 Clouds 16 1015 82 10000 6.7 210 00:53 23.06.2020
884 Clouds 16 1014 82 10000 7.2 210 00:22 23.06.2020
885 Clouds 16 1014 82 10000 7.2 210 23:55 22.06.2020
886 Clouds 16 1014 82 10000 7.2 210 23:55 22.06.2020
887 Clouds 16 1014 82 10000 7.2 210 23:55 22.06.2020
888 Clouds 16 1014 82 10000 8.2 210 23:37 22.06.2020
889 Clouds 16 1014 82 10000 8.2 210 23:18 22.06.2020
890 Clouds 17 1014 77 10000 8.7 200 22:55 22.06.2020
891 Clouds 17 1014 77 10000 8.7 210 22:37 22.06.2020
892 Clouds 17 1014 77 10000 8.7 210 22:18 22.06.2020
893 Clouds 18 1014 82 10000 7.2 210 21:54 22.06.2020
894 Clouds 18 1013 82 10000 9.8 200 21:36 22.06.2020
895 Clouds 18 1013 82 10000 9.8 200 21:18 22.06.2020
896 Clouds 18 1013 77 10000 8.7 200 20:41 22.06.2020
897 Clouds 18 1013 77 10000 9.8 200 20:22 22.06.2020
898 Clouds 19 1014 72 10000 6.2 170 19:45 22.06.2020
899 Clouds 19 1014 72 10000 6.2 170 19:20 22.06.2020
900 Clouds 19 1014 72 10000 6.2 170 18:59 22.06.2020
901 Clouds 17 1014 77 10000 5.7 190 18:39 22.06.2020
902 Rain 19 1014 77 10000 5.7 190 18:21 22.06.2020
903 Clouds 18 1014 77 10000 5.1 160 17:56 22.06.2020
904 Rain 19 1014 77 10000 6.7 190 17:38 22.06.2020
905 Rain 19 1014 77 10000 6.7 190 17:19 22.06.2020
906 Rain 18 1015 77 10000 6.7 190 16:55 22.06.2020
907 Clouds 19 1015 77 10000 6.2 190 16:37 22.06.2020
908 Clouds 19 1015 77 10000 6.2 190 16:18 22.06.2020
909 Clouds 19 1015 77 10000 6.7 210 15:42 22.06.2020
910 Clouds 17 1015 77 10000 6.7 210 15:23 22.06.2020
911 Clouds 17 1015 77 10000 7.2 210 14:54 22.06.2020
912 Clouds 17 1015 77 10000 6.7 210 14:36 22.06.2020
913 Clouds 17 1015 77 10000 6.7 210 14:18 22.06.2020
914 Clouds 18 1015 82 10000 7.7 210 13:39 22.06.2020
915 Clouds 18 1015 82 10000 7.7 210 13:21 22.06.2020
916 Clouds 17 1015 77 10000 8.2 210 12:57 22.06.2020
917 Clouds 17 1015 77 10000 7.7 190 12:39 22.06.2020
918 Clouds 17 1015 77 10000 7.7 190 12:39 22.06.2020
919 Clouds 16 1015 77 10000 7.7 190 12:21 22.06.2020
920 Clouds 15 1015 82 10000 8.2 200 11:37 22.06.2020
921 Clouds 15 1015 82 10000 8.2 200 11:19 22.06.2020
922 Clouds 15 1015 82 10000 7.2 190 10:56 22.06.2020
923 Clouds 15 1015 82 10000 5.1 180 10:37 22.06.2020
924 Clouds 15 1015 82 10000 5.1 180 10:37 22.06.2020
925 Clouds 15 1015 82 10000 5.1 180 10:18 22.06.2020
926 Clouds 15 1015 76 10000 5.1 180 09:56 22.06.2020
927 Clouds 14 1015 82 10000 4.6 180 09:38 22.06.2020
928 Clouds 13 1015 82 10000 4.6 180 09:18 22.06.2020
929 Rain 13 1015 76 10000 5.1 190 08:54 22.06.2020
930 Rain 13 1015 76 10000 5.1 190 08:36 22.06.2020
931 Rain 13 1015 87 10000 4.6 140 08:18 22.06.2020
932 Rain 12 1016 87 10000 5.7 150 07:44 22.06.2020
933 Rain 13 1016 71 10000 5.1 170 07:23 22.06.2020
934 Clouds 13 1016 66 10000 4.1 140 06:38 22.06.2020
935 Clouds 13 1016 66 10000 4.1 140 06:19 22.06.2020
936 Clouds 12 1017 71 10000 4.6 180 05:41 22.06.2020
937 Clouds 10 1018 81 10000 2.6 200 02:59 22.06.2020
938 Clouds 11 1018 66 10000 2.1 200 01:38 22.06.2020
939 Clouds 12 1018 62 10000 2.6 230 00:44 22.06.2020
940 Clouds 12 1018 62 10000 2.6 230 00:25 22.06.2020
941 Clouds 13 1018 58 10000 2.6 240 23:55 21.06.2020
942 Clouds 13 1017 54 10000 2.6 240 23:36 21.06.2020
943 Clouds 14 1017 51 10000 3.6 250 23:18 21.06.2020
944 Clouds 14 1017 51 10000 3.6 250 22:55 21.06.2020
945 Clouds 15 1016 51 10000 4.6 250 22:36 21.06.2020
946 Clouds 15 1016 48 10000 4.1 250 22:18 21.06.2020
947 Clouds 16 1016 48 10000 4.1 250 21:54 21.06.2020
948 Clouds 16 1016 48 10000 5.7 250 21:36 21.06.2020
949 Clouds 16 1015 45 10000 6.2 260 21:18 21.06.2020
950 Clouds 17 1015 42 10000 7.7 270 20:39 21.06.2020
951 Clouds 17 1015 42 10000 7.7 270 20:19 21.06.2020
952 Clouds 17 1014 48 10000 6.7 260 19:57 21.06.2020
953 Clouds 18 1014 42 10000 6.2 240 19:39 21.06.2020
954 Clouds 18 1014 42 10000 6.2 240 19:20 21.06.2020
955 Clouds 18 1014 42 10000 6.7 250 18:55 21.06.2020
956 Clouds 18 1013 42 10000 8.2 260 18:37 21.06.2020
957 Clouds 18 1013 42 10000 8.2 260 18:37 21.06.2020
958 Clouds 18 1013 45 10000 7.2 250 18:19 21.06.2020
959 Clouds 18 1013 42 10000 8.2 260 18:19 21.06.2020
960 Rain 18 1013 59 10000 7.2 250 17:40 21.06.2020
961 Rain 17 1013 59 10000 7.2 250 17:21 21.06.2020
962 Clouds 18 1012 52 10000 6.2 260 16:57 21.06.2020
963 Clouds 17 1012 51 10000 6.2 230 16:38 21.06.2020
964 Clouds 17 1012 51 10000 6.2 230 16:20 21.06.2020
965 Rain 17 1011 52 10000 6.7 250 15:39 21.06.2020
966 Rain 18 1011 52 10000 6.7 250 15:21 21.06.2020
967 Clouds 18 1011 59 10000 6.7 260 14:55 21.06.2020
968 Rain 17 1010 67 10000 6.2 260 14:36 21.06.2020
969 Rain 16 1010 67 10000 7.7 250 14:18 21.06.2020
970 Rain 16 1009 63 10000 6.2 240 13:42 21.06.2020
971 Rain 16 1009 63 10000 6.2 240 13:42 21.06.2020
972 Rain 16 1009 63 10000 6.2 240 13:23 21.06.2020
973 Rain 16 1009 67 10000 6.2 250 12:58 21.06.2020
974 Rain 16 1009 67 10000 6.2 250 12:58 21.06.2020
975 Rain 16 1009 67 10000 6.2 250 12:58 21.06.2020
976 Rain 16 1009 72 10000 6.2 240 12:39 21.06.2020
977 Rain 16 1009 72 10000 6.2 240 12:21 21.06.2020
978 Clouds 15 1008 82 10000 5.7 240 11:42 21.06.2020
979 Clouds 15 1008 82 10000 5.7 240 11:24 21.06.2020
980 Clouds 14 1008 87 10000 5.1 220 10:58 21.06.2020
981 Rain 14 1008 87 10000 5.7 220 10:39 21.06.2020
982 Rain 14 1008 87 10000 5.7 220 10:21 21.06.2020
983 Rain 14 1007 87 7000 5.1 220 09:44 21.06.2020
984 Rain 14 1007 87 7000 5.1 220 09:24 21.06.2020
985 Clouds 14 1006 76 10000 5.1 210 08:59 21.06.2020
986 Clouds 13 1006 82 10000 5.1 210 08:41 21.06.2020
987 Clouds 13 1006 82 10000 5.1 210 08:20 21.06.2020
988 Clouds 13 1006 82 10000 4.6 210 07:58 21.06.2020
989 Clouds 13 1005 82 10000 5.1 210 07:39 21.06.2020
990 Clouds 12 1005 87 10000 4.6 210 07:18 21.06.2020
991 Clouds 12 1005 81 10000 4.1 210 06:45 21.06.2020
992 Clouds 12 1005 87 10000 4.1 190 05:57 21.06.2020
993 Clouds 13 1004 87 10000 3.6 240 04:45 21.06.2020
994 Rain 14 1004 93 8000 2.6 210 03:20 21.06.2020
995 Rain 14 1004 93 10000 7.7 160 02:38 21.06.2020
996 Rain 14 1004 93 10000 8.2 150 01:47 21.06.2020
997 Rain 14 1004 93 10000 8.2 150 01:20 21.06.2020
998 Rain 14 1006 93 10000 8.7 150 00:46 21.06.2020
999 Rain 13 1006 93 10000 8.7 150 00:26 21.06.2020
1000 Rain 13 1006 93 10000 8.7 160 23:46 20.06.2020
1001 Rain 13 1006 93 10000 8.7 160 23:23 20.06.2020
1002 Rain 14 1007 82 10000 9.3 160 22:59 20.06.2020
1003 Rain 14 1007 82 10000 8.7 170 22:41 20.06.2020
1004 Rain 14 1008 76 10000 8.7 150 22:21 20.06.2020
1005 Rain 14 1008 76 10000 8.7 150 21:58 20.06.2020
1006 Clouds 14 1008 76 10000 8.2 160 21:40 20.06.2020
1007 Rain 14 1009 76 10000 8.2 160 21:21 20.06.2020
1008 Rain 14 1009 76 10000 8.2 160 20:59 20.06.2020
1009 Rain 14 1009 76 10000 8.7 160 20:41 20.06.2020
1010 Rain 14 1009 76 10000 8.7 160 20:21 20.06.2020
1011 Rain 15 1009 76 10000 7.2 160 19:59 20.06.2020
1012 Clouds 15 1010 72 10000 8.2 160 19:40 20.06.2020
1013 Clouds 15 1010 72 10000 8.2 160 19:20 20.06.2020
1014 Clouds 15 1011 72 10000 6.7 170 18:43 20.06.2020
1015 Clouds 16 1011 72 10000 6.7 170 18:21 20.06.2020
1016 Clouds 16 1011 63 10000 8.7 170 17:58 20.06.2020
1017 Clouds 17 1011 63 10000 8.2 170 17:39 20.06.2020
1018 Clouds 17 1011 63 10000 8.2 170 17:20 20.06.2020
1019 Clouds 17 1012 59 10000 5.7 160 16:55 20.06.2020
1020 Clouds 18 1012 55 10000 6.2 140 16:37 20.06.2020
1021 Clouds 18 1012 55 10000 6.2 140 16:18 20.06.2020
1022 Clouds 19 1012 52 10000 6.7 150 15:41 20.06.2020
1023 Clouds 19 1013 52 10000 6.2 150 15:18 20.06.2020
1024 Clouds 19 1013 48 10000 7.7 160 14:43 20.06.2020
1025 Clouds 19 1013 48 10000 7.7 160 14:21 20.06.2020
1026 Clouds 18 1013 55 10000 6.2 140 13:46 20.06.2020
1027 Clouds 18 1013 55 10000 4.1 190 13:27 20.06.2020
1028 Clouds 17 1013 59 10000 3.1 190 12:59 20.06.2020
1029 Clouds 17 1014 59 10000 3.1 170 12:40 20.06.2020
1030 Clouds 16 1014 67 10000 3.6 170 12:20 20.06.2020
1031 Clouds 16 1014 67 10000 3.6 170 11:55 20.06.2020
1032 Clouds 16 1014 62 10000 4.6 150 11:37 20.06.2020
1033 Clouds 16 1014 62 10000 4.6 150 11:19 20.06.2020
1034 Clouds 16 1014 72 10000 4.1 140 10:46 20.06.2020
1035 Clouds 15 1014 72 10000 4.1 140 10:22 20.06.2020
1036 Clouds 15 1014 72 10000 3.6 130 09:55 20.06.2020
1037 Clouds 15 1014 82 10000 2.6 130 09:36 20.06.2020
1038 Clouds 14 1014 82 10000 2.6 130 09:18 20.06.2020
1039 Clouds 12 1015 81 10000 1.5 0 08:45 20.06.2020
1040 Clouds 12 1015 81 10000 1.5 0 08:27 20.06.2020
1041 Clouds 11 1015 87 10000 1.5 0 07:51 20.06.2020
1042 Clouds 10 1014 87 10000 1 0 07:27 20.06.2020
1043 Clouds 10 1015 93 10000 1 200 06:54 20.06.2020
1044 Clouds 10 1015 93 10000 1 0 06:23 20.06.2020
1045 Clouds 10 1015 93 10000 1 0 06:23 20.06.2020
1046 Clouds 10 1015 93 10000 1 0 05:52 20.06.2020
1047 Clouds 10 1014 93 10000 1 0 04:52 20.06.2020
1048 Clouds 12 1014 76 10000 4.1 270 02:27 20.06.2020
1049 Clouds 13 1013 76 10000 4.6 270 01:48 20.06.2020
1050 Clouds 13 1013 76 10000 4.6 270 00:52 20.06.2020
1051 Clouds 14 1013 76 10000 3.6 260 00:21 20.06.2020
1052 Clouds 14 1013 76 10000 3.6 260 23:55 19.06.2020
1053 Clouds 14 1013 77 10000 1 0 23:36 19.06.2020
1054 Clouds 15 1012 77 10000 1 0 23:18 19.06.2020
1055 Clouds 15 1012 77 10000 1.5 0 22:40 19.06.2020
1056 Clouds 15 1012 77 10000 1.5 0 22:22 19.06.2020
1057 Clouds 15 1012 77 10000 1 0 21:58 19.06.2020
1058 Clouds 15 1012 77 10000 1 0 21:38 19.06.2020
1059 Clouds 16 1012 77 10000 1 0 21:18 19.06.2020
1060 Clouds 16 1012 77 10000 1 0 20:58 19.06.2020
1061 Clouds 16 1011 77 10000 2.1 250 20:40 19.06.2020
1062 Clouds 16 1011 77 10000 2.1 250 20:20 19.06.2020
1063 Drizzle 16 1011 82 10000 2.1 250 19:57 19.06.2020
1064 Rain 16 1011 82 10000 2.1 250 19:38 19.06.2020
1065 Drizzle 15 1011 77 10000 3.1 260 19:19 19.06.2020
1066 Drizzle 15 1011 82 10000 3.1 250 18:41 19.06.2020
1067 Drizzle 15 1011 82 10000 3.1 250 18:21 19.06.2020
1068 Rain 15 1011 82 10000 5.1 280 17:58 19.06.2020
1069 Rain 15 1011 82 10000 5.7 270 17:38 19.06.2020
1070 Rain 14 1011 82 10000 5.7 270 17:20 19.06.2020
1071 Rain 14 1011 82 10000 5.7 270 17:20 19.06.2020
1072 Drizzle 14 1010 87 10000 6.2 270 16:41 19.06.2020
1073 Drizzle 14 1010 87 10000 6.2 270 16:23 19.06.2020
1074 Drizzle 14 1010 93 10000 8.2 270 15:59 19.06.2020
1075 Drizzle 12 1010 93 7000 6.2 260 15:40 19.06.2020
1076 Drizzle 12 1010 93 7000 6.2 260 15:20 19.06.2020
1077 Drizzle 12 1010 93 3000 5.7 250 14:56 19.06.2020
1078 Drizzle 12 1009 93 8000 5.7 260 14:37 19.06.2020
1079 Drizzle 11 1009 100 5000 5.1 250 14:18 19.06.2020
1080 Rain 12 1009 100 4500 5.1 250 13:42 19.06.2020
1081 Drizzle 11 1009 100 4500 5.1 250 13:24 19.06.2020
1082 Drizzle 11 1009 100 3500 5.1 240 12:47 19.06.2020
1083 Drizzle 11 1009 100 3500 5.1 240 12:22 19.06.2020
1084 Drizzle 11 1009 100 3800 4.6 250 11:57 19.06.2020
1085 Drizzle 11 1008 100 3800 4.1 250 11:38 19.06.2020
1086 Drizzle 11 1008 100 3800 4.1 250 11:18 19.06.2020
1087 Drizzle 11 1008 100 3500 3.6 250 10:45 19.06.2020
1088 Drizzle 11 1008 100 3500 3.6 250 10:26 19.06.2020
1089 Rain 11 1008 100 3500 3.1 250 09:58 19.06.2020
1090 Rain 11 1008 93 5000 3.6 250 09:40 19.06.2020
1091 Rain 11 1008 100 3000 3.6 250 09:20 19.06.2020
1092 Rain 11 1008 100 3000 3.6 240 08:43 19.06.2020
1093 Rain 11 1008 100 3000 3.6 240 08:24 19.06.2020
1094 Rain 11 1008 93 5000 3.1 250 07:56 19.06.2020
1095 Rain 11 1008 93 3500 3.6 240 07:37 19.06.2020
1096 Rain 11 1008 100 3000 3.6 270 07:18 19.06.2020
1097 Rain 12 1007 100 6000 1 0 06:23 19.06.2020
1098 Rain 12 1008 100 3500 1.5 10 05:43 19.06.2020
1099 Rain 13 1008 100 3500 2.1 350 04:23 19.06.2020
1100 Rain 13 1008 100 3500 3.6 300 02:50 19.06.2020
1101 Rain 13 1009 93 7000 2.1 350 00:49 19.06.2020
1102 Rain 13 1009 93 7000 2.1 350 00:22 19.06.2020
1103 Rain 13 1010 93 7000 1.5 0 23:59 18.06.2020
1104 Rain 13 1009 93 5000 2.1 10 23:41 18.06.2020
1105 Rain 14 1009 93 5000 2.1 10 23:23 18.06.2020
1106 Rain 14 1009 100 9000 2.1 10 22:58 18.06.2020
1107 Rain 14 1009 93 10000 2.1 350 22:37 18.06.2020
1108 Rain 14 1009 93 10000 2.6 360 22:18 18.06.2020
1109 Rain 14 1009 93 10000 2.6 350 21:39 18.06.2020
1110 Rain 14 1009 93 10000 2.6 350 21:20 18.06.2020
1111 Rain 15 1010 82 10000 3.6 10 20:56 18.06.2020
1112 Rain 15 1010 82 10000 3.6 10 20:38 18.06.2020
1113 Rain 15 1010 82 10000 3.1 20 20:18 18.06.2020
1114 Rain 15 1010 87 9000 3.6 40 19:42 18.06.2020
1115 Rain 15 1010 87 9000 3.6 40 19:21 18.06.2020
1116 Rain 15 1010 93 6000 3.6 40 18:57 18.06.2020
1117 Rain 16 1010 93 3000 2.1 30 18:37 18.06.2020
1118 Rain 16 1010 93 3000 2.1 30 18:18 18.06.2020
1119 Rain 16 1011 87 4500 3.6 60 17:43 18.06.2020
1120 Rain 16 1011 87 4500 3.6 60 17:25 18.06.2020
1121 Rain 16 1011 87 4500 2.6 60 16:55 18.06.2020
1122 Rain 16 1011 93 4000 2.6 30 16:37 18.06.2020
1123 Rain 16 1011 93 3000 2.6 40 16:18 18.06.2020
1124 Rain 16 1011 93 3000 3.1 30 15:40 18.06.2020
1125 Rain 16 1011 93 3000 3.1 30 15:21 18.06.2020
1126 Rain 16 1011 93 3000 3.1 30 15:21 18.06.2020
1127 Mist 15 1012 93 4000 3.6 20 14:58 18.06.2020
1128 Mist 15 1012 93 3500 3.6 10 14:39 18.06.2020
1129 Mist 15 1012 93 3500 3.6 10 14:21 18.06.2020
1130 Rain 15 1012 93 4000 4.6 30 13:55 18.06.2020
1131 Mist 15 1012 100 4000 5.1 20 13:37 18.06.2020
1132 Mist 15 1012 100 4000 5.1 20 13:18 18.06.2020
1133 Mist 15 1012 100 2000 5.1 10 12:54 18.06.2020
1134 Clouds 15 1012 93 8000 4.1 20 12:36 18.06.2020
1135 Clouds 15 1012 93 8000 4.1 20 12:18 18.06.2020
1136 Mist 15 1012 100 1500 3.1 10 11:44 18.06.2020
1137 Mist 15 1012 100 1500 3.1 10 11:21 18.06.2020
1138 Clouds 15 1012 93 8000 4.1 20 10:41 18.06.2020
1139 Clouds 15 1012 93 8000 4.1 20 10:19 18.06.2020
1140 Clouds 15 1012 93 8000 3.6 20 09:57 18.06.2020
1141 Fog 14 1012 100 5000 2.6 360 09:38 18.06.2020
1142 Fog 14 1012 100 5000 2.6 360 09:19 18.06.2020
1143 Fog 14 1012 93 4000 2.1 330 08:40 18.06.2020
1144 Fog 14 1012 93 4000 2.1 330 08:21 18.06.2020
1145 Fog 14 1012 100 4000 1.5 0 07:46 18.06.2020
1146 Fog 13 1012 100 4000 1.5 0 07:27 18.06.2020
1147 Fog 13 1012 100 4000 1.5 0 06:55 18.06.2020
1148 Fog 14 1012 100 5000 2.6 280 05:58 18.06.2020
1149 Clouds 13 1013 93 6000 2.1 270 04:24 18.06.2020
1150 Clouds 13 1013 93 10000 1 10 02:51 18.06.2020
1151 Clouds 14 1014 87 10000 1.5 0 01:28 18.06.2020
1152 Clouds 14 1014 87 10000 1.5 0 00:55 18.06.2020
1153 Clouds 14 1014 100 10000 0.5 0 00:33 18.06.2020
1154 Clouds 14 1014 93 10000 0.5 0 23:58 17.06.2020
1155 Clouds 14 1014 87 10000 1 0 23:39 17.06.2020
1156 Clouds 15 1014 87 10000 1 0 23:20 17.06.2020
1157 Clouds 15 1014 82 10000 1 100 22:57 17.06.2020
1158 Clouds 16 1013 82 10000 0.5 150 22:38 17.06.2020
1159 Clouds 16 1013 82 10000 0.5 360 22:20 17.06.2020
1160 Clouds 16 1013 77 10000 1.5 90 21:42 17.06.2020
1161 Clouds 16 1013 77 10000 1.5 90 21:24 17.06.2020
1162 Clouds 16 1013 77 10000 1.5 0 21:00 17.06.2020
1163 Clouds 16 1013 77 10000 1.5 0 20:59 17.06.2020
1164 Clouds 16 1013 77 10000 0.5 360 20:38 17.06.2020
1165 Clouds 16 1013 77 10000 0.5 360 20:19 17.06.2020
1166 Clouds 16 1014 82 10000 1.5 0 19:46 17.06.2020
1167 Clouds 16 1014 82 10000 1 0 19:23 17.06.2020
1168 Clouds 15 1014 82 10000 1 0 18:58 17.06.2020
1169 Clouds 15 1014 82 10000 2.1 90 18:40 17.06.2020
1170 Clouds 15 1014 82 10000 2.1 90 18:40 17.06.2020
1171 Clouds 15 1014 82 10000 2.1 90 18:21 17.06.2020
1172 Clouds 15 1014 82 10000 2.1 350 17:43 17.06.2020
1173 Clouds 15 1014 82 10000 2.1 350 17:22 17.06.2020
1174 Clouds 15 1014 87 10000 2.6 340 16:57 17.06.2020
1175 Clouds 15 1014 87 10000 2.6 10 16:38 17.06.2020
1176 Clouds 15 1014 87 10000 2.6 10 16:20 17.06.2020
1177 Clouds 15 1014 87 10000 2.6 10 15:56 17.06.2020
1178 Clouds 15 1014 87 10000 2.6 340 15:38 17.06.2020
1179 Clouds 15 1014 87 10000 2.6 350 15:18 17.06.2020
1180 Clouds 15 1014 87 10000 2.6 350 14:55 17.06.2020
1181 Clouds 15 1014 87 10000 3.1 340 14:36 17.06.2020
1182 Clouds 15 1014 87 10000 3.1 360 14:18 17.06.2020
1183 Clouds 15 1014 82 10000 2.6 340 13:41 17.06.2020
1184 Clouds 15 1014 82 10000 2.6 340 13:21 17.06.2020
1185 Clouds 15 1014 87 10000 3.6 350 12:56 17.06.2020
1186 Clouds 14 1014 93 10000 4.1 10 12:37 17.06.2020
1187 Clouds 14 1014 93 10000 4.1 10 12:19 17.06.2020
1188 Clouds 14 1014 93 10000 4.1 10 12:19 17.06.2020
1189 Clouds 14 1014 93 10000 3.1 350 11:44 17.06.2020
1190 Rain 13 1014 100 10000 4.1 340 11:24 17.06.2020
1191 Rain 13 1014 93 8000 4.1 330 10:55 17.06.2020
1192 Rain 13 1014 93 8000 4.1 330 10:36 17.06.2020
1193 Rain 13 1014 100 8000 3.1 320 10:18 17.06.2020
1194 Rain 13 1014 100 8000 3.1 320 09:54 17.06.2020
1195 Rain 13 1014 100 8000 3.1 320 09:54 17.06.2020
1196 Rain 13 1014 93 8000 3.6 320 09:36 17.06.2020
1197 Rain 13 1014 93 8000 3.6 320 09:36 17.06.2020
1198 Rain 13 1014 100 8000 4.1 320 09:18 17.06.2020
1199 Rain 12 1014 100 5000 4.1 330 08:41 17.06.2020
1200 Rain 13 1014 100 5000 4.1 330 08:19 17.06.2020
1201 Rain 13 1014 100 5000 4.1 330 08:19 17.06.2020
1202 Rain 13 1014 93 2800 3.6 300 07:43 17.06.2020
1203 Rain 13 1014 93 2800 3.6 300 07:43 17.06.2020
1204 Rain 13 1014 93 2800 3.6 300 07:23 17.06.2020
1205 Rain 13 1014 93 3000 1.5 340 06:57 17.06.2020
1206 Rain 13 1014 93 8000 2.1 90 06:38 17.06.2020
1207 Rain 13 1014 93 8000 2.1 90 06:20 17.06.2020
1208 Rain 14 1014 93 6000 2.1 300 05:31 17.06.2020
1209 Rain 14 1014 87 10000 3.1 350 04:18 17.06.2020
1210 Rain 14 1014 93 10000 3.1 290 01:55 17.06.2020
1211 Rain 15 1015 93 10000 2.1 290 00:48 17.06.2020
1212 Clouds 15 1015 93 10000 2.1 290 00:25 17.06.2020
1213 Rain 15 1015 87 10000 0.5 360 23:57 16.06.2020
1214 Rain 15 1015 93 10000 1.5 100 23:38 16.06.2020
1215 Rain 15 1015 93 10000 1.5 100 23:20 16.06.2020
1216 Rain 16 1014 87 10000 1 0 22:56 16.06.2020
1217 Clouds 16 1014 87 10000 1 0 22:37 16.06.2020
1218 Clouds 16 1014 77 10000 1.5 0 22:19 16.06.2020
1219 Clouds 16 1014 77 10000 1.5 0 21:54 16.06.2020
1220 Clouds 16 1014 82 10000 2.6 80 21:36 16.06.2020
1221 Clouds 16 1014 82 10000 2.6 80 21:18 16.06.2020
1222 Clouds 18 1014 72 10000 2.1 100 20:42 16.06.2020
1223 Clouds 19 1014 60 10000 3.6 100 20:19 16.06.2020
1224 Clouds 19 1014 60 10000 3.6 100 19:58 16.06.2020
1225 Clouds 20 1014 64 10000 2.1 30 19:39 16.06.2020
1226 Clouds 20 1014 64 10000 2.1 30 19:21 16.06.2020
1227 Clouds 20 1014 60 10000 1.5 0 18:55 16.06.2020
1228 Clouds 20 1014 64 10000 1.5 0 18:37 16.06.2020
1229 Clouds 20 1014 68 10000 2.1 10 18:19 16.06.2020
1230 Clouds 19 1014 68 10000 2.1 10 17:55 16.06.2020
1231 Clouds 19 1015 72 10000 2.1 310 17:36 16.06.2020
1232 Clouds 19 1015 72 10000 2.1 310 17:18 16.06.2020
1233 Clouds 18 1015 77 10000 1.5 0 16:42 16.06.2020
1234 Clouds 18 1015 77 10000 1.5 0 16:21 16.06.2020
1235 Clouds 17 1015 82 10000 1.5 0 15:58 16.06.2020
1236 Clouds 17 1015 87 10000 1.5 0 15:40 16.06.2020
1237 Clouds 17 1015 87 10000 1.5 0 15:22 16.06.2020
1238 Clouds 16 1015 87 10000 2.1 10 14:59 16.06.2020
1239 Clouds 16 1015 93 8000 1 0 14:41 16.06.2020
1240 Clouds 15 1015 93 8000 1 0 14:22 16.06.2020
1241 Drizzle 14 1015 93 6000 3.6 80 13:48 16.06.2020
1242 Drizzle 14 1015 93 6000 3.6 80 13:26 16.06.2020
1243 Drizzle 14 1015 93 6000 3.1 40 12:57 16.06.2020
1244 Drizzle 14 1015 100 6000 2.1 60 12:38 16.06.2020
1245 Drizzle 14 1015 100 5000 2.6 30 12:20 16.06.2020
1246 Drizzle 14 1015 100 5000 2.6 30 11:55 16.06.2020
1247 Drizzle 13 1015 93 5000 3.1 20 11:37 16.06.2020
1248 Drizzle 14 1015 93 5000 3.1 20 11:37 16.06.2020
1249 Drizzle 13 1015 100 3000 3.1 10 11:19 16.06.2020
1250 Rain 13 1016 100 4000 3.1 10 10:42 16.06.2020
1251 Rain 13 1016 100 4000 3.1 10 10:21 16.06.2020
1252 Rain 13 1015 100 2500 2.6 360 09:57 16.06.2020
1253 Rain 13 1015 100 800 2.1 330 09:39 16.06.2020
1254 Rain 13 1015 100 800 2.1 330 09:21 16.06.2020
1255 Mist 13 1015 100 2000 3.1 330 08:43 16.06.2020
1256 Mist 12 1015 100 2000 3.1 330 08:25 16.06.2020
1257 Fog 12 1014 93 900 3.1 300 07:47 16.06.2020
1258 Fog 12 1014 93 900 3.1 300 07:26 16.06.2020
1259 Clouds 11 1014 100 8000 2.6 300 06:48 16.06.2020
1260 Clouds 11 1014 100 8000 2.6 300 06:26 16.06.2020
1261 Clouds 11 1014 100 8000 2.6 300 06:26 16.06.2020
1262 Clouds 12 1014 87 10000 1.5 300 05:32 16.06.2020
1263 Clouds 12 1015 100 10000 2.1 280 04:28 16.06.2020
1264 Clouds 14 1015 93 10000 2.1 310 02:56 16.06.2020
1265 Clouds 14 1015 87 10000 1.5 310 01:52 16.06.2020
1266 Clouds 14 1015 82 10000 1 0 01:20 16.06.2020
1267 Clouds 15 1015 77 10000 1 0 00:40 16.06.2020
1268 Clouds 15 1015 77 10000 1 0 00:19 16.06.2020
1269 Rain 16 1015 68 10000 2.1 110 23:41 15.06.2020
1270 Clouds 17 1015 59 10000 2.1 130 23:22 15.06.2020
1271 Clouds 17 1015 59 10000 2.1 130 22:55 15.06.2020
1272 Clouds 18 1015 56 10000 2.1 140 22:36 15.06.2020
1273 Clouds 19 1015 56 10000 2.1 140 22:18 15.06.2020
1274 Clouds 20 1015 52 10000 2.6 120 21:55 15.06.2020
1275 Clouds 20 1015 49 10000 3.6 130 21:36 15.06.2020
1276 Clouds 20 1015 49 10000 3.1 120 21:18 15.06.2020
1277 Clouds 20 1015 49 10000 3.6 130 21:18 15.06.2020
1278 Clouds 20 1015 49 10000 3.1 120 20:54 15.06.2020
1279 Clouds 21 1015 46 10000 4.1 110 20:36 15.06.2020
1280 Clouds 21 1015 46 10000 4.1 110 20:36 15.06.2020
1281 Clouds 21 1015 46 10000 4.1 120 20:18 15.06.2020
1282 Clouds 21 1015 52 10000 3.6 140 19:41 15.06.2020
1283 Clouds 21 1015 52 10000 3.6 140 19:22 15.06.2020
1284 Clouds 21 1015 55 10000 4.6 130 18:58 15.06.2020
1285 Clouds 21 1015 56 10000 4.1 130 18:40 15.06.2020
1286 Clouds 21 1015 56 10000 4.1 130 18:21 15.06.2020
1287 Clouds 21 1015 52 10000 4.6 120 17:58 15.06.2020
1288 Clouds 21 1015 52 10000 3.6 140 17:40 15.06.2020
1289 Clouds 22 1015 52 10000 3.6 140 17:19 15.06.2020
1290 Clouds 22 1015 52 10000 3.6 130 16:56 15.06.2020
1291 Clouds 22 1015 52 10000 4.1 110 16:38 15.06.2020
1292 Clouds 21 1016 56 10000 4.6 120 16:18 15.06.2020
1293 Clouds 21 1016 60 10000 4.1 120 15:41 15.06.2020
1294 Clouds 21 1016 60 10000 4.1 120 15:20 15.06.2020
1295 Clouds 21 1016 60 10000 4.1 120 15:20 15.06.2020
1296 Clouds 21 1016 56 10000 5.1 110 14:57 15.06.2020
1297 Clouds 21 1016 56 10000 3.1 110 14:39 15.06.2020
1298 Clouds 21 1016 56 10000 2.6 130 14:19 15.06.2020
1299 Clouds 21 1016 56 10000 2.6 130 13:56 15.06.2020
1300 Clouds 20 1016 56 10000 3.1 110 13:37 15.06.2020
1301 Clouds 20 1016 56 10000 3.1 110 13:37 15.06.2020
1302 Clouds 20 1016 60 10000 2.1 20 13:18 15.06.2020
1303 Clouds 20 1016 56 10000 1 0 12:42 15.06.2020
1304 Clouds 20 1016 56 10000 1 0 12:22 15.06.2020
1305 Clouds 19 1016 63 10000 1 0 11:47 15.06.2020
1306 Clouds 19 1016 63 10000 1 0 11:27 15.06.2020
1307 Clouds 18 1016 72 10000 1.5 0 10:59 15.06.2020
1308 Clouds 18 1016 72 10000 1 0 10:41 15.06.2020
1309 Clouds 18 1016 72 10000 1 0 10:41 15.06.2020
1310 Clouds 17 1016 77 10000 1 0 10:21 15.06.2020
1311 Clouds 16 1016 87 10000 1 0 09:43 15.06.2020
1312 Clouds 15 1016 87 10000 1 0 09:23 15.06.2020
1313 Clouds 14 1016 100 10000 0.5 360 08:47 15.06.2020
1314 Clouds 14 1016 100 10000 0.5 360 08:27 15.06.2020
1315 Clouds 11 1016 100 10000 1 0 07:57 15.06.2020
1316 Clouds 11 1015 100 10000 1.5 270 07:37 15.06.2020
1317 Clouds 11 1015 100 10000 1.5 270 07:37 15.06.2020
1318 Fog 9 1015 100 10000 2.1 260 07:19 15.06.2020
1319 Clouds 10 1015 93 10000 1 0 06:28 15.06.2020
1320 Clouds 10 1015 100 10000 2.1 270 05:51 15.06.2020
1321 Clouds 10 1015 100 10000 2.1 270 05:29 15.06.2020
1322 Clouds 11 1015 93 10000 1.5 280 04:22 15.06.2020
1323 Clouds 11 1015 100 10000 2.1 330 03:48 15.06.2020
1324 Clear 12 1015 100 10000 1.5 280 02:57 15.06.2020
1325 Clouds 12 1015 87 10000 0.5 0 02:29 15.06.2020
1326 Clouds 13 1015 93 10000 0.5 360 01:47 15.06.2020
1327 Clouds 13 1015 93 10000 0.5 360 01:24 15.06.2020
1328 Clouds 14 1015 93 10000 2.1 100 00:45 15.06.2020
1329 Clouds 14 1015 93 10000 2.1 100 00:23 15.06.2020
1330 Clouds 14 1015 93 10000 1.5 0 23:57 14.06.2020
1331 Clouds 14 1015 87 10000 2.6 100 23:39 14.06.2020
1332 Clouds 14 1015 87 10000 2.6 100 23:21 14.06.2020
1333 Clouds 14 1015 87 10000 1.5 0 22:56 14.06.2020
1334 Clouds 14 1015 87 10000 1.5 0 22:56 14.06.2020
1335 Clouds 15 1015 82 10000 2.6 90 22:37 14.06.2020
1336 Clouds 16 1014 82 10000 3.1 60 22:18 14.06.2020
1337 Clouds 16 1014 82 10000 3.1 60 21:55 14.06.2020
1338 Clouds 16 1014 82 10000 3.1 70 21:37 14.06.2020
1339 Clouds 17 1014 82 10000 3.1 70 21:18 14.06.2020
1340 Clouds 17 1014 72 10000 2.1 90 21:18 14.06.2020
1341 Clouds 17 1014 72 10000 2.1 90 20:55 14.06.2020
1342 Clouds 17 1014 82 10000 1 0 20:36 14.06.2020
1343 Rain 16 1014 82 9000 2.6 50 20:18 14.06.2020
1344 Rain 17 1014 82 9000 2.6 50 19:55 14.06.2020
1345 Rain 16 1014 82 10000 3.6 60 19:36 14.06.2020
1346 Rain 16 1014 77 10000 3.1 60 19:18 14.06.2020
1347 Rain 16 1014 77 10000 3.1 60 18:55 14.06.2020
1348 Rain 16 1014 82 10000 2.1 60 18:37 14.06.2020
1349 Rain 15 1014 82 10000 2.1 60 18:18 14.06.2020
1350 Clouds 16 1014 87 10000 3.6 60 17:40 14.06.2020
1351 Rain 16 1014 87 10000 3.6 60 17:20 14.06.2020
1352 Rain 16 1014 93 10000 3.1 60 16:58 14.06.2020
1353 Rain 16 1015 87 9000 3.6 80 16:39 14.06.2020
1354 Rain 17 1015 72 10000 5.1 60 16:19 14.06.2020
1355 Clouds 18 1015 72 10000 5.1 60 15:56 14.06.2020
1356 Clouds 19 1014 64 10000 3.6 80 15:37 14.06.2020
1357 Clouds 18 1014 59 10000 2.6 80 15:18 14.06.2020
1358 Clouds 19 1014 63 10000 3.1 60 14:41 14.06.2020
1359 Clouds 18 1014 63 10000 3.1 60 14:23 14.06.2020
1360 Clouds 18 1014 68 10000 4.1 70 13:59 14.06.2020
1361 Clouds 18 1014 72 10000 3.6 80 13:40 14.06.2020
1362 Clouds 17 1014 68 10000 3.1 70 13:22 14.06.2020
1363 Clouds 17 1014 68 10000 3.1 70 12:57 14.06.2020
1364 Clouds 17 1014 72 10000 3.1 100 12:39 14.06.2020
1365 Clouds 17 1014 72 10000 3.1 100 12:21 14.06.2020
1366 Clouds 16 1014 82 10000 4.1 90 11:57 14.06.2020
1367 Clouds 16 1014 82 10000 4.1 50 11:38 14.06.2020
1368 Clouds 16 1014 82 10000 4.1 50 11:20 14.06.2020
1369 Clouds 15 1013 87 8000 4.6 50 10:42 14.06.2020
1370 Clouds 14 1013 93 7000 4.6 60 10:20 14.06.2020
1371 Clouds 14 1013 93 7000 4.6 60 09:56 14.06.2020
1372 Clouds 14 1013 100 6000 5.1 50 09:38 14.06.2020
1373 Clouds 14 1013 100 6000 5.1 50 09:20 14.06.2020
1374 Rain 13 1013 93 6000 6.7 50 08:41 14.06.2020
1375 Rain 13 1013 93 6000 6.7 50 08:19 14.06.2020
1376 Clouds 13 1012 93 10000 4.1 40 07:52 14.06.2020
1377 Clouds 12 1012 100 10000 3.6 20 07:34 14.06.2020
1378 Clouds 12 1012 100 8000 3.6 20 06:39 14.06.2020
1379 Clouds 12 1011 100 10000 2.6 350 05:47 14.06.2020
1380 Clouds 12 1011 100 10000 2.6 10 05:18 14.06.2020
1381 Clouds 12 1011 93 10000 3.6 30 04:35 14.06.2020
1382 Clouds 13 1012 93 10000 3.1 40 03:36 14.06.2020
1383 Rain 14 1012 93 10000 4.6 40 02:31 14.06.2020
1384 Clouds 13 1012 93 10000 4.6 30 01:47 14.06.2020
1385 Clouds 13 1012 93 10000 4.6 30 01:24 14.06.2020
1386 Clouds 13 1012 93 10000 3.1 360 00:40 14.06.2020
1387 Clouds 13 1012 93 10000 3.1 360 00:19 14.06.2020
1388 Clouds 13 1011 87 10000 2.6 360 23:44 13.06.2020
1389 Clouds 14 1011 87 10000 3.1 10 23:24 13.06.2020
1390 Clouds 15 1011 87 10000 3.1 40 22:57 13.06.2020
1391 Clouds 15 1011 87 10000 3.1 40 22:37 13.06.2020
1392 Clouds 15 1011 87 10000 3.1 40 22:18 13.06.2020
1393 Clouds 16 1010 82 10000 4.1 40 21:56 13.06.2020
1394 Clouds 16 1010 82 10000 4.1 40 21:37 13.06.2020
1395 Clouds 16 1010 82 10000 4.6 30 21:19 13.06.2020
1396 Clouds 16 1010 82 10000 3.6 50 20:42 13.06.2020
1397 Clouds 16 1010 82 10000 3.6 50 20:42 13.06.2020
1398 Clouds 17 1010 82 10000 4.6 70 20:19 13.06.2020
1399 Clouds 17 1010 82 10000 4.6 70 19:57 13.06.2020
1400 Clouds 16 1010 82 10000 3.6 30 19:36 13.06.2020
1401 Clouds 16 1010 82 10000 4.6 60 19:18 13.06.2020
1402 Clouds 16 1010 82 10000 4.6 60 18:55 13.06.2020
1403 Clouds 16 1010 82 10000 5.7 70 18:37 13.06.2020
1404 Clouds 16 1010 82 10000 5.7 70 18:18 13.06.2020
1405 Clouds 16 1010 82 10000 4.6 70 17:42 13.06.2020
1406 Clouds 16 1010 82 10000 4.6 70 17:23 13.06.2020
1407 Clouds 15 1010 87 9000 5.1 80 16:58 13.06.2020
1408 Clouds 15 1010 87 9000 5.1 60 16:39 13.06.2020
1409 Clouds 15 1010 87 7000 4.1 50 16:19 13.06.2020
1410 Clouds 15 1010 87 7000 4.1 50 15:54 13.06.2020
1411 Mist 15 1010 93 5000 4.1 50 15:36 13.06.2020
1412 Mist 15 1009 87 5000 3.6 60 15:18 13.06.2020
1413 Clouds 14 1009 93 6000 3.1 60 14:41 13.06.2020
1414 Clouds 14 1009 93 7000 3.6 50 14:20 13.06.2020
1415 Clouds 14 1009 100 7000 3.6 50 13:44 13.06.2020
1416 Clouds 13 1009 100 7000 3.6 50 13:26 13.06.2020
1417 Clouds 13 1009 100 6000 4.1 60 12:55 13.06.2020
1418 Drizzle 13 1008 93 8000 3.6 60 12:37 13.06.2020
1419 Drizzle 13 1008 93 9000 4.6 60 12:19 13.06.2020
1420 Drizzle 12 1008 100 8000 3.1 40 11:40 13.06.2020
1421 Drizzle 12 1008 100 8000 3.1 40 11:19 13.06.2020
1422 Rain 12 1008 100 8000 3.6 30 10:58 13.06.2020
1423 Rain 12 1008 93 7000 4.1 40 10:40 13.06.2020
1424 Rain 12 1008 93 7000 4.1 40 10:22 13.06.2020
1425 Rain 12 1008 93 9000 4.1 40 09:52 13.06.2020
1426 Rain 12 1008 93 5000 4.1 40 09:32 13.06.2020
1427 Rain 12 1007 93 3000 4.6 30 08:56 13.06.2020
1428 Rain 12 1007 93 4000 5.1 50 08:37 13.06.2020
1429 Rain 12 1007 93 4000 5.1 50 08:19 13.06.2020
1430 Rain 12 1007 93 5000 5.1 50 07:42 13.06.2020
1431 Rain 12 1007 93 5000 5.1 50 07:24 13.06.2020
1432 Rain 11 1007 100 3000 4.6 40 06:44 13.06.2020
1433 Rain 11 1007 100 3000 4.6 40 06:25 13.06.2020
1434 Rain 11 1007 100 10000 6.2 40 05:28 13.06.2020
1435 Rain 11 1007 93 10000 6.2 40 04:35 13.06.2020
1436 Rain 12 1007 87 10000 6.7 40 03:33 13.06.2020
1437 Clouds 12 1007 93 10000 6.7 50 02:38 13.06.2020
1438 Clouds 12 1007 93 10000 6.7 40 01:48 13.06.2020
1439 Clouds 12 1007 93 10000 7.2 50 01:22 13.06.2020
1440 Clouds 12 1007 93 10000 6.7 40 00:48 13.06.2020
1441 Clouds 12 1007 93 10000 6.7 40 00:27 13.06.2020
1442 Clouds 12 1007 93 10000 6.7 40 23:57 12.06.2020
1443 Clouds 12 1008 89 10000 6.7 30 23:38 12.06.2020
1444 Rain 12 1007 89 10000 6.2 30 23:18 12.06.2020
1445 Clouds 12 1007 93 10000 6.2 30 22:41 12.06.2020
1446 Clouds 12 1007 93 10000 6.7 30 22:19 12.06.2020
1447 Clouds 12 1007 93 10000 6.7 30 21:54 12.06.2020
1448 Clouds 12 1007 93 10000 7.2 40 21:36 12.06.2020
1449 Rain 12 1008 93 10000 6.7 40 21:18 12.06.2020
1450 Rain 12 1008 93 10000 6.7 40 20:55 12.06.2020
1451 Rain 12 1008 93 9000 6.7 30 20:36 12.06.2020
1452 Rain 12 1008 87 10000 7.2 30 20:18 12.06.2020
1453 Rain 12 1008 87 10000 8.2 40 19:39 12.06.2020
1454 Rain 13 1008 87 10000 8.2 40 19:20 12.06.2020
1455 Rain 13 1008 82 10000 9.8 40 18:39 12.06.2020
1456 Clouds 13 1008 82 10000 8.7 40 18:19 12.06.2020
1457 Clouds 13 1008 82 10000 8.7 40 17:59 12.06.2020
1458 Clouds 13 1009 87 10000 9.3 40 17:39 12.06.2020
1459 Clouds 13 1009 87 10000 9.3 40 17:21 12.06.2020
1460 Rain 13 1009 87 10000 9.3 30 16:45 12.06.2020
1461 Clouds 12 1009 87 10000 8.2 30 16:21 12.06.2020
1462 Clouds 12 1010 93 10000 7.7 40 15:49 12.06.2020
1463 Clouds 12 1010 93 10000 7.7 40 15:27 12.06.2020
1464 Drizzle 12 1010 87 10000 9.3 40 14:58 12.06.2020
1465 Drizzle 12 1010 93 6000 9.3 40 14:39 12.06.2020
1466 Drizzle 12 1010 100 6000 7.7 30 14:21 12.06.2020
1467 Drizzle 12 1010 93 8000 8.2 40 13:42 12.06.2020
1468 Drizzle 12 1010 93 8000 8.2 40 13:22 12.06.2020
1469 Clouds 12 1011 93 10000 8.7 40 12:41 12.06.2020
1470 Clouds 12 1011 87 10000 8.7 40 12:20 12.06.2020
1471 Clouds 12 1011 87 10000 8.7 40 11:59 12.06.2020
1472 Clouds 12 1011 87 10000 8.7 40 11:40 12.06.2020
1473 Clouds 12 1011 87 10000 8.7 40 11:22 12.06.2020
1474 Drizzle 11 1011 93 9000 7.7 40 10:47 12.06.2020
1475 Drizzle 11 1012 93 9000 7.7 40 10:25 12.06.2020
1476 Drizzle 11 1012 93 8000 9.8 40 09:48 12.06.2020
1477 Drizzle 11 1012 93 8000 9.8 40 09:22 12.06.2020
1478 Clouds 11 1012 93 8000 8.7 40 08:46 12.06.2020
1479 Rain 11 1012 93 8000 8.7 40 08:25 12.06.2020
1480 Rain 11 1012 93 5000 8.2 40 07:56 12.06.2020
1481 Rain 11 1012 87 10000 8.2 40 07:38 12.06.2020
1482 Clouds 11 1012 87 10000 8.2 40 07:19 12.06.2020
1483 Clouds 11 1013 87 10000 9.3 40 06:31 12.06.2020
1484 Rain 11 1013 87 10000 7.7 40 05:57 12.06.2020
1485 Rain 10 1014 93 10000 8.2 30 05:38 12.06.2020
1486 Rain 10 1014 93 10000 8.2 30 05:19 12.06.2020
1487 Rain 11 1015 87 10000 8.2 20 03:43 12.06.2020
1488 Rain 11 1016 87 10000 6.7 10 01:58 12.06.2020
1489 Rain 11 1017 87 10000 6.2 10 01:32 12.06.2020
1490 Rain 11 1018 87 10000 6.7 30 00:55 12.06.2020
1491 Rain 11 1018 87 10000 6.2 30 00:37 12.06.2020
1492 Rain 11 1019 87 10000 5.7 30 00:18 12.06.2020
1493 Rain 12 1019 81 10000 6.2 40 23:41 11.06.2020
1494 Rain 12 1019 81 10000 6.2 40 23:22 11.06.2020
1495 Clouds 12 1019 76 10000 6.2 40 22:59 11.06.2020
1496 Clouds 12 1019 76 10000 7.7 40 22:39 11.06.2020
1497 Clouds 12 1019 76 10000 7.7 40 22:20 11.06.2020
1498 Clouds 12 1019 71 10000 6.7 30 21:56 11.06.2020
1499 Clouds 12 1019 71 10000 7.7 30 21:38 11.06.2020
1500 Clouds 12 1019 71 10000 7.7 30 21:20 11.06.2020
1501 Clouds 12 1019 71 10000 7.7 30 21:20 11.06.2020
1502 Clouds 12 1019 76 10000 7.7 30 20:45 11.06.2020
1503 Clouds 12 1019 76 10000 7.7 30 20:22 11.06.2020
1504 Clouds 11 1019 81 10000 6.2 20 19:58 11.06.2020
1505 Rain 11 1019 81 10000 5.1 20 19:40 11.06.2020
1506 Rain 11 1019 81 10000 5.1 20 19:22 11.06.2020
1507 Rain 11 1019 87 10000 7.2 30 18:42 11.06.2020
1508 Rain 11 1019 87 10000 7.2 30 18:24 11.06.2020
1509 Rain 11 1020 87 7000 7.2 40 17:57 11.06.2020
1510 Rain 11 1020 87 7000 7.2 40 17:38 11.06.2020
1511 Rain 11 1020 93 7000 8.2 40 17:19 11.06.2020
1512 Rain 11 1020 93 7000 7.7 50 16:57 11.06.2020
1513 Rain 12 1020 87 10000 8.2 50 16:38 11.06.2020
1514 Rain 12 1020 87 10000 8.2 50 16:20 11.06.2020
1515 Rain 13 1020 76 10000 8.7 50 15:43 11.06.2020
1516 Clouds 13 1020 71 10000 7.7 50 15:25 11.06.2020
1517 Clouds 13 1020 76 10000 8.7 40 14:58 11.06.2020
1518 Clouds 13 1020 82 10000 8.7 40 14:39 11.06.2020
1519 Clouds 13 1020 82 10000 8.7 40 14:20 11.06.2020
1520 Clouds 13 1020 76 10000 9.3 50 13:55 11.06.2020
1521 Clouds 12 1019 82 10000 9.3 50 13:37 11.06.2020
1522 Clouds 12 1019 82 10000 9.3 50 13:18 11.06.2020
1523 Clouds 12 1019 82 10000 8.2 50 12:54 11.06.2020
1524 Clouds 12 1019 81 10000 8.7 40 12:36 11.06.2020
1525 Clouds 12 1019 81 10000 8.7 40 12:18 11.06.2020
1526 Clouds 12 1019 81 10000 8.2 40 11:56 11.06.2020
1527 Clouds 12 1018 81 10000 9.8 50 11:37 11.06.2020
1528 Clouds 12 1018 81 10000 9.8 50 11:18 11.06.2020
1529 Clouds 12 1018 82 10000 10.3 50 10:42 11.06.2020
1530 Clouds 12 1018 81 10000 10.3 60 10:20 11.06.2020
1531 Clouds 11 1017 87 10000 10.3 60 09:45 11.06.2020
1532 Clouds 11 1017 87 10000 10.3 60 09:45 11.06.2020
1533 Clouds 11 1017 87 10000 9.8 60 09:26 11.06.2020
1534 Clouds 11 1016 87 10000 10.8 60 08:55 11.06.2020
1535 Clouds 11 1016 87 10000 9.3 60 08:37 11.06.2020
1536 Clouds 11 1016 87 10000 9.3 60 08:18 11.06.2020
1537 Clouds 11 1015 93 10000 10.8 60 07:42 11.06.2020
1538 Clouds 11 1015 93 10000 10.3 60 07:23 11.06.2020
1539 Rain 11 1014 87 10000 9.3 70 06:35 11.06.2020
1540 Clouds 11 1013 93 10000 9.8 70 05:57 11.06.2020
1541 Clouds 11 1012 93 10000 8.7 60 04:48 11.06.2020
1542 Rain 11 1011 100 10000 9.8 50 03:25 11.06.2020
1543 Rain 10 1011 100 10000 6.7 40 02:49 11.06.2020
1544 Rain 9 1010 93 10000 5.7 10 01:57 11.06.2020
1545 Rain 9 1011 93 10000 7.7 20 01:35 11.06.2020
1546 Rain 9 1011 93 10000 7.2 20 00:57 11.06.2020
1547 Rain 9 1011 93 10000 7.7 20 00:39 11.06.2020
1548 Rain 9 1011 93 10000 7.7 20 00:19 11.06.2020
1549 Rain 9 1011 87 10000 5.7 20 23:41 10.06.2020
1550 Clouds 9 1011 81 10000 5.7 20 23:22 10.06.2020
1551 Clouds 10 1011 76 10000 6.2 30 22:54 10.06.2020
1552 Clouds 10 1011 76 10000 6.2 30 22:36 10.06.2020
1553 Clouds 10 1011 76 10000 6.2 30 22:18 10.06.2020
1554 Clouds 10 1011 87 10000 5.1 60 21:55 10.06.2020
1555 Rain 10 1010 93 10000 4.6 80 21:37 10.06.2020
1556 Rain 10 1010 93 10000 4.6 80 21:18 10.06.2020
1557 Rain 11 1011 81 10000 4.6 80 20:54 10.06.2020
1558 Rain 11 1011 76 10000 5.1 80 20:36 10.06.2020
1559 Rain 12 1011 76 10000 5.1 80 20:18 10.06.2020
1560 Clouds 13 1011 58 10000 2.1 90 19:38 10.06.2020
1561 Clouds 13 1011 58 10000 3.1 10 19:18 10.06.2020
1562 Clouds 13 1011 58 10000 3.1 10 18:54 10.06.2020
1563 Clouds 12 1011 62 10000 3.1 320 18:36 10.06.2020
1564 Clouds 12 1011 62 10000 3.1 320 18:36 10.06.2020
1565 Clouds 12 1011 62 10000 3.1 320 18:18 10.06.2020
1566 Clouds 13 1012 50 10000 3.1 40 17:42 10.06.2020
1567 Clouds 13 1012 50 10000 3.1 40 17:21 10.06.2020
1568 Clouds 13 1012 54 10000 1.5 0 16:59 10.06.2020
1569 Clouds 13 1012 54 10000 1.5 0 16:41 10.06.2020
1570 Clouds 13 1012 54 10000 2.1 30 16:22 10.06.2020
1571 Clouds 14 1012 58 10000 3.6 30 15:59 10.06.2020
1572 Clouds 14 1012 58 10000 3.6 30 15:38 10.06.2020
1573 Clouds 14 1012 54 10000 3.6 340 15:19 10.06.2020
1574 Clouds 14 1013 54 10000 3.1 40 14:41 10.06.2020
1575 Clouds 14 1013 51 10000 3.1 330 14:22 10.06.2020
1576 Clouds 14 1013 62 10000 2.6 10 13:58 10.06.2020
1577 Clouds 13 1013 66 10000 2.6 330 13:39 10.06.2020
1578 Clouds 13 1013 66 10000 2.6 330 13:21 10.06.2020
1579 Rain 12 1014 76 10000 3.6 360 12:42 10.06.2020
1580 Rain 11 1014 76 10000 3.6 360 12:20 10.06.2020
1581 Rain 11 1014 76 10000 3.6 340 11:56 10.06.2020
1582 Rain 11 1014 76 10000 3.6 340 11:56 10.06.2020
1583 Rain 11 1014 87 10000 3.6 320 11:38 10.06.2020
1584 Drizzle 11 1014 87 10000 3.6 320 11:19 10.06.2020
1585 Rain 11 1014 93 6000 3.6 360 10:44 10.06.2020
1586 Drizzle 12 1014 93 6000 3.6 360 10:25 10.06.2020
1587 Drizzle 12 1014 100 4000 5.1 320 09:59 10.06.2020
1588 Clouds 12 1014 87 10000 3.1 270 09:39 10.06.2020
1589 Clouds 12 1014 87 10000 3.1 270 09:20 10.06.2020
1590 Clouds 12 1014 87 10000 3.1 270 09:20 10.06.2020
1591 Clouds 12 1014 87 10000 2.6 250 08:43 10.06.2020
1592 Clouds 12 1014 87 10000 2.6 250 08:23 10.06.2020
1593 Clouds 11 1014 93 10000 3.1 250 07:43 10.06.2020
1594 Clouds 11 1015 87 10000 2.1 230 07:24 10.06.2020
1595 Drizzle 11 1015 87 9000 3.1 240 06:59 10.06.2020
1596 Clouds 11 1014 87 10000 2.6 220 06:40 10.06.2020
1597 Clouds 11 1014 87 10000 2.6 220 06:18 10.06.2020
1598 Clouds 11 1015 87 10000 2.1 230 05:54 10.06.2020
1599 Rain 11 1015 87 10000 3.6 230 05:19 10.06.2020
1600 Rain 11 1016 87 10000 2.6 220 04:29 10.06.2020
1601 Clouds 12 1016 76 10000 2.6 210 02:49 10.06.2020
1602 Clouds 12 1017 71 10000 2.6 220 01:51 10.06.2020
1603 Clouds 12 1017 71 10000 2.6 230 01:28 10.06.2020
1604 Clouds 12 1018 76 10000 2.1 230 00:39 10.06.2020
1605 Clouds 12 1018 76 10000 2.1 230 00:21 10.06.2020
1606 Clouds 11 1018 71 10000 2.1 220 23:54 09.06.2020
1607 Clouds 12 1018 66 10000 2.1 210 23:36 09.06.2020
1608 Clouds 12 1018 66 10000 2.1 210 23:18 09.06.2020
1609 Clouds 12 1018 66 10000 2.1 220 22:54 09.06.2020
1610 Clouds 12 1018 62 10000 1 0 22:36 09.06.2020
1611 Clouds 12 1018 62 10000 1 0 22:18 09.06.2020
1612 Clouds 12 1018 66 10000 1.5 0 21:54 09.06.2020
1613 Clouds 12 1018 66 10000 1.5 0 21:54 09.06.2020
1614 Clouds 12 1018 62 10000 2.6 250 21:36 09.06.2020
1615 Clouds 12 1018 62 10000 2.6 250 21:36 09.06.2020
1616 Clouds 12 1018 62 10000 2.6 250 21:36 09.06.2020
1617 Clouds 12 1018 62 10000 2.6 250 21:36 09.06.2020
1618 Clouds 12 1018 62 10000 2.6 250 21:18 09.06.2020
1619 Clouds 13 1018 62 10000 3.6 260 20:54 09.06.2020
1620 Clouds 13 1019 58 10000 4.1 270 20:36 09.06.2020
1621 Clouds 13 1019 58 10000 4.1 270 20:18 09.06.2020
1622 Rain 13 1019 58 10000 4.6 280 19:54 09.06.2020
1623 Rain 13 1019 58 10000 4.6 280 19:54 09.06.2020
1624 Rain 13 1019 62 10000 5.1 290 19:36 09.06.2020
1625 Clouds 13 1019 58 10000 2.6 250 19:18 09.06.2020
1626 Clouds 13 1019 58 10000 2.1 260 18:41 09.06.2020
1627 Clouds 14 1019 58 10000 2.1 260 18:23 09.06.2020
1628 Clouds 14 1019 58 10000 2.1 260 17:56 09.06.2020
1629 Drizzle 14 1019 58 10000 1.5 0 17:38 09.06.2020
1630 Drizzle 14 1019 58 10000 1.5 0 17:20 09.06.2020
1631 Clouds 14 1019 62 10000 1.5 0 16:43 09.06.2020
1632 Rain 13 1019 62 10000 2.1 290 16:25 09.06.2020
1633 Rain 13 1019 62 10000 2.1 320 15:57 09.06.2020
1634 Rain 14 1019 62 10000 2.1 320 15:38 09.06.2020
1635 Clouds 14 1020 62 10000 2.6 320 15:20 09.06.2020
1636 Clouds 13 1019 62 10000 1.5 0 14:55 09.06.2020
1637 Clouds 13 1020 58 10000 3.1 290 14:37 09.06.2020
1638 Clouds 13 1020 58 10000 3.1 290 14:18 09.06.2020
1639 Clouds 13 1020 62 10000 3.1 300 13:43 09.06.2020
1640 Clouds 13 1020 66 10000 3.1 280 13:21 09.06.2020
1641 Clouds 12 1020 66 10000 3.1 300 12:58 09.06.2020
1642 Clouds 13 1020 66 10000 3.1 300 12:40 09.06.2020
1643 Clouds 13 1020 66 10000 2.6 270 12:18 09.06.2020
1644 Clouds 13 1020 71 10000 2.1 280 11:55 09.06.2020
1645 Clouds 12 1020 76 10000 2.1 280 11:37 09.06.2020
1646 Clouds 12 1020 76 10000 2.1 280 11:18 09.06.2020
1647 Clouds 12 1020 76 10000 2.1 270 10:43 09.06.2020
1648 Clouds 11 1020 76 10000 2.1 290 10:25 09.06.2020
1649 Clouds 11 1020 76 10000 2.1 280 09:44 09.06.2020
1650 Clouds 10 1020 87 10000 2.6 280 09:25 09.06.2020
1651 Clouds 10 1020 87 10000 2.1 280 08:57 09.06.2020
1652 Clouds 10 1020 93 10000 1.5 280 08:39 09.06.2020
1653 Clouds 9 1020 93 10000 1.5 280 08:20 09.06.2020
1654 Clouds 8 1020 100 10000 2.6 300 07:39 09.06.2020
1655 Clouds 8 1020 100 10000 2.6 300 07:20 09.06.2020
1656 Clouds 8 1020 93 10000 2.6 270 06:54 09.06.2020
1657 Clouds 8 1020 93 10000 1.5 0 06:35 09.06.2020
1658 Clouds 8 1020 93 10000 1 0 05:36 09.06.2020
1659 Clouds 9 1020 93 10000 2.1 290 03:50 09.06.2020
1660 Clouds 7 1020 93 10000 1 0 01:45 09.06.2020
1661 Clouds 8 1021 81 10000 1.75 175 01:20 09.06.2020
1662 Clouds 9 1020 81 10000 2.1 100 00:58 09.06.2020
1663 Clouds 10 1021 76 10000 1 0 00:38 09.06.2020
1664 Clouds 10 1021 76 10000 1 0 00:18 09.06.2020
1665 Clouds 12 1021 71 10000 2.1 110 23:40 08.06.2020
1666 Clouds 12 1021 71 10000 2.1 130 23:20 08.06.2020
1667 Clouds 12 1021 71 10000 2.1 150 22:55 08.06.2020
1668 Clouds 13 1020 66 10000 2.6 120 22:37 08.06.2020
1669 Clouds 13 1020 66 10000 2.6 120 22:19 08.06.2020
1670 Clear 13 1020 62 10000 2.6 120 21:55 08.06.2020
1671 Clouds 14 1020 58 10000 3.1 120 21:36 08.06.2020
1672 Clouds 14 1020 58 10000 3.1 120 21:18 08.06.2020
1673 Clouds 15 1020 62 10000 3.1 110 20:54 08.06.2020
1674 Clouds 15 1020 58 10000 4.1 90 20:36 08.06.2020
1675 Clouds 15 1020 58 10000 4.1 90 20:18 08.06.2020
1676 Clouds 15 1020 54 10000 3.6 110 19:41 08.06.2020
1677 Clouds 15 1020 54 10000 4.1 110 19:20 08.06.2020
1678 Clouds 16 1020 48 10000 4.6 100 18:42 08.06.2020
1679 Clouds 16 1020 48 10000 4.6 100 18:20 08.06.2020
1680 Clouds 16 1020 48 10000 4.6 100 18:20 08.06.2020
1681 Clouds 15 1020 54 10000 4.6 120 17:57 08.06.2020
1682 Clouds 15 1020 54 10000 4.6 120 17:39 08.06.2020
1683 Clouds 16 1020 48 10000 3.1 80 17:20 08.06.2020
1684 Clouds 16 1020 42 10000 3.6 120 16:56 08.06.2020
1685 Clouds 16 1020 42 10000 3.6 120 16:38 08.06.2020
1686 Clouds 16 1020 44 10000 3.6 80 16:20 08.06.2020
1687 Clouds 15 1020 41 10000 2.1 310 15:42 08.06.2020
1688 Clouds 15 1020 47 10000 3.1 330 15:21 08.06.2020
1689 Clouds 15 1020 47 10000 3.1 330 15:21 08.06.2020
1690 Clouds 15 1020 47 10000 2.6 230 14:56 08.06.2020
1691 Clouds 15 1020 47 10000 2.6 340 14:38 08.06.2020
1692 Clouds 15 1020 47 10000 2.6 340 14:18 08.06.2020
1693 Clouds 15 1020 47 10000 2.6 340 14:18 08.06.2020
1694 Clouds 14 1020 54 10000 2.6 320 13:42 08.06.2020
1695 Clouds 14 1020 50 10000 3.1 320 13:21 08.06.2020
1696 Clouds 13 1020 54 10000 4.1 320 12:42 08.06.2020
1697 Clouds 13 1020 54 10000 4.1 320 12:20 08.06.2020
1698 Clouds 13 1020 54 10000 4.1 320 12:20 08.06.2020
1699 Clouds 12 1020 58 10000 5.1 320 11:58 08.06.2020
1700 Clouds 12 1020 58 10000 5.1 310 11:39 08.06.2020
1701 Clouds 11 1020 58 10000 5.1 310 11:20 08.06.2020
1702 Clouds 11 1020 62 10000 5.1 320 10:56 08.06.2020
1703 Clouds 10 1020 66 10000 5.7 320 10:37 08.06.2020
1704 Clouds 10 1020 66 10000 5.7 320 10:19 08.06.2020
1705 Clouds 9 1020 70 10000 4.6 310 09:46 08.06.2020
1706 Clouds 8 1020 75 10000 5.1 310 09:23 08.06.2020
1707 Clouds 8 1020 81 10000 4.6 300 08:50 08.06.2020
1708 Clouds 7 1019 87 10000 4.6 300 08:24 08.06.2020
1709 Clouds 6 1019 87 10000 4.6 290 07:56 08.06.2020
1710 Clouds 6 1019 87 10000 4.6 290 07:56 08.06.2020
1711 Clouds 6 1019 86 10000 4.1 290 07:38 08.06.2020
1712 Clouds 6 1019 86 10000 4.1 290 07:19 08.06.2020
1713 Clouds 6 1019 86 10000 5.1 290 06:39 08.06.2020
1714 Clouds 6 1019 86 10000 5.1 280 05:55 08.06.2020
1715 Clouds 7 1019 81 10000 4.1 280 04:59 08.06.2020
1716 Clouds 9 1018 81 10000 4.1 330 03:24 08.06.2020
1717 Clouds 9 1018 81 10000 4.1 330 03:24 08.06.2020
1718 Clouds 9 1018 87 10000 3.6 320 02:26 08.06.2020
1719 Clouds 9 1018 87 10000 3.1 310 01:42 08.06.2020
1720 Clouds 9 1018 87 10000 3.6 330 00:57 08.06.2020
1721 Clouds 11 1017 81 10000 3.6 330 00:24 08.06.2020
1722 Clouds 12 1017 76 10000 3.6 330 23:38 07.06.2020
1723 Clouds 12 1017 76 10000 3.6 330 23:19 07.06.2020
1724 Clouds 13 1016 76 10000 5.1 340 22:57 07.06.2020
1725 Clouds 15 1016 67 10000 3.6 10 22:37 07.06.2020
1726 Clouds 15 1016 67 10000 3.6 10 22:18 07.06.2020
1727 Clouds 16 1016 62 10000 4.6 20 21:58 07.06.2020
1728 Clouds 16 1015 63 10000 4.6 30 21:36 07.06.2020
1729 Clouds 15 1015 63 10000 4.6 30 21:18 07.06.2020
1730 Clouds 16 1015 63 10000 4.1 30 20:39 07.06.2020
1731 Clouds 16 1015 63 10000 4.1 30 20:20 07.06.2020
1732 Clouds 16 1014 59 10000 4.6 300 19:57 07.06.2020
1733 Clouds 16 1014 55 10000 4.6 330 19:38 07.06.2020
1734 Clouds 16 1014 55 10000 4.6 330 19:20 07.06.2020
1735 Clouds 16 1014 59 10000 5.1 320 18:59 07.06.2020
1736 Clouds 15 1014 59 10000 5.1 310 18:38 07.06.2020
1737 Clouds 15 1014 59 10000 5.1 310 18:19 07.06.2020
1738 Clouds 15 1014 59 10000 4.1 330 17:57 07.06.2020
1739 Clouds 15 1014 58 10000 5.7 340 17:38 07.06.2020
1740 Clouds 15 1014 58 10000 5.7 340 17:20 07.06.2020
1741 Clouds 15 1013 62 10000 6.2 320 16:43 07.06.2020
1742 Clouds 15 1013 62 10000 6.2 340 16:21 07.06.2020
1743 Clouds 14 1013 58 10000 6.2 320 15:42 07.06.2020
1744 Clouds 14 1013 62 10000 6.2 330 15:22 07.06.2020
1745 Clouds 13 1013 62 10000 6.2 330 14:41 07.06.2020
1746 Clouds 14 1013 58 10000 5.7 330 14:41 07.06.2020
1747 Clouds 13 1013 62 10000 6.2 330 14:22 07.06.2020
1748 Clouds 13 1013 62 10000 6.2 330 14:22 07.06.2020
1749 Clouds 13 1012 66 10000 6.2 340 13:49 07.06.2020
1750 Clouds 12 1012 66 10000 6.2 340 13:22 07.06.2020
1751 Clouds 11 1012 71 10000 6.2 330 12:57 07.06.2020
1752 Clouds 11 1012 81 10000 5.1 310 12:39 07.06.2020
1753 Clouds 11 1012 81 10000 5.1 310 12:39 07.06.2020
1754 Clouds 11 1012 81 10000 5.1 310 12:20 07.06.2020
1755 Clouds 10 1011 81 10000 6.2 310 11:55 07.06.2020
1756 Clouds 10 1011 81 10000 7.2 310 11:36 07.06.2020
1757 Clouds 10 1011 81 10000 7.2 310 11:18 07.06.2020
1758 Clouds 10 1011 87 10000 6.7 300 10:45 07.06.2020
1759 Clouds 10 1011 81 10000 4.6 290 10:20 07.06.2020
1760 Clouds 10 1011 81 10000 4.6 290 10:20 07.06.2020
1761 Clouds 10 1010 81 10000 6.2 310 09:59 07.06.2020
1762 Clouds 10 1010 81 10000 6.2 310 09:39 07.06.2020
1763 Clouds 10 1010 81 10000 5.7 320 09:20 07.06.2020
1764 Clouds 10 1010 81 10000 4.6 310 08:57 07.06.2020
1765 Clouds 10 1010 81 10000 4.6 310 08:39 07.06.2020
1766 Clouds 9 1009 87 10000 4.6 310 08:21 07.06.2020
1767 Clouds 9 1009 87 10000 5.7 310 07:38 07.06.2020
1768 Clouds 9 1008 87 10000 5.7 320 06:53 07.06.2020
1769 Clouds 9 1008 87 10000 4.1 300 05:52 07.06.2020
1770 Rain 10 1007 93 10000 4.6 300 04:21 07.06.2020
1771 Rain 10 1007 93 7000 4.6 320 03:33 07.06.2020
1772 Clouds 10 1006 87 10000 4.6 320 02:18 07.06.2020
1773 Clouds 10 1006 93 10000 5.1 300 01:25 07.06.2020
1774 Rain 10 1006 93 10000 4.6 300 00:48 07.06.2020
1775 Drizzle 10 1006 93 10000 4.6 300 00:20 07.06.2020
1776 Drizzle 10 1006 93 10000 5.1 310 23:59 06.06.2020
1777 Drizzle 10 1006 93 10000 5.1 310 23:37 06.06.2020
1778 Drizzle 10 1006 93 10000 5.1 310 23:37 06.06.2020
1779 Drizzle 10 1005 93 7000 5.7 310 23:19 06.06.2020
1780 Drizzle 10 1005 93 5000 6.2 300 22:56 06.06.2020
1781 Drizzle 10 1005 93 5000 6.2 300 22:38 06.06.2020
1782 Drizzle 10 1005 93 10000 5.1 310 22:19 06.06.2020
1783 Rain 10 1004 93 10000 6.2 300 21:46 06.06.2020
1784 Rain 10 1004 93 10000 6.7 300 21:22 06.06.2020
1785 Rain 10 1004 93 10000 6.7 300 21:22 06.06.2020
1786 Rain 10 1004 93 10000 6.2 300 20:58 06.06.2020
1787 Rain 10 1004 93 10000 7.7 290 20:39 06.06.2020
1788 Rain 10 1004 93 10000 7.7 290 20:18 06.06.2020
1789 Rain 10 1003 93 10000 7.2 300 19:57 06.06.2020
1790 Rain 10 1003 87 10000 6.7 290 19:38 06.06.2020
1791 Rain 10 1003 87 10000 6.7 290 19:20 06.06.2020
1792 Rain 11 1003 81 10000 8.2 310 18:43 06.06.2020
1793 Rain 11 1003 81 10000 8.2 310 18:25 06.06.2020
1794 Rain 11 1003 81 10000 7.2 310 17:58 06.06.2020
1795 Rain 11 1003 81 10000 7.2 310 17:40 06.06.2020
1796 Clouds 11 1003 71 10000 8.2 310 17:19 06.06.2020
1797 Clouds 11 1003 71 10000 8.2 310 17:19 06.06.2020
1798 Clouds 11 1003 76 10000 8.7 320 16:48 06.06.2020
1799 Clouds 11 1003 71 10000 8.7 310 16:23 06.06.2020
1800 Clouds 11 1002 76 10000 9.8 310 15:58 06.06.2020
1801 Clouds 11 1002 76 10000 9.8 310 15:40 06.06.2020
1802 Clouds 11 1002 76 10000 10.3 310 15:20 06.06.2020
1803 Clouds 11 1001 76 10000 10.3 320 14:44 06.06.2020
1804 Clouds 11 1001 76 10000 10.3 320 14:25 06.06.2020
1805 Clouds 11 1001 76 10000 9.8 310 13:59 06.06.2020
1806 Clouds 11 1001 76 10000 10.3 320 13:41 06.06.2020
1807 Clouds 11 1001 76 10000 10.8 310 13:18 06.06.2020
1808 Clouds 11 1001 76 10000 10.8 310 12:43 06.06.2020
1809 Clouds 10 1000 81 10000 9.8 310 12:24 06.06.2020
1810 Clouds 11 1000 76 10000 11.3 310 11:59 06.06.2020
1811 Clouds 10 1000 76 10000 11.3 310 11:39 06.06.2020
1812 Clouds 10 1000 87 10000 9.8 310 11:20 06.06.2020
1813 Clouds 10 1000 87 10000 9.3 300 10:58 06.06.2020
1814 Clouds 10 1000 87 10000 9.3 300 10:58 06.06.2020
1815 Clouds 10 1000 87 10000 9.3 300 10:39 06.06.2020
1816 Clouds 9 999 93 10000 9.3 290 10:21 06.06.2020
1817 Clouds 9 999 93 10000 9.8 290 09:58 06.06.2020
1818 Clouds 9 999 93 10000 9.8 290 09:40 06.06.2020
1819 Drizzle 8 999 93 9000 9.8 280 09:20 06.06.2020
1820 Drizzle 8 999 93 6000 10.3 280 08:40 06.06.2020
1821 Drizzle 8 999 87 10000 12.9 280 08:20 06.06.2020
1822 Clouds 8 999 81 10000 12.9 280 07:46 06.06.2020
1823 Clouds 7 999 81 10000 10.3 270 07:22 06.06.2020
1824 Clouds 7 999 81 10000 10.3 270 07:22 06.06.2020
1825 Clouds 7 999 81 10000 10.3 270 06:47 06.06.2020
1826 Clouds 7 999 81 10000 9.8 270 06:29 06.06.2020
1827 Clouds 6 999 87 10000 9.8 270 05:55 06.06.2020
1828 Clouds 6 1000 81 10000 10.8 270 05:28 06.06.2020
1829 Clouds 6 1000 81 10000 8.7 270 04:44 06.06.2020
1830 Clouds 5 1001 86 10000 8.2 270 02:52 06.06.2020
1831 Clouds 5 1002 80 10000 7.7 270 01:56 06.06.2020
1832 Clouds 6 1002 75 10000 7.7 280 01:19 06.06.2020
1833 Clouds 6 1002 75 10000 7.2 280 00:45 06.06.2020
1834 Clouds 6 1002 75 10000 6.2 280 00:27 06.06.2020
1835 Clouds 7 1002 70 10000 7.2 300 23:55 05.06.2020
1836 Clouds 7 1002 70 10000 8.7 300 23:36 05.06.2020
1837 Clouds 7 1002 70 10000 8.7 300 23:36 05.06.2020
1838 Clouds 7 1002 70 10000 8.7 300 23:18 05.06.2020
1839 Clouds 7 1002 70 10000 8.7 300 23:18 05.06.2020
1840 Clouds 8 1002 70 10000 9.3 300 22:41 05.06.2020
1841 Rain 8 1001 65 10000 9.3 310 22:23 05.06.2020
1842 Rain 9 1002 66 10000 8.2 300 21:58 05.06.2020
1843 Rain 9 1002 66 10000 8.2 300 21:40 05.06.2020
1844 Rain 9 1001 66 10000 9.3 300 21:20 05.06.2020
1845 Rain 10 1001 70 10000 10.3 310 20:57 05.06.2020
1846 Rain 10 1001 70 10000 10.3 310 20:57 05.06.2020
1847 Rain 10 1001 70 10000 10.3 310 20:38 05.06.2020
1848 Clouds 11 1001 57 10000 9.3 320 20:19 05.06.2020
1849 Rain 11 1001 62 10000 10.8 320 19:40 05.06.2020
1850 Rain 11 1001 57 10000 9.3 310 19:40 05.06.2020
1851 Rain 11 1001 62 10000 10.8 320 19:22 05.06.2020
1852 Rain 11 1001 62 10000 10.8 310 18:54 05.06.2020
1853 Rain 10 1001 76 10000 6.2 300 18:36 05.06.2020
1854 Rain 10 1001 76 10000 6.2 300 18:18 05.06.2020
1855 Rain 11 1001 71 10000 9.3 310 17:55 05.06.2020
1856 Rain 11 1001 81 10000 4.6 300 17:37 05.06.2020
1857 Rain 11 1001 81 10000 4.6 300 17:18 05.06.2020
1858 Rain 11 1001 81 10000 4.6 300 17:18 05.06.2020
1859 Rain 13 1001 43 10000 9.3 320 16:38 05.06.2020
1860 Rain 12 1001 43 10000 9.3 320 16:19 05.06.2020
1861 Rain 13 1001 50 10000 6.7 310 15:42 05.06.2020
1862 Rain 11 1000 58 10000 8.7 290 15:21 05.06.2020
1863 Rain 11 1001 71 10000 6.7 290 14:58 05.06.2020
1864 Rain 12 1001 71 10000 6.7 290 14:40 05.06.2020
1865 Rain 13 1000 58 9000 8.2 340 14:22 05.06.2020
1866 Clouds 14 1000 50 10000 7.2 320 13:57 05.06.2020
1867 Rain 14 1000 50 10000 7.2 320 13:37 05.06.2020
1868 Rain 13 1000 47 10000 9.3 310 13:18 05.06.2020
1869 Rain 13 1000 62 10000 8.7 320 12:40 05.06.2020
1870 Clouds 13 1000 54 10000 8.7 300 12:19 05.06.2020
1871 Clouds 13 1000 54 10000 8.2 310 11:43 05.06.2020
1872 Clouds 12 1000 54 10000 8.2 310 11:43 05.06.2020
1873 Clouds 12 1000 54 10000 8.2 310 11:43 05.06.2020
1874 Clouds 12 1001 58 10000 8.7 310 11:24 05.06.2020
1875 Clouds 11 1001 62 10000 8.2 310 10:59 05.06.2020
1876 Clouds 11 1001 62 10000 8.2 310 10:41 05.06.2020
1877 Clouds 11 1001 71 10000 8.2 310 10:20 05.06.2020
1878 Clouds 10 1001 76 10000 7.7 320 09:57 05.06.2020
1879 Clouds 10 1001 76 10000 7.7 320 09:39 05.06.2020
1880 Clouds 9 1001 76 10000 6.7 320 09:20 05.06.2020
1881 Clouds 9 1001 81 10000 6.7 310 08:57 05.06.2020
1882 Clouds 9 1001 81 10000 6.7 310 08:39 05.06.2020
1883 Rain 9 1001 87 10000 6.7 310 08:18 05.06.2020
1884 Rain 9 1001 87 10000 6.2 310 07:49 05.06.2020
1885 Rain 9 1001 87 10000 6.7 300 07:31 05.06.2020
1886 Clouds 9 1000 87 10000 6.2 290 06:45 05.06.2020
1887 Clouds 9 1001 81 10000 6.2 290 05:23 05.06.2020
1888 Clouds 9 1001 76 10000 6.2 290 04:27 05.06.2020
1889 Clouds 10 1001 76 10000 6.7 300 03:29 05.06.2020
1890 Clouds 10 1002 70 10000 6.2 310 02:28 05.06.2020
1891 Clouds 11 1002 71 10000 6.2 320 01:58 05.06.2020
1892 Clouds 11 1002 66 10000 6.2 310 01:30 05.06.2020
1893 Clouds 11 1002 71 10000 7.7 320 00:43 05.06.2020
1894 Clouds 11 1002 71 10000 7.7 320 00:21 05.06.2020
1895 Clouds 12 1002 66 10000 6.2 320 23:47 04.06.2020
1896 Clouds 12 1002 66 10000 7.2 310 23:29 04.06.2020
1897 Clouds 13 1002 66 10000 8.2 320 22:57 04.06.2020
1898 Clouds 14 1002 66 10000 8.2 320 22:37 04.06.2020
1899 Clouds 14 1002 62 10000 7.2 310 22:18 04.06.2020
1900 Clouds 14 1001 62 10000 8.2 300 21:56 04.06.2020
1901 Clouds 14 1001 58 10000 7.2 310 21:38 04.06.2020
1902 Clouds 14 1001 62 10000 8.2 300 21:38 04.06.2020
1903 Clouds 15 1001 58 10000 7.2 310 21:19 04.06.2020
1904 Clouds 15 1001 62 10000 8.2 310 20:55 04.06.2020
1905 Clouds 16 1002 55 10000 8.2 310 20:36 04.06.2020
1906 Clouds 16 1002 55 10000 8.2 310 20:18 04.06.2020
1907 Clouds 16 1002 59 10000 7.7 310 19:40 04.06.2020
1908 Clouds 16 1002 63 10000 8.7 300 19:21 04.06.2020
1909 Clouds 16 1002 63 10000 8.7 300 19:21 04.06.2020
1910 Clouds 16 1002 63 10000 8.7 300 18:56 04.06.2020
1911 Clouds 15 1002 63 10000 8.2 300 18:38 04.06.2020
1912 Clouds 15 1002 63 10000 8.2 300 18:20 04.06.2020
1913 Clouds 15 1002 63 10000 7.7 290 17:42 04.06.2020
1914 Clouds 15 1003 72 10000 6.7 280 17:21 04.06.2020
1915 Rain 15 1003 72 10000 7.7 290 16:56 04.06.2020
1916 Clouds 14 1004 82 10000 6.2 280 16:38 04.06.2020
1917 Clouds 13 1004 82 10000 6.2 280 16:18 04.06.2020
1918 Drizzle 13 1004 82 10000 5.1 310 15:43 04.06.2020
1919 Drizzle 12 1004 87 5000 4.6 270 15:24 04.06.2020
1920 Drizzle 13 1005 82 10000 3.6 250 14:41 04.06.2020
1921 Clouds 12 1005 87 10000 4.1 260 14:22 04.06.2020
1922 Clouds 12 1005 81 10000 6.2 270 13:57 04.06.2020
1923 Clouds 11 1005 81 10000 6.2 270 13:38 04.06.2020
1924 Drizzle 11 1006 87 10000 5.7 270 13:20 04.06.2020
1925 Drizzle 11 1006 87 10000 5.1 260 12:56 04.06.2020
1926 Clouds 11 1007 81 10000 5.1 270 12:38 04.06.2020
1927 Clouds 11 1007 81 10000 5.1 270 12:20 04.06.2020
1928 Clouds 10 1007 81 10000 3.6 260 11:41 04.06.2020
1929 Clouds 10 1007 81 10000 3.6 260 11:41 04.06.2020
1930 Clouds 10 1007 87 10000 4.1 270 11:21 04.06.2020
1931 Clouds 10 1008 87 10000 5.7 280 10:59 04.06.2020
1932 Clouds 10 1008 87 10000 5.7 280 10:39 04.06.2020
1933 Clouds 10 1008 81 10000 5.7 280 10:21 04.06.2020
1934 Clouds 10 1008 81 10000 6.7 280 09:46 04.06.2020
1935 Clouds 10 1009 76 10000 5.7 270 09:28 04.06.2020
1936 Clouds 9 1009 81 10000 5.1 270 08:57 04.06.2020
1937 Clouds 9 1009 81 10000 5.1 270 08:38 04.06.2020
1938 Clouds 9 1009 81 10000 5.1 280 08:20 04.06.2020
1939 Clouds 8 1010 81 10000 5.7 280 07:31 04.06.2020
1940 Clouds 8 1010 81 10000 5.1 300 06:47 04.06.2020
1941 Clouds 8 1010 81 10000 5.1 300 06:27 04.06.2020
1942 Clouds 7 1011 87 10000 3.1 280 05:52 04.06.2020
1943 Clouds 8 1011 81 10000 4.6 290 05:32 04.06.2020
1944 Clouds 7 1012 81 10000 4.1 300 03:34 04.06.2020
1945 Clouds 8 1013 75 10000 5.1 320 02:19 04.06.2020
1946 Clouds 9 1014 70 10000 4.6 330 01:21 04.06.2020
1947 Clouds 10 1014 70 10000 4.6 330 00:59 04.06.2020
1948 Clouds 10 1014 70 10000 4.1 320 00:18 04.06.2020
1949 Clouds 11 1014 61 10000 5.7 340 23:37 03.06.2020
1950 Clouds 11 1014 61 10000 5.7 340 23:18 03.06.2020
1951 Rain 12 1014 57 10000 5.7 350 22:40 03.06.2020
1952 Rain 12 1014 57 10000 5.7 350 22:19 03.06.2020
1953 Rain 12 1014 54 10000 6.7 350 21:59 03.06.2020
1954 Clouds 12 1014 54 10000 6.7 350 21:41 03.06.2020
1955 Clouds 12 1014 58 10000 5.1 350 21:22 03.06.2020
1956 Clouds 13 1015 62 10000 4.6 10 20:58 03.06.2020
1957 Clouds 13 1015 62 10000 4.6 10 20:40 03.06.2020
1958 Clouds 13 1015 66 10000 4.1 20 20:20 03.06.2020
1959 Clouds 13 1015 66 10000 4.6 30 19:57 03.06.2020
1960 Clouds 13 1015 58 10000 5.7 40 19:38 03.06.2020
1961 Clouds 13 1015 58 10000 5.7 40 19:19 03.06.2020
1962 Clouds 13 1015 62 10000 6.2 30 18:57 03.06.2020
1963 Clouds 13 1015 62 10000 6.2 30 18:38 03.06.2020
1964 Clouds 13 1015 58 10000 6.7 20 18:18 03.06.2020
1965 Clouds 13 1015 58 10000 6.7 20 17:44 03.06.2020
1966 Clouds 13 1015 58 10000 7.2 30 17:22 03.06.2020
1967 Clouds 13 1015 62 10000 7.7 30 16:57 03.06.2020
1968 Clouds 13 1015 58 10000 8.2 30 16:39 03.06.2020
1969 Clouds 13 1015 58 10000 8.2 30 16:19 03.06.2020
1970 Clouds 13 1015 58 10000 8.2 30 16:19 03.06.2020
1971 Clouds 13 1015 66 10000 7.7 30 15:41 03.06.2020
1972 Clouds 12 1015 66 10000 7.7 30 15:21 03.06.2020
1973 Clouds 12 1016 76 10000 8.7 20 14:59 03.06.2020
1974 Clouds 12 1016 76 10000 8.7 20 14:40 03.06.2020
1975 Clouds 12 1015 76 10000 8.2 20 14:21 03.06.2020
1976 Clouds 12 1016 76 10000 8.7 20 13:40 03.06.2020
1977 Clouds 11 1016 76 10000 8.7 20 13:20 03.06.2020
1978 Clouds 11 1015 87 10000 8.7 20 12:44 03.06.2020
1979 Clouds 11 1015 87 10000 9.8 10 12:23 03.06.2020
1980 Clouds 11 1015 87 10000 7.7 20 11:59 03.06.2020
1981 Rain 10 1015 100 8000 7.7 30 11:40 03.06.2020
1982 Rain 10 1015 100 8000 7.7 30 11:22 03.06.2020
1983 Rain 11 1014 100 3000 8.2 30 10:42 03.06.2020
1984 Drizzle 11 1014 93 5000 8.2 10 10:24 03.06.2020
1985 Clouds 11 1014 87 10000 6.2 330 09:47 03.06.2020
1986 Clouds 11 1014 87 10000 6.2 330 09:47 03.06.2020
1987 Clouds 11 1014 87 10000 6.7 330 09:22 03.06.2020
1988 Clouds 11 1014 87 10000 7.2 340 08:59 03.06.2020
1989 Clouds 11 1014 87 10000 8.7 340 08:40 03.06.2020
1990 Clouds 12 1014 87 10000 8.7 340 08:20 03.06.2020
1991 Clouds 12 1014 81 10000 5.7 340 07:43 03.06.2020
1992 Clouds 12 1014 81 10000 5.7 330 07:22 03.06.2020
1993 Clouds 12 1014 81 10000 5.7 330 06:54 03.06.2020
1994 Clouds 12 1014 87 10000 6.7 340 06:33 03.06.2020
1995 Clouds 13 1014 87 10000 6.7 340 05:48 03.06.2020
1996 Clouds 13 1014 87 10000 6.2 330 04:59 03.06.2020
1997 Clouds 13 1015 93 10000 5.1 320 03:51 03.06.2020
1998 Clouds 13 1015 100 10000 5.1 300 03:21 03.06.2020
1999 Rain 14 1016 87 10000 5.1 300 02:23 03.06.2020
2000 Clouds 15 1016 76 10000 6.2 320 00:47 03.06.2020
2001 Clouds 15 1016 72 10000 6.2 320 00:25 03.06.2020
2002 Clouds 16 1016 77 10000 5.7 330 23:52 02.06.2020
2003 Clouds 17 1016 77 10000 5.1 310 23:28 02.06.2020
2004 Clouds 17 1016 77 10000 5.1 310 23:28 02.06.2020
2005 Clouds 19 1016 68 10000 6.7 330 22:58 02.06.2020
2006 Clouds 19 1016 68 10000 6.7 330 22:39 02.06.2020
2007 Clouds 20 1016 60 10000 5.1 340 22:19 02.06.2020
2008 Clouds 20 1016 60 10000 5.1 340 22:19 02.06.2020
2009 Clouds 21 1016 60 10000 7.2 330 21:56 02.06.2020
2010 Clouds 21 1016 40 10000 6.2 310 21:38 02.06.2020
2011 Clouds 21 1016 40 10000 6.2 310 21:19 02.06.2020
2012 Clouds 22 1016 40 10000 6.7 290 20:57 02.06.2020
2013 Clouds 22 1016 40 10000 6.7 290 20:39 02.06.2020
2014 Clouds 23 1017 38 10000 6.2 290 20:20 02.06.2020
2015 Clouds 23 1017 36 10000 3.1 120 19:43 02.06.2020
2016 Clouds 23 1017 36 10000 3.1 120 19:25 02.06.2020
2017 Clouds 23 1017 36 10000 3.1 120 19:25 02.06.2020
2018 Clouds 24 1017 38 10000 5.1 110 18:57 02.06.2020
2019 Clouds 24 1017 38 10000 5.1 110 18:57 02.06.2020
2020 Clouds 24 1018 38 10000 6.2 300 18:39 02.06.2020
2021 Clouds 24 1018 38 10000 6.2 300 18:20 02.06.2020
2022 Clouds 24 1018 41 10000 5.7 300 17:55 02.06.2020
2023 Clouds 24 1019 38 10000 5.1 310 17:37 02.06.2020
2024 Clouds 24 1019 38 10000 5.1 310 17:18 02.06.2020
2025 Clouds 24 1019 33 10000 5.7 300 16:41 02.06.2020
2026 Clouds 24 1019 38 10000 5.1 320 16:21 02.06.2020
2027 Clouds 24 1020 31 10000 4.6 300 15:58 02.06.2020
2028 Clouds 24 1020 31 10000 4.6 300 15:38 02.06.2020
2029 Clouds 24 1020 41 10000 4.6 290 15:20 02.06.2020
2030 Clouds 24 1020 41 10000 5.1 300 14:45 02.06.2020
2031 Clouds 23 1020 38 10000 4.1 270 14:27 02.06.2020
2032 Clouds 23 1021 40 10000 4.1 280 13:55 02.06.2020
2033 Clear 23 1021 40 10000 4.6 300 13:36 02.06.2020
2034 Clear 23 1021 40 10000 4.6 300 13:18 02.06.2020
2035 Clear 22 1021 40 10000 3.6 300 12:40 02.06.2020
2036 Clear 22 1022 37 10000 3.6 290 12:22 02.06.2020
2037 Clear 21 1022 37 10000 3.1 270 11:59 02.06.2020
2038 Clear 20 1022 40 10000 3.6 280 11:40 02.06.2020
2039 Clear 20 1022 40 10000 3.6 280 11:20 02.06.2020
2040 Clear 19 1022 37 10000 4.1 280 10:50 02.06.2020
2041 Clear 19 1023 42 10000 3.6 280 10:29 02.06.2020
2042 Clear 18 1023 48 10000 2.1 260 09:59 02.06.2020
2043 Clear 17 1023 48 10000 2.1 260 09:40 02.06.2020
2044 Clear 15 1023 55 10000 1.5 0 09:20 02.06.2020
2045 Clear 15 1023 62 10000 2.1 260 08:53 02.06.2020
2046 Clouds 13 1023 66 10000 1.5 0 08:27 02.06.2020
2047 Clouds 11 1023 81 10000 1.5 260 07:54 02.06.2020
2048 Clouds 9 1023 87 10000 2.6 270 07:30 02.06.2020
2049 Clouds 9 1023 81 10000 2.1 290 06:51 02.06.2020
2050 Clouds 9 1023 87 10000 2.6 270 06:31 02.06.2020
2051 Clouds 9 1024 81 10000 2.1 280 05:28 02.06.2020
2052 Clouds 9 1024 81 10000 2.6 290 03:53 02.06.2020
2053 Clouds 10 1025 81 10000 2.1 290 02:30 02.06.2020
2054 Clouds 10 1025 81 10000 1.5 300 01:34 02.06.2020
2055 Clouds 11 1025 75 10000 0.48 141 00:26 02.06.2020
2056 Clouds 12 1025 70 10000 1 0 23:59 01.06.2020
2057 Clouds 12 1025 70 10000 1 0 23:38 01.06.2020
2058 Clouds 14 1025 58 10000 1.5 110 23:18 01.06.2020
2059 Clouds 15 1025 50 10000 1.5 90 22:56 01.06.2020
2060 Clouds 15 1025 50 10000 1.5 90 22:37 01.06.2020
2061 Clouds 17 1024 44 10000 2.6 80 22:18 01.06.2020
2062 Clouds 18 1025 48 10000 3.1 100 21:41 01.06.2020
2063 Clouds 19 1024 39 10000 3.1 90 21:20 01.06.2020
2064 Clouds 19 1024 39 10000 3.1 80 20:58 01.06.2020
2065 Clouds 19 1024 39 10000 3.1 80 20:40 01.06.2020
2066 Clouds 19 1025 39 10000 3.1 80 20:20 01.06.2020
2067 Clouds 19 1025 39 10000 3.1 80 19:57 01.06.2020
2068 Clouds 19 1025 37 10000 3.1 70 19:39 01.06.2020
2069 Clouds 20 1025 37 10000 3.1 70 19:20 01.06.2020
2070 Clouds 20 1025 39 10000 3.1 90 18:56 01.06.2020
2071 Clouds 20 1025 39 10000 3.1 90 18:56 01.06.2020
2072 Clouds 20 1025 37 10000 4.1 80 18:38 01.06.2020
2073 Clouds 20 1025 37 10000 4.1 80 18:18 01.06.2020
2074 Clouds 20 1025 37 10000 4.1 90 17:41 01.06.2020
2075 Clouds 20 1025 37 10000 4.1 100 17:20 01.06.2020
2076 Clouds 20 1025 37 10000 4.6 100 16:48 01.06.2020
2077 Clouds 20 1026 40 10000 5.1 90 16:26 01.06.2020
2078 Clouds 20 1026 40 10000 5.7 90 15:59 01.06.2020
2079 Clouds 20 1026 40 10000 5.7 90 15:40 01.06.2020
2080 Clouds 20 1026 45 10000 4.6 80 15:21 01.06.2020
2081 Clouds 20 1026 49 10000 4.6 90 14:58 01.06.2020
2082 Clouds 20 1026 49 10000 4.6 90 14:40 01.06.2020
2083 Clouds 20 1025 45 10000 5.1 80 14:21 01.06.2020
2084 Clouds 20 1025 42 10000 4.6 110 13:55 01.06.2020
2085 Clouds 20 1025 42 10000 4.6 110 13:55 01.06.2020
2086 Clouds 20 1025 42 10000 4.6 110 13:37 01.06.2020
2087 Clouds 20 1025 42 10000 4.6 110 13:37 01.06.2020
2088 Clouds 20 1025 48 10000 4.6 120 13:18 01.06.2020
2089 Clouds 20 1025 48 10000 4.6 120 13:18 01.06.2020
2090 Clouds 20 1025 48 10000 4.6 120 12:55 01.06.2020
2091 Clouds 20 1025 48 10000 4.6 120 12:36 01.06.2020
2092 Clouds 20 1025 48 10000 5.1 120 12:18 01.06.2020
2093 Clear 20 1025 48 10000 5.7 110 11:39 01.06.2020
2094 Clear 20 1025 48 10000 5.7 110 11:21 01.06.2020
2095 Clear 19 1025 55 10000 4.6 140 10:57 01.06.2020
2096 Clear 19 1025 55 10000 4.6 130 10:37 01.06.2020
2097 Clear 18 1025 55 10000 4.6 130 10:18 01.06.2020
2098 Clear 17 1025 59 10000 4.1 120 09:46 01.06.2020
2099 Clear 16 1025 59 10000 4.1 120 09:27 01.06.2020
2100 Clouds 15 1025 63 10000 4.6 120 08:59 01.06.2020
2101 Clouds 14 1024 87 10000 3.1 90 08:40 01.06.2020
2102 Clear 14 1024 87 10000 3.1 90 08:22 01.06.2020
2103 Clear 11 1024 93 10000 3.1 90 07:42 01.06.2020
2104 Clear 11 1024 93 10000 3.1 90 07:24 01.06.2020
2105 Clear 12 1024 93 10000 2.6 110 06:51 01.06.2020
2106 Clear 11 1024 100 10000 2.1 110 06:20 01.06.2020
2107 Clear 11 1024 100 10000 1.5 120 05:49 01.06.2020
2108 Clear 10 1024 87 10000 1 60 04:18 01.06.2020
2109 Clear 10 1023 100 10000 2.1 310 03:44 01.06.2020
2110 Clear 11 1024 87 10000 1.5 0 02:59 01.06.2020
2111 Clouds 11 1024 93 10000 2.1 350 01:47 01.06.2020
2112 Clouds 11 1024 87 10000 2.1 360 01:26 01.06.2020
2113 Clouds 11 1024 93 10000 1 330 00:56 01.06.2020
2114 Clouds 12 1024 81 10000 0.5 0 00:38 01.06.2020
2115 Clouds 12 1024 81 10000 0.5 0 00:19 01.06.2020
2116 Clouds 13 1024 71 10000 1.5 110 23:42 31.05.2020
2117 Clear 13 1024 71 10000 1.5 110 23:23 31.05.2020
2118 Clear 15 1024 67 10000 1.5 0 22:59 31.05.2020
2119 Clear 15 1023 67 10000 2.6 80 22:41 31.05.2020
2120 Clear 15 1023 67 10000 2.6 80 22:41 31.05.2020
2121 Clear 15 1023 67 10000 2.6 80 22:22 31.05.2020
2122 Clouds 16 1023 67 10000 3.1 70 21:57 31.05.2020
2123 Clouds 17 1023 59 10000 4.1 80 21:39 31.05.2020
2124 Clouds 17 1023 59 10000 4.1 80 21:20 31.05.2020
2125 Clouds 18 1023 55 10000 4.6 80 20:45 31.05.2020
2126 Clouds 18 1023 55 10000 4.6 80 20:25 31.05.2020
2127 Clouds 18 1023 52 10000 4.6 80 19:56 31.05.2020
2128 Clouds 19 1023 48 10000 5.1 80 19:38 31.05.2020
2129 Clouds 19 1023 48 10000 5.1 80 19:20 31.05.2020
2130 Clouds 19 1023 52 10000 6.2 70 18:46 31.05.2020
2131 Clouds 19 1023 52 10000 6.2 70 18:25 31.05.2020
2132 Clouds 19 1023 48 10000 6.7 90 17:59 31.05.2020
2133 Clouds 19 1023 48 10000 5.7 80 17:40 31.05.2020
2134 Clouds 19 1023 48 10000 5.7 80 17:21 31.05.2020
2135 Clouds 19 1023 48 10000 5.1 80 16:41 31.05.2020
2136 Clouds 18 1023 55 10000 4.6 80 16:22 31.05.2020
2137 Clouds 19 1023 55 10000 4.6 80 15:56 31.05.2020
2138 Clouds 19 1023 52 10000 5.1 90 15:37 31.05.2020
2139 Clouds 19 1023 52 10000 5.1 90 15:18 31.05.2020
2140 Clouds 18 1023 55 10000 4.6 90 14:41 31.05.2020
2141 Clouds 18 1023 55 10000 4.6 90 14:19 31.05.2020
2142 Clouds 18 1023 59 10000 5.7 80 13:56 31.05.2020
2143 Clouds 18 1023 52 10000 5.7 90 13:37 31.05.2020
2144 Clouds 18 1023 52 10000 5.7 90 13:37 31.05.2020
2145 Clouds 18 1023 52 10000 5.7 90 13:19 31.05.2020
2146 Clouds 19 1023 48 10000 4.6 90 12:46 31.05.2020
2147 Clouds 18 1023 48 10000 4.1 130 12:24 31.05.2020
2148 Clouds 19 1023 48 10000 4.6 130 11:56 31.05.2020
2149 Clouds 19 1023 45 10000 5.7 130 11:38 31.05.2020
2150 Clouds 19 1023 45 10000 5.7 130 11:19 31.05.2020
2151 Clouds 18 1022 51 10000 5.1 120 10:44 31.05.2020
2152 Clouds 18 1022 51 10000 5.1 120 10:44 31.05.2020
2153 Clouds 18 1022 51 10000 5.1 120 10:26 31.05.2020
2154 Clouds 18 1022 51 10000 5.7 120 09:58 31.05.2020
2155 Clouds 18 1022 51 10000 4.6 130 09:40 31.05.2020
2156 Clouds 18 1022 51 10000 4.6 130 09:20 31.05.2020
2157 Clouds 16 1021 59 10000 3.6 130 08:43 31.05.2020
2158 Clouds 16 1021 59 10000 3.6 130 08:24 31.05.2020
2159 Clouds 15 1021 71 10000 3.1 140 07:50 31.05.2020
2160 Clouds 15 1021 71 10000 3.1 140 07:22 31.05.2020
2161 Clouds 13 1021 87 10000 3.1 120 06:57 31.05.2020
2162 Clouds 12 1021 93 10000 3.1 100 06:35 31.05.2020
2163 Clouds 11 1021 100 10000 3.1 90 05:51 31.05.2020
2164 Clouds 11 1021 93 10000 1.5 110 05:32 31.05.2020
2165 Clouds 11 1021 100 10000 2.1 360 04:18 31.05.2020
2166 Clouds 10 1021 93 10000 1 350 03:39 31.05.2020
2167 Clouds 11 1021 93 10000 0.5 0 02:47 31.05.2020
2168 Clouds 11 1021 87 10000 1 60 01:46 31.05.2020
2169 Clouds 11 1021 87 10000 2.1 60 00:41 31.05.2020
2170 Clouds 11 1021 87 10000 2.1 60 00:23 31.05.2020
2171 Clouds 13 1021 71 10000 1.5 0 23:42 30.05.2020
2172 Clouds 13 1021 71 10000 1.5 0 23:23 30.05.2020
2173 Clouds 14 1021 66 10000 2.6 100 22:56 30.05.2020
2174 Clouds 15 1021 62 10000 3.1 100 22:37 30.05.2020
2175 Clouds 15 1021 62 10000 3.1 100 22:19 30.05.2020
2176 Clouds 17 1021 51 10000 3.1 90 21:42 30.05.2020
2177 Clouds 17 1021 51 10000 3.1 90 21:22 30.05.2020
2178 Clouds 18 1021 45 10000 4.1 100 20:57 30.05.2020
2179 Clouds 18 1021 42 10000 4.6 90 20:39 30.05.2020
2180 Clouds 18 1021 42 10000 4.6 90 20:21 30.05.2020
2181 Clouds 19 1021 39 10000 4.6 100 19:55 30.05.2020
2182 Clouds 19 1021 42 10000 5.1 100 19:37 30.05.2020
2183 Clouds 19 1021 42 10000 5.1 100 19:18 30.05.2020
2184 Clouds 19 1021 45 10000 6.2 80 18:43 30.05.2020
2185 Clouds 19 1021 45 10000 6.2 80 18:19 30.05.2020
2186 Clouds 20 1022 45 10000 5.1 100 17:42 30.05.2020
2187 Clouds 20 1022 45 10000 5.1 100 17:24 30.05.2020
2188 Clouds 20 1022 45 10000 5.1 100 17:24 30.05.2020
2189 Clouds 21 1022 37 10000 5.1 110 16:58 30.05.2020
2190 Clouds 21 1022 37 10000 4.6 120 16:38 30.05.2020
2191 Clouds 21 1022 37 10000 4.6 120 16:20 30.05.2020
2192 Clouds 21 1022 37 10000 4.6 130 15:42 30.05.2020
2193 Clouds 21 1022 37 10000 4.6 130 15:24 30.05.2020
2194 Clouds 21 1022 37 10000 4.6 130 15:24 30.05.2020
2195 Clouds 21 1022 37 10000 5.1 130 14:43 30.05.2020
2196 Clouds 21 1022 37 10000 5.1 130 14:24 30.05.2020
2197 Clouds 21 1022 45 10000 4.6 140 13:44 30.05.2020
2198 Clouds 21 1022 45 10000 4.6 140 13:24 30.05.2020
2199 Clouds 20 1022 45 10000 3.6 130 12:42 30.05.2020
2200 Clouds 20 1022 45 10000 3.6 130 12:21 30.05.2020
2201 Clouds 20 1022 48 10000 4.1 120 11:58 30.05.2020
2202 Clouds 20 1022 48 10000 4.1 110 11:39 30.05.2020
2203 Clouds 20 1022 48 10000 4.1 110 11:21 30.05.2020
2204 Clouds 18 1022 59 10000 2.1 90 10:41 30.05.2020
2205 Clouds 17 1022 63 10000 1.5 0 10:21 30.05.2020
2206 Clouds 17 1022 63 10000 1.5 0 09:51 30.05.2020
2207 Clouds 17 1022 63 10000 2.1 100 09:32 30.05.2020
2208 Clouds 15 1022 67 10000 2.6 90 08:52 30.05.2020
2209 Clouds 14 1022 71 10000 2.1 100 08:33 30.05.2020
2210 Clouds 13 1022 87 10000 0.5 0 07:49 30.05.2020
2211 Clouds 12 1022 87 10000 0.5 0 07:26 30.05.2020
2212 Clouds 11 1022 87 10000 3.1 90 06:58 30.05.2020
2213 Clouds 11 1022 87 10000 1.5 110 06:24 30.05.2020
2214 Clouds 11 1023 87 10000 1.5 100 05:49 30.05.2020
2215 Clouds 11 1023 81 10000 0.5 220 03:57 30.05.2020
2216 Clouds 13 1023 54 10000 1.5 160 02:31 30.05.2020
2217 Clouds 13 1023 54 10000 2.1 170 01:50 30.05.2020
2218 Clouds 14 1023 58 10000 1.5 0 00:40 30.05.2020
2219 Clouds 14 1023 62 10000 3.1 150 00:21 30.05.2020
2220 Clouds 14 1023 62 10000 3.1 150 23:58 29.05.2020
2221 Clouds 15 1023 58 10000 3.1 140 23:38 29.05.2020
2222 Clouds 15 1023 58 10000 3.1 140 23:18 29.05.2020
2223 Clouds 16 1023 55 10000 2.6 140 22:41 29.05.2020
2224 Clouds 17 1023 55 10000 2.6 140 22:20 29.05.2020
2225 Clouds 17 1023 55 10000 3.6 130 21:59 29.05.2020
2226 Clouds 18 1023 51 10000 4.1 130 21:39 29.05.2020
2227 Clouds 19 1023 51 10000 4.1 130 21:20 29.05.2020
2228 Clouds 20 1023 45 10000 4.6 130 20:45 29.05.2020
2229 Clouds 21 1023 45 10000 4.6 130 20:21 29.05.2020
2230 Clouds 21 1023 42 10000 5.1 140 19:59 29.05.2020
2231 Clouds 21 1023 42 10000 5.1 140 19:59 29.05.2020
2232 Clouds 21 1023 42 10000 5.1 140 19:41 29.05.2020
2233 Clouds 21 1023 42 10000 5.1 140 19:23 29.05.2020
2234 Clouds 21 1023 45 10000 5.1 130 18:47 29.05.2020
2235 Clouds 21 1023 45 10000 5.1 130 18:47 29.05.2020
2236 Clouds 21 1023 45 10000 5.1 130 18:21 29.05.2020
2237 Clouds 21 1023 45 10000 5.1 130 17:57 29.05.2020
2238 Clouds 21 1024 48 10000 5.1 140 17:38 29.05.2020
2239 Clouds 21 1024 48 10000 5.1 140 17:19 29.05.2020
2240 Clouds 21 1024 52 10000 5.1 140 16:44 29.05.2020
2241 Clouds 20 1024 52 10000 5.1 140 16:25 29.05.2020
2242 Clouds 21 1024 45 10000 5.1 140 15:57 29.05.2020
2243 Clouds 21 1024 48 10000 5.7 140 15:38 29.05.2020
2244 Clouds 21 1024 48 10000 5.7 140 15:19 29.05.2020
2245 Clouds 21 1025 45 10000 5.7 130 14:50 29.05.2020
2246 Clouds 20 1025 45 10000 4.6 130 14:23 29.05.2020
2247 Clouds 20 1025 45 10000 6.2 130 13:58 29.05.2020
2248 Clouds 20 1026 45 10000 6.2 140 13:39 29.05.2020
2249 Clouds 20 1026 45 10000 5.7 130 13:18 29.05.2020
2250 Clouds 19 1026 42 10000 6.7 140 12:43 29.05.2020
2251 Clouds 19 1026 42 10000 6.7 140 12:24 29.05.2020
2252 Clouds 19 1026 42 10000 6.2 140 11:46 29.05.2020
2253 Clouds 19 1026 42 10000 6.2 140 11:45 29.05.2020
2254 Clouds 19 1026 42 10000 6.2 140 11:27 29.05.2020
2255 Clouds 19 1026 42 10000 6.2 140 11:27 29.05.2020
2256 Clouds 18 1026 42 10000 7.2 150 10:58 29.05.2020
2257 Clouds 18 1026 48 10000 5.7 140 10:38 29.05.2020
2258 Clouds 17 1026 62 10000 3.6 130 10:19 29.05.2020
2259 Clouds 17 1026 67 10000 3.6 110 09:44 29.05.2020
2260 Clear 16 1026 67 10000 3.6 110 09:20 29.05.2020
2261 Clear 16 1026 59 10000 4.1 140 08:56 29.05.2020
2262 Clear 15 1026 72 10000 2.1 120 08:37 29.05.2020
2263 Clear 15 1026 72 10000 2.1 120 08:37 29.05.2020
2264 Clouds 15 1026 72 10000 2.1 120 08:19 29.05.2020
2265 Clouds 14 1026 76 10000 2.6 120 07:40 29.05.2020
2266 Clouds 14 1026 76 10000 2.6 120 07:21 29.05.2020
2267 Clouds 14 1026 76 10000 2.6 130 06:48 29.05.2020
2268 Clouds 13 1026 76 10000 2.6 130 06:27 29.05.2020
2269 Clouds 13 1027 76 10000 2.1 110 05:51 29.05.2020
2270 Clouds 13 1028 87 10000 1.5 120 02:39 29.05.2020
2271 Clouds 14 1028 76 10000 2.1 110 01:30 29.05.2020
2272 Clouds 15 1028 76 10000 2.6 140 00:59 29.05.2020
2273 Clouds 15 1028 76 10000 2.1 140 00:40 29.05.2020
2274 Clouds 15 1028 76 10000 2.1 140 00:18 29.05.2020
2275 Clouds 15 1029 76 10000 2.6 140 23:39 28.05.2020
2276 Clouds 16 1029 72 10000 3.1 140 23:19 28.05.2020
2277 Clouds 16 1029 72 10000 3.6 140 22:44 28.05.2020
2278 Clouds 16 1029 72 10000 3.6 140 22:26 28.05.2020
2279 Clouds 17 1029 67 10000 3.6 140 21:57 28.05.2020
2280 Clouds 18 1029 63 10000 4.6 120 21:39 28.05.2020
2281 Clouds 18 1029 63 10000 4.6 120 21:20 28.05.2020
2282 Clouds 21 1029 56 10000 4.1 140 20:57 28.05.2020
2283 Clouds 22 1029 56 10000 4.6 140 20:39 28.05.2020
2284 Clouds 22 1029 52 10000 5.1 130 20:18 28.05.2020
2285 Clouds 22 1029 52 10000 5.1 130 19:55 28.05.2020
2286 Clouds 22 1029 56 10000 4.6 120 19:37 28.05.2020
2287 Clouds 22 1029 56 10000 4.6 120 19:19 28.05.2020
2288 Clouds 22 1030 56 10000 5.7 110 18:42 28.05.2020
2289 Clouds 22 1030 56 10000 5.7 110 18:23 28.05.2020
2290 Clouds 22 1030 60 10000 5.7 120 17:43 28.05.2020
2291 Clouds 22 1030 60 10000 5.7 120 17:23 28.05.2020
2292 Clouds 22 1030 56 10000 5.7 110 16:58 28.05.2020
2293 Clouds 22 1031 56 10000 5.1 120 16:39 28.05.2020
2294 Clouds 22 1031 56 10000 5.1 120 16:20 28.05.2020
2295 Clouds 21 1031 52 10000 5.7 110 15:45 28.05.2020
2296 Clouds 21 1031 52 10000 5.7 110 15:24 28.05.2020
2297 Clouds 21 1031 52 10000 5.1 110 14:57 28.05.2020
2298 Clouds 21 1032 56 10000 5.7 110 14:38 28.05.2020
2299 Clouds 22 1032 56 10000 5.7 110 14:20 28.05.2020
2300 Clouds 21 1032 56 10000 5.7 120 13:43 28.05.2020
2301 Clouds 21 1032 56 10000 5.7 120 13:24 28.05.2020
2302 Clouds 20 1032 55 10000 5.1 110 12:42 28.05.2020
2303 Clouds 20 1032 55 10000 5.1 110 12:19 28.05.2020
2304 Clouds 19 1033 59 10000 4.1 110 11:44 28.05.2020
2305 Clouds 18 1033 59 10000 4.1 110 11:26 28.05.2020
2306 Clouds 18 1033 59 10000 4.1 110 11:26 28.05.2020
2307 Clouds 17 1033 59 10000 3.6 100 10:58 28.05.2020
2308 Clouds 17 1033 72 10000 3.1 90 10:39 28.05.2020
2309 Clouds 16 1033 72 10000 4.1 100 10:21 28.05.2020
2310 Clouds 15 1033 76 10000 4.1 100 09:39 28.05.2020
2311 Clouds 15 1033 76 10000 4.1 100 09:21 28.05.2020
2312 Clouds 14 1033 82 10000 3.1 90 08:51 28.05.2020
2313 Clouds 13 1034 87 10000 3.1 100 08:31 28.05.2020
2314 Clouds 11 1034 100 10000 2.6 90 07:54 28.05.2020
2315 Clouds 11 1034 93 10000 2.6 80 07:36 28.05.2020
2316 Clouds 10 1034 93 10000 2.6 80 07:18 28.05.2020
2317 Clouds 10 1034 100 10000 2.6 80 06:39 28.05.2020
2318 Clouds 10 1034 93 10000 1.5 0 06:20 28.05.2020
2319 Clouds 10 1034 93 10000 2.1 70 05:36 28.05.2020
2320 Clouds 10 1035 93 10000 3.1 80 04:33 28.05.2020
2321 Clouds 11 1035 87 10000 3.1 70 03:51 28.05.2020
2322 Clouds 11 1035 87 10000 2.6 90 02:47 28.05.2020
2323 Clouds 12 1035 76 10000 2.1 110 01:54 28.05.2020
2324 Clouds 13 1035 76 10000 2.6 110 00:56 28.05.2020
2325 Clouds 13 1035 71 10000 2.6 110 00:38 28.05.2020
2326 Clouds 13 1035 71 10000 2.6 110 00:18 28.05.2020
2327 Clouds 13 1036 66 10000 3.1 110 23:39 27.05.2020
2328 Clouds 13 1036 66 10000 3.1 110 23:21 27.05.2020
2329 Clouds 14 1036 66 10000 3.1 100 22:59 27.05.2020
2330 Clouds 14 1036 62 10000 2.6 110 22:40 27.05.2020
2331 Clouds 14 1036 62 10000 2.6 110 22:21 27.05.2020
2332 Clouds 15 1036 62 10000 4.1 90 21:42 27.05.2020
2333 Clear 15 1036 62 10000 4.1 90 21:24 27.05.2020
2334 Clear 15 1036 62 10000 5.1 100 20:59 27.05.2020
2335 Clouds 15 1036 58 10000 5.1 100 20:41 27.05.2020
2336 Clouds 15 1036 58 10000 5.1 100 20:41 27.05.2020
2337 Clouds 16 1036 58 10000 5.1 100 20:22 27.05.2020
2338 Clouds 16 1036 55 10000 5.7 100 19:59 27.05.2020
2339 Clouds 16 1036 59 10000 5.1 90 19:40 27.05.2020
2340 Clouds 17 1036 55 10000 5.7 80 19:19 27.05.2020
2341 Clouds 18 1036 55 10000 5.7 90 18:40 27.05.2020
2342 Clouds 18 1036 55 10000 5.7 90 18:20 27.05.2020
2343 Clouds 19 1036 52 10000 5.7 90 17:56 27.05.2020
2344 Clouds 19 1036 45 10000 4.6 110 17:37 27.05.2020
2345 Clouds 19 1036 45 10000 4.6 110 17:18 27.05.2020
2346 Clouds 20 1036 45 10000 4.6 120 16:54 27.05.2020
2347 Clouds 20 1036 52 10000 4.1 120 16:36 27.05.2020
2348 Clouds 20 1036 52 10000 4.1 120 16:18 27.05.2020
2349 Clouds 19 1036 52 10000 4.1 120 15:40 27.05.2020
2350 Clouds 19 1036 52 10000 4.1 120 15:21 27.05.2020
2351 Clouds 19 1037 55 10000 4.1 120 14:44 27.05.2020
2352 Clouds 19 1037 55 10000 4.1 120 14:22 27.05.2020
2353 Clouds 19 1037 63 10000 3.6 110 13:55 27.05.2020
2354 Clouds 18 1037 63 10000 3.6 110 13:36 27.05.2020
2355 Clouds 19 1037 63 10000 3.6 110 13:18 27.05.2020
2356 Clouds 18 1037 63 10000 2.6 110 12:40 27.05.2020
2357 Clouds 18 1037 63 10000 2.6 110 12:22 27.05.2020
2358 Clouds 17 1037 67 10000 3.1 110 11:40 27.05.2020
2359 Clouds 17 1037 67 10000 3.1 110 11:40 27.05.2020
2360 Clouds 17 1037 67 10000 3.1 110 11:22 27.05.2020
2361 Clouds 16 1037 77 10000 2.1 80 10:58 27.05.2020
2362 Clouds 16 1037 77 10000 2.1 90 10:39 27.05.2020
2363 Clouds 16 1037 77 10000 2.1 90 10:20 27.05.2020
2364 Clouds 15 1037 87 10000 2.6 100 09:41 27.05.2020
2365 Clouds 13 1037 100 10000 2.1 100 09:22 27.05.2020
2366 Clouds 12 1037 100 10000 2.1 100 08:56 27.05.2020
2367 Clouds 12 1037 100 10000 2.1 100 08:56 27.05.2020
2368 Clouds 12 1037 93 10000 1.5 0 08:36 27.05.2020
2369 Clouds 12 1037 100 9000 0.55 296 08:18 27.05.2020
2370 Clouds 11 1037 100 9000 0.55 296 07:49 27.05.2020
2371 Clouds 10 1037 100 9000 1 0 07:30 27.05.2020
2372 Clouds 10 1037 100 9000 1 0 07:30 27.05.2020
2373 Fog 10 1037 100 4000 1.5 120 06:47 27.05.2020
2374 Fog 9 1037 100 4000 1.5 120 06:20 27.05.2020
2375 Fog 9 1037 93 4000 1.5 100 05:49 27.05.2020
2376 Clouds 10 1037 93 8000 1 0 04:38 27.05.2020
2377 Clouds 11 1037 93 10000 1.5 0 02:34 27.05.2020
2378 Clouds 12 1037 93 10000 2.1 150 01:53 27.05.2020
2379 Clouds 12 1037 93 10000 2.1 150 01:29 27.05.2020
2380 Clouds 13 1037 87 10000 2.6 120 00:46 27.05.2020
2381 Clouds 13 1037 87 10000 3.6 110 00:20 27.05.2020
2382 Clouds 13 1037 87 10000 3.6 110 23:55 26.05.2020
2383 Clouds 13 1037 87 10000 3.6 110 23:37 26.05.2020
2384 Clouds 13 1037 87 10000 3.6 110 23:37 26.05.2020
2385 Clouds 13 1037 87 10000 3.6 110 23:37 26.05.2020
2386 Clouds 14 1037 87 10000 3.6 110 23:18 26.05.2020
2387 Clouds 14 1037 87 10000 3.6 110 23:18 26.05.2020
2388 Clouds 15 1037 76 10000 2.6 130 22:40 26.05.2020
2389 Clouds 15 1037 76 10000 2.6 130 22:21 26.05.2020
2390 Clouds 15 1037 76 10000 2.6 130 21:58 26.05.2020
2391 Clouds 15 1037 76 10000 3.6 130 21:40 26.05.2020
2392 Clouds 16 1037 76 10000 3.6 130 21:21 26.05.2020
2393 Clouds 16 1037 77 10000 4.1 140 20:56 26.05.2020
2394 Clouds 16 1037 72 10000 3.6 130 20:37 26.05.2020
2395 Clouds 16 1037 72 10000 4.1 140 20:19 26.05.2020
2396 Clouds 17 1037 72 10000 4.1 140 19:40 26.05.2020
2397 Clouds 17 1037 72 10000 4.1 140 19:20 26.05.2020
2398 Clouds 17 1037 67 10000 4.6 150 18:44 26.05.2020
2399 Clouds 17 1037 67 10000 4.6 150 18:25 26.05.2020
2400 Clouds 17 1037 63 10000 4.6 140 17:59 26.05.2020
2401 Clouds 17 1037 59 10000 4.1 140 17:38 26.05.2020
2402 Clouds 17 1037 59 10000 4.1 140 17:20 26.05.2020
2403 Clouds 17 1037 59 10000 4.6 140 16:47 26.05.2020
2404 Clouds 18 1037 55 10000 4.6 110 16:22 26.05.2020
2405 Clouds 17 1037 63 10000 4.1 110 15:56 26.05.2020
2406 Clouds 18 1037 59 10000 3.6 100 15:38 26.05.2020
2407 Clouds 18 1037 59 10000 3.6 100 15:19 26.05.2020
2408 Clouds 18 1037 52 10000 3.1 310 14:43 26.05.2020
2409 Clouds 18 1037 52 10000 3.1 310 14:24 26.05.2020
2410 Clouds 18 1037 52 10000 3.1 310 13:57 26.05.2020
2411 Clouds 18 1037 55 10000 3.6 330 13:38 26.05.2020
2412 Clouds 17 1037 55 10000 3.6 330 13:20 26.05.2020
2413 Clouds 17 1037 59 10000 3.1 290 12:43 26.05.2020
2414 Clouds 16 1037 63 10000 3.1 310 12:22 26.05.2020
2415 Clouds 16 1037 63 10000 3.1 310 11:58 26.05.2020
2416 Clouds 16 1037 63 10000 3.1 310 11:58 26.05.2020
2417 Clouds 16 1037 62 10000 3.1 290 11:40 26.05.2020
2418 Clouds 15 1037 67 10000 3.6 280 11:18 26.05.2020
2419 Clouds 14 1036 71 10000 3.6 290 10:43 26.05.2020
2420 Clouds 14 1036 71 10000 3.6 290 10:19 26.05.2020
2421 Clouds 14 1036 76 10000 5.1 290 09:41 26.05.2020
2422 Clouds 14 1036 76 10000 5.1 290 09:20 26.05.2020
2423 Clouds 13 1035 87 10000 4.6 290 08:44 26.05.2020
2424 Clouds 13 1035 87 10000 4.1 280 08:23 26.05.2020
2425 Clouds 13 1035 87 10000 4.1 280 07:58 26.05.2020
2426 Clouds 13 1035 87 10000 4.1 280 07:39 26.05.2020
2427 Clouds 13 1035 87 10000 4.1 280 07:21 26.05.2020
2428 Clouds 13 1034 82 10000 3.1 260 06:46 26.05.2020
2429 Clouds 14 1034 82 10000 3.1 260 06:19 26.05.2020
2430 Clouds 14 1034 82 10000 2.6 240 05:35 26.05.2020
2431 Clouds 14 1034 82 10000 3.1 250 04:56 26.05.2020
2432 Clouds 14 1034 82 10000 2.1 250 04:34 26.05.2020
2433 Clouds 14 1034 82 10000 3.6 240 03:59 26.05.2020
2434 Clouds 14 1033 82 10000 2.6 240 02:49 26.05.2020
2435 Clouds 13 1033 82 10000 3.1 230 01:49 26.05.2020
2436 Clouds 13 1033 82 10000 4.1 220 01:28 26.05.2020
2437 Clouds 14 1032 76 10000 4.1 230 00:39 26.05.2020
2438 Clouds 14 1032 76 10000 4.1 230 00:19 26.05.2020
2439 Clouds 14 1032 71 10000 4.6 220 23:56 25.05.2020
2440 Clouds 14 1032 71 10000 4.6 230 23:37 25.05.2020
2441 Clouds 14 1032 71 10000 4.6 230 23:18 25.05.2020
2442 Clouds 15 1032 67 10000 4.6 220 22:55 25.05.2020
2443 Clouds 15 1032 62 10000 4.1 230 22:36 25.05.2020
2444 Clouds 15 1032 62 10000 4.1 230 22:18 25.05.2020
2445 Clouds 15 1032 62 10000 4.1 230 22:18 25.05.2020
2446 Clouds 15 1032 62 10000 4.1 230 22:18 25.05.2020
2447 Clouds 15 1032 62 10000 4.1 230 21:55 25.05.2020
2448 Clouds 16 1031 63 10000 4.6 240 21:36 25.05.2020
2449 Clouds 16 1031 63 10000 4.1 230 21:18 25.05.2020
2450 Clouds 16 1031 59 10000 5.1 220 20:42 25.05.2020
2451 Clouds 16 1031 59 10000 5.1 220 20:22 25.05.2020
2452 Clouds 16 1031 59 10000 5.1 220 20:22 25.05.2020
2453 Clouds 17 1031 59 10000 5.1 220 19:59 25.05.2020
2454 Clouds 17 1031 59 10000 5.7 220 19:40 25.05.2020
2455 Rain 17 1031 55 10000 5.1 220 19:18 25.05.2020
2456 Rain 17 1031 55 10000 5.1 220 18:55 25.05.2020
2457 Clouds 17 1031 55 10000 4.6 220 18:36 25.05.2020
2458 Clouds 18 1031 55 10000 5.1 230 18:18 25.05.2020
2459 Clouds 18 1031 52 10000 5.1 230 17:42 25.05.2020
2460 Clouds 18 1031 52 10000 5.1 230 17:23 25.05.2020
2461 Clouds 19 1031 48 10000 5.1 220 16:57 25.05.2020
2462 Clouds 19 1031 45 10000 5.1 230 16:39 25.05.2020
2463 Clouds 19 1031 45 10000 5.7 230 16:19 25.05.2020
2464 Clouds 19 1031 45 10000 5.7 230 16:19 25.05.2020
2465 Clouds 18 1031 48 10000 5.1 230 15:44 25.05.2020
2466 Clouds 18 1031 48 10000 5.1 230 15:19 25.05.2020
2467 Clouds 18 1031 45 10000 6.2 200 14:58 25.05.2020
2468 Clouds 18 1031 48 10000 5.7 220 14:38 25.05.2020
2469 Clouds 18 1031 48 10000 5.7 220 14:19 25.05.2020
2470 Clouds 17 1031 48 10000 6.2 230 13:39 25.05.2020
2471 Clouds 17 1031 48 10000 6.2 230 13:21 25.05.2020
2472 Clouds 16 1031 51 10000 4.6 220 12:57 25.05.2020
2473 Clouds 16 1031 59 10000 5.1 250 12:38 25.05.2020
2474 Clouds 16 1031 59 10000 5.1 250 12:20 25.05.2020
2475 Clouds 15 1032 62 10000 5.1 220 11:39 25.05.2020
2476 Clouds 14 1032 62 10000 5.1 220 11:20 25.05.2020
2477 Clouds 15 1032 54 10000 4.1 220 10:56 25.05.2020
2478 Clouds 15 1032 54 10000 3.6 220 10:37 25.05.2020
2479 Clouds 14 1032 54 10000 3.6 220 10:19 25.05.2020
2480 Clouds 14 1032 62 10000 2.6 230 09:54 25.05.2020
2481 Clouds 14 1032 66 10000 2.6 230 09:36 25.05.2020
2482 Clouds 12 1032 71 10000 0.5 0 09:18 25.05.2020
2483 Clouds 12 1032 71 10000 0.5 0 09:18 25.05.2020
2484 Clouds 10 1032 87 10000 2.1 250 08:39 25.05.2020
2485 Clouds 10 1032 87 10000 2.1 250 08:20 25.05.2020
2486 Clouds 9 1032 93 10000 0.5 0 07:48 25.05.2020
2487 Clouds 7 1032 93 10000 0.5 0 07:26 25.05.2020
2488 Clouds 7 1032 93 10000 1.5 200 06:56 25.05.2020
2489 Clouds 7 1032 93 10000 0.5 0 06:35 25.05.2020
2490 Clouds 7 1032 87 10000 1 220 05:20 25.05.2020
2491 Clouds 8 1032 93 10000 2.1 260 03:25 25.05.2020
2492 Clouds 8 1032 93 10000 2.6 270 02:46 25.05.2020
2493 Clouds 9 1032 81 10000 3.1 280 01:59 25.05.2020
2494 Clouds 10 1032 81 10000 2.1 290 01:40 25.05.2020
2495 Clouds 10 1032 81 10000 2.6 300 00:45 25.05.2020
2496 Clouds 10 1032 81 10000 2.6 300 00:23 25.05.2020
2497 Clouds 11 1032 76 10000 2.1 330 23:57 24.05.2020
2498 Clouds 13 1031 66 10000 2.6 340 23:38 24.05.2020
2499 Clouds 13 1031 66 10000 2.6 340 23:19 24.05.2020
2500 Clouds 15 1031 58 10000 3.1 320 22:41 24.05.2020
2501 Clouds 16 1031 58 10000 3.1 320 22:20 24.05.2020
2502 Clouds 16 1031 55 10000 3.6 320 21:58 24.05.2020
2503 Clouds 17 1031 51 10000 4.6 310 21:40 24.05.2020
2504 Clouds 17 1031 51 10000 4.6 310 21:21 24.05.2020
2505 Clouds 18 1030 48 10000 5.7 290 20:57 24.05.2020
2506 Clouds 18 1030 48 10000 5.7 290 20:57 24.05.2020
2507 Clouds 19 1030 42 10000 4.6 290 20:38 24.05.2020
2508 Clouds 19 1030 39 10000 3.6 280 20:18 24.05.2020
2509 Clouds 19 1030 39 10000 3.6 280 19:55 24.05.2020
2510 Clouds 19 1030 42 10000 3.1 240 19:36 24.05.2020
2511 Clouds 19 1030 42 10000 3.1 240 19:18 24.05.2020
2512 Clouds 20 1030 40 10000 4.1 250 18:41 24.05.2020
2513 Clouds 20 1030 40 10000 4.1 250 18:23 24.05.2020
2514 Clouds 19 1030 37 10000 4.1 250 17:57 24.05.2020
2515 Clouds 19 1030 39 10000 4.1 240 17:37 24.05.2020
2516 Clouds 19 1030 39 10000 4.1 240 17:19 24.05.2020
2517 Clouds 19 1030 42 10000 4.1 260 16:54 24.05.2020
2518 Clouds 19 1030 45 10000 4.1 230 16:36 24.05.2020
2519 Clouds 19 1030 45 10000 5.1 260 16:18 24.05.2020
2520 Clouds 19 1030 42 10000 4.6 250 15:40 24.05.2020
2521 Clouds 19 1030 42 10000 4.6 250 15:20 24.05.2020
2522 Clouds 18 1030 52 10000 6.2 280 14:58 24.05.2020
2523 Clouds 17 1030 55 10000 6.7 260 14:40 24.05.2020
2524 Clouds 17 1030 55 10000 6.7 260 14:21 24.05.2020
2525 Clouds 17 1029 59 10000 6.2 260 13:55 24.05.2020
2526 Clouds 16 1029 59 10000 6.2 260 13:36 24.05.2020
2527 Clouds 16 1029 59 10000 6.2 260 13:18 24.05.2020
2528 Clouds 15 1029 62 10000 8.2 260 12:55 24.05.2020
2529 Clouds 15 1029 62 10000 6.2 250 12:37 24.05.2020
2530 Clouds 14 1029 71 10000 7.2 250 12:18 24.05.2020
2531 Clouds 14 1029 71 10000 8.7 270 11:45 24.05.2020
2532 Clouds 13 1029 71 10000 8.7 270 11:26 24.05.2020
2533 Clouds 13 1028 76 10000 7.7 260 10:59 24.05.2020
2534 Clouds 13 1028 71 10000 8.7 260 10:41 24.05.2020
2535 Clouds 13 1028 71 10000 8.7 260 10:23 24.05.2020
2536 Clouds 12 1027 71 10000 7.7 260 09:55 24.05.2020
2537 Clouds 12 1027 76 10000 6.7 260 09:37 24.05.2020
2538 Clouds 12 1027 76 10000 6.7 260 09:18 24.05.2020
2539 Clouds 12 1026 76 10000 7.2 250 08:41 24.05.2020
2540 Clouds 12 1026 76 10000 7.2 250 08:41 24.05.2020
2541 Clouds 12 1026 76 10000 7.2 250 08:22 24.05.2020
2542 Clouds 11 1026 87 10000 6.7 260 07:57 24.05.2020
2543 Clouds 11 1026 87 10000 7.7 260 07:39 24.05.2020
2544 Clouds 11 1026 87 10000 7.7 260 07:19 24.05.2020
2545 Clouds 11 1025 81 10000 7.2 260 06:38 24.05.2020
2546 Clouds 12 1025 87 10000 7.7 250 05:43 24.05.2020
2547 Drizzle 12 1024 87 10000 6.2 250 03:49 24.05.2020
2548 Drizzle 12 1024 87 10000 6.2 250 03:26 24.05.2020
2549 Drizzle 12 1023 87 10000 7.2 250 02:23 24.05.2020
2550 Drizzle 12 1022 93 7000 6.2 250 00:49 24.05.2020
2551 Drizzle 12 1022 93 7000 6.2 250 00:27 24.05.2020
2552 Drizzle 12 1022 93 7000 6.2 250 00:27 24.05.2020
2553 Clouds 12 1022 87 10000 5.1 240 23:59 23.05.2020
2554 Drizzle 11 1022 93 9000 6.2 240 23:37 23.05.2020
2555 Drizzle 12 1022 93 9000 6.2 240 23:19 23.05.2020
2556 Rain 11 1021 93 10000 5.1 240 22:55 23.05.2020
2557 Rain 11 1021 87 10000 4.6 240 22:37 23.05.2020
2558 Rain 11 1021 87 10000 4.6 240 22:18 23.05.2020
2559 Clouds 11 1021 81 10000 6.2 240 21:56 23.05.2020
2560 Clouds 12 1021 76 10000 6.2 250 21:36 23.05.2020
2561 Clouds 12 1021 76 10000 6.2 250 21:18 23.05.2020
2562 Rain 12 1021 71 10000 8.2 250 20:39 23.05.2020
2563 Rain 12 1021 71 10000 8.2 250 20:20 23.05.2020
2564 Clouds 13 1020 62 10000 9.8 260 19:59 23.05.2020
2565 Clouds 13 1020 58 10000 9.8 270 19:40 23.05.2020
2566 Clouds 14 1019 54 10000 10.8 270 19:19 23.05.2020
2567 Clouds 14 1019 62 10000 9.8 270 18:41 23.05.2020
2568 Clouds 14 1019 62 10000 9.8 270 18:23 23.05.2020
2569 Clouds 14 1019 71 10000 9.8 260 17:58 23.05.2020
2570 Clouds 13 1018 76 10000 9.8 270 17:40 23.05.2020
2571 Clouds 13 1018 76 10000 9.8 270 17:21 23.05.2020
2572 Clouds 14 1018 54 10000 11.3 270 16:59 23.05.2020
2573 Clouds 14 1017 50 10000 10.8 260 16:41 23.05.2020
2574 Clouds 14 1017 50 10000 10.8 260 16:20 23.05.2020
2575 Clouds 14 1017 47 10000 10.3 260 15:56 23.05.2020
2576 Clouds 14 1016 47 10000 9.3 250 15:38 23.05.2020
2577 Clouds 14 1016 47 10000 9.3 260 15:20 23.05.2020
2578 Clouds 14 1016 50 10000 8.7 260 14:41 23.05.2020
2579 Clouds 14 1016 50 10000 8.7 260 14:23 23.05.2020
2580 Clouds 14 1016 50 10000 8.7 260 14:23 23.05.2020
2581 Rain 14 1015 54 10000 10.8 260 13:42 23.05.2020
2582 Clouds 13 1014 54 10000 9.3 260 13:19 23.05.2020
2583 Clouds 13 1014 54 10000 9.3 260 12:59 23.05.2020
2584 Clouds 13 1014 54 10000 9.3 260 12:59 23.05.2020
2585 Rain 13 1014 62 10000 10.3 260 12:40 23.05.2020
2586 Rain 13 1014 62 10000 10.3 260 12:40 23.05.2020
2587 Rain 12 1014 62 10000 10.3 260 12:19 23.05.2020
2588 Clouds 12 1013 66 10000 7.2 250 11:54 23.05.2020
2589 Rain 11 1013 62 10000 8.7 250 11:36 23.05.2020
2590 Rain 11 1013 62 10000 8.7 250 11:18 23.05.2020
2591 Clouds 11 1012 71 10000 6.2 240 10:54 23.05.2020
2592 Clouds 11 1012 71 10000 6.2 240 10:36 23.05.2020
2593 Clouds 11 1012 71 10000 6.2 240 10:18 23.05.2020
2594 Clouds 10 1012 76 10000 6.2 240 09:41 23.05.2020
2595 Clouds 10 1012 76 10000 6.2 240 09:23 23.05.2020
2596 Clouds 9 1011 76 10000 6.2 230 08:44 23.05.2020
2597 Clouds 9 1011 76 10000 6.2 230 08:20 23.05.2020
2598 Clouds 9 1011 76 10000 6.2 230 08:20 23.05.2020
2599 Clouds 9 1011 76 10000 6.7 230 07:59 23.05.2020
2600 Clouds 9 1010 76 10000 7.7 240 07:40 23.05.2020
2601 Clouds 9 1010 76 10000 7.7 240 07:21 23.05.2020
2602 Clouds 9 1010 76 10000 7.2 230 06:40 23.05.2020
2603 Rain 9 1010 76 10000 7.2 240 05:51 23.05.2020
2604 Clouds 10 1009 71 10000 7.2 240 03:51 23.05.2020
2605 Clouds 10 1009 71 10000 7.2 240 03:21 23.05.2020
2606 Clouds 10 1009 76 10000 8.2 240 02:24 23.05.2020
2607 Clouds 10 1009 76 10000 7.2 230 01:27 23.05.2020
2608 Clouds 10 1009 76 10000 8.2 240 00:49 23.05.2020
2609 Clouds 10 1009 76 10000 8.2 240 00:29 23.05.2020
2610 Clouds 10 1008 71 10000 7.7 230 23:58 22.05.2020
2611 Rain 10 1008 71 10000 6.7 240 23:39 22.05.2020
2612 Rain 10 1008 71 10000 6.7 240 23:19 22.05.2020
2613 Rain 11 1008 66 10000 7.7 240 22:56 22.05.2020
2614 Clouds 11 1008 62 10000 8.2 240 22:38 22.05.2020
2615 Clouds 11 1008 62 10000 8.2 240 22:18 22.05.2020
2616 Rain 11 1007 76 10000 9.8 260 21:44 22.05.2020
2617 Rain 12 1007 76 10000 9.8 260 21:21 22.05.2020
2618 Rain 13 1006 62 10000 8.2 250 20:54 22.05.2020
2619 Rain 14 1006 66 10000 9.3 250 20:36 22.05.2020
2620 Clouds 14 1006 66 10000 9.3 250 20:18 22.05.2020
2621 Rain 13 1007 87 10000 10.8 250 19:41 22.05.2020
2622 Rain 13 1007 87 10000 10.8 250 19:23 22.05.2020
2623 Rain 13 1006 62 10000 9.8 240 18:40 22.05.2020
2624 Rain 13 1006 62 10000 9.8 240 18:40 22.05.2020
2625 Rain 13 1006 62 10000 9.8 240 18:21 22.05.2020
2626 Clouds 13 1006 76 10000 10.8 260 17:59 22.05.2020
2627 Clouds 15 1005 51 10000 9.3 230 17:38 22.05.2020
2628 Rain 15 1005 51 10000 9.3 230 17:18 22.05.2020
2629 Rain 14 1004 44 10000 9.8 220 16:45 22.05.2020
2630 Rain 15 1004 44 10000 9.8 220 16:21 22.05.2020
2631 Clouds 16 1004 42 10000 11.8 230 15:59 22.05.2020
2632 Clouds 16 1004 39 10000 9.8 230 15:41 22.05.2020
2633 Clouds 16 1004 39 10000 9.8 230 15:20 22.05.2020
2634 Clouds 15 1003 67 10000 7.7 230 14:44 22.05.2020
2635 Clouds 15 1003 67 10000 7.7 230 14:24 22.05.2020
2636 Rain 15 1003 58 10000 9.3 220 13:46 22.05.2020
2637 Rain 15 1003 58 10000 9.3 220 13:21 22.05.2020
2638 Rain 14 1002 62 10000 11.3 230 12:55 22.05.2020
2639 Rain 15 1002 54 10000 12.3 220 12:37 22.05.2020
2640 Clouds 15 1002 54 10000 12.3 220 12:19 22.05.2020
2641 Clouds 14 1001 66 10000 11.8 210 11:43 22.05.2020
2642 Clouds 14 1001 66 10000 11.8 210 11:21 22.05.2020
2643 Clouds 14 1001 62 10000 11.8 220 10:55 22.05.2020
2644 Clouds 14 1001 62 10000 11.8 220 10:55 22.05.2020
2645 Clouds 14 1001 62 10000 11.8 220 10:37 22.05.2020
2646 Clouds 14 1001 62 10000 11.8 220 10:37 22.05.2020
2647 Clouds 14 1000 62 10000 10.8 220 10:18 22.05.2020
2648 Clouds 13 1001 62 10000 10.3 210 09:42 22.05.2020
2649 Clouds 12 1001 62 10000 10.3 210 09:19 22.05.2020
2650 Clouds 12 1001 66 10000 8.7 210 08:44 22.05.2020
2651 Clouds 12 1001 66 10000 8.7 210 08:44 22.05.2020
2652 Clouds 12 1001 66 10000 8.7 210 08:21 22.05.2020
2653 Clouds 12 1001 66 10000 9.3 210 07:57 22.05.2020
2654 Clouds 11 1001 71 10000 7.7 220 07:27 22.05.2020
2655 Clouds 11 1001 71 10000 8.2 220 06:58 22.05.2020
2656 Clouds 11 1001 71 10000 7.7 220 06:40 22.05.2020
2657 Clouds 12 1001 76 10000 8.7 220 05:40 22.05.2020
2658 Rain 13 1001 82 10000 6.2 200 04:51 22.05.2020
2659 Rain 13 1001 82 10000 6.2 200 04:32 22.05.2020
2660 Rain 12 1001 93 10000 7.7 150 03:48 22.05.2020
2661 Rain 12 1002 93 10000 8.2 150 02:59 22.05.2020
2662 Rain 11 1004 93 10000 6.2 150 01:57 22.05.2020
2663 Rain 11 1005 87 10000 4.6 140 01:28 22.05.2020
2664 Rain 11 1008 93 10000 4.6 130 00:49 22.05.2020
2665 Rain 12 1008 93 10000 4.6 130 00:28 22.05.2020
2666 Clouds 13 1010 81 10000 4.6 140 23:45 21.05.2020
2667 Clouds 13 1010 81 10000 4.6 140 23:25 21.05.2020
2668 Clouds 13 1011 81 10000 5.1 150 22:58 21.05.2020
2669 Clouds 13 1011 81 10000 5.1 150 22:58 21.05.2020
2670 Clouds 13 1011 76 10000 7.2 150 22:40 21.05.2020
2671 Clouds 13 1011 76 10000 7.2 150 22:40 21.05.2020
2672 Clouds 13 1011 76 10000 7.2 150 22:21 21.05.2020
2673 Clouds 13 1011 81 10000 5.7 140 21:59 21.05.2020
2674 Clouds 12 1012 93 10000 5.7 130 21:40 21.05.2020
2675 Clouds 12 1012 93 10000 5.7 130 21:22 21.05.2020
2676 Clouds 13 1014 81 10000 5.7 140 20:45 21.05.2020
2677 Clouds 12 1014 81 10000 5.7 140 20:22 21.05.2020
2678 Clouds 13 1014 81 10000 5.1 130 19:55 21.05.2020
2679 Clouds 13 1015 81 10000 5.7 120 19:36 21.05.2020
2680 Clouds 13 1015 81 10000 5.7 120 19:18 21.05.2020
2681 Clouds 13 1016 71 10000 5.1 130 18:39 21.05.2020
2682 Clouds 13 1016 71 10000 5.1 130 18:19 21.05.2020
2683 Clouds 14 1017 71 10000 5.1 130 17:58 21.05.2020
2684 Clouds 15 1018 67 10000 6.7 150 17:39 21.05.2020
2685 Clouds 15 1018 67 10000 6.7 150 17:21 21.05.2020
2686 Clouds 15 1018 67 10000 6.7 140 16:46 21.05.2020
2687 Clouds 15 1018 67 10000 6.7 140 16:24 21.05.2020
2688 Clouds 16 1019 59 10000 5.1 140 15:47 21.05.2020
2689 Clouds 16 1019 59 10000 5.1 140 15:24 21.05.2020
2690 Clouds 17 1019 59 10000 4.6 130 14:56 21.05.2020
2691 Clouds 17 1020 51 10000 2.1 220 14:37 21.05.2020
2692 Clouds 17 1020 51 10000 2.1 220 14:18 21.05.2020
2693 Clouds 17 1020 51 10000 2.6 250 13:40 21.05.2020
2694 Clouds 17 1020 51 10000 2.6 250 13:22 21.05.2020
2695 Clouds 16 1020 55 10000 2.6 280 12:55 21.05.2020
2696 Clouds 16 1020 58 10000 3.6 270 12:36 21.05.2020
2697 Clouds 15 1020 67 10000 4.1 280 12:18 21.05.2020
2698 Clouds 14 1020 76 10000 4.6 280 11:41 21.05.2020
2699 Clouds 14 1020 76 10000 4.6 280 11:23 21.05.2020
2700 Clouds 13 1020 76 10000 4.1 280 10:55 21.05.2020
2701 Clouds 12 1020 81 10000 3.6 260 10:37 21.05.2020
2702 Clouds 12 1020 81 10000 3.6 260 10:18 21.05.2020
2703 Clouds 11 1020 87 10000 5.7 270 09:42 21.05.2020
2704 Clouds 11 1019 87 10000 6.2 270 09:24 21.05.2020
2705 Clouds 11 1019 87 10000 6.2 270 08:58 21.05.2020
2706 Clouds 11 1019 87 10000 4.6 260 08:40 21.05.2020
2707 Clouds 11 1018 87 10000 6.2 260 08:22 21.05.2020
2708 Clouds 11 1017 93 10000 5.7 270 07:43 21.05.2020
2709 Clouds 11 1017 93 10000 5.7 270 07:24 21.05.2020
2710 Rain 11 1017 93 10000 5.7 270 06:45 21.05.2020
2711 Rain 12 1017 87 10000 4.6 260 05:52 21.05.2020
2712 Clouds 12 1016 87 10000 5.7 250 04:29 21.05.2020
2713 Clouds 12 1016 87 10000 2.6 230 03:21 21.05.2020
2714 Clouds 13 1016 71 10000 3.1 240 02:37 21.05.2020
2715 Clouds 13 1016 71 10000 3.1 240 02:18 21.05.2020
2716 Clouds 12 1016 81 10000 2.6 230 01:42 21.05.2020
2717 Clouds 12 1016 81 10000 2.6 230 01:18 21.05.2020
2718 Clouds 13 1016 58 10000 2.6 120 00:44 21.05.2020
2719 Clouds 13 1016 76 10000 2.6 120 00:21 21.05.2020
2720 Clouds 13 1016 76 10000 2.6 120 23:40 20.05.2020
2721 Clouds 13 1016 76 10000 2.6 120 23:19 20.05.2020
2722 Clouds 14 1016 58 10000 1.5 0 22:55 20.05.2020
2723 Clouds 16 1016 55 10000 2.6 180 22:37 20.05.2020
2724 Clouds 16 1016 51 10000 1.5 0 22:19 20.05.2020
2725 Clouds 17 1016 52 10000 1.5 0 21:40 20.05.2020
2726 Clouds 18 1015 48 10000 3.1 150 21:20 20.05.2020
2727 Clouds 19 1015 39 10000 4.6 140 20:44 20.05.2020
2728 Clouds 19 1015 39 10000 4.6 140 20:24 20.05.2020
2729 Clouds 19 1016 32 10000 5.7 160 19:54 20.05.2020
2730 Clouds 19 1015 46 10000 5.7 150 19:36 20.05.2020
2731 Clouds 20 1015 52 10000 4.1 130 19:18 20.05.2020
2732 Clouds 21 1016 55 10000 4.1 130 18:42 20.05.2020
2733 Clouds 21 1016 55 10000 4.1 130 18:21 20.05.2020
2734 Clouds 20 1016 52 10000 5.1 140 17:41 20.05.2020
2735 Clouds 20 1016 52 10000 5.1 140 17:22 20.05.2020
2736 Clouds 20 1016 55 10000 4.6 140 16:55 20.05.2020
2737 Clouds 20 1017 59 10000 5.1 120 16:37 20.05.2020
2738 Clouds 19 1017 59 10000 5.7 130 16:18 20.05.2020
2739 Clouds 20 1017 59 10000 5.1 130 15:43 20.05.2020
2740 Clouds 20 1017 59 10000 5.7 140 15:25 20.05.2020
2741 Clouds 20 1017 63 10000 5.7 140 14:44 20.05.2020
2742 Clouds 20 1017 63 10000 5.7 140 14:23 20.05.2020
2743 Clouds 19 1018 59 10000 5.1 140 13:55 20.05.2020
2744 Clouds 19 1018 63 10000 3.6 130 13:37 20.05.2020
2745 Clouds 18 1018 63 10000 3.6 130 13:18 20.05.2020
2746 Clouds 17 1018 63 10000 3.1 100 12:42 20.05.2020
2747 Clouds 17 1018 63 10000 3.1 100 12:20 20.05.2020
2748 -273 0 0 0 0 0 11:38 20.05.2020
2749 Clouds 16 1019 77 10000 1 0 11:37 20.05.2020
2750 Clouds 16 1019 77 10000 1 0 11:19 20.05.2020
2751 Clouds 15 1019 76 10000 1.5 0 10:44 20.05.2020
2752 Clouds 15 1019 76 10000 1.5 0 10:22 20.05.2020
2753 Clouds 13 1019 82 10000 1.5 0 09:57 20.05.2020
2754 Clouds 13 1019 87 10000 2.1 340 09:38 20.05.2020
2755 Clouds 13 1019 87 10000 2.1 340 09:19 20.05.2020
2756 Clouds 11 1019 93 10000 1 0 08:41 20.05.2020
2757 Clouds 11 1019 93 10000 1 0 08:19 20.05.2020
2758 Clouds 9 1019 100 10000 1 0 07:49 20.05.2020
2759 Clouds 9 1019 100 10000 0.5 0 07:22 20.05.2020
2760 Clouds 9 1019 100 10000 0.5 0 06:49 20.05.2020
2761 Clouds 10 1020 81 10000 1.5 120 05:52 20.05.2020
2762 Clouds 11 1020 81 10000 3.6 260 04:37 20.05.2020
2763 Clouds 12 1020 81 10000 2.1 240 03:55 20.05.2020
2764 Clouds 12 1020 82 10000 2.1 210 03:25 20.05.2020
2765 Clouds 14 1020 76 10000 2.6 230 01:33 20.05.2020
2766 Clouds 15 1020 77 10000 1 0 00:46 20.05.2020
2767 Clouds 14 1021 100 10000 0.5 360 00:25 20.05.2020
2768 Clouds 13 1020 87 10000 1.5 0 23:47 19.05.2020
2769 Clouds 14 1020 87 10000 1.5 0 23:23 19.05.2020
2770 Clouds 14 1020 87 10000 1.5 0 22:58 19.05.2020
2771 Clouds 15 1020 87 10000 2.1 340 22:39 19.05.2020
2772 Clouds 15 1020 87 10000 2.1 340 22:20 19.05.2020
2773 Clouds 17 1020 82 10000 1 0 21:59 19.05.2020
2774 Clouds 17 1020 77 10000 2.1 100 21:40 19.05.2020
2775 Clouds 18 1020 72 10000 3.6 110 21:22 19.05.2020
2776 Clouds 18 1020 72 10000 3.6 110 20:59 19.05.2020
2777 Clouds 18 1020 72 10000 3.6 110 20:59 19.05.2020
2778 Clouds 19 1020 63 10000 3.6 100 20:40 19.05.2020
2779 Clouds 20 1020 63 10000 3.6 100 20:22 19.05.2020
2780 Clouds 21 1020 63 10000 4.1 110 19:59 19.05.2020
2781 Clouds 21 1021 60 10000 3.6 120 19:37 19.05.2020
2782 Clouds 21 1021 60 10000 4.6 140 19:19 19.05.2020
2783 Clouds 21 1021 60 10000 4.1 140 18:43 19.05.2020
2784 Clouds 21 1021 60 10000 4.1 140 18:22 19.05.2020
2785 Clouds 21 1021 60 10000 3.6 120 17:56 19.05.2020
2786 Clouds 21 1021 56 10000 4.6 130 17:38 19.05.2020
2787 Clouds 21 1021 60 10000 4.1 130 17:18 19.05.2020
2788 Clouds 21 1021 64 10000 4.1 150 16:40 19.05.2020
2789 Clouds 20 1021 64 10000 4.1 150 16:21 19.05.2020
2790 Clouds 20 1022 64 10000 2.6 230 15:56 19.05.2020
2791 Clouds 19 1022 68 10000 3.6 240 15:37 19.05.2020
2792 Clouds 20 1022 68 10000 3.6 240 15:19 19.05.2020
2793 Clouds 19 1022 68 10000 3.1 250 14:43 19.05.2020
2794 Clouds 19 1022 68 10000 3.1 250 14:21 19.05.2020
2795 Clouds 19 1022 72 10000 3.1 240 13:59 19.05.2020
2796 Clouds 19 1022 72 10000 3.6 240 13:40 19.05.2020
2797 Clouds 19 1022 72 10000 3.6 240 13:22 19.05.2020
2798 Clouds 18 1021 72 10000 4.1 240 12:59 19.05.2020
2799 Clouds 18 1021 72 10000 4.1 240 12:59 19.05.2020
2800 Clouds 18 1021 77 10000 3.6 240 12:40 19.05.2020
2801 Clouds 18 1021 77 10000 3.6 240 12:22 19.05.2020
2802 Clouds 16 1021 77 10000 3.6 230 11:58 19.05.2020
2803 Clouds 16 1021 77 10000 4.1 230 11:39 19.05.2020
2804 Clouds 15 1021 77 10000 4.1 230 11:21 19.05.2020
2805 Clouds 15 1021 82 10000 3.6 230 10:46 19.05.2020
2806 Clouds 15 1021 82 10000 3.6 230 10:28 19.05.2020
2807 Clouds 14 1021 82 10000 4.6 240 09:58 19.05.2020
2808 Clouds 14 1020 82 10000 4.6 230 09:40 19.05.2020
2809 Clouds 14 1020 82 10000 4.6 230 09:20 19.05.2020
2810 Clouds 14 1020 82 10000 5.7 250 08:43 19.05.2020
2811 Clouds 14 1020 82 10000 5.7 250 08:23 19.05.2020
2812 Clouds 13 1019 82 10000 5.1 240 07:44 19.05.2020
2813 Clouds 13 1019 82 10000 5.1 240 07:26 19.05.2020
2814 Clouds 14 1019 76 10000 5.7 240 06:50 19.05.2020
2815 Clouds 14 1019 76 10000 5.1 250 06:25 19.05.2020
2816 Clouds 13 1019 82 10000 5.7 240 05:41 19.05.2020
2817 Clouds 13 1019 82 10000 5.7 230 04:56 19.05.2020
2818 Clouds 14 1019 76 10000 5.7 240 04:32 19.05.2020
2819 Clouds 14 1019 76 10000 4.6 230 01:31 19.05.2020
2820 Clouds 14 1019 82 10000 4.1 220 00:44 19.05.2020
2821 Clouds 14 1019 82 10000 4.1 220 00:24 19.05.2020
2822 Clouds 15 1019 82 10000 3.6 210 23:56 18.05.2020
2823 Clouds 14 1019 82 10000 4.1 220 23:38 18.05.2020
2824 Clouds 15 1019 82 10000 4.1 220 23:19 18.05.2020
2825 Clouds 15 1019 82 10000 3.6 220 22:41 18.05.2020
2826 Clouds 15 1019 82 10000 3.6 220 22:22 18.05.2020
2827 Clouds 16 1019 72 10000 4.1 220 21:54 18.05.2020
2828 Clouds 16 1019 72 10000 4.6 230 21:36 18.05.2020
2829 Clouds 16 1019 77 10000 4.1 220 21:18 18.05.2020
2830 Clouds 16 1019 77 10000 3.6 240 20:42 18.05.2020
2831 Rain 16 1019 87 10000 3.6 230 20:22 18.05.2020
2832 Rain 16 1019 87 10000 3.6 230 19:58 18.05.2020
2833 Drizzle 16 1019 77 10000 3.6 230 19:40 18.05.2020
2834 Clouds 17 1019 72 10000 2.6 210 19:19 18.05.2020
2835 Clouds 17 1020 72 10000 3.6 210 18:46 18.05.2020
2836 Clouds 17 1020 72 10000 3.6 210 18:24 18.05.2020
2837 Clouds 16 1020 77 10000 4.1 210 17:54 18.05.2020
2838 Clouds 17 1020 72 10000 3.6 220 17:36 18.05.2020
2839 Clouds 16 1020 77 10000 3.6 230 17:18 18.05.2020
2840 Clouds 16 1020 82 10000 4.1 220 16:43 18.05.2020
2841 Clouds 16 1020 82 10000 4.1 220 16:20 18.05.2020
2842 Rain 16 1020 87 10000 3.6 200 15:57 18.05.2020
2843 Rain 15 1020 87 10000 3.1 220 15:39 18.05.2020
2844 Clouds 15 1020 87 10000 4.1 230 15:20 18.05.2020
2845 Clouds 15 1020 87 10000 4.1 230 14:55 18.05.2020
2846 Clouds 15 1020 87 10000 4.6 220 14:37 18.05.2020
2847 Clouds 15 1020 87 10000 4.6 220 14:37 18.05.2020
2848 Clouds 14 1020 87 10000 4.6 220 14:19 18.05.2020
2849 Clouds 14 1020 87 10000 3.6 220 13:40 18.05.2020
2850 Clouds 14 1020 87 10000 4.1 230 13:20 18.05.2020
2851 Clouds 14 1020 87 10000 4.1 230 12:58 18.05.2020
2852 Clouds 14 1020 87 10000 5.1 230 12:39 18.05.2020
2853 Clouds 14 1020 87 10000 4.6 230 12:19 18.05.2020
2854 Clouds 14 1020 87 10000 4.6 230 11:47 18.05.2020
2855 Clouds 14 1020 87 10000 4.6 230 11:27 18.05.2020
2856 Drizzle 13 1020 93 10000 3.6 230 10:59 18.05.2020
2857 Drizzle 12 1020 93 4000 3.6 230 10:40 18.05.2020
2858 Drizzle 12 1020 93 4000 3.6 230 10:22 18.05.2020
2859 Clouds 12 1020 93 10000 4.6 230 09:44 18.05.2020
2860 Clouds 12 1020 93 10000 4.6 230 09:25 18.05.2020
2861 Clouds 12 1019 76 10000 4.1 230 08:46 18.05.2020
2862 Clouds 12 1019 76 10000 4.1 230 08:27 18.05.2020
2863 Clouds 12 1019 76 10000 4.6 220 07:58 18.05.2020
2864 Clouds 12 1019 76 10000 4.6 240 07:38 18.05.2020
2865 Clouds 12 1019 76 10000 4.6 240 07:18 18.05.2020
2866 Clouds 12 1019 76 10000 5.7 240 06:43 18.05.2020
2867 Clouds 12 1019 76 10000 5.7 240 05:49 18.05.2020
2868 Clouds 11 1019 76 10000 5.7 230 05:25 18.05.2020
2869 Clouds 12 1019 81 10000 5.7 230 03:34 18.05.2020
2870 Clouds 12 1020 76 10000 5.7 230 02:30 18.05.2020
2871 Clouds 12 1020 81 10000 5.1 230 01:23 18.05.2020
2872 Clouds 13 1019 76 10000 4.1 220 00:27 18.05.2020
2873 Clouds 13 1019 82 10000 3.6 220 23:58 17.05.2020
2874 Clouds 14 1020 71 10000 4.1 220 23:39 17.05.2020
2875 Clouds 14 1020 71 10000 4.1 220 23:20 17.05.2020
2876 Clouds 14 1020 67 10000 4.1 240 22:56 17.05.2020
2877 Clouds 14 1019 67 10000 4.6 230 22:37 17.05.2020
2878 Clouds 15 1019 63 10000 4.6 220 22:19 17.05.2020
2879 Clouds 15 1019 63 10000 4.6 220 21:55 17.05.2020
2880 Clouds 16 1019 67 10000 2.1 210 21:37 17.05.2020
2881 Clouds 16 1020 67 10000 2.6 240 21:18 17.05.2020
2882 Clouds 16 1020 67 10000 3.6 230 20:42 17.05.2020
2883 Clouds 16 1020 67 10000 3.6 230 20:21 17.05.2020
2884 Clouds 16 1020 63 10000 3.6 230 19:57 17.05.2020
2885 Clouds 17 1020 67 10000 2.6 250 19:39 17.05.2020
2886 Clouds 16 1020 72 10000 3.1 240 19:20 17.05.2020
2887 Clouds 16 1020 72 10000 4.1 250 18:43 17.05.2020
2888 Clouds 16 1020 72 10000 4.1 250 18:24 17.05.2020
2889 Clouds 15 1020 72 10000 4.1 250 17:59 17.05.2020
2890 Clouds 15 1021 72 10000 5.1 240 17:39 17.05.2020
2891 Clouds 15 1021 72 10000 5.1 240 17:21 17.05.2020
2892 Clouds 15 1021 67 10000 5.1 240 16:40 17.05.2020
2893 Clouds 16 1021 67 10000 5.1 240 16:21 17.05.2020
2894 Clouds 16 1021 67 10000 4.6 250 15:59 17.05.2020
2895 Clouds 15 1021 67 10000 5.1 250 15:39 17.05.2020
2896 Clouds 15 1021 67 10000 5.1 250 15:21 17.05.2020
2897 Clouds 15 1021 67 10000 5.7 230 14:54 17.05.2020
2898 Clouds 15 1021 67 10000 6.2 240 14:36 17.05.2020
2899 Clouds 15 1021 67 10000 5.1 240 14:18 17.05.2020
2900 Clouds 14 1021 71 10000 4.6 240 13:40 17.05.2020
2901 Clouds 14 1021 71 10000 4.6 240 13:19 17.05.2020
2902 Clouds 10 1022 76 10000 2.6 230 04:51 17.05.2020
2903 Clouds 10 1023 76 10000 2.1 230 03:18 17.05.2020
2904 Clouds 11 1023 76 10000 1.5 0 02:20 17.05.2020
2905 Rain 11 1023 71 10000 2.1 260 01:47 17.05.2020
2906 Rain 11 1023 71 10000 4.1 270 00:41 17.05.2020
2907 Rain 11 1023 71 10000 4.1 270 00:21 17.05.2020
2908 Clouds 12 1023 66 10000 4.6 260 23:40 16.05.2020
2909 Clouds 11 1023 66 10000 4.6 260 23:21 16.05.2020
2910 Clouds 12 1023 66 10000 3.1 260 22:58 16.05.2020
2911 Clouds 12 1023 62 10000 2.1 270 22:40 16.05.2020
2912 Clouds 12 1023 62 10000 2.1 270 22:20 16.05.2020
2913 Clouds 12 1023 71 10000 3.1 290 21:54 16.05.2020
2914 Clouds 13 1023 62 10000 3.1 290 21:36 16.05.2020
2915 Clouds 13 1023 62 10000 3.1 290 21:18 16.05.2020
2916 Clouds 13 1023 66 10000 3.6 290 20:42 16.05.2020
2917 Clouds 13 1023 66 10000 3.6 290 20:22 16.05.2020
2918 Clouds 13 1023 62 10000 4.6 300 19:59 16.05.2020
2919 Clouds 13 1023 62 10000 5.7 300 19:40 16.05.2020
2920 Clouds 14 1023 58 10000 5.1 290 19:22 16.05.2020
2921 Clouds 14 1023 58 10000 5.1 290 19:22 16.05.2020
2922 Clouds 14 1023 54 10000 5.1 280 18:44 16.05.2020
2923 Clouds 14 1023 54 10000 5.1 280 18:25 16.05.2020
2924 Clouds 15 1023 54 10000 3.1 240 17:58 16.05.2020
2925 Clouds 15 1023 50 10000 3.6 240 17:39 16.05.2020
2926 Clouds 15 1023 50 10000 3.6 240 17:20 16.05.2020
2927 Clouds 15 1024 51 10000 3.6 250 16:42 16.05.2020
2928 Clouds 15 1024 51 10000 3.6 250 16:23 16.05.2020
2929 Clouds 14 1024 51 10000 3.6 250 15:58 16.05.2020
2930 Clouds 14 1024 58 10000 3.1 260 15:40 16.05.2020
2931 Clouds 14 1024 58 10000 3.1 260 15:19 16.05.2020
2932 Clouds 14 1024 51 10000 3.6 260 14:48 16.05.2020
2933 Clouds 14 1024 51 10000 3.6 260 14:21 16.05.2020
2934 Clouds 14 1024 51 10000 3.6 260 14:21 16.05.2020
2935 Clouds 14 1025 54 10000 5.1 270 13:59 16.05.2020
2936 Clouds 14 1025 54 10000 5.1 270 13:59 16.05.2020
2937 Clouds 13 1025 54 10000 4.1 270 13:40 16.05.2020
2938 Clouds 13 1025 54 10000 4.1 270 13:22 16.05.2020
2939 Clouds 12 1025 58 10000 4.1 280 12:45 16.05.2020
2940 Clouds 13 1025 58 10000 4.1 280 12:23 16.05.2020
2941 Clouds 12 1025 58 10000 4.1 260 12:00 16.05.2020
2942 Clouds 12 1025 58 10000 3.6 260 11:39 16.05.2020
2943 Clouds 12 1025 58 10000 3.6 260 11:20 16.05.2020
2944 Clouds 11 1025 66 10000 3.1 250 10:56 16.05.2020
2945 Clouds 11 1025 62 10000 3.1 250 10:37 16.05.2020
2946 Clouds 10 1025 71 10000 3.6 250 10:18 16.05.2020
2947 Clouds 9 1025 76 10000 3.1 250 09:45 16.05.2020
2948 Clouds 9 1025 76 10000 3.1 250 09:27 16.05.2020
2949 Clouds 8 1025 75 10000 2.1 250 08:44 16.05.2020
2950 Clouds 7 1025 75 10000 2.1 250 08:22 16.05.2020
2951 Clouds 7 1025 75 10000 2.1 250 07:55 16.05.2020
2952 Clouds 7 1025 81 10000 3.1 260 07:37 16.05.2020
2953 Clouds 7 1025 81 10000 3.1 260 07:18 16.05.2020
2954 Clouds 7 1025 81 10000 2.6 260 06:43 16.05.2020
2955 Clouds 7 1025 81 10000 2.6 260 06:18 16.05.2020
2956 Clouds 7 1025 75 10000 2.1 260 05:39 16.05.2020
2957 Clouds 7 1025 75 10000 3.1 300 04:30 16.05.2020
2958 Clouds 8 1026 70 10000 3.1 290 02:59 16.05.2020
2959 Clouds 8 1026 75 10000 2.6 300 02:22 16.05.2020
2960 Clouds 8 1026 70 10000 3.1 300 01:54 16.05.2020
2961 Clouds 8 1026 70 10000 3.1 300 01:27 16.05.2020
2962 Clouds 9 1026 66 10000 3.6 290 00:51 16.05.2020
2963 Clouds 9 1026 70 10000 3.1 290 00:23 16.05.2020
2964 Clouds 10 1026 66 10000 2.6 290 23:41 15.05.2020
2965 Clouds 10 1026 66 10000 2.6 290 23:20 15.05.2020
2966 Clouds 10 1026 71 10000 2.1 300 22:59 15.05.2020
2967 Clouds 10 1026 66 10000 2.6 340 22:40 15.05.2020
2968 Clouds 11 1026 66 10000 2.6 340 22:19 15.05.2020
2969 Clouds 11 1026 62 10000 3.6 300 21:40 15.05.2020
2970 Clouds 12 1026 62 10000 3.6 300 21:22 15.05.2020
2971 Clouds 12 1026 62 10000 4.1 310 20:59 15.05.2020
2972 Clouds 12 1026 54 10000 5.1 280 20:41 15.05.2020
2973 Clouds 12 1026 54 10000 5.1 280 20:22 15.05.2020
2974 Clouds 12 1026 58 10000 4.6 280 19:58 15.05.2020
2975 Clouds 12 1026 58 10000 3.6 290 19:40 15.05.2020
2976 Clouds 12 1026 58 10000 3.6 290 19:21 15.05.2020
2977 Clouds 13 1026 50 10000 5.1 300 18:45 15.05.2020
2978 Clouds 13 1026 50 10000 5.1 300 18:27 15.05.2020
2979 Clouds 13 1026 58 10000 4.1 290 17:40 15.05.2020
2980 Clouds 13 1026 58 10000 4.1 290 17:20 15.05.2020
2981 Clouds 12 1027 50 10000 4.1 280 16:58 15.05.2020
2982 Clouds 12 1027 62 10000 4.6 310 16:39 15.05.2020
2983 Clouds 12 1027 62 10000 4.6 310 16:19 15.05.2020
2984 Clouds 12 1027 58 10000 4.6 300 15:58 15.05.2020
2985 Clouds 13 1027 54 10000 3.6 280 15:39 15.05.2020
2986 Clouds 12 1027 54 10000 3.6 280 15:19 15.05.2020
2987 Clouds 11 1027 62 10000 3.6 320 14:42 15.05.2020
2988 Clouds 11 1027 62 10000 3.6 320 14:24 15.05.2020
2989 Clouds 11 1027 62 10000 4.6 330 13:59 15.05.2020
2990 Clouds 11 1027 57 10000 4.6 340 13:39 15.05.2020
2991 Clouds 11 1027 62 10000 4.1 300 13:20 15.05.2020
2992 Clouds 11 1027 57 10000 5.1 290 12:40 15.05.2020
2993 Clouds 11 1027 57 10000 5.1 290 12:19 15.05.2020
2994 Clouds 10 1027 57 10000 5.1 320 11:57 15.05.2020
2995 Clouds 11 1027 66 10000 5.7 320 11:39 15.05.2020
2996 Clouds 11 1027 66 10000 5.7 320 11:21 15.05.2020
2997 Clouds 10 1027 66 10000 4.6 320 10:59 15.05.2020
2998 Clouds 10 1027 61 10000 5.1 320 10:40 15.05.2020
2999 Clouds 10 1027 61 10000 5.1 320 10:40 15.05.2020
3000 Clouds 10 1027 61 10000 5.1 320 10:21 15.05.2020
3001 Clouds 10 1027 66 10000 4.1 300 09:58 15.05.2020
3002 Clouds 8 1027 75 10000 3.6 300 09:37 15.05.2020
3003 Clouds 8 1027 75 10000 3.6 300 09:18 15.05.2020
3004 Clouds 7 1027 81 10000 3.6 300 08:55 15.05.2020
3005 Clouds 7 1027 75 10000 3.6 290 08:37 15.05.2020
3006 Clouds 6 1027 81 10000 3.6 290 08:18 15.05.2020
3007 Clouds 6 1027 81 10000 3.1 290 07:42 15.05.2020
3008 Clouds 6 1027 81 10000 3.1 290 07:24 15.05.2020
3009 Clouds 5 1026 86 10000 3.1 300 06:35 15.05.2020
3010 Clouds 5 1026 86 10000 3.1 300 05:40 15.05.2020
3011 Clouds 5 1026 93 10000 3.1 310 04:25 15.05.2020
3012 Clouds 4 1026 93 10000 3.1 310 03:40 15.05.2020
3013 Clouds 5 1026 80 10000 1 310 01:38 15.05.2020
3014 Clouds 6 1026 78 10000 0.5 280 01:19 15.05.2020
3015 Clouds 6 1026 78 10000 0.5 0 00:44 15.05.2020
3016 Clouds 6 1026 73 10000 0.5 0 00:23 15.05.2020
3017 Clouds 7 1026 73 10000 1 140 23:43 14.05.2020
3018 Clouds 7 1026 66 10000 1 140 23:20 14.05.2020
3019 Clouds 9 1025 61 10000 1.5 120 22:55 14.05.2020
3020 Clouds 10 1025 57 10000 1.5 110 22:37 14.05.2020
3021 Clouds 10 1025 57 10000 1.5 110 22:19 14.05.2020
3022 Clouds 11 1025 53 10000 2.1 140 21:42 14.05.2020
3023 Clouds 11 1025 53 10000 2.1 140 21:20 14.05.2020
3024 Clouds 12 1025 53 10000 3.1 110 20:59 14.05.2020
3025 Clouds 12 1025 53 10000 3.1 110 20:59 14.05.2020
3026 Clouds 12 1025 50 10000 3.6 110 20:41 14.05.2020
3027 Clouds 12 1025 50 10000 3.6 110 20:20 14.05.2020
3028 Clouds 13 1025 43 10000 3.1 120 19:57 14.05.2020
3029 Clouds 13 1025 43 10000 3.6 110 19:39 14.05.2020
3030 Clouds 13 1025 43 10000 3.6 110 19:20 14.05.2020
3031 Clouds 13 1025 47 10000 3.6 100 18:58 14.05.2020
3032 Clouds 13 1025 47 10000 4.1 100 18:38 14.05.2020
3033 Clouds 13 1025 47 10000 3.6 100 18:19 14.05.2020
3034 Clouds 13 1025 47 10000 3.6 100 17:57 14.05.2020
3035 Clouds 13 1025 47 10000 4.1 80 17:37 14.05.2020
3036 Clouds 13 1025 47 10000 4.1 80 17:18 14.05.2020
3037 Clouds 13 1025 50 10000 4.6 90 16:56 14.05.2020
3038 Clouds 13 1025 50 10000 4.6 90 16:37 14.05.2020
3039 Clouds 13 1025 46 10000 4.1 80 16:18 14.05.2020
3040 Clouds 13 1025 43 10000 4.6 110 15:41 14.05.2020
3041 Clouds 13 1025 46 10000 2.6 60 15:21 14.05.2020
3042 Clouds 13 1025 46 10000 2.6 60 14:57 14.05.2020
3043 Clouds 12 1026 40 10000 4.1 330 14:39 14.05.2020
3044 Clouds 12 1026 40 10000 4.1 330 14:20 14.05.2020
3045 Clouds 12 1026 45 10000 2.6 330 13:57 14.05.2020
3046 Clouds 12 1026 46 10000 1.5 0 13:38 14.05.2020
3047 Clouds 12 1026 46 10000 1.5 0 13:38 14.05.2020
3048 Clouds 12 1026 46 10000 1.5 0 13:19 14.05.2020
3049 Clouds 12 1026 50 10000 3.1 290 13:19 14.05.2020
3050 Clouds 11 1026 50 10000 3.1 290 12:57 14.05.2020
3051 Clouds 11 1026 43 10000 2.6 330 12:38 14.05.2020
3052 Clouds 11 1026 49 10000 1.5 0 12:18 14.05.2020
3053 Clouds 10 1026 49 10000 1.5 0 11:56 14.05.2020
3054 Clouds 10 1026 53 10000 2.1 290 11:38 14.05.2020
3055 Clouds 10 1026 53 10000 2.1 290 11:19 14.05.2020
3056 Clouds 9 1026 61 10000 2.1 350 10:44 14.05.2020
3057 Clouds 9 1026 61 10000 2.1 350 10:26 14.05.2020
3058 Clouds 9 1026 70 10000 2.6 360 09:56 14.05.2020
3059 Clouds 7 1026 75 10000 2.1 330 09:38 14.05.2020
3060 Clouds 4 1025 86 10000 1.5 310 09:18 14.05.2020
3061 Clouds 3 1025 93 10000 1.5 0 08:39 14.05.2020
3062 Clouds 2 1025 93 10000 1.5 0 08:19 14.05.2020
3063 Clouds 0 1025 92 10000 1.5 320 07:45 14.05.2020
3064 Clouds -1 1025 92 10000 1.5 320 07:22 14.05.2020
3065 Clouds -1 1025 92 10000 2.1 320 06:48 14.05.2020
3066 Clouds 0 1025 92 10000 1 0 06:26 14.05.2020
3067 Clouds 0 1025 92 10000 2.1 320 05:42 14.05.2020
3068 Clouds 0 1025 86 10000 2.6 300 04:56 14.05.2020
3069 Clouds 1 1024 80 10000 3.1 290 03:44 14.05.2020
3070 Clouds 1 1024 80 10000 3.1 290 03:20 14.05.2020
3071 Clouds 1 1024 86 10000 1.5 0 02:39 14.05.2020
3072 Clouds 2 1024 86 10000 1 0 01:52 14.05.2020
3073 Clouds 3 1024 80 10000 2.6 30 00:54 14.05.2020
3074 Clouds 3 1024 74 10000 2.1 30 00:29 14.05.2020
3075 Clouds 3 1023 74 10000 2.6 30 23:55 13.05.2020
3076 Clouds 4 1023 69 10000 2.6 40 23:37 13.05.2020
3077 Clouds 4 1023 69 10000 2.6 40 23:18 13.05.2020
3078 Clouds 6 1023 65 10000 4.6 60 22:41 13.05.2020
3079 Clouds 6 1023 65 10000 4.6 60 22:22 13.05.2020
3080 Clouds 7 1022 56 10000 4.6 50 21:59 13.05.2020
3081 Clouds 7 1022 56 10000 4.6 70 21:39 13.05.2020
3082 Clouds 7 1022 56 10000 4.6 70 21:19 13.05.2020
3083 Clouds 8 1022 49 10000 5.1 60 20:55 13.05.2020
3084 Clouds 8 1022 49 10000 5.1 60 20:55 13.05.2020
3085 Clouds 8 1022 49 10000 5.7 70 20:37 13.05.2020
3086 Clouds 8 1022 49 10000 5.7 70 20:37 13.05.2020
3087 Clouds 9 1022 49 10000 5.7 60 20:19 13.05.2020
3088 Clouds 9 1022 49 10000 6.7 80 19:41 13.05.2020
3089 Clouds 9 1022 49 10000 6.7 80 19:23 13.05.2020
3090 Clouds 9 1022 45 10000 6.7 70 18:44 13.05.2020
3091 Clouds 9 1022 45 10000 6.7 70 18:22 13.05.2020
3092 Clouds 9 1022 45 10000 6.2 50 17:58 13.05.2020
3093 Clouds 9 1022 42 10000 7.2 60 17:38 13.05.2020
3094 Clouds 9 1022 43 10000 8.2 60 17:18 13.05.2020
3095 Clouds 9 1022 55 10000 7.7 50 16:40 13.05.2020
3096 Clouds 9 1022 56 10000 7.7 50 16:19 13.05.2020
3097 Clouds 9 1022 43 10000 7.7 50 15:55 13.05.2020
3098 Clouds 9 1022 45 10000 7.7 60 15:36 13.05.2020
3099 Clouds 9 1022 45 10000 7.7 60 15:18 13.05.2020
3100 Clouds 9 1021 57 10000 8.2 60 14:42 13.05.2020
3101 Clouds 9 1021 57 10000 8.2 60 14:42 13.05.2020
3102 Clouds 9 1021 57 10000 8.2 60 14:24 13.05.2020
3103 Clouds 9 1021 57 10000 7.7 60 13:59 13.05.2020
3104 Clouds 8 1021 66 10000 7.7 50 13:41 13.05.2020
3105 Clouds 8 1021 66 10000 7.7 50 13:22 13.05.2020
3106 Clouds 9 1021 57 10000 7.7 50 12:58 13.05.2020
3107 Clouds 9 1021 65 10000 7.7 60 12:39 13.05.2020
3108 Rain 8 1021 66 10000 7.7 70 12:20 13.05.2020
3109 Rain 9 1021 66 10000 7.7 70 11:56 13.05.2020
3110 Clouds 8 1020 70 10000 6.2 50 11:37 13.05.2020
3111 Clouds 8 1020 70 10000 4.6 10 11:19 13.05.2020
3112 Clouds 8 1020 70 10000 4.6 10 10:57 13.05.2020
3113 Clouds 8 1020 70 10000 4.6 360 10:38 13.05.2020
3114 Clouds 7 1020 75 10000 4.6 360 10:19 13.05.2020
3115 Clouds 7 1020 70 10000 4.6 340 09:46 13.05.2020
3116 Clouds 6 1020 70 10000 4.6 340 09:23 13.05.2020
3117 Clouds 5 1020 75 10000 5.1 340 08:58 13.05.2020
3118 Clouds 5 1020 75 10000 5.1 350 08:37 13.05.2020
3119 Clouds 5 1020 70 10000 5.1 350 08:19 13.05.2020
3120 Clouds 6 1020 70 10000 5.1 350 07:48 13.05.2020
3121 Clouds 6 1020 70 10000 5.1 350 07:30 13.05.2020
3122 Clouds 6 1019 75 10000 4.6 350 06:51 13.05.2020
3123 Clouds 6 1019 81 10000 5.7 350 06:31 13.05.2020
3124 Clouds 5 1019 93 10000 2.6 350 05:33 13.05.2020
3125 Clouds 4 1019 93 10000 3.1 300 03:28 13.05.2020
3126 Clouds 5 1019 80 10000 3.1 300 02:34 13.05.2020
3127 Clouds 5 1019 80 10000 2.6 310 01:45 13.05.2020
3128 Clouds 7 1019 75 10000 3.1 310 00:55 13.05.2020
3129 Clouds 8 1019 70 10000 4.1 340 00:22 13.05.2020
3130 Clouds 8 1019 65 10000 3.6 350 23:55 12.05.2020
3131 Clouds 9 1019 65 10000 3.1 350 23:36 12.05.2020
3132 Clouds 9 1019 65 10000 3.1 350 23:18 12.05.2020
3133 Clouds 10 1019 57 10000 4.1 340 22:42 12.05.2020
3134 Clouds 10 1019 57 10000 4.1 340 22:22 12.05.2020
3135 Clouds 12 1019 53 10000 3.6 360 21:56 12.05.2020
3136 Clouds 12 1019 50 10000 3.6 30 21:37 12.05.2020
3137 Clouds 12 1019 50 10000 3.6 30 21:19 12.05.2020
3138 Clouds 12 1019 46 10000 5.1 330 20:57 12.05.2020
3139 Clouds 12 1019 50 10000 4.1 310 20:38 12.05.2020
3140 Clouds 12 1019 50 10000 4.1 310 20:20 12.05.2020
3141 Clouds 12 1019 50 10000 4.1 310 19:56 12.05.2020
3142 Clouds 12 1019 50 10000 4.1 310 19:56 12.05.2020
3143 Clouds 13 1019 47 10000 4.1 300 19:38 12.05.2020
3144 Clouds 13 1020 47 10000 5.7 300 19:20 12.05.2020
3145 Clouds 13 1020 47 10000 4.6 300 18:43 12.05.2020
3146 Clouds 13 1020 47 10000 4.6 300 18:24 12.05.2020
3147 Clouds 12 1020 50 10000 5.7 330 17:59 12.05.2020
3148 Clouds 13 1021 47 10000 3.1 280 17:41 12.05.2020
3149 Clouds 12 1021 47 10000 3.1 280 17:22 12.05.2020
3150 Clouds 12 1021 50 10000 4.6 300 16:47 12.05.2020
3151 Clouds 12 1021 50 10000 4.6 300 16:24 12.05.2020
3152 Clouds 12 1021 50 10000 4.1 320 15:56 12.05.2020
3153 Clouds 11 1022 53 10000 4.1 300 15:37 12.05.2020
3154 Clouds 11 1022 50 10000 3.6 320 15:18 12.05.2020
3155 Clouds 11 1022 50 10000 3.6 320 14:55 12.05.2020
3156 Clouds 12 1022 50 10000 4.6 310 14:36 12.05.2020
3157 Clouds 12 1022 50 10000 4.6 310 14:36 12.05.2020
3158 Clouds 11 1022 50 10000 3.6 320 14:18 12.05.2020
3159 Clouds 11 1022 50 10000 3.6 320 13:57 12.05.2020
3160 Clouds 11 1022 50 10000 3.6 320 13:57 12.05.2020
3161 Clouds 11 1023 53 10000 3.6 20 13:39 12.05.2020
3162 Clouds 11 1023 53 10000 3.6 20 13:19 12.05.2020
3163 Clouds 10 1023 53 10000 3.6 330 12:57 12.05.2020
3164 Clouds 10 1023 57 10000 4.1 330 12:39 12.05.2020
3165 Clouds 10 1023 57 10000 4.1 330 12:21 12.05.2020
3166 Clouds 10 1024 61 10000 3.6 340 11:57 12.05.2020
3167 Clouds 10 1024 57 10000 3.6 320 11:37 12.05.2020
3168 Clouds 9 1024 66 10000 4.1 310 11:19 12.05.2020
3169 Clouds 8 1024 66 10000 4.1 310 10:56 12.05.2020
3170 Clouds 8 1024 65 10000 4.6 300 10:37 12.05.2020
3171 Clouds 7 1025 70 10000 5.1 310 10:18 12.05.2020
3172 Clouds 7 1025 70 10000 5.1 310 09:57 12.05.2020
3173 Clouds 6 1025 75 10000 4.6 290 09:38 12.05.2020
3174 Clouds 5 1025 75 10000 4.6 290 09:19 12.05.2020
3175 Clouds 3 1025 76 10000 2.1 270 08:40 12.05.2020
3176 Clouds 3 1025 84 10000 2.1 270 08:21 12.05.2020
3177 Clouds 1 1025 84 10000 3.1 270 07:45 12.05.2020
3178 Clouds 1 1025 95 10000 3.1 270 07:27 12.05.2020
3179 Clouds 1 1025 95 10000 3.1 270 07:27 12.05.2020
3180 Clouds 0 1025 92 10000 4.1 280 06:56 12.05.2020
3181 Clouds 1 1026 95 10000 3.6 300 06:37 12.05.2020
3182 Clouds 1 1026 95 10000 3.6 300 06:19 12.05.2020
3183 Clouds 1 1026 95 10000 3.6 300 05:45 12.05.2020
3184 Clouds 3 1026 74 10000 3.6 320 03:53 12.05.2020
3185 Clouds 5 1027 87 10000 4.1 330 03:18 12.05.2020
3186 Clouds 4 1027 75 10000 4.1 340 02:27 12.05.2020
3187 Clouds 2 1027 86 10000 2.6 300 01:35 12.05.2020
3188 Clouds 2 1027 82 10000 2.6 300 00:58 12.05.2020
3189 Clouds 2 1027 78 10000 2.6 300 00:23 12.05.2020
3190 Clouds 3 1027 86 10000 1.5 290 23:56 11.05.2020
3191 Clouds 3 1027 74 10000 1 0 23:37 11.05.2020
3192 Clouds 4 1027 69 10000 1 0 23:19 11.05.2020
3193 Clouds 4 1027 69 10000 1 0 22:55 11.05.2020
3194 Clouds 5 1027 60 10000 3.1 80 22:37 11.05.2020
3195 Clouds 6 1027 60 10000 3.1 80 22:19 11.05.2020
3196 Clouds 7 1027 56 10000 3.6 50 21:54 11.05.2020
3197 Clouds 7 1027 56 10000 3.6 70 21:36 11.05.2020
3198 Clouds 7 1027 56 10000 3.6 70 21:18 11.05.2020
3199 Clouds 8 1027 49 10000 5.1 80 20:42 11.05.2020
3200 Clouds 8 1027 49 10000 5.1 80 20:21 11.05.2020
3201 Clouds 8 1027 42 10000 5.1 90 19:59 11.05.2020
3202 Clouds 8 1027 45 10000 5.7 80 19:41 11.05.2020
3203 Clouds 8 1027 45 10000 5.7 80 19:22 11.05.2020
3204 Clouds 9 1027 42 10000 7.2 60 18:57 11.05.2020
3205 Clouds 9 1027 39 10000 6.7 60 18:38 11.05.2020
3206 Clouds 9 1027 39 10000 6.7 60 18:19 11.05.2020
3207 Clouds 9 1027 42 10000 7.7 60 17:57 11.05.2020
3208 Clouds 9 1027 45 10000 7.2 60 17:38 11.05.2020
3209 Clouds 9 1027 45 10000 7.2 60 17:20 11.05.2020
3210 Clouds 9 1027 49 10000 7.7 60 16:56 11.05.2020
3211 Clouds 9 1027 49 10000 7.2 60 16:37 11.05.2020
3212 Clouds 9 1027 42 10000 7.7 60 16:18 11.05.2020
3213 Clouds 9 1028 36 10000 7.2 40 15:42 11.05.2020
3214 Clouds 9 1028 36 10000 7.2 40 15:20 11.05.2020
3215 Clouds 8 1028 45 10000 8.2 50 14:58 11.05.2020
3216 Clouds 8 1028 49 10000 7.7 50 14:40 11.05.2020
3217 Clouds 8 1028 49 10000 7.7 50 14:21 11.05.2020
3218 Clouds 8 1028 49 10000 7.7 40 13:42 11.05.2020
3219 Clouds 8 1028 49 10000 7.7 40 13:22 11.05.2020
3220 Clouds 7 1028 52 10000 7.2 40 12:59 11.05.2020
3221 Clouds 7 1028 56 10000 7.7 40 12:41 11.05.2020
3222 Clouds 7 1028 56 10000 7.7 40 12:23 11.05.2020
3223 Clouds 7 1028 52 10000 8.7 50 11:57 11.05.2020
3224 Clouds 6 1027 56 10000 8.7 60 11:39 11.05.2020
3225 Clouds 6 1027 56 10000 8.7 60 11:21 11.05.2020
3226 Clouds 7 1027 52 10000 8.2 60 10:57 11.05.2020
3227 Clouds 6 1027 56 10000 7.7 50 10:39 11.05.2020
3228 Clouds 6 1027 56 10000 7.7 50 10:20 11.05.2020
3229 Clouds 6 1027 56 10000 7.7 50 10:20 11.05.2020
3230 Clouds 6 1027 56 10000 7.7 50 09:57 11.05.2020
3231 Clouds 6 1027 56 10000 7.7 50 09:57 11.05.2020
3232 Clouds 6 1027 56 10000 7.7 50 09:57 11.05.2020
3233 Clouds 6 1027 56 10000 8.2 60 09:39 11.05.2020
3234 Clouds 5 1026 56 10000 7.2 50 09:19 11.05.2020
3235 Clouds 5 1026 52 10000 7.2 50 08:42 11.05.2020
3236 Clouds 5 1026 52 10000 7.2 50 08:24 11.05.2020
3237 Clouds 4 1026 60 10000 8.2 50 07:59 11.05.2020
3238 Clouds 4 1026 60 10000 8.2 50 07:41 11.05.2020
3239 Clouds 4 1026 60 10000 8.2 50 07:23 11.05.2020
3240 Clouds 5 1025 60 10000 7.7 60 06:34 11.05.2020
3241 Clouds 5 1025 60 10000 8.2 50 05:53 11.05.2020
3242 Clouds 5 1025 60 10000 8.2 60 05:22 11.05.2020
3243 Clouds 5 1025 60 10000 9.8 70 03:56 11.05.2020
3244 Clouds 6 1024 52 10000 8.7 60 02:36 11.05.2020
3245 Clouds 6 1024 52 10000 10.3 70 01:59 11.05.2020
3246 Clouds 6 1024 52 10000 10.8 60 01:18 11.05.2020
3247 Clouds 6 1023 52 10000 10.8 60 00:40 11.05.2020
3248 Clouds 7 1023 52 10000 10.8 60 00:18 11.05.2020
3249 Clouds 6 1023 52 10000 9.3 60 23:39 10.05.2020
3250 Clouds 6 1023 52 10000 9.3 60 23:20 10.05.2020
3251 Clouds 7 1022 52 10000 9.3 60 22:54 10.05.2020
3252 Clouds 7 1022 52 10000 8.7 60 22:36 10.05.2020
3253 Clouds 7 1022 52 10000 8.7 60 22:18 10.05.2020
3254 Clouds 7 1021 52 10000 9.3 60 22:18 10.05.2020
3255 Clouds 8 1021 58 10000 8.2 70 21:42 10.05.2020
3256 Clouds 8 1021 61 10000 8.7 70 21:18 10.05.2020
3257 Clouds 8 1020 65 10000 9.3 70 20:43 10.05.2020
3258 Clouds 8 1020 65 10000 9.3 70 20:24 10.05.2020
3259 Clouds 8 1020 70 10000 8.2 60 19:57 10.05.2020
3260 Rain 8 1020 81 10000 10.8 50 19:38 10.05.2020
3261 Clouds 8 1020 70 10000 10.3 60 19:20 10.05.2020
3262 Clouds 8 1020 70 10000 10.3 60 18:56 10.05.2020
3263 Clouds 8 1019 75 10000 9.8 60 18:36 10.05.2020
3264 Clouds 8 1019 70 10000 9.8 70 18:18 10.05.2020
3265 Clouds 8 1019 70 10000 9.8 70 18:18 10.05.2020
3266 Clouds 8 1019 70 10000 9.8 70 17:57 10.05.2020
3267 Clouds 9 1019 66 10000 11.3 50 17:39 10.05.2020
3268 Clouds 8 1019 70 10000 10.8 50 17:20 10.05.2020
3269 Clouds 9 1018 76 10000 10.8 50 16:43 10.05.2020
3270 Clouds 9 1018 76 10000 10.8 50 16:21 10.05.2020
3271 Clouds 9 1018 70 10000 10.8 50 15:58 10.05.2020
3272 Clouds 9 1017 76 10000 9.8 50 15:39 10.05.2020
3273 Clouds 9 1017 76 10000 9.8 50 15:21 10.05.2020
3274 Clouds 9 1017 76 10000 9.3 50 14:56 10.05.2020
3275 Clouds 9 1017 76 10000 10.8 50 14:37 10.05.2020
3276 Clouds 9 1017 76 10000 10.8 50 14:19 10.05.2020
3277 Clouds 9 1016 76 10000 8.7 50 13:57 10.05.2020
3278 Clouds 9 1016 76 10000 8.7 50 13:57 10.05.2020
3279 Clouds 9 1016 76 10000 10.3 50 13:36 10.05.2020
3280 Clouds 9 1016 76 10000 10.3 50 13:18 10.05.2020
3281 Clouds 10 1015 71 10000 8.7 40 12:42 10.05.2020
3282 Clouds 9 1015 87 10000 7.7 40 12:23 10.05.2020
3283 Clouds 9 1015 87 10000 7.7 40 11:59 10.05.2020
3284 Clouds 9 1014 81 10000 7.7 40 11:40 10.05.2020
3285 Clouds 9 1014 81 10000 7.7 40 11:21 10.05.2020
3286 Clouds 9 1014 87 10000 8.2 40 10:55 10.05.2020
3287 Clouds 9 1014 87 10000 8.2 40 10:55 10.05.2020
3288 Clouds 9 1014 87 10000 6.7 40 10:37 10.05.2020
3289 Clouds 9 1014 87 10000 6.7 40 10:37 10.05.2020
3290 Clouds 9 1014 87 10000 6.7 40 10:19 10.05.2020
3291 Clouds 9 1013 87 10000 5.1 10 09:42 10.05.2020
3292 Clouds 9 1013 87 10000 5.1 10 09:23 10.05.2020
3293 Clouds 9 1013 87 10000 5.1 350 08:57 10.05.2020
3294 Clouds 9 1013 87 10000 4.6 350 08:39 10.05.2020
3295 Clouds 9 1013 87 10000 4.6 350 08:20 10.05.2020
3296 Clouds 9 1012 93 10000 3.6 350 07:40 10.05.2020
3297 Clouds 10 1012 93 10000 3.6 340 07:19 10.05.2020
3298 Clouds 10 1012 93 10000 3.6 340 06:50 10.05.2020
3299 Clouds 10 1012 93 10000 3.6 340 06:24 10.05.2020
3300 Clouds 11 1012 93 10000 4.1 330 05:45 10.05.2020
3301 Clouds 11 1012 93 10000 3.1 360 04:45 10.05.2020
3302 Clouds 11 1012 93 10000 3.1 360 04:25 10.05.2020
3303 Clouds 11 1012 93 10000 3.6 40 03:47 10.05.2020
3304 Clouds 11 1011 87 10000 3.1 40 02:59 10.05.2020
3305 Clouds 11 1012 93 10000 2.6 30 02:25 10.05.2020
3306 Clouds 10 1012 93 10000 3.1 50 01:57 10.05.2020
3307 Clouds 11 1012 93 10000 3.1 50 01:39 10.05.2020
3308 Clouds 11 1012 87 10000 1.5 20 01:18 10.05.2020
3309 Clouds 10 1012 87 10000 1.5 20 00:52 10.05.2020
3310 Clouds 11 1012 87 10000 3.6 10 00:20 10.05.2020
3311 Clouds 11 1011 87 10000 0.5 120 23:40 09.05.2020
3312 Clouds 11 1011 87 10000 0.5 120 23:21 09.05.2020
3313 Clouds 12 1012 81 10000 1.5 110 22:57 09.05.2020
3314 Clouds 13 1011 76 10000 2.6 100 22:39 09.05.2020
3315 Clouds 14 1011 67 10000 2.6 100 22:21 09.05.2020
3316 Clouds 15 1011 67 10000 2.6 100 21:55 09.05.2020
3317 Clouds 16 1011 63 10000 3.1 90 21:37 09.05.2020
3318 Clouds 18 1011 52 10000 2.6 100 21:19 09.05.2020
3319 Clouds 18 1011 52 10000 2.6 100 20:55 09.05.2020
3320 Clouds 18 1011 48 10000 2.1 100 20:36 09.05.2020
3321 Clouds 18 1011 48 10000 2.1 100 20:18 09.05.2020
3322 Clouds 18 1011 52 10000 3.1 100 19:40 09.05.2020
3323 Clouds 18 1011 52 10000 3.1 100 19:20 09.05.2020
3324 Clouds 18 1012 52 10000 3.1 90 18:58 09.05.2020
3325 Clouds 18 1012 52 10000 3.6 90 18:40 09.05.2020
3326 Clouds 18 1012 52 10000 3.1 90 18:19 09.05.2020
3327 Clouds 18 1012 48 10000 3.1 100 17:44 09.05.2020
3328 Clouds 18 1012 48 10000 3.1 100 17:22 09.05.2020
3329 Clouds 18 1013 52 10000 3.6 90 16:43 09.05.2020
3330 Clouds 18 1013 52 10000 3.6 90 16:20 09.05.2020
3331 Clouds 18 1013 52 10000 3.6 80 15:58 09.05.2020
3332 Clouds 17 1014 63 10000 3.6 90 15:39 09.05.2020
3333 Clouds 17 1014 63 10000 3.6 90 15:21 09.05.2020
3334 Clouds 17 1014 67 10000 3.6 90 14:43 09.05.2020
3335 Clouds 17 1014 67 10000 3.6 90 14:20 09.05.2020
3336 Clouds 17 1014 67 10000 3.6 90 13:59 09.05.2020
3337 Clouds 17 1014 67 10000 3.6 110 13:41 09.05.2020
3338 Clouds 16 1015 67 10000 3.1 110 13:21 09.05.2020
3339 Clouds 16 1015 67 10000 3.1 110 12:55 09.05.2020
3340 Clouds 16 1015 67 10000 3.1 100 12:37 09.05.2020
3341 Clouds 15 1015 67 10000 3.1 100 12:19 09.05.2020
3342 Clouds 15 1015 77 10000 3.1 90 11:42 09.05.2020
3343 Clouds 14 1015 82 10000 3.1 90 11:19 09.05.2020
3344 Clouds 14 1015 87 10000 2.6 90 10:48 09.05.2020
3345 Clouds 14 1015 87 10000 2.6 90 10:26 09.05.2020
3346 Clouds 13 1015 87 10000 2.1 80 09:58 09.05.2020
3347 Clouds 12 1015 87 10000 1.5 0 09:40 09.05.2020
3348 Clouds 11 1015 87 10000 1.5 0 09:19 09.05.2020
3349 Clouds 11 1015 87 10000 2.1 60 08:51 09.05.2020
3350 Clouds 10 1015 100 10000 2.1 70 08:33 09.05.2020
3351 Clouds 8 1015 100 10000 1 0 07:54 09.05.2020
3352 Clouds 8 1015 93 10000 1 0 07:36 09.05.2020
3353 Clouds 7 1015 93 10000 1 0 07:18 09.05.2020
3354 Clouds 7 1015 93 10000 1.5 100 06:26 09.05.2020
3355 Clouds 7 1016 100 10000 2.1 90 05:49 09.05.2020
3356 Clouds 8 1016 93 10000 1 130 04:43 09.05.2020
3357 Clouds 9 1016 93 10000 2.1 110 03:38 09.05.2020
3358 Clouds 10 1016 87 10000 3.6 110 02:50 09.05.2020
3359 Clouds 10 1016 87 10000 2.1 140 01:54 09.05.2020
3360 Clouds 10 1016 87 10000 2.1 140 01:26 09.05.2020
3361 Clouds 10 1016 87 10000 2.6 110 00:59 09.05.2020
3362 Clouds 10 1016 93 10000 2.6 110 00:38 09.05.2020
3363 Clouds 11 1016 87 10000 3.1 110 23:57 08.05.2020
3364 Clouds 12 1016 81 10000 3.1 110 23:39 08.05.2020
3365 Clear 12 1016 81 10000 2.6 110 23:19 08.05.2020
3366 Clear 12 1016 81 10000 2.6 110 22:54 08.05.2020
3367 Clouds 13 1016 76 10000 3.1 100 22:36 08.05.2020
3368 Clouds 14 1016 76 10000 3.1 100 22:18 08.05.2020
3369 Rain 15 1016 71 10000 3.1 120 21:42 08.05.2020
3370 Rain 15 1016 71 10000 3.1 120 21:19 08.05.2020
3371 Rain 15 1016 67 10000 3.6 110 21:19 08.05.2020
3372 Rain 16 1016 67 10000 3.6 110 20:59 08.05.2020
3373 Rain 16 1016 62 10000 3.6 100 20:40 08.05.2020
3374 Rain 16 1016 62 10000 3.6 100 20:22 08.05.2020
3375 Rain 17 1016 62 10000 3.6 130 19:46 08.05.2020
3376 Rain 17 1016 62 10000 3.6 130 19:24 08.05.2020
3377 Clouds 18 1016 59 10000 4.6 120 18:58 08.05.2020
3378 Clouds 17 1016 63 10000 4.1 120 18:40 08.05.2020
3379 Clouds 17 1016 63 10000 4.1 120 18:22 08.05.2020
3380 Clouds 18 1017 59 10000 4.1 130 17:42 08.05.2020
3381 Clouds 17 1017 63 10000 3.6 130 17:19 08.05.2020
3382 Clouds 17 1017 63 10000 3.6 130 16:48 08.05.2020
3383 Clouds 18 1017 59 10000 4.1 130 16:27 08.05.2020
3384 Clouds 17 1017 59 10000 4.6 110 15:59 08.05.2020
3385 Clouds 17 1017 59 10000 4.1 120 15:41 08.05.2020
3386 Clouds 17 1017 59 10000 4.1 120 15:18 08.05.2020
3387 Clouds 17 1017 63 10000 4.6 110 14:54 08.05.2020
3388 Clouds 17 1018 63 10000 4.1 130 14:36 08.05.2020
3389 Clouds 17 1017 59 10000 3.6 130 14:18 08.05.2020
3390 Clouds 17 1018 63 10000 4.1 150 13:41 08.05.2020
3391 Clouds 17 1018 63 10000 4.1 150 13:20 08.05.2020
3392 Clouds 17 1018 63 10000 3.1 150 12:55 08.05.2020
3393 Clouds 17 1018 67 10000 2.6 140 12:36 08.05.2020
3394 Clouds 17 1018 63 10000 1 0 12:18 08.05.2020
3395 Clouds 16 1018 67 10000 1 0 11:43 08.05.2020
3396 Clouds 16 1018 67 10000 1 0 11:22 08.05.2020
3397 Clouds 15 1018 67 10000 1 0 10:58 08.05.2020
3398 Clouds 15 1018 71 10000 2.1 290 10:40 08.05.2020
3399 Clouds 14 1018 76 10000 2.6 250 10:19 08.05.2020
3400 Clouds 14 1018 81 10000 2.6 260 09:42 08.05.2020
3401 Clouds 12 1018 81 10000 2.6 260 09:20 08.05.2020
3402 Clouds 11 1018 87 10000 2.1 260 08:59 08.05.2020
3403 Clouds 10 1018 81 10000 2.6 250 08:40 08.05.2020
3404 Clouds 10 1018 81 10000 2.6 250 08:20 08.05.2020
3405 Clouds 10 1018 81 10000 2.1 240 07:41 08.05.2020
3406 Clouds 11 1018 81 10000 2.1 250 07:23 08.05.2020
3407 Clouds 11 1018 81 10000 2.6 250 06:49 08.05.2020
3408 Clouds 11 1018 81 10000 2.6 250 06:20 08.05.2020
3409 Clouds 11 1018 81 10000 3.1 250 05:35 08.05.2020
3410 Clouds 11 1018 81 10000 3.6 250 03:55 08.05.2020
3411 Clouds 11 1018 81 10000 2.6 240 02:31 08.05.2020
3412 Clouds 11 1018 81 10000 3.1 240 01:41 08.05.2020
3413 Clouds 11 1018 81 10000 3.1 240 01:21 08.05.2020
3414 Clouds 10 1018 81 10000 3.1 240 00:48 08.05.2020
3415 Clouds 10 1018 81 10000 3.1 240 00:48 08.05.2020
3416 Clouds 12 1018 81 10000 3.1 240 00:27 08.05.2020
3417 Clouds 12 1018 76 10000 2.6 240 23:57 07.05.2020
3418 Clouds 13 1018 76 10000 2.6 240 23:39 07.05.2020
3419 Clouds 13 1018 76 10000 2.6 240 23:39 07.05.2020
3420 Clouds 13 1018 76 10000 2.6 240 23:20 07.05.2020
3421 Clouds 14 1018 71 10000 2.6 220 22:42 07.05.2020
3422 Clouds 14 1018 71 10000 2.6 220 22:21 07.05.2020
3423 Clouds 15 1017 67 10000 2.6 220 21:58 07.05.2020
3424 Clouds 16 1017 63 10000 2.6 180 21:39 07.05.2020
3425 Clouds 16 1017 63 10000 2.6 180 21:20 07.05.2020
3426 Clouds 16 1017 63 10000 2.6 180 21:20 07.05.2020
3427 Clouds 16 1017 63 10000 3.6 150 20:58 07.05.2020
3428 Clouds 17 1017 72 10000 4.1 160 20:40 07.05.2020
3429 Clouds 17 1017 72 10000 4.1 160 20:20 07.05.2020
3430 Clouds 17 1017 63 10000 5.7 150 20:20 07.05.2020
3431 Clouds 17 1017 63 10000 5.7 150 19:48 07.05.2020
3432 Clouds 17 1017 63 10000 3.6 210 19:23 07.05.2020
3433 Clouds 17 1017 63 10000 3.6 210 18:57 07.05.2020
3434 Clouds 17 1018 67 10000 4.1 210 18:38 07.05.2020
3435 Clouds 17 1018 67 10000 4.1 210 18:20 07.05.2020
3436 Clouds 17 1018 63 10000 2.6 140 17:41 07.05.2020
3437 Clouds 17 1018 63 10000 2.6 140 17:20 07.05.2020
3438 Rain 17 1018 72 10000 4.6 140 16:43 07.05.2020
3439 Rain 17 1018 72 10000 4.6 140 16:19 07.05.2020
3440 Rain 18 1018 72 10000 5.1 150 15:58 07.05.2020
3441 Clouds 17 1019 72 10000 4.1 140 15:39 07.05.2020
3442 Clouds 17 1019 72 10000 4.1 140 15:18 07.05.2020
3443 Clouds 17 1019 72 10000 5.1 140 14:57 07.05.2020
3444 Rain 17 1019 82 9000 5.1 140 14:39 07.05.2020
3445 Clouds 16 1019 67 10000 5.1 150 14:18 07.05.2020
3446 Clouds 16 1019 67 10000 3.6 130 13:42 07.05.2020
3447 Clouds 16 1019 67 10000 3.6 130 13:22 07.05.2020
3448 Clouds 16 1019 67 10000 5.7 160 12:43 07.05.2020
3449 Clouds 15 1020 66 10000 4.6 150 12:20 07.05.2020
3450 Clouds 15 1020 66 10000 4.6 150 12:20 07.05.2020
3451 Clouds 15 1020 66 10000 4.6 150 11:54 07.05.2020
3452 Clouds 14 1020 66 10000 3.6 140 11:36 07.05.2020
3453 Clouds 14 1020 71 10000 3.1 130 11:18 07.05.2020
3454 Clouds 13 1020 66 10000 2.6 130 10:40 07.05.2020
3455 Clouds 13 1020 66 10000 2.6 130 10:40 07.05.2020
3456 Clouds 13 1020 76 10000 2.6 140 10:20 07.05.2020
3457 Clouds 12 1020 81 10000 3.1 140 09:40 07.05.2020
3458 Rain 11 1020 81 10000 3.1 140 09:20 07.05.2020
3459 Rain 11 1020 76 10000 2.6 170 08:56 07.05.2020
3460 Rain 11 1020 81 10000 3.1 150 08:37 07.05.2020
3461 Clouds 10 1020 81 10000 3.1 110 08:18 07.05.2020
3462 Clouds 10 1021 87 10000 1.5 0 07:41 07.05.2020
3463 Clouds 10 1021 87 10000 1.5 0 07:41 07.05.2020
3464 Clouds 10 1021 87 10000 1.5 0 07:22 07.05.2020
3465 Clouds 10 1021 81 10000 3.6 140 06:39 07.05.2020
3466 Clouds 10 1021 81 10000 3.6 140 06:21 07.05.2020
3467 Rain 10 1022 87 10000 3.1 100 05:25 07.05.2020
3468 Rain 11 1022 66 10000 2.6 80 03:50 07.05.2020
3469 Clouds 11 1022 62 10000 2.6 130 03:21 07.05.2020
3470 Rain 11 1023 62 10000 3.1 140 02:41 07.05.2020
3471 Clouds 11 1023 50 10000 3.1 140 01:41 07.05.2020
3472 Clouds 11 1023 50 10000 3.1 140 01:23 07.05.2020
3473 Clouds 11 1023 66 10000 1.5 0 00:44 07.05.2020
3474 Clouds 10 1023 66 10000 1.5 0 00:25 07.05.2020
3475 Clouds 10 1024 81 10000 3.1 100 23:46 06.05.2020
3476 Clouds 10 1024 81 10000 3.1 100 23:24 06.05.2020
3477 Clouds 10 1024 76 10000 2.1 110 22:57 06.05.2020
3478 Clouds 10 1024 70 10000 4.1 100 22:39 06.05.2020
3479 Clear 10 1024 70 10000 4.1 100 22:19 06.05.2020
3480 Clear 10 1024 76 10000 3.6 80 21:56 06.05.2020
3481 Clear 11 1024 66 10000 3.1 70 21:38 06.05.2020
3482 Clear 12 1024 50 10000 4.1 90 21:18 06.05.2020
3483 Clear 13 1024 47 10000 4.1 100 20:42 06.05.2020
3484 Clear 13 1024 47 10000 4.1 100 20:23 06.05.2020
3485 Clear 13 1024 47 10000 3.6 110 19:57 06.05.2020
3486 Clear 13 1024 47 10000 3.6 110 19:38 06.05.2020
3487 Clear 13 1024 47 10000 4.6 130 19:19 06.05.2020
3488 Clear 13 1024 47 10000 4.6 130 18:58 06.05.2020
3489 Clear 13 1024 54 10000 4.6 110 18:38 06.05.2020
3490 Clear 13 1024 54 10000 4.6 110 18:20 06.05.2020
3491 Clear 13 1024 54 10000 4.6 110 18:20 06.05.2020
3492 Clear 13 1024 47 10000 5.1 110 17:56 06.05.2020
3493 Clear 13 1024 47 10000 5.1 110 17:56 06.05.2020
3494 Clear 13 1024 44 10000 4.6 130 17:38 06.05.2020
3495 Clear 13 1024 44 10000 4.6 130 17:20 06.05.2020
3496 Clear 14 1024 41 10000 4.6 120 16:58 06.05.2020
3497 Clear 14 1024 47 10000 5.1 120 16:40 06.05.2020
3498 Clear 14 1024 47 10000 5.1 120 16:20 06.05.2020
3499 Clear 14 1024 44 10000 5.7 100 15:57 06.05.2020
3500 Clouds 14 1025 47 10000 4.6 120 15:39 06.05.2020
3501 Clouds 14 1025 47 10000 4.6 120 15:19 06.05.2020
3502 Clear 13 1025 58 10000 5.7 110 14:41 06.05.2020
3503 Clear 13 1025 54 10000 5.7 110 14:19 06.05.2020
3504 Clear 13 1025 54 10000 5.7 110 14:19 06.05.2020
3505 Clear 14 1025 54 10000 5.7 110 13:59 06.05.2020
3506 Clear 13 1025 54 10000 5.7 110 13:59 06.05.2020
3507 Clear 14 1025 58 10000 5.7 120 13:39 06.05.2020
3508 Clear 13 1025 58 10000 6.2 110 13:19 06.05.2020
3509 Clear 13 1025 58 10000 5.7 110 12:44 06.05.2020
3510 Clear 13 1025 58 10000 5.7 110 12:26 06.05.2020
3511 Clear 13 1025 66 10000 5.7 110 11:56 06.05.2020
3512 Clear 13 1025 62 10000 5.7 110 11:37 06.05.2020
3513 Clear 13 1025 62 10000 5.7 110 11:19 06.05.2020
3514 Clear 12 1024 66 10000 4.6 130 10:56 06.05.2020
3515 Clear 12 1024 71 10000 4.6 130 10:37 06.05.2020
3516 Clear 12 1024 71 10000 4.6 130 10:18 06.05.2020
3517 Clear 11 1024 76 10000 3.6 120 09:39 06.05.2020
3518 Clear 10 1024 76 10000 3.6 140 09:21 06.05.2020
3519 Clear 9 1024 81 10000 3.6 140 08:45 06.05.2020
3520 Clear 9 1024 81 10000 3.6 140 08:22 06.05.2020
3521 Clear 8 1023 81 10000 2.6 140 07:58 06.05.2020
3522 Clear 7 1023 93 10000 2.6 140 07:39 06.05.2020
3523 Clear 7 1023 93 10000 2.6 140 07:20 06.05.2020
3524 Clear 6 1023 100 10000 2.6 120 06:49 06.05.2020
3525 Clear 6 1023 100 10000 2.6 100 06:21 06.05.2020
3526 Clear 6 1023 100 10000 3.1 90 05:50 06.05.2020
3527 Clear 6 1023 93 10000 3.6 90 05:32 06.05.2020
3528 Clouds 6 1023 100 10000 2.6 70 03:55 06.05.2020
3529 Clouds 6 1023 93 10000 1.5 360 03:34 06.05.2020
3530 Clouds 6 1023 93 10000 1.5 330 02:58 06.05.2020
3531 Clouds 6 1023 93 10000 1.5 0 02:28 06.05.2020
3532 Clouds 7 1023 93 10000 2.6 80 01:46 06.05.2020
3533 Clouds 7 1023 93 10000 2.6 80 01:26 06.05.2020
3534 Clouds 8 1023 81 10000 1.5 0 00:45 06.05.2020
3535 Clouds 8 1023 81 10000 1.5 0 00:23 06.05.2020
3536 Clouds 8 1022 87 10000 4.1 100 23:42 05.05.2020
3537 Clouds 9 1022 87 10000 4.1 100 23:20 05.05.2020
3538 Clouds 9 1022 81 10000 3.6 100 22:57 05.05.2020
3539 Clear 9 1022 76 10000 3.1 100 22:38 05.05.2020
3540 Clouds 10 1022 71 10000 5.7 90 22:19 05.05.2020
3541 Clouds 11 1022 71 10000 6.2 90 21:41 05.05.2020
3542 Clouds 11 1022 71 10000 6.2 90 21:22 05.05.2020
3543 Clouds 11 1021 66 10000 6.7 90 20:59 05.05.2020
3544 Clouds 12 1021 62 10000 7.7 90 20:41 05.05.2020
3545 Clouds 12 1021 62 10000 7.7 90 20:20 05.05.2020
3546 Clouds 12 1021 62 10000 7.2 90 19:59 05.05.2020
3547 Clouds 12 1021 62 10000 7.7 90 19:40 05.05.2020
3548 Clouds 12 1021 62 10000 7.7 90 19:40 05.05.2020
3549 Clouds 12 1021 62 10000 7.7 90 19:21 05.05.2020
3550 Clouds 12 1021 62 10000 8.2 90 18:57 05.05.2020
3551 Clouds 13 1021 58 10000 7.7 90 18:39 05.05.2020
3552 Clouds 13 1021 58 10000 8.2 90 18:19 05.05.2020
3553 Clouds 13 1021 58 10000 8.2 90 17:56 05.05.2020
3554 Clouds 13 1020 62 10000 8.2 70 17:38 05.05.2020
3555 Clouds 13 1020 62 10000 8.2 70 17:20 05.05.2020
3556 Clouds 12 1021 66 10000 7.7 80 16:38 05.05.2020
3557 Clouds 12 1021 54 10000 7.2 90 16:20 05.05.2020
3558 Clouds 12 1021 54 10000 7.2 90 15:58 05.05.2020
3559 Clouds 12 1021 58 10000 7.7 90 15:39 05.05.2020
3560 Clouds 12 1021 62 10000 7.7 90 15:20 05.05.2020
3561 Clouds 12 1021 62 10000 7.7 90 14:55 05.05.2020
3562 Clouds 12 1021 62 10000 7.7 80 14:37 05.05.2020
3563 Clouds 12 1021 62 10000 7.7 80 14:37 05.05.2020
3564 Clouds 12 1021 66 10000 8.2 100 14:18 05.05.2020
3565 Clouds 12 1021 66 10000 8.2 100 13:55 05.05.2020
3566 Clouds 12 1021 62 10000 8.2 90 13:36 05.05.2020
3567 Clouds 12 1021 62 10000 8.2 90 13:18 05.05.2020
3568 Clouds 11 1021 66 10000 8.2 90 12:43 05.05.2020
3569 Clouds 11 1021 66 10000 8.2 90 12:25 05.05.2020
3570 Clouds 10 1021 71 10000 8.2 90 11:59 05.05.2020
3571 Clouds 10 1021 71 10000 8.7 100 11:40 05.05.2020
3572 Clouds 10 1021 71 10000 8.7 100 11:19 05.05.2020
3573 Clouds 10 1021 71 10000 8.7 100 10:55 05.05.2020
3574 Clouds 9 1021 76 10000 7.2 100 10:36 05.05.2020
3575 Clouds 9 1021 76 10000 7.2 100 10:18 05.05.2020
3576 Clouds 9 1020 76 10000 7.7 100 09:44 05.05.2020
3577 Clouds 9 1020 76 10000 7.7 100 09:26 05.05.2020
3578 Clouds 8 1020 81 10000 7.7 100 08:58 05.05.2020
3579 Clouds 8 1019 87 10000 7.2 90 08:39 05.05.2020
3580 Clouds 8 1019 87 10000 6.7 90 08:18 05.05.2020
3581 Clouds 7 1019 87 10000 7.2 90 07:43 05.05.2020
3582 Clouds 7 1020 87 10000 6.7 90 07:21 05.05.2020
3583 Clouds 7 1020 87 10000 6.7 90 06:57 05.05.2020
3584 Clouds 7 1020 87 10000 6.7 100 06:39 05.05.2020
3585 Clouds 8 1020 87 10000 6.7 100 05:53 05.05.2020
3586 Clouds 8 1020 87 10000 7.7 90 04:59 05.05.2020
3587 Clouds 9 1020 87 10000 8.7 90 02:39 05.05.2020
3588 Clouds 10 1020 81 10000 8.7 90 00:56 05.05.2020
3589 Clouds 10 1020 81 10000 8.2 90 00:33 05.05.2020
3590 Clouds 10 1020 76 10000 8.2 80 23:49 04.05.2020
3591 Clouds 10 1020 76 10000 8.2 80 23:26 04.05.2020
3592 Clouds 10 1020 76 10000 7.2 70 22:59 04.05.2020
3593 Clouds 10 1019 76 10000 7.7 60 22:41 04.05.2020
3594 Clouds 10 1019 76 10000 7.7 60 22:22 04.05.2020
3595 Clouds 10 1020 76 10000 7.2 60 22:22 04.05.2020
3596 Clouds 11 1020 76 10000 7.2 60 21:57 04.05.2020
3597 Clouds 11 1020 71 10000 6.7 60 21:37 04.05.2020
3598 Clouds 11 1020 71 10000 6.7 60 21:37 04.05.2020
3599 Clouds 11 1020 71 10000 6.7 60 21:19 04.05.2020
3600 Clouds 11 1020 71 10000 6.7 60 21:19 04.05.2020
3601 Clouds 12 1020 71 10000 8.2 60 20:41 04.05.2020
3602 Clouds 12 1020 71 10000 8.2 60 20:41 04.05.2020
3603 Clouds 12 1020 71 10000 8.2 60 20:41 04.05.2020
3604 Clouds 12 1020 71 10000 8.2 60 20:21 04.05.2020
3605 Clouds 12 1020 71 10000 8.2 60 20:21 04.05.2020
3606 Clouds 12 1020 71 10000 6.7 50 19:56 04.05.2020
3607 Clouds 13 1020 71 10000 5.7 50 19:37 04.05.2020
3608 Clouds 13 1020 66 10000 5.7 60 19:18 04.05.2020
3609 Clouds 13 1021 66 10000 5.7 60 18:39 04.05.2020
3610 Clouds 13 1021 66 10000 5.7 60 18:20 04.05.2020
3611 Clouds 13 1021 66 10000 4.6 60 17:56 04.05.2020
3612 Clouds 13 1021 62 10000 4.6 40 17:38 04.05.2020
3613 Clouds 13 1021 62 10000 4.6 40 17:20 04.05.2020
3614 Clouds 12 1022 62 10000 4.6 80 16:44 04.05.2020
3615 Clouds 12 1022 62 10000 4.6 80 16:44 04.05.2020
3616 Clouds 12 1022 62 10000 4.6 80 16:44 04.05.2020
3617 Clouds 12 1022 62 10000 4.6 80 16:23 04.05.2020
3618 Clouds 13 1022 58 10000 5.1 70 15:58 04.05.2020
3619 Clouds 12 1022 66 10000 5.1 60 15:40 04.05.2020
3620 Clouds 12 1022 71 10000 5.1 50 15:21 04.05.2020
3621 Clouds 12 1022 66 10000 4.6 60 14:48 04.05.2020
3622 Clouds 12 1022 66 10000 4.6 60 14:21 04.05.2020
3623 Clouds 12 1021 66 10000 5.1 60 13:21 04.05.2020
3624 Clouds 12 1022 66 10000 5.7 70 13:21 04.05.2020
3625 Clouds 12 1021 66 10000 5.1 60 13:21 04.05.2020
3626 Clouds 12 1022 66 10000 5.1 60 12:44 04.05.2020
3627 Clouds 12 1022 66 10000 5.1 60 12:44 04.05.2020
3628 Clouds 12 1022 66 10000 5.1 60 12:44 04.05.2020
3629 Clouds 12 1022 66 10000 5.1 60 12:44 04.05.2020
3630 Clouds 12 1022 66 10000 5.1 60 12:44 04.05.2020
3631 Clouds 12 1022 62 10000 4.1 60 11:21 04.05.2020
3632 Clouds 12 1022 62 10000 4.1 60 11:21 04.05.2020
3633 Clouds 8 1021 93 10000 2.1 10 09:28 04.05.2020
3634 Clouds 8 1021 93 10000 2.1 10 09:28 04.05.2020
3635 Clouds 5 1020 93 10000 2.6 340 07:54 04.05.2020
3636 Clouds 5 1020 93 10000 2.6 340 07:34 04.05.2020
3637 Clouds 6 1020 93 10000 2.1 340 05:49 04.05.2020
3638 Clouds 7 1020 86 10000 2.6 50 04:52 04.05.2020
3639 Clouds 7 1020 86 10000 2.6 50 04:52 04.05.2020
3640 Clouds 8 1019 87 10000 2.6 40 02:54 04.05.2020
3641 Clouds 8 1019 87 10000 2.6 40 01:39 04.05.2020
3642 Clouds 7 1019 93 10000 1.5 100 00:18 04.05.2020
3643 Clouds 8 1018 81 10000 1.5 100 23:43 03.05.2020
3644 Clouds 8 1018 81 10000 1.5 100 23:43 03.05.2020
3645 Clouds 8 1018 81 10000 1.5 100 23:23 03.05.2020
3646 Clouds 8 1018 70 10000 2.1 110 22:43 03.05.2020
3647 Clouds 8 1018 70 10000 2.1 110 22:43 03.05.2020
3648 Clouds 11 1018 66 10000 2.1 100 22:25 03.05.2020
3649 Clouds 11 1018 66 10000 2.1 100 22:25 03.05.2020
3650 Clouds 12 1017 62 10000 3.1 90 21:43 03.05.2020
3651 Clouds 12 1017 62 10000 3.1 90 21:22 03.05.2020
3652 Clouds 12 1017 50 10000 3.1 90 20:58 03.05.2020
3653 Clouds 12 1017 50 10000 3.1 90 20:58 03.05.2020
3654 Clouds 12 1017 50 10000 3.1 90 20:58 03.05.2020
3655 Clouds 12 1017 50 10000 3.1 90 20:58 03.05.2020
3656 Clouds 12 1017 50 10000 3.1 90 20:58 03.05.2020
3657 Clouds 13 1017 43 10000 3.1 100 20:39 03.05.2020
3658 Clouds 13 1017 43 10000 3.1 100 20:20 03.05.2020
3659 Clouds 13 1017 43 10000 3.1 100 20:20 03.05.2020
3660 Clouds 13 1017 47 10000 3.6 100 20:20 03.05.2020
3661 Clouds 13 1017 44 10000 3.6 100 19:47 03.05.2020
3662 Clouds 14 1017 44 10000 3.6 100 19:29 03.05.2020
3663 Clouds 14 1017 50 10000 4.1 90 18:42 03.05.2020
3664 Clouds 14 1017 50 10000 4.1 90 18:42 03.05.2020
3665 Clouds 14 1017 50 10000 4.1 90 18:42 03.05.2020
3666 Clouds 14 1017 50 10000 4.1 90 18:42 03.05.2020
3667 Clouds 14 1017 50 10000 4.1 90 18:42 03.05.2020
3668 Clouds 14 1017 50 10000 4.1 90 18:21 03.05.2020
3669 Clouds 14 1017 50 10000 3.6 80 17:59 03.05.2020
3670 Clouds 14 1017 47 10000 3.1 80 17:40 03.05.2020
3671 Clouds 14 1017 47 10000 3.1 80 17:21 03.05.2020
3672 Clouds 14 1017 54 10000 4.6 80 16:45 03.05.2020
3673 Clouds 14 1017 54 10000 4.6 80 16:45 03.05.2020
3674 Clouds 14 1017 54 10000 4.6 80 16:20 03.05.2020
3675 Clouds 14 1017 54 10000 4.6 80 16:20 03.05.2020
3676 Clouds 14 1017 54 10000 4.1 70 15:58 03.05.2020
3677 Clouds 14 1016 58 10000 4.1 60 15:39 03.05.2020
3678 Clouds 14 1016 58 10000 4.1 60 15:39 03.05.2020
3679 Clouds 14 1016 50 10000 4.1 60 15:20 03.05.2020
3680 Clouds 14 1016 50 10000 4.1 60 14:58 03.05.2020
3681 Clouds 14 1016 50 10000 3.6 100 14:39 03.05.2020
3682 Clouds 14 1016 50 10000 3.6 100 14:20 03.05.2020
3683 Clouds 14 1016 47 10000 3.6 100 13:49 03.05.2020
3684 Clouds 14 1016 54 10000 3.6 70 13:49 03.05.2020
3685 Clouds 14 1016 54 10000 3.6 70 13:49 03.05.2020
3686 Clouds 14 1016 54 10000 3.6 70 13:49 03.05.2020
3687 Clouds 14 1016 54 10000 3.6 70 13:46 03.05.2020
3688 Clouds 13 1016 50 10000 3.6 80 12:59 03.05.2020
3689 Clouds 13 1016 50 10000 3.6 80 12:59 03.05.2020
3690 Clouds 13 1016 54 10000 2.6 80 12:41 03.05.2020
3691 Clouds 13 1016 54 10000 2.6 80 12:18 03.05.2020
3692 Clouds 13 1016 50 10000 3.6 70 11:55 03.05.2020
3693 Clouds 12 1016 58 10000 3.6 70 11:37 03.05.2020
3694 Clouds 12 1016 58 10000 3.6 70 11:18 03.05.2020
3695 Clouds 11 1016 66 10000 2.6 120 10:40 03.05.2020
3696 Clouds 11 1016 66 10000 2.6 120 10:39 03.05.2020
3697 Clouds 11 1016 66 10000 2.6 120 10:39 03.05.2020
3698 Clouds 11 1016 66 10000 2.6 120 10:39 03.05.2020
3699 Clouds 11 1016 66 10000 2.6 120 10:39 03.05.2020
3700 Clouds 10 1015 100 10000 1 0 09:56 03.05.2020
3701 Clouds 10 1015 100 10000 1 0 09:56 03.05.2020
3702 Clouds 10 1015 81 10000 2.1 100 09:56 03.05.2020
3703 Clouds 10 1015 100 10000 1 0 09:56 03.05.2020
3704 Clouds 10 1015 81 10000 2.1 100 09:56 03.05.2020
3705 Clouds 8 1015 100 10000 1 0 09:28 03.05.2020
3706 Clouds 8 1015 100 10000 1 0 09:28 03.05.2020
3707 Clouds 8 1015 100 10000 1 0 09:28 03.05.2020
3708 Clouds 6 1015 100 10000 1.5 160 08:54 03.05.2020
3709 Clouds 6 1015 100 10000 1.5 160 08:54 03.05.2020
3710 Clouds 6 1015 100 10000 1.5 160 08:54 03.05.2020
3711 Clouds 6 1015 100 10000 1.5 160 08:54 03.05.2020
3712 Clouds 6 1015 100 10000 1.5 160 08:54 03.05.2020
3713 Clouds 5 1015 100 10000 1.5 130 08:21 03.05.2020
3714 Clouds 5 1015 100 10000 1.5 130 08:21 03.05.2020
3715 Clouds 5 1015 100 10000 1.5 130 08:21 03.05.2020
3716 Clouds 5 1014 86 10000 1.5 0 07:38 03.05.2020
3717 Clouds 6 1014 87 10000 3.1 60 06:19 03.05.2020
3718 Clouds 6 1014 87 10000 3.6 50 06:19 03.05.2020
3719 Clouds 6 1014 87 10000 3.1 10 05:44 03.05.2020
3720 Clouds 6 1014 93 10000 3.1 360 04:31 03.05.2020
3721 Clouds 6 1014 100 10000 2.6 350 03:59 03.05.2020
3722 Clouds 6 1014 100 10000 2.6 350 03:59 03.05.2020
3723 Clouds 6 1014 93 10000 2.1 340 02:53 03.05.2020
3724 Clouds 6 1014 100 10000 1 0 02:22 03.05.2020
3725 Clouds 6 1014 86 10000 1 0 01:42 03.05.2020
3726 Clouds 6 1014 86 10000 1 0 01:24 03.05.2020
3727 Clouds 7 1013 86 10000 0.5 360 00:41 03.05.2020
3728 Clouds 7 1013 86 10000 0.5 360 00:21 03.05.2020
3729 Clouds 7 1013 80 10000 1 170 23:56 02.05.2020
3730 Clouds 7 1013 80 10000 1 170 23:56 02.05.2020
3731 Clouds 8 1013 70 10000 1.5 0 23:38 02.05.2020
3732 Clouds 8 1013 70 10000 1.5 0 23:19 02.05.2020
3733 Clouds 9 1013 66 10000 4.1 160 22:42 02.05.2020
3734 Clouds 10 1013 66 10000 4.1 160 22:23 02.05.2020
3735 Clouds 10 1013 66 10000 4.1 150 21:56 02.05.2020
3736 Clouds 11 1013 66 10000 3.6 140 21:37 02.05.2020
3737 Clouds 11 1013 62 10000 3.1 140 21:18 02.05.2020
3738 Clouds 11 1013 62 10000 3.1 140 20:55 02.05.2020
3739 Clouds 12 1013 58 10000 4.1 140 20:37 02.05.2020
3740 Clouds 12 1013 58 10000 5.1 150 20:18 02.05.2020
3741 Clouds 12 1013 58 10000 5.1 150 19:55 02.05.2020
3742 Clouds 13 1013 54 10000 5.1 150 19:36 02.05.2020
3743 Clouds 13 1013 54 10000 5.1 150 19:18 02.05.2020
3744 Clouds 13 1013 58 10000 5.1 140 18:40 02.05.2020
3745 Clouds 13 1013 58 10000 5.1 140 18:21 02.05.2020
3746 Clouds 13 1012 58 10000 5.1 140 17:57 02.05.2020
3747 Clouds 14 1012 62 10000 4.6 100 17:39 02.05.2020
3748 Clouds 13 1012 44 10000 2.6 140 17:20 02.05.2020
3749 Clouds 13 1012 44 10000 2.6 140 16:57 02.05.2020
3750 Clouds 14 1012 47 10000 3.6 100 16:38 02.05.2020
3751 Clouds 14 1012 47 10000 3.6 100 16:20 02.05.2020
3752 Clouds 13 1012 50 10000 3.1 280 15:42 02.05.2020
3753 Clouds 13 1012 50 10000 4.1 310 15:20 02.05.2020
3754 Clouds 13 1012 62 10000 3.1 350 14:44 02.05.2020
3755 Clouds 12 1012 58 10000 3.1 300 14:26 02.05.2020
3756 Clouds 12 1012 58 10000 3.1 300 13:59 02.05.2020
3757 Clouds 12 1012 66 10000 3.6 310 13:39 02.05.2020
3758 Clouds 11 1012 66 10000 3.6 310 13:19 02.05.2020
3759 Clouds 11 1012 62 10000 3.6 300 12:41 02.05.2020
3760 Clouds 11 1011 71 10000 3.6 330 12:22 02.05.2020
3761 Clouds 10 1011 71 10000 3.6 330 11:57 02.05.2020
3762 Clouds 10 1011 71 10000 4.6 310 11:39 02.05.2020
3763 Clouds 10 1011 71 10000 4.6 310 11:20 02.05.2020
3764 Clouds 9 1010 87 10000 5.1 330 10:41 02.05.2020
3765 Clouds 9 1010 87 10000 5.1 330 10:41 02.05.2020
3766 Clouds 9 1010 87 10000 5.1 330 10:22 02.05.2020
3767 Clouds 8 1010 87 10000 4.1 310 09:59 02.05.2020
3768 Clouds 7 1010 87 10000 4.6 300 09:41 02.05.2020
3769 Clouds 7 1010 87 10000 4.6 300 09:23 02.05.2020
3770 Clouds 6 1009 93 10000 4.6 300 08:57 02.05.2020
3771 Clouds 5 1009 93 10000 4.6 290 08:38 02.05.2020
3772 Clouds 5 1009 93 10000 4.6 290 08:19 02.05.2020
3773 Clouds 5 1009 93 10000 4.6 290 07:45 02.05.2020
3774 Clouds 5 1009 93 10000 4.6 290 07:27 02.05.2020
3775 Clouds 4 1009 93 10000 4.6 290 07:27 02.05.2020
3776 Clouds 5 1008 93 10000 5.1 290 06:43 02.05.2020
3777 Clouds 5 1007 93 10000 5.1 280 05:28 02.05.2020
3778 Clouds 6 1007 93 10000 5.1 270 04:31 02.05.2020
3779 Clouds 6 1006 93 10000 5.7 270 03:59 02.05.2020
3780 Clouds 5 1005 93 10000 4.1 260 02:43 02.05.2020
3781 Clouds 5 1005 86 10000 4.1 260 01:59 02.05.2020
3782 Clouds 6 1005 86 10000 4.6 270 01:28 02.05.2020
3783 Clouds 6 1004 81 10000 4.6 260 00:44 02.05.2020
3784 Clouds 6 1004 81 10000 4.6 260 00:24 02.05.2020
3785 Clouds 6 1004 81 10000 5.1 270 23:56 01.05.2020
3786 Clouds 6 1004 81 10000 4.6 270 23:37 01.05.2020
3787 Clouds 6 1004 81 10000 4.6 270 23:18 01.05.2020
3788 Clouds 7 1003 70 10000 5.1 270 22:40 01.05.2020
3789 Clouds 7 1003 70 10000 5.1 270 22:21 01.05.2020
3790 Rain 8 1003 75 10000 4.1 280 21:59 01.05.2020
3791 Rain 8 1002 75 10000 5.1 300 21:41 01.05.2020
3792 Rain 8 1002 66 10000 6.7 270 21:21 01.05.2020
3793 Rain 8 1002 75 10000 5.1 300 21:21 01.05.2020
3794 Rain 9 1002 66 10000 6.7 270 20:58 01.05.2020
3795 Rain 9 1002 66 10000 6.7 270 20:58 01.05.2020
3796 Rain 9 1001 66 10000 5.1 280 20:40 01.05.2020
3797 Rain 9 1001 66 10000 5.7 280 20:20 01.05.2020
3798 Rain 9 1001 66 10000 5.1 280 20:20 01.05.2020
3799 Rain 10 1001 66 10000 5.7 280 19:58 01.05.2020
3800 Clouds 10 1001 71 10000 5.7 280 19:40 01.05.2020
3801 Clouds 10 1001 71 10000 5.7 280 19:20 01.05.2020
3802 Clouds 10 1001 81 10000 5.1 270 18:56 01.05.2020
3803 Clouds 10 1001 87 10000 2.1 250 18:37 01.05.2020
3804 Clouds 10 1001 87 10000 2.1 250 18:19 01.05.2020
3805 Rain 9 1000 76 10000 5.7 300 17:40 01.05.2020
3806 Rain 10 1000 76 10000 5.7 300 17:22 01.05.2020
3807 Rain 9 999 54 10000 6.7 270 16:57 01.05.2020
3808 Rain 12 1000 66 10000 3.6 250 16:39 01.05.2020
3809 Rain 12 1000 66 10000 3.6 250 16:20 01.05.2020
3810 Rain 12 999 57 10000 7.7 290 15:57 01.05.2020
3811 Rain 12 999 50 10000 7.2 260 15:39 01.05.2020
3812 Clouds 11 999 47 10000 7.2 290 15:19 01.05.2020
3813 Clouds 11 999 47 10000 7.2 290 15:19 01.05.2020
3814 Rain 11 999 62 10000 7.7 280 14:44 01.05.2020
3815 Rain 12 999 62 10000 7.7 280 14:24 01.05.2020
3816 Clouds 11 999 62 10000 7.7 280 13:56 01.05.2020
3817 Clouds 12 999 58 10000 7.2 280 13:38 01.05.2020
3818 Clouds 11 998 57 10000 8.7 290 13:19 01.05.2020
3819 Clouds 11 998 57 10000 8.2 290 12:54 01.05.2020
3820 Clouds 11 998 57 10000 8.2 290 12:36 01.05.2020
3821 Clouds 11 998 66 10000 7.2 290 12:18 01.05.2020
3822 Clouds 10 998 71 10000 7.2 280 11:41 01.05.2020
3823 Clouds 10 998 76 10000 6.7 280 11:23 01.05.2020
3824 Clouds 9 998 76 10000 6.7 280 10:56 01.05.2020
3825 Clouds 8 997 81 10000 6.7 280 10:37 01.05.2020
3826 Clouds 8 997 87 10000 6.2 270 10:19 01.05.2020
3827 Clouds 8 997 81 10000 6.7 280 10:19 01.05.2020
3828 Clouds 7 997 93 10000 6.2 270 09:43 01.05.2020
3829 Clouds 5 997 93 10000 5.1 270 09:19 01.05.2020
3830 Clouds 5 997 93 10000 5.1 270 08:54 01.05.2020
3831 Clouds 5 996 93 10000 4.1 270 08:36 01.05.2020
3832 Clouds 4 996 93 10000 4.1 270 08:18 01.05.2020
3833 Clouds 5 996 93 10000 4.1 270 07:41 01.05.2020
3834 Clouds 5 996 93 10000 4.1 270 07:21 01.05.2020
3835 Clouds 5 996 93 10000 4.6 280 06:39 01.05.2020
3836 Clouds 5 995 93 10000 3.6 260 05:32 01.05.2020
3837 Clouds 5 995 93 10000 3.1 260 04:20 01.05.2020
3838 Clouds 7 994 87 10000 4.1 280 02:59 01.05.2020
3839 Rain 7 994 87 10000 5.1 280 02:40 01.05.2020
3840 Clouds 7 994 87 10000 3.6 270 01:58 01.05.2020
3841 Clouds 7 994 87 10000 3.6 270 01:28 01.05.2020
3842 Clouds 8 993 87 10000 3.1 260 00:41 01.05.2020
3843 Clouds 8 993 87 10000 3.1 260 00:22 01.05.2020
3844 Clouds 8 993 87 10000 2.6 240 23:58 30.04.2020
3845 Clouds 8 993 87 10000 3.6 270 23:39 30.04.2020
3846 Clouds 8 993 87 10000 3.6 270 23:21 30.04.2020
3847 Clouds 8 993 87 10000 3.6 290 22:59 30.04.2020
3848 Clouds 8 993 81 10000 3.6 280 22:40 30.04.2020
3849 Clouds 9 993 81 10000 3.6 280 22:19 30.04.2020
3850 Clouds 9 992 76 10000 2.6 310 21:55 30.04.2020
3851 Clouds 9 992 71 10000 2.1 350 21:36 30.04.2020
3852 Clouds 9 991 71 10000 6.2 310 21:18 30.04.2020
3853 Clouds 10 991 66 10000 5.7 310 20:41 30.04.2020
3854 Clouds 10 991 66 10000 5.7 310 20:19 30.04.2020
3855 Clouds 10 991 66 10000 5.7 310 20:19 30.04.2020
3856 Clouds 10 991 71 10000 5.7 270 19:47 30.04.2020
3857 Clouds 11 990 66 10000 7.2 280 19:27 30.04.2020
3858 Clouds 10 990 76 10000 6.2 280 18:59 30.04.2020
3859 Clouds 10 990 71 10000 7.2 280 18:39 30.04.2020
3860 Clouds 10 990 71 10000 7.2 280 18:21 30.04.2020
3861 Clouds 10 990 71 10000 7.2 280 17:59 30.04.2020
3862 Clouds 10 990 76 10000 6.7 270 17:40 30.04.2020
3863 Clouds 10 990 76 10000 6.7 270 17:21 30.04.2020
3864 Clouds 10 990 71 10000 9.3 280 16:57 30.04.2020
3865 Clouds 9 990 76 10000 8.2 290 16:39 30.04.2020
3866 Clouds 9 990 76 10000 8.2 290 16:19 30.04.2020
3867 Rain 8 989 81 10000 9.3 270 15:48 30.04.2020
3868 Clouds 7 989 81 10000 9.3 270 15:25 30.04.2020
3869 Rain 8 989 81 10000 9.8 290 14:58 30.04.2020
3870 Rain 7 989 81 10000 10.3 290 14:39 30.04.2020
3871 Clouds 7 989 87 10000 8.7 290 14:19 30.04.2020
3872 Clouds 7 989 87 10000 8.7 290 13:55 30.04.2020
3873 Rain 8 989 87 10000 8.7 300 13:37 30.04.2020
3874 Rain 7 988 93 10000 9.3 300 13:19 30.04.2020
3875 Clouds 7 988 87 10000 8.2 300 12:41 30.04.2020
3876 Clouds 7 988 87 10000 8.2 300 12:20 30.04.2020
3877 Clouds 7 988 93 10000 6.7 300 11:58 30.04.2020
3878 Clouds 6 988 93 10000 6.7 300 11:36 30.04.2020
3879 Clouds 6 988 93 10000 6.7 300 11:18 30.04.2020
3880 Clouds 6 987 93 10000 6.2 290 10:41 30.04.2020
3881 Rain 6 987 93 10000 6.2 290 10:22 30.04.2020
3882 Rain 6 987 93 10000 6.2 290 10:22 30.04.2020
3883 Rain 6 986 93 10000 6.7 290 09:58 30.04.2020
3884 Rain 6 986 93 4000 6.2 300 09:39 30.04.2020
3885 Rain 6 986 93 10000 5.1 290 09:21 30.04.2020
3886 Rain 6 986 93 10000 5.1 290 08:48 30.04.2020
3887 Rain 6 986 100 3500 5.7 290 08:27 30.04.2020
3888 Rain 6 985 100 8000 5.7 290 07:57 30.04.2020
3889 Rain 6 985 100 9000 5.7 280 07:39 30.04.2020
3890 Rain 6 985 100 9000 5.7 280 07:19 30.04.2020
3891 Rain 6 985 93 10000 4.6 280 06:32 30.04.2020
3892 Rain 6 985 93 10000 3.1 290 05:47 30.04.2020
3893 Rain 6 985 93 7000 2.1 20 04:46 30.04.2020
3894 Rain 6 985 93 7000 2.1 20 04:24 30.04.2020
3895 Rain 7 985 93 10000 2.6 110 02:50 30.04.2020
3896 Rain 7 986 93 10000 4.1 120 02:28 30.04.2020
3897 Rain 7 987 93 10000 8.2 70 01:37 30.04.2020
3898 Rain 7 987 93 10000 7.7 90 00:53 30.04.2020
3899 Rain 7 987 93 10000 5.7 100 00:53 30.04.2020
3900 Rain 7 987 93 10000 5.7 100 00:24 30.04.2020
3901 Rain 7 988 93 10000 6.2 60 23:58 29.04.2020
3902 Rain 7 989 93 10000 5.1 80 23:40 29.04.2020
3903 Rain 7 989 93 10000 5.1 80 23:22 29.04.2020
3904 Rain 7 989 87 10000 4.6 100 22:58 29.04.2020
3905 Rain 7 990 81 10000 4.6 130 22:38 29.04.2020
3906 Rain 7 990 81 10000 4.6 130 22:18 29.04.2020
3907 Rain 9 990 66 10000 5.7 160 21:38 29.04.2020
3908 Clouds 9 990 66 10000 5.7 160 21:20 29.04.2020
3909 Clouds 10 990 66 10000 7.2 160 20:58 29.04.2020
3910 Clouds 10 990 66 10000 7.2 160 20:58 29.04.2020
3911 Clouds 10 991 53 10000 6.7 160 20:39 29.04.2020
3912 Clouds 11 991 66 10000 4.1 140 20:19 29.04.2020
3913 Rain 12 991 54 10000 4.1 120 19:43 29.04.2020
3914 Rain 12 991 54 10000 4.1 120 19:43 29.04.2020
3915 Rain 12 991 54 10000 4.1 120 19:22 29.04.2020
3916 Clouds 13 992 62 10000 4.1 110 18:58 29.04.2020
3917 Clouds 12 992 76 10000 3.1 90 18:40 29.04.2020
3918 Clouds 12 992 76 10000 3.1 90 18:19 29.04.2020
3919 Clouds 14 993 50 10000 3.6 100 17:44 29.04.2020
3920 Clouds 13 993 50 10000 3.6 100 17:22 29.04.2020
3921 Clouds 13 993 66 10000 1.5 0 16:57 29.04.2020
3922 Clouds 12 993 62 10000 2.6 160 16:36 29.04.2020
3923 Clouds 11 994 71 10000 4.1 150 16:18 29.04.2020
3924 Clouds 10 994 71 10000 4.1 150 15:55 29.04.2020
3925 Rain 9 994 87 10000 5.7 150 15:37 29.04.2020
3926 Rain 9 994 87 10000 5.7 150 15:18 29.04.2020
3927 Clouds 8 994 81 10000 6.7 140 14:43 29.04.2020
3928 Clouds 8 994 81 10000 6.7 140 14:25 29.04.2020
3929 Clouds 7 994 81 10000 6.2 140 13:57 29.04.2020
3930 Clouds 7 995 81 10000 7.2 140 13:38 29.04.2020
3931 Rain 7 995 87 10000 7.7 150 13:18 29.04.2020
3932 Rain 7 996 87 10000 7.7 160 12:41 29.04.2020
3933 Rain 7 996 81 9000 6.2 150 12:19 29.04.2020
3934 Rain 7 996 81 9000 6.2 150 11:59 29.04.2020
3935 Rain 7 996 87 10000 5.7 130 11:38 29.04.2020
3936 Rain 8 996 87 10000 5.7 130 11:20 29.04.2020
3937 Clouds 8 997 87 10000 5.1 140 10:39 29.04.2020
3938 Clouds 8 997 87 10000 5.1 140 10:20 29.04.2020
3939 Clouds 8 997 87 10000 5.1 140 09:59 29.04.2020
3940 Clouds 8 998 87 10000 6.2 140 09:40 29.04.2020
3941 Clouds 8 998 87 10000 6.2 140 09:19 29.04.2020
3942 Clouds 8 998 93 10000 5.7 140 08:43 29.04.2020
3943 Clouds 8 998 93 10000 5.7 140 08:25 29.04.2020
3944 Clouds 8 999 87 10000 4.6 130 07:53 29.04.2020
3945 Clouds 7 999 87 10000 3.6 140 07:28 29.04.2020
3946 Clouds 7 999 93 10000 4.1 140 06:52 29.04.2020
3947 Clouds 7 1000 93 10000 3.6 140 06:32 29.04.2020
3948 Clouds 7 1001 87 10000 4.6 150 05:43 29.04.2020
3949 Clouds 7 1001 87 10000 4.1 140 05:19 29.04.2020
3950 Clouds 7 1002 87 10000 3.6 140 04:19 29.04.2020
3951 Clouds 6 1002 87 10000 4.1 140 02:58 29.04.2020
3952 Clouds 6 1003 93 10000 3.1 130 01:54 29.04.2020
3953 Clouds 6 1003 87 10000 2.6 110 01:28 29.04.2020
3954 Clouds 6 1004 81 10000 2.1 120 00:55 29.04.2020
3955 Clouds 7 1004 87 10000 2.6 130 00:36 29.04.2020
3956 Clouds 7 1004 81 10000 1.5 0 00:18 29.04.2020
3957 Clouds 7 1004 87 10000 1.5 0 23:43 28.04.2020
3958 Clouds 7 1004 87 10000 1.5 0 23:20 28.04.2020
3959 Clouds 7 1004 87 10000 2.6 80 22:39 28.04.2020
3960 Clouds 7 1004 87 10000 2.6 80 22:20 28.04.2020
3961 Clouds 8 1004 87 10000 3.6 90 21:59 28.04.2020
3962 Clouds 8 1004 87 10000 3.1 60 21:40 28.04.2020
3963 Clouds 8 1004 87 10000 3.1 60 21:21 28.04.2020
3964 Clouds 9 1005 87 10000 4.1 70 20:58 28.04.2020
3965 Clouds 9 1005 81 10000 4.6 70 20:40 28.04.2020
3966 Clouds 10 1005 76 10000 5.7 80 20:20 28.04.2020
3967 Clouds 10 1005 76 10000 5.7 80 19:56 28.04.2020
3968 Clouds 10 1005 71 10000 5.1 70 19:37 28.04.2020
3969 Clouds 10 1005 71 10000 5.1 70 19:19 28.04.2020
3970 Clouds 10 1005 71 10000 4.6 50 19:19 28.04.2020
3971 Clouds 10 1005 66 10000 5.1 60 18:41 28.04.2020
3972 Clouds 10 1005 66 10000 5.1 60 18:20 28.04.2020
3973 Clouds 11 1005 71 10000 5.1 70 17:59 28.04.2020
3974 Clouds 11 1005 66 10000 4.6 50 17:37 28.04.2020
3975 Clouds 11 1005 66 10000 4.6 50 17:19 28.04.2020
3976 Clouds 11 1005 71 10000 4.1 80 16:56 28.04.2020
3977 Clouds 11 1005 71 10000 5.1 80 16:37 28.04.2020
3978 Clouds 12 1005 71 10000 4.6 80 16:19 28.04.2020
3979 Clouds 11 1005 71 10000 4.6 80 15:54 28.04.2020
3980 Clouds 11 1005 66 10000 4.1 90 15:36 28.04.2020
3981 Clouds 11 1005 71 10000 5.1 100 15:18 28.04.2020
3982 Clouds 11 1005 66 10000 5.7 90 14:43 28.04.2020
3983 Clouds 11 1005 66 10000 5.7 90 14:22 28.04.2020
3984 Clouds 11 1005 66 10000 5.1 60 13:59 28.04.2020
3985 Clouds 11 1005 66 10000 5.1 60 13:59 28.04.2020
3986 Clouds 11 1005 66 10000 5.7 60 13:39 28.04.2020
3987 Clouds 11 1005 66 10000 5.7 60 13:21 28.04.2020
3988 Clouds 11 1005 66 10000 5.7 60 13:21 28.04.2020
3989 Clouds 11 1005 76 10000 5.1 60 12:57 28.04.2020
3990 Clouds 11 1006 71 10000 5.1 50 12:37 28.04.2020
3991 Clouds 11 1006 71 10000 5.1 50 12:19 28.04.2020
3992 Clouds 9 1006 81 10000 5.1 40 11:40 28.04.2020
3993 Clouds 9 1006 81 10000 5.1 40 11:20 28.04.2020
3994 Clouds 9 1006 81 10000 4.1 20 10:55 28.04.2020
3995 Clouds 8 1006 87 10000 3.1 10 10:37 28.04.2020
3996 Clouds 8 1006 81 10000 3.1 10 10:18 28.04.2020
3997 Clouds 7 1006 87 10000 2.1 340 09:42 28.04.2020
3998 Clouds 6 1006 87 10000 2.1 340 09:24 28.04.2020
3999 Clouds 3 1006 100 10000 2.1 290 08:49 28.04.2020
4000 Clouds 4 1006 100 10000 2.1 290 08:30 28.04.2020
4001 Clouds 3 1006 83 10000 2.6 280 07:58 28.04.2020
4002 Clouds 3 1006 83 10000 2.1 300 07:39 28.04.2020
4003 Clouds 2 1006 86 10000 1 0 07:18 28.04.2020
4004 Clouds 2 1006 84 10000 2.6 330 06:28 28.04.2020
4005 Clouds 2 1007 84 10000 2.6 330 05:45 28.04.2020
4006 Clouds 2 1007 80 10000 2.6 330 05:26 28.04.2020
4007 Clouds 3 1007 80 10000 1.5 320 04:33 28.04.2020
4008 Clouds 4 1008 70 10000 1 360 02:37 28.04.2020
4009 Clouds 4 1008 100 10000 1 330 01:25 28.04.2020
4010 Clouds 4 1008 100 10000 1 330 01:25 28.04.2020
4011 Clouds 4 1008 100 10000 1 0 00:59 28.04.2020
4012 Clouds 4 1008 65 10000 1 0 00:27 28.04.2020
4013 Clouds 5 1008 65 10000 1 100 23:48 27.04.2020
4014 Clouds 5 1008 65 10000 0.84 160 23:25 27.04.2020
4015 Clouds 6 1008 86 10000 1 130 22:57 27.04.2020
4016 Clouds 7 1008 75 10000 1.5 170 22:38 27.04.2020
4017 Clouds 8 1008 66 10000 2.1 150 22:20 27.04.2020
4018 Clouds 9 1008 66 10000 2.1 150 21:56 27.04.2020
4019 Clouds 9 1008 66 10000 2.6 120 21:38 27.04.2020
4020 Clouds 10 1008 61 10000 3.6 110 21:18 27.04.2020
4021 Clouds 9 1008 66 10000 2.6 120 21:18 27.04.2020
4022 Clouds 10 1008 61 10000 3.6 110 20:54 27.04.2020
4023 Clouds 11 1008 53 10000 3.6 110 20:36 27.04.2020
4024 Clouds 11 1008 53 10000 3.6 110 20:36 27.04.2020
4025 Clouds 11 1008 57 10000 3.1 130 20:18 27.04.2020
4026 Clouds 11 1008 62 10000 3.6 130 19:40 27.04.2020
4027 Clouds 11 1008 62 10000 3.6 130 19:21 27.04.2020
4028 Clouds 11 1008 62 10000 4.1 140 18:59 27.04.2020
4029 Clouds 12 1008 46 10000 3.6 110 18:40 27.04.2020
4030 Clouds 12 1008 50 10000 4.6 100 18:19 27.04.2020
4031 Clouds 12 1008 50 10000 4.6 100 17:57 27.04.2020
4032 Clouds 12 1008 46 10000 4.1 90 17:38 27.04.2020
4033 Clouds 12 1008 50 10000 4.1 80 17:18 27.04.2020
4034 Clouds 12 1009 58 10000 4.1 100 16:40 27.04.2020
4035 Clouds 11 1009 57 10000 4.6 90 16:22 27.04.2020
4036 Clouds 11 1009 57 10000 4.6 90 15:57 27.04.2020
4037 Clouds 11 1009 57 10000 4.6 90 15:57 27.04.2020
4038 Clouds 12 1009 50 10000 4.1 90 15:38 27.04.2020
4039 Clouds 12 1009 58 10000 4.6 90 15:19 27.04.2020
4040 Clouds 12 1009 58 10000 4.6 90 14:58 27.04.2020
4041 Clouds 11 1009 62 10000 3.1 90 14:39 27.04.2020
4042 Clouds 11 1009 57 10000 3.6 100 14:18 27.04.2020
4043 Clouds 11 1009 54 10000 1.5 0 13:42 27.04.2020
4044 Clouds 11 1010 61 10000 2.6 40 13:22 27.04.2020
4045 Clouds 10 1010 61 10000 2.6 40 12:58 27.04.2020
4046 Clouds 10 1010 62 10000 2.1 360 12:40 27.04.2020
4047 Clouds 10 1010 62 10000 2.1 360 12:20 27.04.2020
4048 Clouds 10 1010 66 10000 1.5 0 11:41 27.04.2020
4049 Clouds 10 1010 66 10000 1.5 0 11:21 27.04.2020
4050 Clouds 9 1010 76 10000 1.5 0 10:58 27.04.2020
4051 Clouds 8 1010 81 10000 2.1 20 10:39 27.04.2020
4052 Clouds 8 1010 87 10000 2.6 350 10:20 27.04.2020
4053 Clouds 7 1010 93 10000 3.1 340 09:44 27.04.2020
4054 Clouds 6 1010 93 10000 3.1 340 09:21 27.04.2020
4055 Clouds 6 1010 93 10000 2.1 320 08:59 27.04.2020
4056 Clouds 5 1010 100 10000 1.5 320 08:41 27.04.2020
4057 Clouds 5 1010 100 10000 1.5 320 08:23 27.04.2020
4058 Clouds 5 1010 88 10000 2.1 310 07:44 27.04.2020
4059 Clouds 5 1010 88 10000 2.1 310 07:20 27.04.2020
4060 Clouds 5 1010 88 10000 3.1 340 06:56 27.04.2020
4061 Clouds 5 1010 88 10000 3.1 340 06:56 27.04.2020
4062 Clouds 6 1010 86 10000 3.1 360 06:27 27.04.2020
4063 Clouds 6 1010 86 10000 3.1 360 06:27 27.04.2020
4064 Clouds 7 1010 93 10000 2.6 350 05:50 27.04.2020
4065 Clouds 8 1010 100 10000 2.6 350 04:49 27.04.2020
4066 Clouds 8 1010 93 10000 1.5 350 03:59 27.04.2020
4067 Clouds 8 1010 93 10000 1.5 350 03:59 27.04.2020
4068 Clouds 8 1011 100 10000 1.5 360 03:35 27.04.2020
4069 Clouds 8 1011 100 10000 2.1 310 01:41 27.04.2020
4070 Clouds 8 1011 100 10000 2.6 300 00:59 27.04.2020
4071 Clouds 8 1011 93 10000 2.6 290 00:20 27.04.2020
4072 Clouds 8 1011 93 10000 2.6 290 23:56 26.04.2020
4073 Drizzle 8 1011 93 10000 2.6 280 23:38 26.04.2020
4074 Drizzle 8 1011 93 10000 2.6 280 23:19 26.04.2020
4075 Drizzle 8 1011 93 10000 1 0 22:58 26.04.2020
4076 Drizzle 8 1011 93 8000 1 0 22:39 26.04.2020
4077 Drizzle 8 1011 93 8000 1 0 22:20 26.04.2020
4078 Clouds 9 1011 93 10000 1 0 21:57 26.04.2020
4079 Clouds 9 1011 87 10000 1 0 21:38 26.04.2020
4080 Clouds 9 1011 87 10000 1.5 0 21:18 26.04.2020
4081 Clouds 9 1011 87 10000 1 0 21:18 26.04.2020
4082 Clouds 9 1011 87 10000 1.5 0 21:18 26.04.2020
4083 Clouds 9 1011 87 10000 2.1 210 20:54 26.04.2020
4084 Clouds 9 1011 87 10000 2.1 210 20:36 26.04.2020
4085 Clouds 9 1011 87 10000 2.1 200 20:18 26.04.2020
4086 Clouds 9 1011 87 10000 2.1 200 19:56 26.04.2020
4087 Drizzle 8 1011 93 8000 1 0 19:36 26.04.2020
4088 Drizzle 9 1011 87 8000 2.1 50 19:18 26.04.2020
4089 Drizzle 9 1011 81 10000 2.6 100 18:40 26.04.2020
4090 Drizzle 9 1011 81 10000 2.6 100 18:21 26.04.2020
4091 Clouds 9 1012 81 10000 2.6 90 17:42 26.04.2020
4092 Clouds 9 1012 81 10000 2.6 90 17:22 26.04.2020
4093 Clouds 10 1012 81 10000 3.1 100 16:55 26.04.2020
4094 Clouds 10 1012 76 10000 3.1 80 16:37 26.04.2020
4095 Clouds 10 1012 76 10000 4.1 80 16:19 26.04.2020
4096 Clouds 10 1012 76 10000 4.1 80 15:55 26.04.2020
4097 Clouds 10 1012 76 10000 4.1 80 15:36 26.04.2020
4098 Clouds 10 1012 71 10000 3.6 90 15:18 26.04.2020
4099 Clouds 10 1012 66 10000 4.1 50 14:40 26.04.2020
4100 Clouds 10 1012 66 10000 4.1 50 14:19 26.04.2020
4101 Clouds 10 1013 71 10000 4.6 60 13:58 26.04.2020
4102 Clouds 10 1013 71 10000 4.1 70 13:39 26.04.2020
4103 Clouds 10 1013 81 10000 3.6 70 13:20 26.04.2020
4104 Clouds 10 1013 81 10000 3.6 70 12:54 26.04.2020
4105 Clouds 10 1013 81 10000 3.6 50 12:36 26.04.2020
4106 Clouds 10 1013 81 10000 3.6 50 12:18 26.04.2020
4107 Clouds 9 1013 81 10000 2.6 60 11:42 26.04.2020
4108 Clouds 9 1013 81 10000 2.6 60 11:23 26.04.2020
4109 Clouds 9 1012 87 10000 3.1 60 10:59 26.04.2020
4110 Clouds 9 1012 93 10000 3.6 60 10:41 26.04.2020
4111 Clouds 9 1012 93 10000 3.6 60 10:41 26.04.2020
4112 Clouds 9 1012 93 10000 3.6 60 10:23 26.04.2020
4113 Clouds 9 1012 93 9000 4.6 60 09:57 26.04.2020
4114 Clouds 9 1012 93 8000 4.6 70 09:37 26.04.2020
4115 Clouds 9 1012 93 6000 4.6 50 09:18 26.04.2020
4116 Mist 9 1012 93 5000 3.6 40 08:41 26.04.2020
4117 Mist 9 1012 93 5000 3.6 40 08:41 26.04.2020
4118 Mist 9 1012 93 5000 3.6 40 08:21 26.04.2020
4119 Mist 9 1012 100 4000 2.6 50 07:48 26.04.2020
4120 Mist 9 1012 100 4000 2.6 50 07:23 26.04.2020
4121 Mist 10 1012 100 4000 2.6 40 06:46 26.04.2020
4122 Mist 10 1012 100 4000 2.6 20 06:20 26.04.2020
4123 Mist 10 1012 100 4000 2.6 20 05:47 26.04.2020
4124 Clouds 10 1012 93 5000 2.6 10 05:28 26.04.2020
4125 Clouds 10 1012 93 8000 2.6 10 04:30 26.04.2020
4126 Clouds 10 1012 87 10000 2.6 360 03:35 26.04.2020
4127 Clouds 10 1012 87 10000 1.5 0 02:33 26.04.2020
4128 Clouds 11 1012 87 10000 1.5 90 01:57 26.04.2020
4129 Clouds 11 1012 81 10000 1 0 01:36 26.04.2020
4130 Clouds 11 1012 81 10000 2.1 160 00:41 26.04.2020
4131 Clouds 11 1012 81 10000 2.1 160 00:20 26.04.2020
4132 Clouds 11 1012 81 10000 2.1 160 00:20 26.04.2020
4133 Clouds 11 1012 81 10000 0.5 360 23:55 25.04.2020
4134 Clouds 11 1012 87 10000 1.5 110 23:36 25.04.2020
4135 Clouds 11 1012 87 10000 1.5 110 23:18 25.04.2020
4136 Clouds 11 1012 81 10000 2.6 90 22:41 25.04.2020
4137 Clouds 12 1012 81 10000 2.6 100 22:20 25.04.2020
4138 Clouds 12 1012 81 10000 2.6 100 21:58 25.04.2020
4139 Clouds 12 1012 76 10000 2.6 90 21:37 25.04.2020
4140 Clouds 12 1012 76 10000 2.6 90 21:18 25.04.2020
4141 Clouds 13 1012 71 10000 2.6 90 20:42 25.04.2020
4142 Clouds 13 1012 71 10000 2.6 90 20:23 25.04.2020
4143 Clouds 14 1013 62 10000 3.1 80 19:59 25.04.2020
4144 Clouds 14 1013 62 10000 3.1 60 19:38 25.04.2020
4145 Clouds 15 1013 62 10000 3.1 70 19:20 25.04.2020
4146 Clouds 15 1013 58 10000 3.1 90 18:43 25.04.2020
4147 Clouds 15 1013 55 10000 3.6 100 18:22 25.04.2020
4148 Clouds 15 1013 58 10000 3.1 90 18:21 25.04.2020
4149 Clouds 15 1013 55 10000 3.6 100 17:59 25.04.2020
4150 Clouds 16 1013 55 10000 3.1 90 17:39 25.04.2020
4151 Clouds 16 1013 55 10000 3.1 90 17:21 25.04.2020
4152 Clouds 16 1013 55 10000 3.1 90 16:59 25.04.2020
4153 Clouds 16 1013 51 10000 3.6 90 16:41 25.04.2020
4154 Clouds 16 1013 51 10000 3.6 90 16:21 25.04.2020
4155 Clouds 16 1014 45 10000 4.1 100 15:54 25.04.2020
4156 Clouds 16 1014 45 10000 3.6 60 15:36 25.04.2020
4157 Clear 16 1014 39 10000 3.6 50 15:18 25.04.2020
4158 Clouds 16 1014 44 10000 4.1 70 14:39 25.04.2020
4159 Clouds 16 1014 44 10000 4.1 70 14:20 25.04.2020
4160 Clouds 15 1014 48 10000 4.1 50 13:59 25.04.2020
4161 Clouds 15 1014 58 10000 3.6 60 13:40 25.04.2020
4162 Clouds 15 1014 58 10000 3.6 60 13:18 25.04.2020
4163 Clouds 14 1014 54 10000 3.1 60 12:55 25.04.2020
4164 Clouds 14 1014 62 10000 3.1 70 12:36 25.04.2020
4165 Clouds 13 1014 66 10000 3.1 60 12:18 25.04.2020
4166 Clouds 13 1014 76 10000 3.1 30 11:41 25.04.2020
4167 Clouds 12 1014 71 10000 2.6 40 11:23 25.04.2020
4168 Clouds 12 1014 71 10000 2.6 40 10:57 25.04.2020
4169 Clouds 11 1014 71 10000 2.6 40 10:38 25.04.2020
4170 Clouds 10 1014 81 10000 3.1 10 10:19 25.04.2020
4171 Clouds 9 1014 93 10000 2.1 30 09:43 25.04.2020
4172 Clouds 9 1014 93 10000 2.1 30 09:22 25.04.2020
4173 Clouds 7 1014 93 10000 2.1 40 08:55 25.04.2020
4174 Clouds 7 1014 93 10000 1.5 30 08:37 25.04.2020
4175 Clouds 7 1014 93 10000 1 0 08:19 25.04.2020
4176 Clouds 7 1014 93 10000 1.5 340 07:43 25.04.2020
4177 Clouds 7 1014 93 10000 1.5 340 07:22 25.04.2020
4178 Clouds 7 1014 93 10000 1 0 06:42 25.04.2020
4179 Clouds 7 1014 93 10000 1 0 06:42 25.04.2020
4180 Clear 7 1014 100 10000 1 0 05:46 25.04.2020
4181 Clear 6 1014 100 10000 1 0 05:27 25.04.2020
4182 Clear 7 1014 100 10000 1.5 0 04:24 25.04.2020
4183 Clouds 7 1015 87 10000 1.5 70 02:44 25.04.2020
4184 Clouds 8 1015 87 10000 1.5 70 02:19 25.04.2020
4185 Clouds 9 1015 93 10000 2.1 50 01:49 25.04.2020
4186 Clouds 9 1015 93 10000 1 0 01:19 25.04.2020
4187 Clouds 9 1015 93 10000 1 110 00:46 25.04.2020
4188 Clouds 9 1015 93 10000 1 110 00:28 25.04.2020
4189 Clouds 9 1015 93 10000 2.6 40 23:42 24.04.2020
4190 Clouds 9 1015 93 10000 2.6 40 23:21 24.04.2020
4191 Clouds 10 1015 87 10000 2.1 90 22:41 24.04.2020
4192 Clouds 10 1015 87 10000 2.1 90 22:21 24.04.2020
4193 Clouds 10 1014 81 10000 1.5 100 21:59 24.04.2020
4194 Clouds 10 1014 81 10000 1.5 100 21:59 24.04.2020
4195 Clouds 11 1014 76 10000 3.6 80 21:41 24.04.2020
4196 Clouds 11 1014 76 10000 3.6 80 21:23 24.04.2020
4197 Clouds 12 1014 71 10000 3.1 90 20:59 24.04.2020
4198 Clouds 12 1014 71 10000 3.1 90 20:59 24.04.2020
4199 Clouds 12 1015 66 10000 3.6 100 20:40 24.04.2020
4200 Clouds 13 1015 66 10000 3.1 90 20:19 24.04.2020
4201 Clouds 13 1015 66 10000 3.1 90 19:54 24.04.2020
4202 Clouds 13 1015 66 10000 4.1 90 19:36 24.04.2020
4203 Clouds 14 1015 67 10000 4.1 90 19:18 24.04.2020
4204 Clouds 14 1015 67 10000 3.6 90 18:40 24.04.2020
4205 Clouds 15 1015 67 10000 3.6 90 18:22 24.04.2020
4206 Clouds 15 1015 62 10000 4.6 80 17:43 24.04.2020
4207 Clouds 15 1015 62 10000 4.6 80 17:24 24.04.2020
4208 Clouds 15 1015 71 10000 4.6 80 16:59 24.04.2020
4209 Clouds 15 1015 67 10000 4.6 70 16:41 24.04.2020
4210 Clouds 15 1015 67 10000 4.6 70 16:22 24.04.2020
4211 Clouds 15 1016 67 10000 4.1 70 15:59 24.04.2020
4212 Clouds 14 1016 76 10000 4.1 70 15:38 24.04.2020
4213 Clouds 15 1016 76 10000 4.1 70 15:18 24.04.2020
4214 Clouds 14 1016 71 10000 4.1 60 14:40 24.04.2020
4215 Clouds 14 1016 71 10000 4.1 60 14:20 24.04.2020
4216 Clouds 15 1016 71 10000 4.1 60 13:57 24.04.2020
4217 Clouds 14 1016 76 10000 4.1 50 13:38 24.04.2020
4218 Clouds 13 1016 76 10000 3.1 50 13:19 24.04.2020
4219 Clouds 13 1016 76 10000 3.6 60 12:42 24.04.2020
4220 Clouds 13 1016 76 10000 3.6 60 12:23 24.04.2020
4221 Clouds 12 1016 81 10000 3.1 50 11:58 24.04.2020
4222 Clouds 12 1017 81 10000 2.6 30 11:38 24.04.2020
4223 Clouds 12 1017 81 10000 2.6 30 11:20 24.04.2020
4224 Clouds 10 1016 87 10000 3.1 40 10:54 24.04.2020
4225 Clouds 10 1016 93 10000 3.1 30 10:36 24.04.2020
4226 Clouds 10 1016 93 10000 3.1 30 10:18 24.04.2020
4227 Clouds 9 1016 100 10000 2.6 20 09:45 24.04.2020
4228 Clouds 8 1016 100 10000 2.6 20 09:24 24.04.2020
4229 Clouds 7 1016 100 9000 1.5 350 08:57 24.04.2020
4230 Clouds 6 1016 100 9000 2.6 310 08:37 24.04.2020
4231 Clouds 5 1016 100 10000 1.5 0 08:18 24.04.2020
4232 Clouds 5 1016 100 10000 1.5 0 08:18 24.04.2020
4233 Clouds 5 1016 93 10000 1.5 0 07:44 24.04.2020
4234 Clouds 5 1016 93 10000 1.5 0 07:26 24.04.2020
4235 Clouds 5 1016 100 10000 1 0 06:51 24.04.2020
4236 Clouds 5 1017 100 10000 2.6 10 06:32 24.04.2020
4237 Clouds 6 1017 93 10000 3.1 350 05:48 24.04.2020
4238 Clouds 6 1018 100 10000 3.1 20 04:26 24.04.2020
4239 Clouds 5 1019 93 10000 1.5 350 02:59 24.04.2020
4240 Clouds 5 1019 93 10000 1.5 350 02:41 24.04.2020
4241 Clouds 5 1019 93 10000 1.5 350 02:20 24.04.2020
4242 Clouds 7 1019 87 10000 2.1 360 01:23 24.04.2020
4243 Clouds 7 1019 86 10000 2.6 20 00:38 24.04.2020
4244 Clouds 7 1019 93 10000 1.5 0 00:18 24.04.2020
4245 Clouds 7 1019 87 10000 2.1 90 23:42 23.04.2020
4246 Clouds 7 1019 87 10000 2.1 90 23:23 23.04.2020
4247 Clouds 8 1019 87 10000 1.5 100 22:55 23.04.2020
4248 Clouds 9 1019 81 10000 1.5 120 22:37 23.04.2020
4249 Clouds 9 1019 81 10000 1.5 120 22:18 23.04.2020
4250 Clouds 10 1019 76 10000 1.5 100 21:56 23.04.2020
4251 Clouds 10 1019 76 10000 2.1 100 21:38 23.04.2020
4252 Clouds 10 1019 76 10000 2.1 100 21:19 23.04.2020
4253 Clouds 11 1019 71 10000 3.6 70 20:42 23.04.2020
4254 Clouds 11 1019 71 10000 3.6 70 20:22 23.04.2020
4255 Clouds 12 1020 66 10000 4.1 80 19:59 23.04.2020
4256 Clouds 12 1020 71 10000 4.6 80 19:40 23.04.2020
4257 Clouds 12 1020 71 10000 4.6 80 19:21 23.04.2020
4258 Clouds 12 1020 71 10000 4.1 70 18:56 23.04.2020
4259 Clouds 12 1020 71 10000 4.6 60 18:38 23.04.2020
4260 Clouds 12 1020 71 10000 4.6 60 18:19 23.04.2020
4261 Clouds 12 1020 71 10000 4.6 60 18:19 23.04.2020
4262 Clouds 12 1020 76 10000 4.6 50 17:55 23.04.2020
4263 Clouds 12 1020 76 10000 4.6 60 17:36 23.04.2020
4264 Clouds 13 1020 76 10000 4.6 60 17:18 23.04.2020
4265 Clouds 13 1021 71 10000 5.1 70 16:43 23.04.2020
4266 Clouds 13 1021 71 10000 4.6 80 16:19 23.04.2020
4267 Clouds 13 1021 71 10000 4.1 60 15:43 23.04.2020
4268 Clouds 13 1021 71 10000 4.1 60 15:23 23.04.2020
4269 Clouds 12 1022 71 10000 4.1 40 14:59 23.04.2020
4270 Clouds 12 1022 76 10000 4.6 50 14:39 23.04.2020
4271 Clouds 12 1022 76 10000 4.6 50 14:39 23.04.2020
4272 Clouds 12 1022 76 10000 4.6 50 14:21 23.04.2020
4273 Clouds 12 1022 76 10000 4.6 50 13:57 23.04.2020
4274 Clouds 12 1022 76 10000 5.1 60 13:38 23.04.2020
4275 Clouds 12 1022 76 10000 4.6 60 13:19 23.04.2020
4276 Clouds 12 1022 76 10000 4.6 60 12:55 23.04.2020
4277 Clouds 11 1022 76 10000 5.1 50 12:37 23.04.2020
4278 Clouds 11 1022 81 10000 5.1 60 12:18 23.04.2020
4279 Clouds 10 1022 81 10000 4.6 60 11:43 23.04.2020
4280 Clouds 10 1022 81 10000 4.6 60 11:25 23.04.2020
4281 Clouds 9 1022 87 10000 5.1 60 10:43 23.04.2020
4282 Clouds 9 1022 87 10000 5.1 60 10:24 23.04.2020
4283 Clouds 9 1022 87 10000 5.1 60 09:58 23.04.2020
4284 Clouds 9 1023 87 10000 4.6 60 09:37 23.04.2020
4285 Clouds 9 1023 87 10000 4.6 60 09:18 23.04.2020
4286 Clouds 8 1022 93 10000 4.6 60 08:46 23.04.2020
4287 Clouds 7 1022 93 10000 4.6 60 08:27 23.04.2020
4288 Clouds 7 1022 93 10000 4.6 50 07:44 23.04.2020
4289 Clouds 7 1022 93 10000 4.6 50 07:24 23.04.2020
4290 Clouds 8 1022 87 10000 4.1 50 06:50 23.04.2020
4291 Clouds 7 1022 87 10000 4.1 50 06:28 23.04.2020
4292 Clouds 7 1022 93 10000 3.6 50 05:31 23.04.2020
4293 Clouds 8 1022 87 10000 4.6 60 04:53 23.04.2020
4294 Clouds 8 1023 87 10000 3.6 90 02:25 23.04.2020
4295 Clouds 8 1023 87 10000 2.6 90 01:55 23.04.2020
4296 Clouds 8 1023 87 10000 2.6 90 01:33 23.04.2020
4297 Clouds 8 1023 87 10000 3.1 30 00:47 23.04.2020
4298 Clouds 8 1023 87 10000 3.1 30 00:23 23.04.2020
4299 Clouds 9 1023 81 10000 2.1 20 23:50 22.04.2020
4300 Clouds 9 1023 81 10000 2.6 20 23:25 22.04.2020
4301 Clouds 10 1023 81 10000 2.6 20 22:58 22.04.2020
4302 Clouds 10 1023 76 10000 3.1 40 22:38 22.04.2020
4303 Clouds 11 1023 76 10000 3.1 40 22:19 22.04.2020
4304 Clouds 11 1023 76 10000 3.6 40 21:56 22.04.2020
4305 Clouds 12 1023 66 10000 3.6 50 21:38 22.04.2020
4306 Clouds 13 1023 62 10000 4.6 40 21:19 22.04.2020
4307 Clouds 14 1023 58 10000 4.6 50 20:43 22.04.2020
4308 Clouds 14 1023 58 10000 4.6 50 20:20 22.04.2020
4309 Clouds 14 1022 58 10000 5.7 60 19:58 22.04.2020
4310 Clouds 14 1023 54 10000 6.2 60 19:40 22.04.2020
4311 Clouds 14 1023 54 10000 6.2 60 19:19 22.04.2020
4312 Clouds 14 1023 54 10000 5.1 50 18:59 22.04.2020
4313 Clouds 13 1023 62 10000 5.1 60 18:41 22.04.2020
4314 Clouds 13 1023 62 10000 5.1 60 18:22 22.04.2020
4315 Clouds 13 1023 62 10000 5.1 60 17:58 22.04.2020
4316 Clouds 12 1023 62 10000 5.1 70 17:39 22.04.2020
4317 Clouds 12 1023 71 10000 4.1 60 17:21 22.04.2020
4318 Clouds 12 1023 66 10000 4.6 70 16:46 22.04.2020
4319 Clouds 12 1023 66 10000 4.6 70 16:28 22.04.2020
4320 Clouds 12 1024 71 10000 5.1 70 15:54 22.04.2020
4321 Clouds 11 1024 71 10000 5.7 70 15:36 22.04.2020
4322 Clouds 11 1024 76 10000 6.2 70 15:18 22.04.2020
4323 Clouds 11 1024 76 10000 6.2 70 15:18 22.04.2020
4324 Clouds 11 1024 71 10000 6.2 60 14:41 22.04.2020
4325 Clouds 11 1024 71 10000 6.2 60 14:41 22.04.2020
4326 Clouds 11 1024 71 10000 6.2 60 14:21 22.04.2020
4327 Clouds 11 1024 71 10000 6.2 60 13:59 22.04.2020
4328 Clouds 11 1024 76 10000 6.2 50 13:40 22.04.2020
4329 Clouds 10 1024 81 10000 6.2 60 13:20 22.04.2020
4330 Clouds 10 1024 76 10000 6.2 80 12:42 22.04.2020
4331 Clouds 10 1024 76 10000 6.2 80 12:23 22.04.2020
4332 Clouds 10 1024 76 10000 6.7 70 11:57 22.04.2020
4333 Clouds 9 1024 76 10000 6.2 60 11:37 22.04.2020
4334 Clouds 9 1024 76 10000 6.2 60 11:18 22.04.2020
4335 Clouds 9 1024 76 10000 6.2 50 11:18 22.04.2020
4336 Clouds 9 1024 81 10000 6.7 50 10:41 22.04.2020
4337 Clouds 9 1024 81 10000 6.7 50 10:23 22.04.2020
4338 Clouds 9 1024 81 10000 5.7 70 09:42 22.04.2020
4339 Clouds 9 1024 81 10000 5.7 70 09:23 22.04.2020
4340 Clouds 8 1023 81 10000 5.1 60 08:59 22.04.2020
4341 Clouds 8 1023 87 10000 5.1 60 08:41 22.04.2020
4342 Clouds 8 1023 87 10000 5.1 60 08:41 22.04.2020
4343 Clouds 8 1023 87 10000 5.1 60 08:22 22.04.2020
4344 Clouds 8 1023 87 10000 5.7 60 07:54 22.04.2020
4345 Clouds 8 1023 87 10000 4.1 50 07:33 22.04.2020
4346 Clouds 8 1023 87 10000 4.6 40 06:54 22.04.2020
4347 Clouds 7 1023 93 10000 5.7 60 06:34 22.04.2020
4348 Clouds 7 1023 87 10000 3.6 60 05:39 22.04.2020
4349 Clouds 8 1023 87 10000 5.1 70 04:34 22.04.2020
4350 Clouds 9 1023 81 10000 5.1 60 02:59 22.04.2020
4351 Clouds 9 1023 81 10000 4.1 60 01:55 22.04.2020
4352 Clouds 9 1022 81 10000 5.1 60 01:28 22.04.2020
4353 Clouds 9 1022 81 10000 4.6 60 00:59 22.04.2020
4354 Clouds 10 1022 76 10000 5.1 60 00:41 22.04.2020
4355 Clouds 10 1022 76 10000 5.1 60 00:20 22.04.2020
4356 Clouds 10 1022 66 10000 5.7 60 23:44 21.04.2020
4357 Clouds 10 1022 66 10000 5.7 60 23:20 21.04.2020
4358 Clouds 10 1021 71 10000 4.6 60 22:41 21.04.2020
4359 Clouds 11 1021 71 10000 4.6 60 22:22 21.04.2020
4360 Clouds 11 1021 71 10000 4.6 60 22:00 21.04.2020
4361 Clouds 11 1020 66 10000 4.6 50 21:41 21.04.2020
4362 Clear 11 1020 66 10000 4.6 50 21:23 21.04.2020
4363 Clear 12 1020 62 10000 5.7 60 20:58 21.04.2020
4364 Clear 13 1020 58 10000 6.2 70 20:40 21.04.2020
4365 Clear 13 1020 58 10000 6.2 70 20:21 21.04.2020
4366 Clear 14 1020 54 10000 5.7 80 19:41 21.04.2020
4367 Clear 14 1020 54 10000 5.7 80 19:20 21.04.2020
4368 Clear 14 1020 58 10000 5.7 70 18:59 21.04.2020
4369 Clear 14 1020 58 10000 4.6 70 18:39 21.04.2020
4370 Clear 14 1020 58 10000 4.6 70 18:39 21.04.2020
4371 Clouds 14 1020 58 10000 5.1 80 18:19 21.04.2020
4372 Clouds 14 1020 58 10000 5.1 80 17:59 21.04.2020
4373 Clouds 13 1020 58 10000 6.7 70 17:39 21.04.2020
4374 Clouds 13 1020 58 10000 7.2 70 17:19 21.04.2020
4375 Clouds 13 1020 58 10000 7.2 60 16:39 21.04.2020
4376 Clouds 13 1021 54 10000 8.2 60 16:20 21.04.2020
4377 Clouds 12 1021 54 10000 8.2 60 15:59 21.04.2020
4378 Clouds 12 1021 58 10000 7.2 50 15:41 21.04.2020
4379 Clouds 12 1021 58 10000 7.2 50 15:23 21.04.2020
4380 Clouds 12 1021 66 10000 8.2 60 14:58 21.04.2020
4381 Clouds 11 1021 66 10000 8.2 60 14:40 21.04.2020
4382 Clouds 11 1021 66 10000 8.2 60 14:22 21.04.2020
4383 Clouds 10 1021 76 10000 9.8 60 13:42 21.04.2020
4384 Clouds 10 1021 71 10000 9.3 60 13:24 21.04.2020
4385 Clouds 10 1021 71 10000 9.3 60 12:58 21.04.2020
4386 Clouds 10 1021 71 10000 9.3 60 12:38 21.04.2020
4387 Clouds 10 1021 71 10000 8.7 50 12:19 21.04.2020
4388 Clouds 10 1021 71 10000 8.7 50 11:57 21.04.2020
4389 Clouds 9 1021 76 10000 8.7 60 11:37 21.04.2020
4390 Clouds 9 1021 76 10000 8.7 60 11:18 21.04.2020
4391 Clouds 9 1021 81 10000 8.7 70 10:56 21.04.2020
4392 Clouds 9 1021 81 10000 7.7 60 10:38 21.04.2020
4393 Clouds 9 1020 81 10000 7.2 60 10:20 21.04.2020
4394 Clouds 8 1020 76 10000 7.2 70 09:38 21.04.2020
4395 Clouds 8 1020 81 10000 6.2 60 09:20 21.04.2020
4396 Clouds 8 1020 81 10000 6.2 60 08:58 21.04.2020
4397 Clouds 8 1020 81 10000 6.2 60 08:58 21.04.2020
4398 Clouds 8 1020 81 10000 6.7 70 08:39 21.04.2020
4399 Clouds 8 1020 81 10000 6.7 70 08:39 21.04.2020
4400 Clouds 8 1020 81 10000 6.7 60 08:19 21.04.2020
4401 Clouds 8 1020 81 10000 7.7 70 07:45 21.04.2020
4402 Clouds 7 1020 81 10000 7.7 70 07:23 21.04.2020
4403 Clear 7 1020 81 10000 8.7 60 06:49 21.04.2020
4404 Clear 7 1020 81 10000 8.7 60 06:20 21.04.2020
4405 Clear 7 1020 81 10000 8.7 60 05:49 21.04.2020
4406 Clear 7 1020 75 10000 7.7 70 04:21 21.04.2020
4407 Clear 7 1020 75 10000 8.7 80 03:44 21.04.2020
4408 Clear 8 1020 70 10000 8.2 70 01:46 21.04.2020
4409 Clear 8 1020 70 10000 8.2 70 01:25 21.04.2020
4410 Clear 9 1020 66 10000 7.7 80 00:37 21.04.2020
4411 Clear 9 1020 66 10000 8.7 70 23:45 20.04.2020
4412 Clear 9 1020 66 10000 8.7 70 23:25 20.04.2020
4413 Clear 9 1020 70 10000 7.2 70 22:58 20.04.2020
4414 Clear 9 1020 70 10000 7.7 60 22:39 20.04.2020
4415 Clear 10 1020 66 10000 7.2 60 22:20 20.04.2020
4416 Clear 9 1020 70 10000 7.7 60 22:20 20.04.2020
4417 Clear 10 1020 66 10000 7.2 60 21:57 20.04.2020
4418 Clear 10 1020 57 10000 7.7 60 21:39 20.04.2020
4419 Clear 11 1020 57 10000 7.7 60 21:19 20.04.2020
4420 Clear 11 1020 53 10000 7.7 50 20:58 20.04.2020
4421 Clear 12 1020 50 10000 7.2 50 20:38 20.04.2020
4422 Clear 12 1020 50 10000 7.2 50 20:18 20.04.2020
4423 Clear 12 1019 50 10000 8.2 50 20:18 20.04.2020
4424 Clear 12 1019 50 10000 8.2 50 19:58 20.04.2020
4425 Clear 12 1020 54 10000 9.3 60 19:39 20.04.2020
4426 Clear 12 1020 54 10000 9.3 60 19:19 20.04.2020
4427 Clouds 13 1020 50 10000 8.7 60 18:43 20.04.2020
4428 Clouds 13 1020 50 10000 8.7 60 18:23 20.04.2020
4429 Clouds 13 1020 54 10000 9.3 50 17:56 20.04.2020
4430 Clouds 12 1020 58 10000 8.2 60 17:38 20.04.2020
4431 Clouds 12 1020 62 10000 7.2 70 17:19 20.04.2020
4432 Clouds 12 1020 62 10000 7.2 70 16:58 20.04.2020
4433 Clouds 12 1021 58 10000 9.8 70 16:39 20.04.2020
4434 Clouds 12 1021 58 10000 9.8 70 16:18 20.04.2020
4435 Clouds 10 1021 71 10000 8.7 70 15:43 20.04.2020
4436 Clouds 10 1021 71 10000 8.7 70 15:23 20.04.2020
4437 Clouds 10 1021 76 10000 7.7 70 14:58 20.04.2020
4438 Clouds 10 1022 76 10000 7.7 70 14:40 20.04.2020
4439 Clouds 10 1022 76 10000 8.2 70 14:18 20.04.2020
4440 Clouds 10 1022 76 10000 8.2 70 13:54 20.04.2020
4441 Clouds 10 1022 71 10000 7.2 80 13:36 20.04.2020
4442 Clouds 10 1022 71 10000 7.2 80 13:36 20.04.2020
4443 Clouds 10 1022 71 10000 7.2 80 13:18 20.04.2020
4444 Clouds 9 1022 76 10000 8.2 80 12:42 20.04.2020
4445 Clouds 9 1022 76 10000 8.2 90 12:19 20.04.2020
4446 Clouds 9 1022 81 10000 7.7 80 11:41 20.04.2020
4447 Clouds 9 1022 81 10000 7.7 80 11:22 20.04.2020
4448 Clouds 9 1022 81 10000 7.7 80 10:57 20.04.2020
4449 Rain 9 1022 81 10000 7.7 100 10:39 20.04.2020
4450 Rain 8 1022 81 10000 6.7 90 10:19 20.04.2020
4451 Rain 8 1022 81 10000 6.7 90 09:58 20.04.2020
4452 Rain 8 1022 81 10000 6.2 90 09:39 20.04.2020
4453 Clouds 8 1022 81 10000 6.2 90 09:20 20.04.2020
4454 Clouds 5 1022 93 10000 4.6 90 08:41 20.04.2020
4455 Clouds 5 1022 93 10000 4.6 90 08:22 20.04.2020
4456 Clouds 4 1021 86 10000 4.6 90 07:53 20.04.2020
4457 Clouds 4 1021 86 10000 4.1 90 07:29 20.04.2020
4458 Clouds 5 1021 81 10000 4.6 80 06:58 20.04.2020
4459 Clouds 5 1021 86 10000 4.6 80 06:36 20.04.2020
4460 Clouds 5 1021 93 10000 4.1 80 05:44 20.04.2020
4461 Clouds 5 1021 93 10000 3.1 90 04:21 20.04.2020
4462 Clouds 4 1021 93 10000 1.5 60 02:47 20.04.2020
4463 Clouds 5 1021 93 10000 2.1 20 01:56 20.04.2020
4464 Clouds 5 1021 93 10000 2.6 10 01:28 20.04.2020
4465 Clouds 5 1021 93 10000 2.1 360 00:39 20.04.2020
4466 Clouds 5 1021 93 10000 2.1 350 23:59 19.04.2020
4467 Clouds 5 1021 93 10000 2.1 340 23:39 19.04.2020
4468 Clouds 6 1021 93 10000 2.1 340 23:20 19.04.2020
4469 Clouds 7 1021 81 10000 2.6 30 22:43 19.04.2020
4470 Clouds 7 1021 81 10000 2.6 30 22:23 19.04.2020
4471 Clouds 8 1021 81 10000 2.6 60 21:59 19.04.2020
4472 Clouds 8 1021 75 10000 3.6 60 21:41 19.04.2020
4473 Clouds 8 1021 75 10000 3.6 60 21:41 19.04.2020
4474 Clouds 9 1021 75 10000 3.6 60 21:21 19.04.2020
4475 Clouds 9 1021 70 10000 4.6 90 20:55 19.04.2020
4476 Clouds 10 1020 66 10000 5.1 90 20:37 19.04.2020
4477 Clouds 10 1020 66 10000 5.1 90 20:19 19.04.2020
4478 Clouds 11 1020 66 10000 5.1 80 19:41 19.04.2020
4479 Clouds 11 1020 66 10000 5.1 80 19:23 19.04.2020
4480 Clouds 11 1020 71 10000 4.6 100 18:59 19.04.2020
4481 Clouds 11 1021 66 10000 4.6 90 18:40 19.04.2020
4482 Clouds 11 1021 66 10000 4.6 90 18:21 19.04.2020
4483 Clouds 11 1021 71 10000 6.2 90 17:59 19.04.2020
4484 Clouds 11 1021 76 10000 6.2 80 17:41 19.04.2020
4485 Clouds 11 1021 76 10000 6.2 80 17:22 19.04.2020
4486 Clouds 12 1021 81 10000 6.2 90 16:59 19.04.2020
4487 Clouds 12 1022 76 10000 5.1 90 16:39 19.04.2020
4488 Clouds 12 1021 81 10000 5.1 100 16:21 19.04.2020
4489 Clouds 12 1021 81 10000 5.1 100 15:54 19.04.2020
4490 Clouds 12 1022 76 10000 5.7 100 15:36 19.04.2020
4491 Clouds 12 1022 76 10000 5.1 120 15:18 19.04.2020
4492 Clouds 12 1022 76 10000 4.6 140 14:38 19.04.2020
4493 Clouds 12 1022 76 10000 4.6 140 14:20 19.04.2020
4494 Clouds 12 1022 76 10000 4.6 140 14:20 19.04.2020
4495 Clouds 11 1022 76 10000 5.1 120 13:54 19.04.2020
4496 Clouds 11 1022 76 10000 5.1 120 13:36 19.04.2020
4497 Clouds 11 1022 81 10000 4.6 120 13:18 19.04.2020
4498 Clouds 10 1022 81 10000 5.1 100 12:42 19.04.2020
4499 Clouds 10 1022 81 10000 5.1 100 12:23 19.04.2020
4500 Clouds 10 1021 87 10000 3.1 130 11:39 19.04.2020
4501 Clouds 10 1021 87 10000 3.1 130 11:20 19.04.2020
4502 Clouds 9 1021 87 10000 3.6 140 10:58 19.04.2020
4503 Clouds 8 1021 93 10000 2.6 130 10:40 19.04.2020
4504 Clouds 8 1021 93 10000 2.6 130 10:20 19.04.2020
4505 Clouds 8 1021 93 10000 3.1 120 09:47 19.04.2020
4506 Clouds 8 1021 93 10000 3.1 120 09:28 19.04.2020
4507 Clouds 8 1021 93 10000 3.6 110 08:59 19.04.2020
4508 Clouds 7 1021 100 6000 3.1 110 08:38 19.04.2020
4509 Clouds 7 1021 100 6000 3.1 110 08:18 19.04.2020
4510 Mist 7 1020 100 5000 3.6 90 07:44 19.04.2020
4511 Mist 7 1020 100 5000 3.6 90 07:25 19.04.2020
4512 Mist 7 1020 100 5000 3.6 90 07:25 19.04.2020
4513 Drizzle 7 1020 100 5000 3.1 100 06:32 19.04.2020
4514 Drizzle 7 1020 100 6000 3.1 100 05:58 19.04.2020
4515 Clouds 7 1020 100 9000 3.1 90 04:56 19.04.2020
4516 Clouds 7 1020 93 7000 2.6 80 03:21 19.04.2020
4517 Clouds 7 1020 93 7000 2.1 90 02:22 19.04.2020
4518 Clouds 7 1020 93 9000 2.1 90 01:39 19.04.2020
4519 Clouds 7 1020 93 9000 2.6 90 01:18 19.04.2020
4520 Drizzle 7 1020 93 7000 1.5 110 00:38 19.04.2020
4521 Drizzle 7 1020 93 7000 1.5 100 00:19 19.04.2020
4522 Drizzle 7 1020 93 7000 2.1 100 23:40 18.04.2020
4523 Rain 7 1020 93 8000 2.1 90 23:19 18.04.2020
4524 Rain 7 1020 93 8000 2.6 80 22:43 18.04.2020
4525 Rain 8 1020 93 8000 2.6 80 22:23 18.04.2020
4526 Rain 8 1019 93 8000 3.1 90 21:58 18.04.2020
4527 Rain 8 1019 87 10000 3.6 80 21:38 18.04.2020
4528 Rain 8 1019 87 10000 3.6 80 21:20 18.04.2020
4529 Clouds 8 1019 87 10000 3.6 90 20:54 18.04.2020
4530 Clouds 9 1019 87 10000 3.6 90 20:36 18.04.2020
4531 Clouds 9 1019 87 10000 3.6 90 20:18 18.04.2020
4532 Clouds 9 1019 81 10000 3.6 80 19:39 18.04.2020
4533 Clouds 9 1019 81 10000 3.6 80 19:21 18.04.2020
4534 Clouds 9 1018 81 10000 2.6 120 18:39 18.04.2020
4535 Clouds 9 1018 81 10000 2.6 120 18:20 18.04.2020
4536 Clouds 9 1018 81 10000 3.1 120 17:56 18.04.2020
4537 Clouds 9 1018 81 10000 3.1 120 17:56 18.04.2020
4538 Clouds 9 1018 87 10000 3.1 110 17:38 18.04.2020
4539 Clouds 9 1018 81 10000 2.1 110 17:18 18.04.2020
4540 Clouds 10 1018 81 10000 2.6 120 16:42 18.04.2020
4541 Clouds 9 1018 81 10000 2.6 120 16:22 18.04.2020
4542 Rain 9 1019 87 10000 3.6 100 15:55 18.04.2020
4543 Rain 9 1019 87 10000 4.1 100 15:37 18.04.2020
4544 Rain 9 1018 81 10000 4.1 80 15:18 18.04.2020
4545 Clouds 9 1018 87 10000 3.6 80 14:41 18.04.2020
4546 Clouds 9 1018 87 10000 3.6 80 14:19 18.04.2020
4547 Clouds 9 1018 87 10000 3.6 80 14:19 18.04.2020
4548 Clouds 9 1018 87 10000 2.6 50 13:43 18.04.2020
4549 Clouds 8 1018 87 10000 3.1 70 13:20 18.04.2020
4550 Clouds 8 1018 87 10000 4.1 80 12:43 18.04.2020
4551 Clouds 8 1018 87 10000 4.1 80 12:25 18.04.2020
4552 Clouds 8 1018 87 10000 4.6 80 11:59 18.04.2020
4553 Clouds 8 1018 87 10000 5.7 90 11:40 18.04.2020
4554 Clouds 8 1018 87 10000 5.7 90 11:21 18.04.2020
4555 Clouds 8 1017 87 10000 5.1 80 10:54 18.04.2020
4556 Clouds 8 1017 87 10000 5.1 80 10:36 18.04.2020
4557 Rain 8 1017 93 10000 5.1 80 10:18 18.04.2020
4558 Rain 7 1017 93 10000 5.1 80 09:40 18.04.2020
4559 Rain 7 1017 93 10000 5.1 80 09:20 18.04.2020
4560 Drizzle 7 1016 93 10000 5.1 70 08:43 18.04.2020
4561 Rain 7 1017 93 10000 5.7 70 08:22 18.04.2020
4562 Rain 8 1017 93 10000 5.7 70 07:49 18.04.2020
4563 Rain 8 1016 93 10000 5.1 70 07:29 18.04.2020
4564 Rain 8 1016 93 10000 5.1 70 06:49 18.04.2020
4565 Rain 8 1016 93 10000 5.1 80 05:49 18.04.2020
4566 Rain 8 1016 93 9000 5.7 80 04:56 18.04.2020
4567 Rain 8 1016 93 10000 6.2 90 04:31 18.04.2020
4568 Rain 8 1016 87 10000 5.7 90 03:34 18.04.2020
4569 Clouds 9 1016 81 10000 6.2 90 02:40 18.04.2020
4570 Clouds 9 1016 81 10000 6.2 90 02:21 18.04.2020
4571 Clouds 9 1016 81 10000 6.2 90 02:21 18.04.2020
4572 Clouds 9 1016 87 10000 4.1 90 01:45 18.04.2020
4573 Clouds 9 1016 87 10000 4.1 90 01:22 18.04.2020
4574 Clouds 9 1016 87 10000 5.1 90 00:24 18.04.2020
4575 Rain 9 1016 87 10000 5.7 90 00:24 18.04.2020
4576 Rain 9 1016 87 10000 5.7 90 23:59 17.04.2020
4577 Rain 9 1015 87 10000 5.7 80 23:40 17.04.2020
4578 Rain 10 1015 76 10000 6.2 80 23:20 17.04.2020
4579 Rain 10 1015 76 10000 6.2 80 22:58 17.04.2020
4580 Rain 10 1015 76 10000 6.2 80 22:58 17.04.2020
4581 Rain 10 1015 81 10000 5.1 90 22:40 17.04.2020
4582 Rain 9 1015 81 10000 5.1 90 22:20 17.04.2020
4583 Clouds 10 1015 76 10000 6.7 90 21:58 17.04.2020
4584 Clouds 10 1015 76 10000 6.7 80 21:39 17.04.2020
4585 Clouds 10 1015 76 10000 6.7 80 21:19 17.04.2020
4586 Clouds 11 1015 76 10000 6.7 80 20:55 17.04.2020
4587 Clouds 11 1015 81 10000 6.7 70 20:36 17.04.2020
4588 Clouds 11 1015 81 10000 7.2 80 20:18 17.04.2020
4589 Clouds 11 1015 76 10000 7.2 80 19:44 17.04.2020
4590 Clouds 11 1015 76 10000 7.2 80 19:24 17.04.2020
4591 Clouds 11 1015 76 10000 7.7 80 18:47 17.04.2020
4592 Clouds 11 1015 76 10000 7.7 80 18:47 17.04.2020
4593 Clouds 11 1015 71 10000 8.7 90 18:25 17.04.2020
4594 Clouds 11 1016 76 10000 7.2 90 17:58 17.04.2020
4595 Clouds 11 1016 76 10000 7.7 80 17:37 17.04.2020
4596 Clouds 11 1016 76 10000 7.7 80 17:19 17.04.2020
4597 Clouds 12 1016 71 10000 8.2 90 16:44 17.04.2020
4598 Clouds 12 1016 71 10000 8.2 90 16:23 17.04.2020
4599 Clouds 12 1016 76 10000 7.2 90 15:58 17.04.2020
4600 Clouds 13 1016 71 10000 6.7 90 15:37 17.04.2020
4601 Clouds 13 1016 71 10000 6.2 100 15:19 17.04.2020
4602 Clouds 13 1016 76 10000 5.1 90 14:40 17.04.2020
4603 Clouds 13 1016 76 10000 5.1 90 14:22 17.04.2020
4604 Clouds 13 1016 71 10000 5.7 80 13:58 17.04.2020
4605 Clouds 13 1016 71 10000 5.1 70 13:37 17.04.2020
4606 Clouds 13 1016 71 10000 5.1 80 13:18 17.04.2020
4607 Clouds 12 1016 76 10000 5.7 90 12:46 17.04.2020
4608 Clouds 12 1016 76 10000 5.7 90 12:26 17.04.2020
4609 Clouds 12 1016 76 10000 6.7 80 11:42 17.04.2020
4610 Clouds 11 1016 76 10000 6.7 80 11:20 17.04.2020
4611 Clouds 11 1016 76 10000 6.7 80 11:20 17.04.2020
4612 Clouds 11 1016 81 10000 5.7 80 10:59 17.04.2020
4613 Clouds 11 1016 81 10000 5.1 70 10:39 17.04.2020
4614 Clouds 11 1016 81 10000 5.1 70 10:19 17.04.2020
4615 Clouds 10 1016 81 8000 5.1 70 09:54 17.04.2020
4616 Clouds 9 1016 87 7000 4.6 60 09:36 17.04.2020
4617 Clouds 8 1016 87 8000 4.1 60 09:18 17.04.2020
4618 Clouds 8 1016 87 8000 4.1 60 08:44 17.04.2020
4619 Clouds 8 1016 87 8000 4.6 70 08:24 17.04.2020
4620 Clouds 8 1016 87 8000 4.6 70 07:44 17.04.2020
4621 Clouds 8 1016 93 8000 5.1 70 07:24 17.04.2020
4622 Clouds 8 1016 93 10000 4.6 50 06:52 17.04.2020
4623 Clouds 8 1016 93 10000 4.6 60 06:23 17.04.2020
4624 Clouds 9 1016 81 10000 4.1 70 05:38 17.04.2020
4625 Clouds 9 1016 81 10000 3.6 90 03:21 17.04.2020
4626 Clouds 9 1016 81 10000 4.6 70 02:34 17.04.2020
4627 Clouds 9 1016 81 10000 5.1 60 01:30 17.04.2020
4628 Clouds 9 1016 87 10000 4.6 60 00:53 17.04.2020
4629 Clouds 9 1016 87 10000 4.1 60 00:19 17.04.2020
4630 Clouds 9 1016 87 10000 3.6 60 23:45 16.04.2020
4631 Clouds 9 1016 87 10000 3.1 70 23:23 16.04.2020
4632 Clouds 9 1016 87 10000 3.6 70 22:58 16.04.2020
4633 Clouds 9 1015 87 10000 3.1 70 22:37 16.04.2020
4634 Clouds 9 1015 87 10000 3.1 70 22:19 16.04.2020
4635 Clouds 10 1015 81 10000 3.1 90 21:43 16.04.2020
4636 Clouds 11 1015 81 10000 3.6 80 21:21 16.04.2020
4637 Clouds 12 1015 71 10000 4.1 80 20:59 16.04.2020
4638 Clouds 12 1015 71 10000 4.6 80 20:40 16.04.2020
4639 Clouds 12 1015 71 10000 4.6 80 20:21 16.04.2020
4640 Clouds 13 1015 66 10000 4.6 90 19:55 16.04.2020
4641 Clouds 12 1015 62 10000 4.6 70 19:37 16.04.2020
4642 Clouds 12 1015 62 10000 4.6 70 19:18 16.04.2020
4643 Clouds 13 1015 66 10000 5.1 60 18:43 16.04.2020
4644 Clouds 13 1015 66 10000 5.1 60 18:25 16.04.2020
4645 Clouds 13 1015 62 10000 5.7 90 17:57 16.04.2020
4646 Clouds 13 1016 62 10000 5.7 80 17:39 16.04.2020
4647 Clouds 13 1016 62 10000 5.7 80 17:20 16.04.2020
4648 Clouds 13 1016 62 10000 6.2 80 16:43 16.04.2020
4649 Clouds 13 1016 67 10000 5.7 60 16:25 16.04.2020
4650 Clouds 13 1016 71 10000 4.6 60 15:46 16.04.2020
4651 Clouds 13 1016 71 10000 5.7 60 15:20 16.04.2020
4652 Clouds 12 1016 66 10000 6.2 50 14:59 16.04.2020
4653 Clouds 12 1016 66 10000 6.2 50 14:41 16.04.2020
4654 Clouds 12 1016 76 10000 6.2 50 14:23 16.04.2020
4655 Clouds 12 1016 71 10000 5.7 50 13:58 16.04.2020
4656 Clouds 11 1016 71 10000 5.1 50 13:40 16.04.2020
4657 Clouds 11 1016 71 10000 5.1 50 13:21 16.04.2020
4658 Clouds 11 1016 71 10000 5.1 50 13:21 16.04.2020
4659 Clouds 11 1016 81 10000 5.7 60 12:57 16.04.2020
4660 Clouds 10 1016 76 10000 5.1 30 12:38 16.04.2020
4661 Clouds 10 1016 76 10000 5.1 30 12:19 16.04.2020
4662 Clouds 10 1016 81 10000 5.7 40 11:56 16.04.2020
4663 Clouds 10 1016 81 10000 5.7 40 11:38 16.04.2020
4664 Clouds 9 1016 87 10000 5.1 40 11:19 16.04.2020
4665 Clouds 8 1016 87 10000 5.7 40 10:54 16.04.2020
4666 Clouds 8 1016 87 10000 5.7 40 10:54 16.04.2020
4667 Clouds 8 1017 93 10000 4.1 40 10:36 16.04.2020
4668 Clouds 7 1017 93 10000 4.1 40 10:18 16.04.2020
4669 Clouds 7 1017 93 10000 4.6 40 09:39 16.04.2020
4670 Clouds 7 1017 93 10000 4.6 40 09:39 16.04.2020
4671 Clouds 7 1017 93 10000 4.6 40 09:20 16.04.2020
4672 Clouds 7 1017 93 10000 5.1 40 08:45 16.04.2020
4673 Clouds 6 1017 100 10000 4.6 50 08:26 16.04.2020
4674 Clouds 6 1017 100 10000 5.1 50 07:58 16.04.2020
4675 Clouds 6 1017 100 10000 5.1 50 07:39 16.04.2020
4676 Clouds 6 1017 100 10000 4.1 40 07:20 16.04.2020
4677 Clouds 6 1017 100 10000 4.1 50 06:41 16.04.2020
4678 Clouds 6 1017 100 10000 4.1 50 06:22 16.04.2020
4679 Clear 5 1018 100 10000 3.1 50 04:52 16.04.2020
4680 Clear 4 1019 93 10000 2.6 60 03:25 16.04.2020
4681 Clear 4 1019 100 10000 3.1 50 02:58 16.04.2020
4682 Clear 4 1019 93 10000 1.5 0 02:34 16.04.2020
4683 Clear 5 1019 100 10000 2.1 60 01:23 16.04.2020
4684 Clouds 5 1019 100 10000 2.6 60 00:49 16.04.2020
4685 Clouds 5 1020 93 10000 2.1 70 00:21 16.04.2020
4686 Clear 5 1020 93 10000 2.6 60 23:44 15.04.2020
4687 Clear 6 1019 93 10000 3.1 60 23:24 15.04.2020
4688 Clear 6 1019 86 10000 2.1 100 22:59 15.04.2020
4689 Clear 7 1019 75 10000 2.6 110 22:38 15.04.2020
4690 Clear 8 1019 75 10000 2.6 110 22:20 15.04.2020
4691 Clouds 8 1019 70 10000 2.6 100 21:54 15.04.2020
4692 Clouds 9 1019 70 10000 3.6 100 21:36 15.04.2020
4693 Clouds 10 1019 70 10000 3.6 100 21:18 15.04.2020
4694 Clouds 11 1019 61 10000 3.6 80 20:41 15.04.2020
4695 Clouds 12 1019 62 10000 3.6 90 20:22 15.04.2020
4696 Clouds 12 1019 58 10000 4.6 100 19:59 15.04.2020
4697 Clouds 12 1020 58 10000 4.6 90 19:40 15.04.2020
4698 Clouds 12 1020 58 10000 4.6 90 19:20 15.04.2020
4699 Clouds 13 1020 54 10000 4.6 90 18:41 15.04.2020
4700 Clouds 13 1020 54 10000 4.6 90 18:22 15.04.2020
4701 Clouds 13 1020 54 10000 4.6 100 17:58 15.04.2020
4702 Clouds 13 1020 54 10000 4.6 100 17:38 15.04.2020
4703 Clouds 13 1020 54 10000 4.6 100 17:20 15.04.2020
4704 Clouds 14 1021 54 10000 4.6 100 16:55 15.04.2020
4705 Clouds 14 1021 54 10000 4.6 100 16:37 15.04.2020
4706 Clouds 14 1021 54 10000 4.1 110 16:18 15.04.2020
4707 Clouds 14 1022 54 10000 4.1 100 15:56 15.04.2020
4708 Clouds 13 1022 54 10000 4.1 100 15:37 15.04.2020
4709 Clouds 13 1022 58 10000 3.6 80 15:37 15.04.2020
4710 Clouds 13 1022 58 10000 3.6 80 15:19 15.04.2020
4711 Clouds 13 1022 58 10000 3.6 80 15:19 15.04.2020
4712 Clouds 13 1022 62 10000 3.6 90 14:55 15.04.2020
4713 Clouds 13 1022 62 10000 3.6 80 14:37 15.04.2020
4714 Clouds 13 1022 62 10000 3.6 80 14:18 15.04.2020
4715 Clouds 13 1023 66 10000 4.1 100 13:41 15.04.2020
4716 Clouds 13 1023 66 10000 4.1 100 13:21 15.04.2020
4717 Clouds 13 1023 62 10000 3.1 80 12:59 15.04.2020
4718 Clouds 12 1023 62 10000 1 0 12:41 15.04.2020
4719 Clear 12 1023 62 10000 1 0 12:23 15.04.2020
4720 Clear 12 1023 62 10000 1 0 11:58 15.04.2020
4721 Clear 12 1023 62 10000 1 0 11:58 15.04.2020
4722 Clear 11 1023 62 10000 1 0 11:39 15.04.2020
4723 Clear 11 1023 71 10000 1 0 11:20 15.04.2020
4724 Clear 9 1023 81 10000 1.5 320 10:39 15.04.2020
4725 Clear 9 1023 81 10000 1.5 320 10:20 15.04.2020
4726 Clear 7 1023 87 10000 2.6 290 09:57 15.04.2020
4727 Clear 5 1023 93 10000 3.1 290 09:39 15.04.2020
4728 Clouds 4 1023 93 10000 3.1 290 09:20 15.04.2020
4729 Clouds 3 1024 93 10000 2.6 290 08:55 15.04.2020
4730 Clouds 2 1024 82 10000 2.1 280 08:37 15.04.2020
4731 Clouds 2 1024 82 10000 2.1 280 08:37 15.04.2020
4732 Clouds 2 1024 82 10000 2.1 280 08:18 15.04.2020
4733 Clouds 2 1023 82 10000 1 290 07:46 15.04.2020
4734 Clouds 2 1023 82 10000 1 290 07:28 15.04.2020
4735 Clouds 3 1023 100 10000 0.5 360 06:32 15.04.2020
4736 Clouds 2 1024 100 10000 1.5 0 05:50 15.04.2020
4737 Clouds 2 1024 93 10000 3.6 290 04:48 15.04.2020
4738 Clouds 3 1024 84 10000 2.6 290 04:23 15.04.2020
4739 Clouds 4 1024 93 10000 1 280 03:23 15.04.2020
4740 Clouds 4 1024 85 10000 1.87 259 02:50 15.04.2020
4741 Clouds 4 1025 93 10000 0.5 0 01:53 15.04.2020
4742 Clouds 5 1025 93 10000 1 0 01:25 15.04.2020
4743 Clouds 5 1025 93 10000 1 0 00:51 15.04.2020
4744 Clouds 5 1025 93 10000 1 130 00:29 15.04.2020
4745 Clouds 6 1025 86 10000 1.5 150 23:56 14.04.2020
4746 Clouds 6 1025 86 10000 1.5 150 23:56 14.04.2020
4747 Clouds 5 1025 86 10000 1.5 150 23:38 14.04.2020
4748 Clouds 6 1025 80 10000 1.5 160 23:20 14.04.2020
4749 Clouds 7 1025 70 10000 2.1 140 22:56 14.04.2020
4750 Clouds 8 1025 65 10000 2.1 140 22:38 14.04.2020
4751 Clouds 9 1025 65 10000 2.1 140 22:20 14.04.2020
4752 Clouds 8 1025 65 10000 2.1 140 21:56 14.04.2020
4753 Clouds 8 1025 65 10000 2.1 140 21:56 14.04.2020
4754 Clouds 9 1025 65 10000 2.1 140 21:38 14.04.2020
4755 Clouds 11 1025 61 10000 2.6 140 21:19 14.04.2020
4756 Clouds 11 1025 61 10000 3.1 130 20:57 14.04.2020
4757 Clouds 11 1025 61 10000 3.1 130 20:38 14.04.2020
4758 Clouds 11 1025 57 10000 4.1 140 20:38 14.04.2020
4759 Clouds 11 1025 57 10000 4.1 140 20:38 14.04.2020
4760 Clouds 11 1025 57 10000 4.1 140 20:19 14.04.2020
4761 Clouds 12 1025 57 10000 4.1 140 19:41 14.04.2020
4762 Clouds 12 1025 57 10000 4.6 140 19:22 14.04.2020
4763 Clouds 13 1026 62 10000 4.6 140 18:58 14.04.2020
4764 Clouds 12 1026 62 10000 4.6 140 18:39 14.04.2020
4765 Clouds 12 1026 62 10000 4.6 140 18:21 14.04.2020
4766 Clouds 13 1026 54 10000 5.1 150 17:58 14.04.2020
4767 Clouds 13 1026 54 10000 5.1 150 17:38 14.04.2020
4768 Clouds 13 1026 54 10000 5.1 150 17:19 14.04.2020
4769 Clouds 13 1027 54 10000 4.6 150 16:55 14.04.2020
4770 Clouds 13 1027 54 10000 4.6 150 16:37 14.04.2020
4771 Clouds 12 1027 58 10000 3.6 140 16:19 14.04.2020
4772 Clouds 12 1027 58 10000 5.1 100 15:42 14.04.2020
4773 Clouds 12 1027 58 10000 3.6 110 15:23 14.04.2020
4774 Clouds 12 1027 54 10000 3.6 140 14:59 14.04.2020
4775 Clouds 12 1028 54 10000 3.6 110 14:41 14.04.2020
4776 Clouds 12 1028 54 10000 3.6 110 14:22 14.04.2020
4777 Clouds 12 1028 50 10000 3.6 90 13:58 14.04.2020
4778 Clouds 12 1028 63 10000 1 0 13:40 14.04.2020
4779 Clouds 11 1028 63 10000 1 0 13:21 14.04.2020
4780 Clouds 11 1028 57 10000 1.5 0 12:42 14.04.2020
4781 Clouds 10 1028 57 10000 1.5 0 12:22 14.04.2020
4782 Clouds 10 1029 53 10000 1 0 11:57 14.04.2020
4783 Clouds 9 1029 53 10000 1 0 11:38 14.04.2020
4784 Clouds 9 1029 61 10000 1 0 11:19 14.04.2020
4785 Clouds 8 1029 75 10000 1.5 0 10:46 14.04.2020
4786 Clouds 6 1029 81 10000 1.5 310 10:27 14.04.2020
4787 Clouds 6 1029 93 10000 0.5 0 09:58 14.04.2020
4788 Clouds 4 1029 93 10000 0.5 0 09:40 14.04.2020
4789 Clouds 3 1029 100 10000 1.51 224 09:21 14.04.2020
4790 Clouds 2 1029 82 10000 0.5 230 08:42 14.04.2020
4791 Clouds 0 1029 100 10000 0.5 0 08:24 14.04.2020
4792 Clouds 0 1029 92 10000 1 0 07:55 14.04.2020
4793 Clouds 0 1029 100 10000 1 0 07:31 14.04.2020
4794 Clouds 0 1029 92 10000 1 320 06:53 14.04.2020
4795 Clouds 1 1029 100 10000 1 0 06:27 14.04.2020
4796 Clouds 1 1030 100 10000 0.5 0 04:43 14.04.2020
4797 Clouds 1 1030 92 10000 1 0 02:56 14.04.2020
4798 Clouds 2 1030 92 10000 1 0 01:49 14.04.2020
4799 Clouds 2 1030 92 10000 1.5 100 01:24 14.04.2020
4800 Clouds 2 1030 92 10000 2.1 100 00:39 14.04.2020
4801 Clouds 2 1030 86 10000 2.6 90 00:19 14.04.2020
4802 Clouds 3 1031 80 10000 2.6 70 23:44 13.04.2020
4803 Clouds 3 1031 80 10000 2.6 70 23:26 13.04.2020
4804 Clouds 3 1031 80 10000 3.1 60 22:59 13.04.2020
4805 Clouds 4 1031 80 10000 3.1 60 22:41 13.04.2020
4806 Clouds 4 1031 74 10000 3.6 60 22:22 13.04.2020
4807 Clouds 5 1031 76 10000 3.6 70 21:56 13.04.2020
4808 Clouds 5 1030 76 10000 4.6 70 21:37 13.04.2020
4809 Clouds 5 1030 76 10000 4.6 70 21:37 13.04.2020
4810 Clouds 6 1030 67 10000 4.6 70 21:19 13.04.2020
4811 Clouds 6 1030 67 10000 5.1 60 20:54 13.04.2020
4812 Clouds 6 1030 67 10000 5.1 60 20:54 13.04.2020
4813 Clouds 7 1030 67 10000 6.2 70 20:36 13.04.2020
4814 Clouds 7 1030 67 10000 6.2 70 20:18 13.04.2020
4815 Clouds 7 1030 67 10000 6.2 70 20:18 13.04.2020
4816 Clouds 7 1030 67 10000 6.2 80 19:38 13.04.2020
4817 Clouds 7 1030 67 10000 6.2 80 19:20 13.04.2020
4818 Clouds 7 1030 67 10000 7.2 50 18:59 13.04.2020
4819 Clouds 8 1030 61 10000 7.2 60 18:39 13.04.2020
4820 Clouds 8 1030 61 10000 7.2 60 18:20 13.04.2020
4821 Clouds 8 1031 61 10000 6.7 70 17:58 13.04.2020
4822 Clouds 8 1031 61 10000 6.7 70 17:58 13.04.2020
4823 Clouds 8 1031 61 10000 6.7 70 17:58 13.04.2020
4824 Clouds 8 1031 61 10000 6.7 70 17:58 13.04.2020
4825 Clouds 7 1031 65 10000 7.2 70 17:38 13.04.2020
4826 Clouds 7 1031 65 10000 7.2 70 17:19 13.04.2020
4827 Clouds 8 1031 63 10000 7.7 80 16:58 13.04.2020
4828 Clouds 8 1031 63 10000 7.7 80 16:40 13.04.2020
4829 Clouds 8 1031 63 10000 7.2 70 16:20 13.04.2020
4830 Clouds 7 1031 63 10000 8.7 80 15:57 13.04.2020
4831 Clouds 7 1031 61 10000 7.2 70 15:39 13.04.2020
4832 Clouds 7 1031 61 10000 7.2 70 15:20 13.04.2020
4833 Clouds 8 1031 63 10000 8.7 80 14:54 13.04.2020
4834 Clouds 8 1031 63 10000 8.7 80 14:36 13.04.2020
4835 Clouds 7 1031 64 10000 8.2 70 14:18 13.04.2020
4836 Clouds 7 1031 64 10000 8.2 80 13:54 13.04.2020
4837 Clouds 7 1031 56 10000 9.3 90 13:36 13.04.2020
4838 Clouds 7 1031 56 10000 9.3 90 13:18 13.04.2020
4839 Clouds 7 1031 64 10000 7.7 70 12:55 13.04.2020
4840 Clouds 7 1031 56 10000 8.7 80 12:37 13.04.2020
4841 Clouds 7 1031 56 10000 8.7 80 12:18 13.04.2020
4842 Clouds 7 1030 65 10000 10.3 90 11:41 13.04.2020
4843 Clouds 7 1030 65 10000 10.3 90 11:18 13.04.2020
4844 Clouds 7 1030 65 10000 10.3 90 11:18 13.04.2020
4845 Clouds 7 1030 68 10000 9.8 80 10:55 13.04.2020
4846 Clouds 7 1029 65 10000 9.8 80 10:37 13.04.2020
4847 Clouds 7 1029 65 10000 9.8 80 10:19 13.04.2020
4848 Clouds 6 1029 70 10000 8.7 90 09:45 13.04.2020
4849 Clouds 6 1028 70 10000 8.7 80 09:26 13.04.2020
4850 Clouds 7 1028 65 10000 8.7 80 08:51 13.04.2020
4851 Clouds 6 1027 81 10000 7.2 70 08:31 13.04.2020
4852 Clouds 6 1027 81 10000 8.2 70 07:59 13.04.2020
4853 Clouds 7 1027 75 10000 6.2 60 07:39 13.04.2020
4854 Clouds 7 1027 75 10000 6.2 60 07:20 13.04.2020
4855 Clouds 7 1026 75 10000 7.2 60 06:47 13.04.2020
4856 Clouds 7 1026 75 10000 7.2 70 05:59 13.04.2020
4857 Clouds 7 1025 75 10000 8.2 70 05:30 13.04.2020
4858 Clouds 7 1025 81 10000 8.2 70 04:52 13.04.2020
4859 Clouds 8 1025 87 10000 7.7 60 04:22 13.04.2020
4860 Clouds 8 1025 81 10000 8.2 60 03:46 13.04.2020
4861 Clouds 8 1023 81 10000 9.8 50 02:50 13.04.2020
4862 Clouds 8 1022 81 10000 8.7 50 01:54 13.04.2020
4863 Clouds 9 1021 76 10000 7.2 50 01:35 13.04.2020
4864 Clouds 9 1021 76 10000 5.7 30 00:56 13.04.2020
4865 Clouds 9 1020 76 10000 6.2 40 00:38 13.04.2020
4866 Clouds 9 1020 76 10000 6.2 40 00:18 13.04.2020
4867 Clouds 9 1020 76 10000 6.7 30 23:43 12.04.2020
4868 Clouds 9 1019 76 10000 7.2 30 23:22 12.04.2020
4869 Clouds 9 1019 81 10000 8.7 30 22:57 12.04.2020
4870 Clouds 9 1018 76 10000 8.2 20 22:37 12.04.2020
4871 Clouds 9 1018 76 10000 8.2 20 22:19 12.04.2020
4872 Clouds 9 1018 76 10000 8.2 20 22:19 12.04.2020
4873 Clouds 9 1018 70 10000 9.3 20 21:40 12.04.2020
4874 Clouds 10 1017 66 10000 9.3 20 21:21 12.04.2020
4875 Clouds 10 1016 71 10000 8.7 20 20:56 12.04.2020
4876 Clouds 10 1016 71 10000 8.7 20 20:38 12.04.2020
4877 Clouds 10 1016 66 10000 9.3 20 20:19 12.04.2020
4878 Clouds 10 1016 66 10000 9.3 20 19:55 12.04.2020
4879 Clouds 10 1015 66 10000 8.7 30 19:36 12.04.2020
4880 Clouds 10 1015 66 10000 9.3 30 19:18 12.04.2020
4881 Rain 10 1014 76 10000 7.7 30 18:40 12.04.2020
4882 Rain 10 1014 71 10000 9.3 30 18:20 12.04.2020
4883 Clouds 10 1014 71 10000 9.3 30 17:56 12.04.2020
4884 Clouds 10 1014 76 10000 8.2 30 17:38 12.04.2020
4885 Clouds 9 1014 76 10000 8.2 30 17:18 12.04.2020
4886 Clouds 9 1014 81 10000 8.2 30 16:56 12.04.2020
4887 Rain 9 1014 87 10000 7.2 40 16:36 12.04.2020
4888 Rain 9 1014 87 10000 7.2 40 16:18 12.04.2020
4889 Drizzle 8 1014 93 8000 6.7 40 15:41 12.04.2020
4890 Drizzle 8 1014 93 10000 6.7 40 15:21 12.04.2020
4891 Rain 9 1014 87 10000 7.2 40 14:40 12.04.2020
4892 Rain 9 1014 93 10000 6.7 40 14:22 12.04.2020
4893 Rain 9 1014 93 10000 6.2 40 13:58 12.04.2020
4894 Rain 9 1014 87 10000 7.2 50 13:40 12.04.2020
4895 Rain 9 1014 87 10000 7.2 50 13:21 12.04.2020
4896 Rain 9 1014 93 10000 7.7 60 12:47 12.04.2020
4897 Rain 8 1014 100 10000 6.2 50 12:22 12.04.2020
4898 Drizzle 9 1014 100 10000 6.2 60 11:59 12.04.2020
4899 Rain 9 1014 93 8000 5.1 10 11:38 12.04.2020
4900 Rain 9 1014 93 8000 5.1 10 11:20 12.04.2020
4901 Drizzle 9 1014 93 7000 2.6 320 10:56 12.04.2020
4902 Drizzle 8 1014 100 10000 3.1 310 10:38 12.04.2020
4903 Drizzle 8 1014 100 10000 3.1 310 10:20 12.04.2020
4904 Drizzle 8 1014 100 10000 2.6 310 09:58 12.04.2020
4905 Drizzle 8 1014 100 10000 2.6 310 09:37 12.04.2020
4906 Clouds 9 1014 93 10000 3.6 280 09:19 12.04.2020
4907 Clouds 9 1014 93 10000 2.6 270 08:50 12.04.2020
4908 Clouds 9 1014 93 10000 2.6 270 08:30 12.04.2020
4909 Clouds 9 1014 93 10000 2.6 270 07:47 12.04.2020
4910 Drizzle 9 1015 87 10000 4.6 290 07:19 12.04.2020
4911 Clouds 10 1015 70 10000 4.6 290 06:54 12.04.2020
4912 Clouds 10 1015 61 10000 3.6 290 06:30 12.04.2020
4913 Clouds 9 1015 53 10000 2.6 260 05:49 12.04.2020
4914 Clouds 10 1016 61 10000 2.1 270 04:44 12.04.2020
4915 Clouds 10 1017 57 10000 2.6 260 03:30 12.04.2020
4916 Clouds 10 1018 57 10000 2.6 240 02:48 12.04.2020
4917 Clouds 9 1018 53 10000 3.1 260 02:29 12.04.2020
4918 Clouds 10 1019 50 10000 3.1 240 01:23 12.04.2020
4919 Clouds 10 1019 69 10000 3.6 240 00:43 12.04.2020
4920 Clouds 11 1020 34 10000 3.6 250 00:21 12.04.2020
4921 Clouds 10 1020 34 10000 4.1 260 23:58 11.04.2020
4922 Clouds 10 1020 34 10000 4.1 260 23:40 11.04.2020
4923 Clouds 11 1020 78 10000 4.6 270 23:22 11.04.2020
4924 Clouds 10 1020 50 10000 3.1 260 22:38 11.04.2020
4925 Clouds 11 1020 46 10000 3.1 270 22:20 11.04.2020
4926 Clouds 12 1020 50 10000 4.6 290 21:55 11.04.2020
4927 Clouds 15 1020 54 10000 3.6 290 21:36 11.04.2020
4928 Clouds 15 1020 54 10000 3.6 290 21:18 11.04.2020
4929 Clouds 16 1020 48 10000 4.1 280 20:56 11.04.2020
4930 Clouds 16 1020 48 10000 4.1 280 20:56 11.04.2020
4931 Clouds 16 1020 48 10000 4.1 280 20:37 11.04.2020
4932 Clouds 17 1021 39 10000 4.6 280 20:19 11.04.2020
4933 Clouds 17 1021 39 10000 4.6 280 20:19 11.04.2020
4934 Clouds 18 1021 42 10000 4.6 290 19:56 11.04.2020
4935 Clouds 18 1021 37 10000 4.1 270 19:38 11.04.2020
4936 Clouds 18 1021 37 10000 4.1 270 19:38 11.04.2020
4937 Clouds 19 1021 37 10000 4.1 270 19:18 11.04.2020
4938 Clouds 19 1021 39 10000 4.1 290 18:55 11.04.2020
4939 Clouds 19 1021 42 10000 3.6 270 18:37 11.04.2020
4940 Clouds 19 1021 42 10000 3.6 270 18:18 11.04.2020
4941 Clouds 19 1021 45 10000 4.6 270 17:57 11.04.2020
4942 Clouds 19 1021 45 10000 4.6 270 17:57 11.04.2020
4943 Clouds 18 1021 55 10000 4.1 250 17:37 11.04.2020
4944 Clouds 18 1021 55 10000 4.1 250 17:19 11.04.2020
4945 Clouds 18 1022 59 10000 3.6 240 16:42 11.04.2020
4946 Clouds 18 1022 67 10000 4.1 240 16:21 11.04.2020
4947 Clouds 18 1022 67 10000 4.1 240 16:21 11.04.2020
4948 Clouds 17 1022 67 10000 4.6 240 15:42 11.04.2020
4949 Clouds 17 1022 72 10000 4.6 250 15:21 11.04.2020
4950 Clouds 16 1023 72 10000 4.1 250 14:59 11.04.2020
4951 Clouds 15 1023 72 10000 4.1 250 14:40 11.04.2020
4952 Clouds 14 1023 76 10000 4.6 250 14:22 11.04.2020
4953 Clouds 14 1023 87 10000 7.2 280 13:43 11.04.2020
4954 Clouds 14 1023 82 10000 7.2 280 13:25 11.04.2020
4955 Clouds 15 1023 77 10000 5.7 270 12:59 11.04.2020
4956 Clouds 15 1023 82 10000 5.7 270 12:38 11.04.2020
4957 Clouds 16 1023 82 10000 5.7 270 12:18 11.04.2020
4958 Clouds 15 1023 77 10000 4.6 260 11:43 11.04.2020
4959 Clouds 15 1023 82 10000 4.6 260 11:22 11.04.2020
4960 Clouds 14 1023 82 10000 4.6 250 10:57 11.04.2020
4961 Clouds 13 1023 87 10000 4.6 260 10:39 11.04.2020
4962 Clouds 13 1023 87 10000 4.6 260 10:21 11.04.2020
4963 Clouds 12 1023 87 10000 2.6 240 09:57 11.04.2020
4964 Clouds 12 1023 87 10000 2.6 240 09:38 11.04.2020
4965 Clouds 12 1023 87 10000 2.1 240 09:20 11.04.2020
4966 Clouds 12 1023 87 10000 2.6 250 08:43 11.04.2020
4967 Clouds 11 1022 93 10000 2.6 250 08:25 11.04.2020
4968 Clouds 11 1022 93 10000 2.6 250 07:49 11.04.2020
4969 Clouds 11 1022 87 10000 2.6 260 07:28 11.04.2020
4970 Clouds 11 1022 87 10000 2.6 250 06:47 11.04.2020
4971 Clouds 11 1022 87 10000 1.5 270 05:59 11.04.2020
4972 Clouds 12 1022 93 10000 2.1 270 04:34 11.04.2020
4973 Clouds 12 1022 93 10000 2.1 270 03:40 11.04.2020
4974 Clouds 11 1022 93 10000 1.5 260 01:53 11.04.2020
4975 Clouds 12 1022 93 10000 0.5 210 01:20 11.04.2020
4976 Clouds 12 1022 93 10000 0.5 0 00:44 11.04.2020
4977 Clouds 13 1022 93 10000 1.5 340 00:19 11.04.2020
4978 Clouds 12 1022 93 10000 1.5 0 23:56 10.04.2020
4979 Clouds 12 1022 93 10000 1.5 0 23:56 10.04.2020
4980 Clouds 13 1021 87 10000 1.5 330 23:37 10.04.2020
4981 Clouds 13 1021 87 10000 1.5 330 23:18 10.04.2020
4982 Clouds 13 1021 87 10000 1 320 22:43 10.04.2020
4983 Clouds 15 1021 76 10000 1 0 22:21 10.04.2020
4984 Clouds 15 1021 82 10000 1 0 21:58 10.04.2020
4985 Clouds 15 1021 82 10000 1 0 21:39 10.04.2020
4986 Clouds 17 1020 67 10000 1.5 0 21:20 10.04.2020
4987 Clouds 17 1020 67 10000 1.5 90 20:41 10.04.2020
4988 Clouds 18 1020 63 10000 0.5 0 20:23 10.04.2020
4989 Clouds 18 1020 68 10000 1.5 0 19:58 10.04.2020
4990 Clouds 18 1020 68 10000 2.1 110 19:40 10.04.2020
4991 Clouds 18 1020 68 10000 2.1 110 19:20 10.04.2020
4992 Clouds 19 1020 68 10000 2.1 100 18:57 10.04.2020
4993 Rain 19 1020 63 10000 1.5 0 18:39 10.04.2020
4994 Clouds 19 1020 63 10000 1.5 0 18:21 10.04.2020
4995 Clouds 19 1020 63 10000 1.5 0 17:58 10.04.2020
4996 Clouds 18 1020 63 10000 1 0 17:39 10.04.2020
4997 Clouds 18 1020 63 10000 1 0 17:20 10.04.2020
4998 Clouds 18 1020 67 10000 2.1 100 16:56 10.04.2020
4999 Clouds 18 1020 67 10000 2.6 100 16:38 10.04.2020
5000 Clouds 18 1020 67 10000 2.6 100 16:19 10.04.2020
5001 Clouds 18 1021 67 10000 3.1 90 15:55 10.04.2020
5002 Clouds 18 1021 67 10000 3.1 90 15:55 10.04.2020
5003 Clouds 18 1021 67 10000 3.1 90 15:55 10.04.2020
5004 Clouds 18 1021 63 9000 2.6 90 15:36 10.04.2020
5005 Rain 18 1021 59 10000 1.5 20 15:18 10.04.2020
5006 Clouds 18 1021 67 9000 2.1 70 14:56 10.04.2020
5007 Clouds 18 1021 67 9000 2.1 70 14:38 10.04.2020
5008 Clouds 17 1021 63 9000 1.5 0 14:18 10.04.2020
5009 Clouds 17 1021 63 9000 1.5 0 14:18 10.04.2020
5010 Clouds 17 1021 63 9000 2.6 90 13:43 10.04.2020
5011 Clouds 17 1022 63 9000 2.6 90 13:21 10.04.2020
5012 Clouds 16 1022 63 9000 1.5 0 12:43 10.04.2020
5013 Clouds 16 1022 67 9000 2.6 100 12:24 10.04.2020
5014 Clouds 14 1022 67 9000 2.6 110 11:56 10.04.2020
5015 Clouds 14 1022 76 9000 2.6 110 11:38 10.04.2020
5016 Clouds 13 1022 76 9000 2.6 110 11:20 10.04.2020
5017 Clouds 12 1022 87 9000 2.6 100 10:46 10.04.2020
5018 Clouds 11 1022 87 7000 1.5 0 10:23 10.04.2020
5019 Clouds 10 1022 93 7000 2.6 120 09:57 10.04.2020
5020 Clouds 9 1022 100 10000 2.1 80 09:38 10.04.2020
5021 Clouds 9 1022 100 10000 2.1 80 09:20 10.04.2020
5022 Clouds 8 1022 93 10000 3.1 80 08:43 10.04.2020
5023 Clouds 8 1022 93 10000 2.6 30 08:24 10.04.2020
5024 Clouds 8 1022 93 10000 2.1 60 07:45 10.04.2020
5025 Clouds 8 1022 93 10000 3.1 100 07:24 10.04.2020
5026 Clouds 8 1022 100 10000 2.1 90 06:49 10.04.2020
5027 Clouds 8 1022 93 10000 1.5 0 06:28 10.04.2020
5028 Clouds 8 1022 100 10000 2.1 80 05:42 10.04.2020
5029 Clouds 8 1023 100 10000 1 0 04:58 10.04.2020
5030 Clouds 8 1023 93 10000 1.5 80 03:50 10.04.2020
5031 Clouds 8 1023 93 10000 1 90 03:31 10.04.2020
5032 Clouds 8 1023 100 10000 1.5 110 02:49 10.04.2020
5033 Clouds 8 1023 100 10000 1.5 100 02:30 10.04.2020
5034 Clouds 8 1023 100 10000 1 0 01:30 10.04.2020
5035 Clouds 8 1023 93 10000 1.5 0 00:50 10.04.2020
5036 Clouds 9 1023 93 10000 1 0 00:25 10.04.2020
5037 Clouds 9 1023 100 10000 1 0 23:56 09.04.2020
5038 Clouds 9 1023 100 10000 1.5 90 23:38 09.04.2020
5039 Clouds 9 1023 100 10000 1.5 90 23:19 09.04.2020
5040 Clouds 9 1023 93 10000 2.1 90 22:41 09.04.2020
5041 Clouds 9 1023 93 10000 2.1 90 22:41 09.04.2020
5042 Clouds 10 1023 93 10000 2.1 90 22:23 09.04.2020
5043 Clouds 10 1023 87 10000 3.1 100 21:55 09.04.2020
5044 Clouds 10 1023 87 10000 3.1 100 21:37 09.04.2020
5045 Clouds 11 1023 87 10000 2.6 100 21:18 09.04.2020
5046 Clouds 12 1023 87 10000 2.6 90 20:41 09.04.2020
5047 Clouds 12 1023 81 10000 2.6 100 20:21 09.04.2020
5048 Clouds 12 1023 81 10000 3.1 80 19:57 09.04.2020
5049 Clouds 13 1023 81 10000 3.1 80 19:36 09.04.2020
5050 Clouds 13 1023 81 10000 3.1 80 19:18 09.04.2020
5051 Clouds 13 1023 81 10000 4.1 100 18:41 09.04.2020
5052 Clouds 13 1023 76 10000 3.6 100 18:19 09.04.2020
5053 Clouds 13 1023 76 10000 4.6 80 17:41 09.04.2020
5054 Clouds 13 1024 71 10000 5.1 80 17:23 09.04.2020
5055 Clouds 14 1024 81 10000 4.6 60 16:56 09.04.2020
5056 Clouds 14 1024 76 10000 4.1 80 16:38 09.04.2020
5057 Clouds 14 1024 76 10000 4.1 80 16:18 09.04.2020
5058 Clouds 14 1024 71 10000 4.6 80 15:55 09.04.2020
5059 Clouds 14 1024 76 10000 4.6 80 15:36 09.04.2020
5060 Clouds 14 1024 76 10000 4.6 80 15:18 09.04.2020
5061 Clouds 14 1024 66 10000 4.6 90 14:40 09.04.2020
5062 Clouds 14 1024 66 10000 4.6 90 14:21 09.04.2020
5063 Clouds 14 1025 66 10000 5.1 90 13:44 09.04.2020
5064 Clouds 14 1025 66 10000 5.1 90 13:44 09.04.2020
5065 Clouds 14 1025 66 10000 5.1 100 13:26 09.04.2020
5066 Clouds 13 1025 66 10000 4.6 90 12:59 09.04.2020
5067 Clouds 13 1025 66 10000 4.6 90 12:41 09.04.2020
5068 Clouds 13 1025 66 10000 4.6 90 12:41 09.04.2020
5069 Clouds 13 1025 66 10000 5.1 100 12:21 09.04.2020
5070 Clouds 13 1025 71 10000 4.1 90 11:57 09.04.2020
5071 Clouds 13 1025 71 10000 4.1 90 11:38 09.04.2020
5072 Clouds 12 1025 76 10000 4.1 80 11:19 09.04.2020
5073 Clouds 12 1025 81 10000 3.1 70 10:56 09.04.2020
5074 Clouds 10 1025 87 10000 3.1 80 10:37 09.04.2020
5075 Clouds 9 1025 87 10000 3.1 80 10:18 09.04.2020
5076 Clouds 8 1024 100 10000 2.1 80 09:40 09.04.2020
5077 Clouds 7 1024 100 10000 2.6 80 09:21 09.04.2020
5078 Fog 6 1024 93 10000 2.1 80 08:59 09.04.2020
5079 Fog 6 1024 93 10000 2.1 80 08:40 09.04.2020
5080 Fog 5 1024 93 10000 1 0 08:22 09.04.2020
5081 Clouds 5 1024 100 8000 1 90 07:51 09.04.2020
5082 Clouds 5 1024 100 7000 2.1 110 07:23 09.04.2020
5083 Clouds 5 1024 100 6000 2.6 80 06:49 09.04.2020
5084 Clouds 6 1024 100 7000 2.1 60 05:49 09.04.2020
5085 Clouds 6 1024 100 8000 2.1 60 05:28 09.04.2020
5086 Clouds 6 1025 93 10000 1 0 02:37 09.04.2020
5087 Clouds 7 1025 93 10000 1 0 02:18 09.04.2020
5088 Clouds 7 1025 100 10000 1 340 01:39 09.04.2020
5089 Clouds 7 1025 100 10000 1 340 01:19 09.04.2020
5090 Clouds 8 1024 100 10000 1 170 00:38 09.04.2020
5091 Clouds 8 1024 100 10000 1 170 00:18 09.04.2020
5092 Clouds 8 1025 93 10000 1 0 23:44 08.04.2020
5093 Clouds 9 1024 87 10000 1 120 23:24 08.04.2020
5094 Clouds 9 1024 93 10000 1.5 140 22:57 08.04.2020
5095 Clouds 10 1024 87 10000 1.5 160 22:39 08.04.2020
5096 Clouds 10 1024 87 10000 1.5 160 22:21 08.04.2020
5097 Clouds 11 1024 87 10000 1.5 0 21:55 08.04.2020
5098 Clouds 11 1024 87 10000 2.1 140 21:37 08.04.2020
5099 Clouds 13 1024 76 10000 2.6 100 21:19 08.04.2020
5100 Clouds 14 1024 71 10000 2.6 90 20:41 08.04.2020
5101 Clouds 14 1024 71 10000 2.6 90 20:22 08.04.2020
5102 Clouds 15 1024 58 10000 2.1 110 19:59 08.04.2020
5103 Clouds 15 1024 62 10000 2.6 120 19:41 08.04.2020
5104 Clouds 16 1024 62 10000 2.6 120 19:21 08.04.2020
5105 Clouds 16 1024 62 10000 3.1 140 18:55 08.04.2020
5106 Clouds 16 1024 62 10000 3.1 140 18:37 08.04.2020
5107 Clouds 16 1024 62 10000 3.1 140 18:19 08.04.2020
5108 Clouds 16 1024 62 10000 3.1 140 17:42 08.04.2020
5109 Clouds 16 1024 58 10000 2.6 140 17:20 08.04.2020
5110 Clouds 16 1024 59 10000 2.6 140 16:57 08.04.2020
5111 Clouds 16 1024 59 10000 2.6 140 16:39 08.04.2020
5112 Clouds 16 1024 59 10000 2.6 140 16:19 08.04.2020
5113 Clouds 16 1024 51 10000 4.1 120 15:39 08.04.2020
5114 Clouds 16 1024 51 10000 3.6 130 15:21 08.04.2020
5115 Clouds 15 1024 51 10000 3.6 130 14:57 08.04.2020
5116 Clouds 15 1024 51 10000 3.6 130 14:39 08.04.2020
5117 Clouds 15 1024 58 10000 3.6 120 14:21 08.04.2020
5118 Clouds 15 1025 51 10000 3.1 150 13:44 08.04.2020
5119 Clouds 14 1025 54 10000 1.5 0 13:21 08.04.2020
5120 Clouds 14 1025 51 10000 1.5 0 12:54 08.04.2020
5121 Clouds 14 1025 50 10000 2.6 180 12:36 08.04.2020
5122 Clouds 14 1025 50 10000 2.6 180 12:18 08.04.2020
5123 Clouds 14 1025 50 10000 2.6 180 12:18 08.04.2020
5124 Clouds 12 1025 50 10000 2.1 190 11:41 08.04.2020
5125 Clouds 12 1025 50 10000 2.1 190 11:41 08.04.2020
5126 Clouds 12 1025 58 10000 2.1 180 11:22 08.04.2020
5127 Clouds 11 1025 62 10000 1.5 0 10:58 08.04.2020
5128 Clouds 10 1025 62 10000 1.5 0 10:39 08.04.2020
5129 Clouds 10 1025 62 10000 1.5 0 10:20 08.04.2020
5130 Clouds 8 1025 75 10000 1.5 260 09:56 08.04.2020
5131 Clouds 8 1025 75 10000 1.5 260 09:56 08.04.2020
5132 Clouds 7 1025 75 10000 1.5 260 09:38 08.04.2020
5133 Clouds 6 1025 75 10000 1 0 09:18 08.04.2020
5134 Clouds 6 1025 81 10000 1.5 280 08:56 08.04.2020
5135 Clouds 6 1025 81 10000 1 0 08:38 08.04.2020
5136 Clouds 6 1025 81 10000 1 0 08:20 08.04.2020
5137 Clouds 6 1024 80 10000 0.5 360 07:42 08.04.2020
5138 Clouds 6 1024 80 10000 1.5 0 07:20 08.04.2020
5139 Clouds 6 1025 75 10000 1.5 90 06:22 08.04.2020
5140 Clouds 5 1025 78 10000 1.5 230 04:44 08.04.2020
5141 Clouds 7 1026 61 10000 1 0 02:49 08.04.2020
5142 Clouds 7 1026 65 10000 1.5 0 02:21 08.04.2020
5143 Clouds 7 1025 75 10000 2.1 180 01:51 08.04.2020
5144 Clouds 6 1025 75 10000 2.6 170 01:27 08.04.2020
5145 Clouds 7 1025 75 10000 2.1 170 00:41 08.04.2020
5146 Clouds 7 1025 70 10000 1.5 190 00:22 08.04.2020
5147 Clouds 8 1025 66 10000 2.6 200 23:40 07.04.2020
5148 Clouds 8 1025 66 10000 2.6 190 23:22 07.04.2020
5149 Clouds 8 1025 66 10000 3.6 190 22:58 07.04.2020
5150 Clouds 8 1025 66 10000 3.1 190 22:40 07.04.2020
5151 Clouds 8 1025 66 10000 3.1 190 22:20 07.04.2020
5152 Clouds 9 1025 61 10000 3.1 190 21:57 07.04.2020
5153 Clouds 10 1025 57 10000 3.1 200 21:39 07.04.2020
5154 Clouds 10 1025 57 10000 3.1 200 21:20 07.04.2020
5155 Clouds 11 1025 54 10000 3.6 220 20:57 07.04.2020
5156 Clouds 12 1025 54 10000 3.6 220 20:38 07.04.2020
5157 Clouds 12 1025 54 10000 3.6 220 20:20 07.04.2020
5158 Clouds 13 1025 47 10000 5.7 210 19:57 07.04.2020
5159 Clouds 13 1025 50 10000 5.7 210 19:36 07.04.2020
5160 Clouds 14 1025 47 10000 5.1 210 19:18 07.04.2020
5161 Clouds 14 1025 47 10000 5.1 210 18:54 07.04.2020
5162 Clouds 14 1025 50 10000 5.7 140 18:36 07.04.2020
5163 Clouds 14 1025 50 10000 5.7 140 18:18 07.04.2020
5164 Clouds 14 1025 58 10000 7.2 150 17:44 07.04.2020
5165 Clouds 14 1025 54 10000 6.7 140 17:20 07.04.2020
5166 Clouds 14 1025 54 10000 6.7 140 16:46 07.04.2020
5167 Clouds 14 1025 62 10000 6.2 130 16:27 07.04.2020
5168 Clouds 14 1025 62 10000 6.2 130 15:56 07.04.2020
5169 Clouds 14 1026 54 10000 6.2 150 15:38 07.04.2020
5170 Clouds 14 1026 47 10000 5.7 140 15:19 07.04.2020
5171 Clouds 13 1026 44 10000 5.1 150 14:41 07.04.2020
5172 Clouds 14 1026 44 10000 5.1 150 14:22 07.04.2020
5173 Clouds 13 1026 44 10000 6.2 150 13:56 07.04.2020
5174 Clouds 13 1027 47 10000 6.2 160 13:37 07.04.2020
5175 Clouds 13 1027 47 10000 6.2 160 13:18 07.04.2020
5176 Clouds 12 1027 47 10000 5.1 170 12:54 07.04.2020
5177 Clouds 12 1027 66 10000 3.6 130 12:36 07.04.2020
5178 Clouds 11 1027 66 10000 3.6 130 12:18 07.04.2020
5179 Clouds 11 1027 66 10000 3.6 130 11:42 07.04.2020
5180 Clouds 10 1027 57 10000 2.6 130 11:22 07.04.2020
5181 Clouds 10 1027 61 10000 3.6 160 10:57 07.04.2020
5182 Clouds 9 1027 70 10000 1.5 0 10:37 07.04.2020
5183 Clouds 9 1027 70 10000 1.5 0 10:18 07.04.2020
5184 Clouds 5 1027 81 10000 1.5 0 09:44 07.04.2020
5185 Clouds 3 1027 93 10000 1.5 0 09:18 07.04.2020
5186 Clouds 2 1027 83 10000 1.5 150 08:43 07.04.2020
5187 Clouds 3 1027 83 10000 1.5 140 08:25 07.04.2020
5188 Clouds 3 1026 83 10000 1 150 07:59 07.04.2020
5189 Clouds 3 1026 83 10000 1 150 07:40 07.04.2020
5190 Clouds 3 1026 83 10000 1 150 07:40 07.04.2020
5191 Clouds 3 1027 93 10000 1 190 07:21 07.04.2020
5192 Clouds 3 1027 83 10000 2.1 210 06:49 07.04.2020
5193 Clouds 3 1026 83 10000 2.1 180 06:21 07.04.2020
5194 Clouds 3 1026 83 10000 0.5 0 05:38 07.04.2020
5195 Clouds 3 1026 83 10000 1.5 250 04:40 07.04.2020
5196 Clouds 5 1026 75 10000 1 0 03:25 07.04.2020
5197 Clouds 5 1026 70 10000 1.5 250 02:48 07.04.2020
5198 Clouds 6 1025 70 10000 1 0 01:48 07.04.2020
5199 Clouds 6 1025 70 10000 2.6 240 01:24 07.04.2020
5200 Clouds 6 1024 70 10000 2.1 230 00:28 07.04.2020
5201 Clouds 6 1024 65 10000 2.1 240 23:50 06.04.2020
5202 Clouds 7 1023 65 10000 3.6 250 23:24 06.04.2020
5203 Clouds 7 1023 65 10000 3.6 250 23:24 06.04.2020
5204 Clouds 8 1023 57 10000 2.1 220 22:58 06.04.2020
5205 Clouds 8 1023 57 10000 2.1 220 22:38 06.04.2020
5206 Clouds 9 1023 57 10000 2.1 220 22:20 06.04.2020
5207 Clouds 9 1022 61 10000 2.6 220 21:57 06.04.2020
5208 Clouds 9 1022 61 10000 2.6 220 21:38 06.04.2020
5209 Clouds 10 1021 61 10000 2.6 220 21:18 06.04.2020
5210 Clouds 10 1021 57 10000 3.1 230 20:54 06.04.2020
5211 Clouds 11 1020 58 10000 4.1 220 20:36 06.04.2020
5212 Clouds 11 1020 58 10000 4.1 220 20:18 06.04.2020
5213 Clouds 11 1020 58 10000 4.1 220 20:18 06.04.2020
5214 Rain 11 1020 54 10000 4.6 250 19:40 06.04.2020
5215 Rain 11 1019 58 10000 4.1 230 19:22 06.04.2020
5216 Clouds 12 1019 66 10000 4.1 270 18:57 06.04.2020
5217 Clouds 12 1019 66 10000 4.1 270 18:57 06.04.2020
5218 Rain 12 1019 62 10000 7.7 280 18:39 06.04.2020
5219 Rain 12 1019 62 10000 7.7 280 18:20 06.04.2020
5220 Clouds 13 1018 50 10000 4.6 250 17:42 06.04.2020
5221 Clouds 13 1018 50 10000 6.2 260 17:20 06.04.2020
5222 Clouds 12 1017 43 10000 5.1 250 16:50 06.04.2020
5223 Clouds 13 1017 43 10000 5.1 250 16:31 06.04.2020
5224 Clouds 13 1016 47 10000 6.2 240 15:41 06.04.2020
5225 Clouds 12 1014 54 10000 5.7 240 13:46 06.04.2020
5226 Clouds 12 1014 58 10000 5.7 240 13:24 06.04.2020
5227 Clouds 11 1014 58 10000 5.7 240 13:02 06.04.2020
5228 Clouds 11 1014 58 10000 5.7 240 13:02 06.04.2020
5229 Clouds 10 1012 66 10000 5.7 250 12:22 06.04.2020
5230 Clouds 10 1012 66 10000 5.7 250 12:22 06.04.2020
5231 Clouds 10 1011 66 10000 5.7 240 11:54 06.04.2020
5232 Clouds 10 1011 66 10000 5.7 240 11:54 06.04.2020
5233 Clouds 10 1011 66 10000 5.7 240 11:33 06.04.2020
5234 Clouds 10 1011 66 10000 5.7 240 11:33 06.04.2020
5235 Clouds 10 1011 66 10000 5.7 240 11:33 06.04.2020
5236 Clouds 10 1011 61 10000 5.7 240 11:33 06.04.2020
5237 Clouds 10 1011 66 10000 5.7 240 11:33 06.04.2020
5238 Clouds 9 1010 70 10000 5.7 240 10:51 06.04.2020
5239 Clouds 9 1010 70 10000 5.7 240 10:51 06.04.2020
5240 Clouds 9 1010 70 10000 5.7 240 10:51 06.04.2020
5241 Clouds 9 1010 70 10000 5.7 240 10:51 06.04.2020
5242 Clouds 9 1009 75 10000 5.7 230 10:21 06.04.2020
5243 Clouds 8 1009 75 10000 5.1 220 09:47 06.04.2020
5244 Clouds 8 1009 75 10000 5.1 220 09:47 06.04.2020
5245 Clouds 8 1009 75 10000 5.1 220 09:47 06.04.2020
5246 Clouds 8 1008 75 10000 4.6 220 09:21 06.04.2020
5247 Clouds 7 1007 81 10000 4.1 220 08:54 06.04.2020
5248 Clouds 7 1007 81 10000 4.1 220 08:30 06.04.2020
5249 Clouds 7 1005 81 10000 4.6 220 07:37 06.04.2020
5250 Clouds 7 1005 81 10000 4.6 220 07:37 06.04.2020
5251 Rain 8 1004 81 10000 5.1 240 06:42 06.04.2020
5252 Rain 8 1003 81 10000 6.2 220 06:23 06.04.2020
5253 Clouds 9 1001 81 10000 7.7 210 04:20 06.04.2020
5254 Clouds 9 999 76 10000 8.2 210 02:58 06.04.2020
5255 Clouds 10 999 76 10000 8.2 210 02:36 06.04.2020
5256 Clouds 10 998 81 10000 5.7 220 01:26 06.04.2020
5257 Rain 11 998 81 10000 6.2 210 00:44 06.04.2020
5258 Rain 11 997 87 10000 4.6 160 00:23 06.04.2020
5259 Rain 12 996 87 10000 5.7 160 23:44 05.04.2020
5260 Rain 12 997 87 10000 6.7 150 23:25 05.04.2020
5261 Rain 12 997 87 10000 6.7 150 23:25 05.04.2020
5262 Rain 12 997 93 10000 7.2 160 22:55 05.04.2020
5263 Rain 12 997 93 10000 7.2 160 22:37 05.04.2020
5264 Rain 12 997 87 9000 8.7 160 22:18 05.04.2020
5265 Rain 12 997 87 9000 9.3 170 21:46 05.04.2020
5266 Rain 12 997 87 9000 9.8 160 21:25 05.04.2020
5267 Rain 12 997 87 10000 10.3 160 20:47 05.04.2020
5268 Rain 12 998 87 10000 9.3 160 20:18 05.04.2020
5269 Rain 12 998 87 10000 9.3 160 20:18 05.04.2020
5270 Rain 12 998 87 10000 9.3 160 20:18 05.04.2020
5271 Rain 12 998 87 10000 9.3 160 20:18 05.04.2020
5272 Rain 12 998 82 10000 12.3 170 19:37 05.04.2020
5273 Rain 12 998 87 10000 9.8 170 19:19 05.04.2020
5274 Rain 13 998 82 10000 10.3 160 18:44 05.04.2020
5275 Rain 13 998 82 10000 10.3 160 18:44 05.04.2020
5276 Rain 13 998 82 10000 10.3 160 18:44 05.04.2020
5277 Rain 13 998 82 10000 10.3 160 18:44 05.04.2020
5278 Rain 13 998 82 10000 10.3 160 18:44 05.04.2020
5279 Rain 13 999 76 10000 9.8 170 17:52 05.04.2020
5280 Rain 13 999 76 10000 9.8 170 17:52 05.04.2020
5281 Rain 13 999 76 10000 9.8 170 17:52 05.04.2020
5282 Rain 13 999 76 10000 9.8 170 17:52 05.04.2020
5283 Rain 13 999 76 10000 9.8 170 17:52 05.04.2020
5284 Rain 13 999 76 10000 10.8 170 17:24 05.04.2020
5285 Rain 13 999 76 10000 10.8 170 17:24 05.04.2020
5286 Clouds 13 999 76 10000 12.3 170 16:52 05.04.2020
5287 Clouds 13 999 76 10000 12.3 170 16:52 05.04.2020
5288 Clouds 13 999 76 10000 12.3 170 16:52 05.04.2020
5289 Clouds 13 999 76 10000 12.3 170 16:50 05.04.2020
5290 Clouds 13 999 76 10000 12.3 170 16:49 05.04.2020
5291 Clouds 13 1000 67 10000 10.8 170 16:20 05.04.2020
5292 Clouds 14 1000 67 10000 8.7 170 15:51 05.04.2020
5293 Clouds 14 1000 67 10000 8.7 170 15:32 05.04.2020
5294 Clouds 14 1000 67 10000 8.7 170 15:32 05.04.2020
5295 Clouds 14 1001 66 10000 7.7 150 14:50 05.04.2020
5296 Clouds 14 1001 66 10000 7.7 150 14:50 05.04.2020
5297 Clouds 14 1001 66 10000 10.3 160 14:25 05.04.2020
5298 Clouds 14 1001 66 10000 10.3 160 14:25 05.04.2020
5299 Clouds 14 1001 62 10000 9.3 150 13:43 05.04.2020
5300 Clouds 13 1002 71 10000 9.3 140 12:49 05.04.2020
5301 Clouds 13 1002 71 10000 9.3 140 12:49 05.04.2020
5302 Clouds 12 1003 76 10000 9.3 150 11:41 05.04.2020
5303 Clouds 12 1003 71 10000 8.7 160 11:21 05.04.2020
5304 Clouds 11 1004 71 10000 8.7 150 10:49 05.04.2020
5305 Clouds 11 1004 71 10000 8.7 150 10:24 05.04.2020
5306 Clouds 10 1004 76 10000 9.3 160 09:58 05.04.2020
5307 Clouds 10 1004 76 10000 9.3 160 09:58 05.04.2020
5308 Clouds 9 1005 76 10000 9.3 160 09:31 05.04.2020
5309 Clouds 9 1005 76 10000 9.3 160 09:02 05.04.2020
5310 Clouds 10 1005 76 10000 9.3 160 09:02 05.04.2020
5311 Clouds 9 1005 76 10000 9.3 160 09:02 05.04.2020
5312 Clouds 9 1006 76 10000 4.6 140 07:31 05.04.2020
5313 Clouds 8 1009 81 10000 5.1 110 04:36 05.04.2020
5314 Clouds 9 1010 76 10000 8.2 150 03:31 05.04.2020
5315 Clouds 9 1010 76 10000 7.7 150 02:49 05.04.2020
5316 Clouds 10 1011 66 10000 7.7 150 01:47 05.04.2020
5317 Clouds 10 1011 66 10000 7.2 150 01:28 05.04.2020
5318 Clouds 9 1011 66 10000 7.7 160 00:44 05.04.2020
5319 Clouds 9 1011 57 10000 6.7 150 00:21 05.04.2020
5320 Clouds 9 1011 61 10000 5.1 170 23:43 04.04.2020
5321 Clouds 9 1011 66 10000 6.7 170 23:23 04.04.2020
5322 Clouds 10 1011 66 10000 7.7 160 22:59 04.04.2020
5323 Clouds 9 1011 66 10000 7.7 160 22:40 04.04.2020
5324 Clouds 10 1011 71 10000 6.7 160 22:21 04.04.2020
5325 Clouds 10 1011 71 10000 6.7 160 21:58 04.04.2020
5326 Clouds 10 1011 71 10000 3.6 140 21:39 04.04.2020
5327 Clouds 10 1011 71 10000 4.1 150 21:19 04.04.2020
5328 Rain 10 1011 66 10000 5.7 170 20:58 04.04.2020
5329 Rain 11 1011 66 10000 5.7 170 20:39 04.04.2020
5330 Rain 11 1011 62 10000 6.7 170 20:20 04.04.2020
5331 Rain 11 1011 62 10000 6.2 180 19:57 04.04.2020
5332 Rain 11 1011 62 10000 7.2 180 19:37 04.04.2020
5333 Rain 11 1011 62 10000 7.2 180 19:19 04.04.2020
5334 Clouds 11 1011 62 10000 7.2 180 18:55 04.04.2020
5335 Clouds 11 1011 62 10000 7.2 180 18:37 04.04.2020
5336 Clouds 11 1011 62 10000 5.1 160 18:18 04.04.2020
5337 Clouds 11 1012 62 10000 6.7 180 17:41 04.04.2020
5338 Clouds 11 1012 54 10000 6.2 160 17:20 04.04.2020
5339 Clouds 11 1012 76 10000 3.6 140 16:56 04.04.2020
5340 Clouds 11 1012 76 10000 3.6 140 16:38 04.04.2020
5341 Clouds 11 1013 66 10000 5.1 150 16:19 04.04.2020
5342 Clouds 10 1013 61 10000 6.2 180 15:42 04.04.2020
5343 Clouds 10 1013 61 10000 5.1 190 15:24 04.04.2020
5344 Clouds 10 1013 61 10000 5.1 190 14:59 04.04.2020
5345 Rain 10 1014 66 10000 5.7 210 14:40 04.04.2020
5346 Clouds 10 1014 57 10000 5.1 190 14:22 04.04.2020
5347 Clouds 10 1014 57 10000 5.1 130 13:56 04.04.2020
5348 Clouds 10 1014 57 10000 5.1 130 13:37 04.04.2020
5349 Clouds 10 1014 61 10000 4.6 150 13:19 04.04.2020
5350 Clouds 10 1014 53 10000 5.1 150 12:44 04.04.2020
5351 Clouds 10 1014 61 10000 6.2 170 12:24 04.04.2020
5352 Clouds 10 1014 70 10000 5.7 150 11:59 04.04.2020
5353 Clouds 9 1014 70 10000 5.7 150 11:38 04.04.2020
5354 Clouds 9 1014 70 10000 4.6 150 11:19 04.04.2020
5355 Clouds 9 1015 70 10000 4.1 150 10:56 04.04.2020
5356 Clouds 9 1015 70 10000 4.1 150 10:37 04.04.2020
5357 Clouds 8 1015 70 10000 4.6 180 10:19 04.04.2020
5358 Clouds 7 1014 70 10000 3.1 160 09:54 04.04.2020
5359 Clouds 7 1014 70 10000 3.1 160 09:36 04.04.2020
5360 Clouds 7 1014 75 10000 3.1 180 09:18 04.04.2020
5361 Clouds 6 1015 75 10000 3.6 200 08:41 04.04.2020
5362 Clouds 6 1014 75 10000 4.6 210 08:20 04.04.2020
5363 Clouds 7 1014 81 10000 3.1 200 07:44 04.04.2020
5364 Clouds 7 1014 81 10000 3.6 210 07:26 04.04.2020
5365 Clouds 7 1015 81 10000 3.6 200 06:51 04.04.2020
5366 Clouds 7 1015 81 10000 2.6 220 06:19 04.04.2020
5367 Clouds 7 1015 87 10000 3.1 210 05:42 04.04.2020
5368 Rain 7 1015 87 10000 3.1 230 05:23 04.04.2020
5369 Clouds 8 1015 75 10000 2.6 210 04:30 04.04.2020
5370 Clouds 8 1015 81 10000 2.1 200 03:49 04.04.2020
5371 Clouds 8 1016 81 10000 2.6 230 02:51 04.04.2020
5372 Clouds 8 1016 81 10000 2.1 230 02:32 04.04.2020
5373 Clouds 7 1016 87 10000 2.1 250 01:53 04.04.2020
5374 Clouds 7 1016 81 10000 2.1 230 01:25 04.04.2020
5375 Clouds 7 1016 81 10000 1.5 210 00:48 04.04.2020
5376 Clouds 8 1016 75 10000 1 0 00:29 04.04.2020
5377 Clouds 8 1016 70 10000 1.5 0 23:39 03.04.2020
5378 Rain 8 1016 70 10000 1 0 23:21 03.04.2020
5379 Clouds 8 1016 70 10000 0.5 0 22:58 03.04.2020
5380 Clouds 8 1016 70 10000 0.5 0 22:39 03.04.2020
5381 Clouds 8 1016 66 10000 1.5 0 22:18 03.04.2020
5382 Clouds 8 1015 66 10000 3.1 260 21:44 03.04.2020
5383 Clouds 9 1015 70 10000 3.1 260 21:24 03.04.2020
5384 Clouds 9 1015 70 10000 4.1 260 20:57 03.04.2020
5385 Clouds 9 1015 70 10000 4.1 260 20:37 03.04.2020
5386 Clouds 10 1015 66 10000 5.1 270 20:19 03.04.2020
5387 Clouds 10 1015 62 10000 3.6 240 19:57 03.04.2020
5388 Clouds 10 1015 66 10000 5.1 250 19:38 03.04.2020
5389 Clouds 10 1015 66 10000 5.1 250 19:20 03.04.2020
5390 Clouds 10 1015 71 10000 7.2 280 18:59 03.04.2020
5391 Clouds 10 1015 71 10000 7.2 280 18:41 03.04.2020
5392 Rain 10 1015 66 10000 3.6 230 18:22 03.04.2020
5393 Rain 10 1015 76 10000 3.6 230 17:55 03.04.2020
5394 Rain 10 1015 76 10000 3.6 230 17:36 03.04.2020
5395 Rain 11 1015 71 10000 4.1 230 17:18 03.04.2020
5396 Rain 11 1015 87 10000 3.1 240 16:43 03.04.2020
5397 Rain 10 1016 87 10000 3.6 250 16:21 03.04.2020
5398 Rain 10 1016 71 10000 4.6 240 15:58 03.04.2020
5399 Rain 11 1016 71 10000 4.6 240 15:39 03.04.2020
5400 Clouds 11 1016 62 10000 3.1 250 15:20 03.04.2020
5401 Clouds 11 1016 62 10000 4.1 250 14:56 03.04.2020
5402 Rain 11 1016 81 0 4.92 230 14:37 03.04.2020
5403 Clouds 11 1017 71 10000 4.1 260 14:19 03.04.2020
5404 Clouds 11 1017 71 10000 4.1 260 13:43 03.04.2020
5405 Clouds 11 1017 71 10000 4.1 260 13:25 03.04.2020
5406 Clouds 10 1017 61 10000 4.6 270 12:55 03.04.2020
5407 Clouds 10 1017 61 10000 4.6 270 12:37 03.04.2020
5408 Clouds 10 1017 61 10000 4.6 280 12:18 03.04.2020
5409 Clouds 9 1017 70 10000 5.1 270 11:41 03.04.2020
5410 Clouds 8 1017 75 10000 5.7 270 11:23 03.04.2020
5411 Clouds 8 1016 75 10000 4.6 250 10:59 03.04.2020
5412 Clouds 8 1016 75 10000 4.6 250 10:40 03.04.2020
5413 Clouds 8 1016 87 10000 4.1 250 10:21 03.04.2020
5414 Clouds 7 1016 81 10000 3.6 250 09:59 03.04.2020
5415 Clouds 7 1016 81 10000 3.6 250 09:40 03.04.2020
5416 Clouds 7 1016 81 10000 3.6 240 09:22 03.04.2020
5417 Clouds 6 1016 87 10000 3.1 240 08:57 03.04.2020
5418 Clouds 6 1016 87 10000 3.1 240 08:38 03.04.2020
5419 Clouds 6 1016 87 10000 3.1 240 08:20 03.04.2020
5420 Clouds 6 1016 87 10000 2.6 230 07:48 03.04.2020
5421 Clouds 6 1016 93 10000 2.6 240 07:29 03.04.2020
5422 Clouds 6 1016 86 10000 3.6 260 06:42 03.04.2020
5423 Clouds 6 1016 86 10000 4.1 270 06:23 03.04.2020
5424 Clouds 6 1016 86 10000 4.1 270 05:39 03.04.2020
5425 Clouds 6 1016 81 10000 4.6 270 03:42 03.04.2020
5426 Rain 6 1017 87 10000 3.6 280 02:56 03.04.2020
5427 Rain 6 1017 87 10000 3.6 280 02:27 03.04.2020
5428 Clouds 5 1017 86 10000 4.6 270 01:22 03.04.2020
5429 Clouds 6 1017 80 10000 3.6 290 00:37 03.04.2020
5430 Clouds 6 1016 81 10000 5.1 280 00:19 03.04.2020
5431 Clouds 7 1016 81 10000 4.6 290 23:42 02.04.2020
5432 Clouds 7 1016 70 10000 5.7 290 23:23 02.04.2020
5433 Clouds 7 1016 70 10000 5.7 290 22:58 02.04.2020
5434 Clouds 7 1016 75 10000 5.7 300 22:38 02.04.2020
5435 Clouds 8 1016 75 10000 6.2 290 22:20 02.04.2020
5436 Clouds 8 1016 70 10000 6.7 290 21:39 02.04.2020
5437 Clouds 8 1016 75 10000 5.7 290 21:20 02.04.2020
5438 Clouds 9 1016 75 10000 7.2 290 20:58 02.04.2020
5439 Clouds 9 1016 75 10000 7.2 290 20:40 02.04.2020
5440 Clouds 9 1016 75 10000 7.2 290 20:40 02.04.2020
5441 Clouds 9 1016 76 10000 8.7 310 20:21 02.04.2020
5442 Clouds 10 1015 76 10000 6.7 300 19:44 02.04.2020
5443 Clouds 10 1015 71 10000 7.7 300 19:21 02.04.2020
5444 Clouds 10 1015 71 10000 7.7 310 18:58 02.04.2020
5445 Clouds 10 1015 71 10000 7.7 310 18:39 02.04.2020
5446 Clouds 10 1015 76 10000 10.8 290 18:39 02.04.2020
5447 Clouds 10 1015 76 10000 10.8 290 18:39 02.04.2020
5448 Rain 10 1015 76 10000 10.8 290 18:20 02.04.2020
5449 Rain 10 1015 76 10000 7.7 300 17:56 02.04.2020
5450 Rain 10 1015 76 10000 7.7 300 17:38 02.04.2020
5451 Rain 11 1015 76 10000 9.8 300 17:19 02.04.2020
5452 Clouds 11 1015 81 10000 9.3 300 16:55 02.04.2020
5453 Clouds 11 1015 81 10000 9.3 300 16:37 02.04.2020
5454 Rain 10 1015 87 10000 8.2 310 16:18 02.04.2020
5455 Rain 10 1015 81 6000 9.3 270 15:44 02.04.2020
5456 Rain 11 1015 81 10000 10.3 280 15:21 02.04.2020
5457 Rain 11 1015 81 10000 9.3 280 14:59 02.04.2020
5458 Rain 11 1015 81 10000 9.3 280 14:40 02.04.2020
5459 Rain 11 1015 76 10000 10.3 280 14:19 02.04.2020
5460 Drizzle 11 1015 76 10000 10.8 270 13:56 02.04.2020
5461 Drizzle 11 1015 76 10000 10.8 270 13:38 02.04.2020
5462 Clouds 10 1015 81 10000 11.8 280 13:20 02.04.2020
5463 Clouds 10 1015 76 10000 11.3 280 12:55 02.04.2020
5464 Clouds 10 1015 76 10000 11.3 280 12:55 02.04.2020
5465 Clouds 10 1015 76 10000 11.3 280 12:36 02.04.2020
5466 Clouds 9 1016 81 10000 9.8 270 12:18 02.04.2020
5467 Clouds 9 1016 81 10000 9.8 270 11:55 02.04.2020
5468 Clouds 9 1016 81 10000 9.8 270 11:55 02.04.2020
5469 Clouds 9 1016 81 10000 9.8 270 11:36 02.04.2020
5470 Clouds 8 1016 87 10000 9.8 270 11:18 02.04.2020
5471 Clouds 8 1016 87 10000 7.7 260 10:54 02.04.2020
5472 Clouds 8 1017 81 10000 7.7 260 10:36 02.04.2020
5473 Clouds 8 1017 81 10000 7.7 260 10:18 02.04.2020
5474 Clouds 8 1017 81 10000 7.2 260 09:42 02.04.2020
5475 Clouds 8 1017 81 10000 7.7 260 09:24 02.04.2020
5476 Clouds 8 1017 81 10000 7.7 260 08:58 02.04.2020
5477 Clouds 7 1017 87 10000 7.7 260 08:39 02.04.2020
5478 Clouds 7 1017 93 10000 7.7 260 08:19 02.04.2020
5479 Clouds 7 1017 93 10000 7.7 270 07:42 02.04.2020
5480 Clouds 7 1018 93 10000 5.1 250 07:19 02.04.2020
5481 Drizzle 7 1018 93 10000 4.6 250 06:46 02.04.2020
5482 Drizzle 7 1018 93 10000 5.7 270 06:20 02.04.2020
5483 Clouds 7 1019 93 10000 6.2 270 05:42 02.04.2020
5484 Drizzle 7 1021 93 5000 4.6 270 03:24 02.04.2020
5485 Clouds 7 1021 87 10000 5.1 270 01:31 02.04.2020
5486 Clouds 7 1021 81 10000 5.7 270 00:42 02.04.2020
5487 Clouds 7 1022 81 10000 5.1 270 00:24 02.04.2020
5488 Clouds 7 1022 81 10000 5.1 270 23:41 01.04.2020
5489 Clouds 7 1022 75 10000 4.6 270 23:20 01.04.2020
5490 Clouds 7 1022 75 10000 4.1 260 22:58 01.04.2020
5491 Clouds 7 1022 75 10000 4.1 260 22:39 01.04.2020
5492 Clouds 8 1022 75 10000 5.1 280 22:21 01.04.2020
5493 Clouds 8 1022 70 10000 3.6 290 21:42 01.04.2020
5494 Clouds 8 1022 70 10000 3.6 290 21:42 01.04.2020
5495 Clouds 9 1022 70 10000 5.1 310 21:22 01.04.2020
5496 Clouds 9 1022 70 10000 5.1 310 21:22 01.04.2020
5497 Clouds 9 1022 70 10000 5.1 310 21:22 01.04.2020
5498 Clouds 9 1023 70 10000 6.2 310 20:58 01.04.2020
5499 Clouds 9 1023 70 10000 6.2 310 20:40 01.04.2020
5500 Clouds 9 1023 61 10000 6.7 310 20:21 01.04.2020
5501 Clouds 9 1023 61 10000 7.2 310 20:00 01.04.2020
5502 Clouds 9 1023 61 10000 7.2 310 19:41 01.04.2020
5503 Clouds 9 1023 61 10000 7.7 320 19:21 01.04.2020
5504 Clouds 10 1023 53 10000 6.7 320 18:46 01.04.2020
5505 Clouds 10 1023 53 10000 6.2 310 18:26 01.04.2020
5506 Clouds 10 1024 53 10000 6.2 320 17:58 01.04.2020
5507 Clouds 9 1024 53 10000 6.2 320 17:38 01.04.2020
5508 Clouds 9 1024 57 10000 6.7 300 17:20 01.04.2020
5509 Clouds 9 1024 57 10000 6.7 300 16:59 01.04.2020
5510 Clouds 9 1024 61 10000 5.7 310 16:40 01.04.2020
5511 Clouds 9 1025 65 10000 4.6 310 16:22 01.04.2020
5512 Clouds 9 1025 61 10000 5.1 310 15:58 01.04.2020
5513 Clouds 9 1025 61 10000 5.1 310 15:38 01.04.2020
5514 Clouds 9 1025 57 10000 5.7 320 15:20 01.04.2020
5515 Clouds 8 1025 65 10000 7.2 300 14:56 01.04.2020
5516 Clouds 8 1025 65 10000 7.2 300 14:38 01.04.2020
5517 Clouds 8 1026 65 10000 4.6 320 14:19 01.04.2020
5518 Clouds 8 1026 65 10000 6.2 310 13:57 01.04.2020
5519 Clouds 8 1026 65 10000 6.2 310 13:37 01.04.2020
5520 Clouds 8 1026 65 10000 6.2 290 13:18 01.04.2020
5521 Clouds 8 1026 65 10000 6.2 310 12:43 01.04.2020
5522 Clouds 8 1027 70 10000 6.2 310 12:24 01.04.2020
5523 Clouds 7 1027 75 10000 6.2 310 11:59 01.04.2020
5524 Clouds 7 1027 75 10000 6.2 310 11:40 01.04.2020
5525 Clouds 7 1027 75 10000 5.7 310 11:21 01.04.2020
5526 Clouds 6 1027 81 10000 5.1 300 10:56 01.04.2020
5527 Clouds 6 1027 81 10000 5.1 300 10:37 01.04.2020
5528 Clouds 6 1027 81 10000 4.6 300 10:18 01.04.2020
5529 Clouds 5 1027 86 10000 4.6 300 09:40 01.04.2020
5530 Clouds 5 1028 86 10000 4.6 290 09:22 01.04.2020
5531 Clouds 5 1028 86 10000 3.6 290 08:59 01.04.2020
5532 Clouds 5 1028 86 10000 3.6 290 08:40 01.04.2020
5533 Clouds 5 1028 86 10000 3.6 290 08:40 01.04.2020
5534 Clouds 5 1028 93 10000 4.1 300 08:18 01.04.2020
5535 Clouds 5 1028 86 10000 3.1 290 07:42 01.04.2020
5536 Clouds 5 1028 80 10000 3.6 300 07:20 01.04.2020
5537 Clouds 5 1028 86 10000 4.1 300 06:47 01.04.2020
5538 Clouds 5 1029 80 10000 4.1 310 06:22 01.04.2020
5539 Clouds 5 1029 80 10000 3.6 310 05:53 01.04.2020
5540 Clouds 6 1030 80 10000 4.1 320 04:30 01.04.2020
5541 Clouds 6 1030 75 10000 2.6 310 03:27 01.04.2020
5542 Clouds 6 1031 70 10000 3.6 340 02:46 01.04.2020
5543 Clouds 6 1031 71 10000 4.6 350 01:53 01.04.2020
5544 Clouds 7 1031 71 10000 4.6 350 01:29 01.04.2020
5545 Clouds 7 1032 71 10000 3.6 360 00:48 01.04.2020
5546 Clouds 7 1032 65 10000 3.6 350 00:25 01.04.2020
5547 Clouds 7 1032 65 10000 4.1 350 23:59 31.03.2020
5548 Clouds 7 1032 65 10000 4.1 350 23:41 31.03.2020
5549 Clouds 7 1033 65 10000 4.6 360 23:22 31.03.2020
5550 Clouds 7 1033 65 10000 4.6 360 23:22 31.03.2020
5551 Clouds 7 1033 75 10000 4.6 10 22:42 31.03.2020
5552 Clouds 7 1033 70 10000 4.1 360 22:22 31.03.2020
5553 Clouds 7 1033 70 10000 4.1 10 21:59 31.03.2020
5554 Clouds 7 1033 70 10000 4.1 10 21:40 31.03.2020
5555 Clouds 8 1033 65 10000 3.6 10 21:22 31.03.2020
5556 Clouds 8 1033 70 10000 3.6 360 20:58 31.03.2020
5557 Clouds 8 1033 65 10000 2.6 60 20:38 31.03.2020
5558 Clouds 8 1033 65 10000 2.6 60 20:19 31.03.2020
5559 Clouds 8 1033 70 10000 4.1 10 19:57 31.03.2020
5560 Clouds 8 1033 70 10000 4.1 10 19:39 31.03.2020
5561 Clouds 8 1033 70 10000 3.6 10 19:21 31.03.2020
5562 Clouds 8 1033 66 10000 4.6 10 18:46 31.03.2020
5563 Clouds 9 1033 66 10000 3.6 10 18:21 31.03.2020
5564 Clouds 9 1034 66 10000 4.1 40 17:58 31.03.2020
5565 Clouds 9 1034 66 10000 4.1 40 17:40 31.03.2020
5566 Clouds 9 1034 76 10000 3.6 70 17:21 31.03.2020
5567 Clouds 9 1034 76 10000 3.6 70 17:21 31.03.2020
5568 Clouds 9 1034 76 10000 4.1 80 16:57 31.03.2020
5569 Clouds 9 1034 76 10000 4.1 80 16:37 31.03.2020
5570 Clouds 9 1035 70 10000 4.1 90 16:18 31.03.2020
5571 Clouds 9 1035 70 10000 3.6 80 15:56 31.03.2020
5572 Clouds 9 1035 70 10000 3.6 80 15:37 31.03.2020
5573 Clouds 9 1035 66 10000 3.6 50 15:18 31.03.2020
5574 Clouds 9 1036 66 10000 3.6 60 14:43 31.03.2020
5575 Clouds 9 1036 70 10000 4.1 60 14:24 31.03.2020
5576 Clouds 9 1036 70 10000 3.6 60 13:59 31.03.2020
5577 Clouds 9 1036 70 10000 3.6 60 13:41 31.03.2020
5578 Clouds 9 1036 70 10000 4.1 40 13:19 31.03.2020
5579 Clouds 8 1036 81 10000 4.6 20 12:46 31.03.2020
5580 Clouds 7 1037 81 10000 4.1 20 12:21 31.03.2020
5581 Clouds 7 1037 81 10000 4.6 20 11:59 31.03.2020
5582 Clouds 7 1037 81 10000 4.6 20 11:38 31.03.2020
5583 Clouds 6 1037 81 10000 4.6 20 11:19 31.03.2020
5584 Clouds 6 1037 87 10000 4.1 10 10:56 31.03.2020
5585 Clouds 6 1037 87 10000 4.1 10 10:38 31.03.2020
5586 Clouds 5 1037 87 10000 3.6 10 10:20 31.03.2020
5587 Clouds 5 1037 93 10000 3.6 360 09:45 31.03.2020
5588 Clouds 5 1037 86 10000 3.1 10 09:27 31.03.2020
5589 Clouds 4 1037 86 10000 3.6 10 08:59 31.03.2020
5590 Clouds 4 1037 86 10000 3.6 10 08:41 31.03.2020
5591 Clouds 4 1037 93 10000 3.1 10 08:21 31.03.2020
5592 Clouds 4 1036 93 10000 4.1 10 07:59 31.03.2020
5593 Clouds 4 1036 93 10000 4.1 10 07:41 31.03.2020
5594 Clouds 4 1036 93 10000 3.1 360 07:22 31.03.2020
5595 Clouds 4 1037 93 10000 2.6 340 06:55 31.03.2020
5596 Clouds 4 1037 93 10000 2.6 340 06:36 31.03.2020
5597 Clouds 4 1036 93 10000 1.5 0 05:42 31.03.2020
5598 Clouds 4 1036 93 10000 3.1 320 05:20 31.03.2020
5599 Clouds 3 1037 93 10000 4.1 340 02:40 31.03.2020
5600 Clouds 3 1037 93 10000 3.6 340 01:47 31.03.2020
5601 Clouds 3 1037 93 10000 4.6 340 01:19 31.03.2020
5602 Clouds 4 1037 86 10000 4.1 350 00:42 31.03.2020
5603 Clouds 4 1037 86 10000 4.1 340 00:19 31.03.2020
5604 Clouds 5 1038 86 10000 4.1 340 23:39 30.03.2020
5605 Clouds 5 1038 86 10000 4.1 350 23:20 30.03.2020
5606 Clouds 5 1038 86 10000 4.1 350 22:57 30.03.2020
5607 Clouds 6 1038 80 10000 4.6 350 22:38 30.03.2020
5608 Clouds 6 1038 80 10000 4.1 350 22:18 30.03.2020
5609 Clouds 6 1038 81 10000 3.6 350 21:57 30.03.2020
5610 Clouds 7 1038 81 10000 3.6 350 21:37 30.03.2020
5611 Clouds 7 1038 75 10000 4.1 360 21:19 30.03.2020
5612 Rain 7 1037 75 10000 3.1 10 20:56 30.03.2020
5613 Rain 7 1037 75 10000 3.1 10 20:37 30.03.2020
5614 Rain 7 1037 75 10000 3.1 20 20:19 30.03.2020
5615 Clouds 7 1037 75 10000 3.1 10 19:41 30.03.2020
5616 Clouds 7 1037 75 10000 3.1 10 19:41 30.03.2020
5617 Rain 8 1038 70 10000 3.6 20 19:22 30.03.2020
5618 Rain 8 1038 70 10000 3.6 20 19:22 30.03.2020
5619 Rain 8 1038 70 10000 4.1 30 18:57 30.03.2020
5620 Rain 8 1038 70 10000 4.1 30 18:39 30.03.2020
5621 Rain 8 1038 70 10000 4.1 30 18:39 30.03.2020
5622 Clouds 8 1038 70 10000 4.6 40 18:21 30.03.2020
5623 Clouds 8 1038 70 10000 4.6 50 17:57 30.03.2020
5624 Clouds 8 1038 70 10000 4.6 50 17:38 30.03.2020
5625 Clouds 8 1038 70 10000 5.7 20 17:19 30.03.2020
5626 Clouds 8 1038 70 10000 5.7 20 16:56 30.03.2020
5627 Clouds 8 1038 70 10000 5.7 20 16:56 30.03.2020
5628 Clouds 8 1038 70 10000 5.7 20 16:38 30.03.2020
5629 Clouds 8 1038 70 10000 5.1 20 16:20 30.03.2020
5630 Rain 8 1039 66 10000 4.6 10 15:55 30.03.2020
5631 Rain 8 1039 66 10000 4.6 10 15:36 30.03.2020
5632 Rain 8 1039 75 10000 6.2 10 15:18 30.03.2020
5633 Rain 8 1039 70 10000 5.1 10 14:54 30.03.2020
5634 Rain 8 1039 70 10000 5.1 10 14:36 30.03.2020
5635 Clouds 8 1040 70 10000 6.2 10 14:18 30.03.2020
5636 Clouds 8 1040 70 10000 5.7 20 13:43 30.03.2020
5637 Clouds 7 1040 70 10000 7.2 10 13:21 30.03.2020
5638 Clouds 7 1040 75 10000 5.1 360 12:57 30.03.2020
5639 Clouds 7 1040 75 10000 5.1 360 12:38 30.03.2020
5640 Clouds 7 1040 75 10000 5.1 360 12:38 30.03.2020
5641 Clouds 7 1040 81 10000 6.7 350 12:19 30.03.2020
5642 Clouds 7 1041 81 10000 5.1 350 11:56 30.03.2020
5643 Clouds 6 1041 81 10000 5.1 350 11:38 30.03.2020
5644 Clouds 6 1041 81 10000 5.1 340 11:20 30.03.2020
5645 Clouds 6 1041 81 10000 6.2 340 10:39 30.03.2020
5646 Clouds 4 1041 86 10000 4.6 310 10:21 30.03.2020
5647 Clouds 3 1041 86 10000 4.1 290 09:55 30.03.2020
5648 Clouds 3 1041 86 10000 4.1 290 09:37 30.03.2020
5649 Clouds 2 1041 88 10000 4.6 300 09:18 30.03.2020
5650 Clouds 1 1042 88 10000 4.6 310 08:40 30.03.2020
5651 Clouds 1 1042 88 10000 4.1 270 08:22 30.03.2020
5652 Clouds 1 1042 86 10000 4.1 290 07:49 30.03.2020
5653 Clouds 1 1042 86 10000 4.1 290 07:26 30.03.2020
5654 Clouds 1 1042 86 10000 4.6 310 06:52 30.03.2020
5655 Clouds 1 1043 80 10000 4.6 310 06:30 30.03.2020
5656 Clouds 1 1043 80 10000 5.1 310 05:52 30.03.2020
5657 Clouds 1 1043 80 10000 4.6 320 05:18 30.03.2020
5658 Clouds 0 1044 80 10000 5.1 320 04:22 30.03.2020
5659 Clouds 0 1044 89 10000 4.6 320 03:34 30.03.2020
5660 Clear 1 1045 85 10000 5.1 330 02:37 30.03.2020
5661 Clouds 0 1046 84 10000 4.6 350 01:26 30.03.2020
5662 Clouds 1 1046 80 10000 3.6 350 00:33 30.03.2020
5663 Clouds 1 1046 78 10000 3.6 360 23:59 29.03.2020
5664 Clouds 1 1046 78 10000 3.6 360 23:41 29.03.2020
5665 Clouds 2 1046 69 10000 3.1 360 23:22 29.03.2020
5666 Clouds 2 1046 78 10000 3.6 20 22:56 29.03.2020
5667 Clouds 2 1046 78 10000 3.6 20 22:37 29.03.2020
5668 Clouds 2 1046 69 10000 3.6 40 22:18 29.03.2020
5669 Clouds 2 1046 69 10000 3.6 40 21:40 29.03.2020
5670 Clouds 3 1047 64 10000 5.1 40 21:21 29.03.2020
5671 Clouds 3 1047 59 10000 5.7 40 20:56 29.03.2020
5672 Clouds 4 1047 55 10000 6.7 40 20:37 29.03.2020
5673 Clouds 4 1047 55 10000 6.7 40 20:19 29.03.2020
5674 Clouds 5 1047 56 10000 7.2 60 19:58 29.03.2020
5675 Clouds 5 1047 56 10000 7.2 60 19:40 29.03.2020
5676 Clouds 5 1047 56 10000 5.7 50 19:22 29.03.2020
5677 Clouds 5 1047 56 10000 7.7 50 18:57 29.03.2020
5678 Clouds 5 1047 56 10000 7.7 50 18:38 29.03.2020
5679 Clouds 5 1047 52 10000 7.2 40 18:20 29.03.2020
5680 Clouds 6 1047 52 10000 8.2 20 17:56 29.03.2020
5681 Clouds 5 1047 52 10000 8.2 20 17:38 29.03.2020
5682 Clouds 5 1047 52 10000 7.2 40 17:19 29.03.2020
5683 Clouds 5 1047 60 10000 7.7 40 16:56 29.03.2020
5684 Clouds 5 1047 60 10000 7.7 40 16:38 29.03.2020
5685 Clouds 5 1047 56 10000 7.7 40 16:19 29.03.2020
5686 Clouds 5 1047 56 10000 8.2 50 15:41 29.03.2020
5687 Clouds 5 1047 56 10000 8.2 50 15:41 29.03.2020
5688 Clouds 5 1047 56 10000 8.2 40 15:23 29.03.2020
5689 Clouds 5 1047 56 10000 8.2 40 14:58 29.03.2020
5690 Clouds 5 1047 60 10000 8.2 40 14:40 29.03.2020
5691 Clouds 5 1047 56 10000 8.7 60 14:20 29.03.2020
5692 Clouds 5 1047 56 10000 8.7 60 13:58 29.03.2020
5693 Clouds 5 1047 56 10000 7.7 50 13:39 29.03.2020
5694 Clouds 5 1047 56 10000 7.7 50 13:20 29.03.2020
5695 Clouds 5 1047 56 10000 8.2 40 12:56 29.03.2020
5696 Clouds 5 1047 56 10000 7.7 50 12:37 29.03.2020
5697 Clouds 5 1047 56 10000 7.7 50 12:37 29.03.2020
5698 Clouds 5 1047 56 10000 7.7 50 12:19 29.03.2020
5699 Clouds 5 1047 56 10000 8.2 60 11:55 29.03.2020
5700 Clouds 5 1047 56 10000 8.2 60 11:37 29.03.2020
5701 Clouds 5 1047 60 10000 7.7 50 11:18 29.03.2020
5702 Clouds 4 1047 55 10000 7.7 50 10:38 29.03.2020
5703 Clouds 4 1046 51 10000 8.7 60 10:19 29.03.2020
5704 Clouds 3 1046 59 10000 7.2 70 09:41 29.03.2020
5705 Clouds 4 1046 55 10000 7.2 60 09:22 29.03.2020
5706 Clouds 3 1046 55 10000 8.2 60 08:54 29.03.2020
5707 Clouds 3 1046 55 10000 8.2 60 08:36 29.03.2020
5708 Clouds 3 1045 59 10000 8.7 60 08:18 29.03.2020
5709 Clouds 4 1045 55 10000 7.7 60 07:42 29.03.2020
5710 Clouds 3 1045 59 10000 8.2 60 07:21 29.03.2020
5711 Clouds 3 1044 64 10000 9.3 60 05:50 29.03.2020
5712 Clouds 4 1044 69 10000 8.2 60 04:29 29.03.2020
5713 Clouds 4 1044 69 10000 8.7 60 03:31 29.03.2020
5714 Clouds 4 1043 69 10000 10.3 60 01:51 29.03.2020
5715 Clouds 4 1043 60 10000 10.8 60 01:23 29.03.2020
5716 Clouds 4 1043 60 10000 8.7 60 00:58 29.03.2020
5717 Clouds 4 1042 51 10000 10.8 60 00:33 29.03.2020
5718 Clouds 5 1042 52 10000 9.3 60 23:57 28.03.2020
5719 Clouds 5 1042 52 10000 9.3 60 23:39 28.03.2020
5720 Clouds 5 1042 60 10000 9.8 60 23:19 28.03.2020
5721 Clouds 5 1041 60 10000 10.8 60 22:41 28.03.2020
5722 Clouds 6 1041 66 10000 11.8 60 22:22 28.03.2020
5723 Clouds 6 1040 70 10000 9.3 60 21:56 28.03.2020
5724 Clouds 6 1040 70 10000 9.3 60 21:37 28.03.2020
5725 Clouds 6 1040 70 10000 7.2 70 21:19 28.03.2020
5726 Clouds 6 1039 70 10000 7.7 60 20:42 28.03.2020
5727 Clouds 7 1039 70 10000 6.7 60 20:24 28.03.2020
5728 Clouds 7 1039 70 10000 6.7 60 20:24 28.03.2020
5729 Clouds 7 1039 70 10000 7.7 50 19:58 28.03.2020
5730 Clouds 7 1039 70 10000 7.7 50 19:39 28.03.2020
5731 Clouds 7 1038 70 10000 8.7 40 19:21 28.03.2020
5732 Clouds 8 1038 70 10000 8.2 40 18:59 28.03.2020
5733 Clouds 8 1038 70 10000 8.2 40 18:39 28.03.2020
5734 Clouds 8 1038 65 10000 7.7 40 18:20 28.03.2020
5735 Clouds 8 1038 65 10000 8.7 40 17:40 28.03.2020
5736 Clouds 9 1038 61 10000 8.7 40 17:22 28.03.2020
5737 Clouds 8 1037 61 10000 9.3 40 16:57 28.03.2020
5738 Clouds 8 1037 61 10000 9.3 40 16:37 28.03.2020
5739 Clouds 8 1037 66 10000 8.7 50 16:18 28.03.2020
5740 Clouds 8 1037 75 10000 8.2 50 15:39 28.03.2020
5741 Clouds 8 1037 70 10000 10.3 50 15:19 28.03.2020
5742 Clouds 8 1037 70 10000 9.8 50 14:57 28.03.2020
5743 Clouds 8 1037 70 10000 9.8 50 14:38 28.03.2020
5744 Clouds 8 1037 70 10000 10.8 50 14:20 28.03.2020
5745 Clouds 8 1037 70 10000 10.3 50 13:41 28.03.2020
5746 Clouds 8 1037 70 10000 10.3 50 13:22 28.03.2020
5747 Clouds 8 1037 70 10000 9.8 40 12:40 28.03.2020
5748 Clouds 8 1036 70 10000 10.8 40 12:22 28.03.2020
5749 Clouds 8 1036 70 10000 10.8 40 12:22 28.03.2020
5750 Clouds 8 1036 70 10000 9.8 30 11:43 28.03.2020
5751 Clouds 8 1036 66 10000 8.7 40 11:23 28.03.2020
5752 Clouds 8 1036 66 10000 8.7 40 11:23 28.03.2020
5753 Clouds 8 1036 75 10000 8.7 40 10:58 28.03.2020
5754 Clouds 8 1036 75 10000 8.7 40 10:38 28.03.2020
5755 Clouds 8 1035 70 10000 9.3 50 10:18 28.03.2020
5756 Clouds 7 1035 70 10000 8.7 50 09:42 28.03.2020
5757 Clouds 7 1035 70 10000 9.3 50 09:23 28.03.2020
5758 Clouds 7 1034 70 10000 8.2 40 08:55 28.03.2020
5759 Clouds 6 1034 70 10000 8.2 40 08:37 28.03.2020
5760 Clouds 6 1034 81 10000 7.7 40 08:18 28.03.2020
5761 Clouds 6 1034 81 10000 7.7 40 07:41 28.03.2020
5762 Clouds 7 1033 87 10000 5.7 30 06:58 28.03.2020
5763 Clouds 7 1033 87 10000 4.1 40 06:34 28.03.2020
5764 Clouds 7 1033 87 10000 4.1 40 05:41 28.03.2020
5765 Clouds 7 1033 100 10000 3.6 30 05:21 28.03.2020
5766 Clouds 6 1032 100 10000 4.1 40 04:40 28.03.2020
5767 Clouds 7 1032 93 10000 6.7 50 03:21 28.03.2020
5768 Clouds 7 1031 93 10000 6.7 40 01:49 28.03.2020
5769 Clouds 7 1031 87 10000 6.2 40 01:25 28.03.2020
5770 Clouds 7 1031 87 10000 7.2 40 00:55 28.03.2020
5771 Clouds 7 1031 87 10000 7.2 40 00:35 28.03.2020
5772 Clouds 7 1031 87 10000 4.6 40 23:54 27.03.2020
5773 Clouds 7 1031 87 10000 4.6 20 23:36 27.03.2020
5774 Clouds 7 1031 87 10000 4.6 20 23:18 27.03.2020
5775 Clouds 7 1030 93 10000 5.7 20 22:54 27.03.2020
5776 Clouds 7 1030 93 10000 5.7 20 22:36 27.03.2020
5777 Clouds 7 1030 93 10000 5.1 20 22:18 27.03.2020
5778 Clouds 7 1030 93 10000 5.7 20 21:42 27.03.2020
5779 Clouds 7 1030 87 10000 4.1 20 21:23 27.03.2020
5780 Clouds 7 1029 87 10000 4.1 20 20:58 27.03.2020
5781 Clouds 7 1029 87 10000 4.1 20 20:39 27.03.2020
5782 Clouds 8 1029 87 10000 5.1 30 20:19 27.03.2020
5783 Clouds 8 1029 87 10000 5.7 40 19:56 27.03.2020
5784 Clouds 8 1029 87 10000 5.7 40 19:38 27.03.2020
5785 Clouds 9 1028 87 10000 6.2 30 19:19 27.03.2020
5786 Clouds 9 1028 87 10000 6.2 30 18:43 27.03.2020
5787 Clouds 9 1028 87 10000 6.2 50 18:23 27.03.2020
5788 Clouds 9 1028 87 10000 5.7 50 17:55 27.03.2020
5789 Clouds 9 1028 87 10000 5.7 50 17:55 27.03.2020
5790 Clouds 9 1028 87 10000 5.7 50 17:36 27.03.2020
5791 Clouds 9 1028 87 10000 5.7 50 17:18 27.03.2020
5792 Clouds 9 1028 81 10000 6.2 60 16:43 27.03.2020
5793 Clouds 10 1028 81 10000 5.7 50 16:24 27.03.2020
5794 Clouds 10 1028 81 10000 5.7 50 15:44 27.03.2020
5795 Clouds 9 1028 87 10000 6.2 50 15:26 27.03.2020
5796 Clouds 9 1029 87 8000 5.1 40 14:56 27.03.2020
5797 Clouds 9 1029 87 8000 5.1 40 14:36 27.03.2020
5798 Clouds 9 1029 87 8000 4.6 40 14:18 27.03.2020
5799 Clouds 9 1029 87 8000 6.2 40 13:42 27.03.2020
5800 Clouds 9 1029 93 8000 5.7 40 13:21 27.03.2020
5801 Mist 9 1029 87 5000 5.1 40 12:58 27.03.2020
5802 Mist 8 1029 87 5000 5.1 40 12:39 27.03.2020
5803 Mist 8 1029 93 5000 5.7 40 12:19 27.03.2020
5804 Mist 8 1029 87 4000 5.7 50 11:42 27.03.2020
5805 Mist 8 1028 93 4000 6.7 40 11:24 27.03.2020
5806 Mist 8 1028 93 4000 6.2 40 10:55 27.03.2020
5807 Mist 8 1028 93 4000 6.2 40 10:37 27.03.2020
5808 Mist 7 1028 100 3500 6.7 40 10:19 27.03.2020
5809 Mist 7 1028 100 3000 6.2 40 09:57 27.03.2020
5810 Mist 7 1028 100 3000 6.2 40 09:38 27.03.2020
5811 Mist 7 1027 93 2500 5.7 30 09:19 27.03.2020
5812 Mist 7 1027 93 3000 6.7 30 08:56 27.03.2020
5813 Mist 7 1027 93 5000 6.2 40 08:38 27.03.2020
5814 Mist 7 1027 93 5000 6.2 40 08:20 27.03.2020
5815 Mist 7 1027 93 3500 5.7 30 07:52 27.03.2020
5816 Mist 7 1027 93 3500 6.2 30 07:25 27.03.2020
5817 Clouds 6 1026 100 8000 3.6 30 06:54 27.03.2020
5818 Clouds 6 1026 100 9000 3.1 20 06:35 27.03.2020
5819 Clouds 6 1026 93 10000 4.6 30 05:28 27.03.2020
5820 Clouds 6 1026 100 10000 4.1 40 02:46 27.03.2020
5821 Clouds 6 1026 93 10000 4.6 40 01:23 27.03.2020
5822 Clouds 7 1026 93 10000 4.1 40 00:51 27.03.2020
5823 Clouds 6 1026 93 10000 4.1 30 00:31 27.03.2020
5824 Clouds 7 1026 93 10000 4.1 40 23:44 26.03.2020
5825 Clouds 7 1026 93 10000 4.1 50 23:23 26.03.2020
5826 Clouds 7 1026 93 10000 4.1 40 22:59 26.03.2020
5827 Clouds 7 1026 93 10000 4.1 40 22:38 26.03.2020
5828 Clouds 7 1026 93 10000 5.1 40 22:20 26.03.2020
5829 Clouds 7 1026 93 10000 5.1 40 22:20 26.03.2020
5830 Clear 7 1026 93 10000 5.7 50 21:57 26.03.2020
5831 Clear 7 1026 93 10000 5.7 50 21:38 26.03.2020
5832 Clear 7 1026 93 10000 3.1 60 21:20 26.03.2020
5833 Clear 8 1025 87 10000 3.6 40 20:57 26.03.2020
5834 Clear 8 1025 87 10000 3.6 40 20:38 26.03.2020
5835 Clear 8 1025 87 10000 4.6 20 20:20 26.03.2020
5836 Clear 9 1025 81 10000 4.6 30 19:54 26.03.2020
5837 Clear 9 1025 81 10000 4.6 30 19:36 26.03.2020
5838 Clear 10 1025 76 10000 5.1 20 19:18 26.03.2020
5839 Clear 10 1025 76 10000 4.6 30 18:41 26.03.2020
5840 Clear 11 1025 71 10000 4.1 70 18:23 26.03.2020
5841 Clear 11 1025 66 10000 3.6 50 17:56 26.03.2020
5842 Clouds 11 1025 71 10000 4.6 50 17:37 26.03.2020
5843 Clouds 11 1025 71 10000 4.6 50 17:18 26.03.2020
5844 Clouds 12 1025 71 10000 5.1 50 16:40 26.03.2020
5845 Clouds 12 1025 71 10000 5.1 40 16:21 26.03.2020
5846 Clouds 11 1025 76 10000 5.7 50 15:57 26.03.2020
5847 Clouds 11 1025 76 10000 5.7 50 15:57 26.03.2020
5848 Clouds 11 1025 76 10000 6.2 50 15:39 26.03.2020
5849 Clouds 11 1025 76 10000 6.2 50 15:20 26.03.2020
5850 Clouds 11 1026 76 10000 5.7 50 14:57 26.03.2020
5851 Clouds 11 1026 76 10000 5.7 50 14:37 26.03.2020
5852 Clouds 11 1026 76 10000 5.7 50 14:18 26.03.2020
5853 Clouds 10 1026 76 10000 5.7 50 13:41 26.03.2020
5854 Clouds 10 1026 76 10000 5.1 50 13:22 26.03.2020
5855 Clouds 10 1026 81 10000 5.1 60 12:55 26.03.2020
5856 Clouds 10 1026 81 10000 5.1 60 12:37 26.03.2020
5857 Clouds 10 1026 81 10000 4.1 50 12:18 26.03.2020
5858 Clouds 9 1026 87 10000 4.1 60 11:44 26.03.2020
5859 Clouds 8 1026 93 10000 4.1 30 11:20 26.03.2020
5860 Clouds 8 1026 93 8000 3.6 40 10:42 26.03.2020
5861 Clouds 7 1026 100 7000 3.6 50 10:20 26.03.2020
5862 Mist 6 1025 100 5000 3.1 40 09:59 26.03.2020
5863 Mist 6 1025 100 5000 3.1 40 09:41 26.03.2020
5864 Mist 6 1025 100 5000 3.1 50 09:19 26.03.2020
5865 Mist 6 1025 100 3000 3.1 20 08:44 26.03.2020
5866 Mist 6 1025 100 1500 3.6 20 08:26 26.03.2020
5867 Mist 6 1025 100 1500 3.1 30 07:57 26.03.2020
5868 Mist 6 1025 100 1500 3.1 30 07:38 26.03.2020
5869 Mist 6 1025 100 2500 3.1 30 07:19 26.03.2020
5870 Fog 6 1025 100 900 3.6 30 06:35 26.03.2020
5871 Fog 4 1024 100 400 3.6 50 05:51 26.03.2020
5872 Fog 4 1024 100 2500 1 0 03:47 26.03.2020
5873 Fog 5 1023 93 4000 1.5 320 03:18 26.03.2020
5874 Clouds 4 1024 100 6000 1.5 0 02:50 26.03.2020
5875 Clouds 5 1023 100 6000 1 0 01:19 26.03.2020
5876 Clouds 6 1023 100 8000 1.5 360 00:32 26.03.2020
5877 Clouds 7 1023 93 9000 1.5 0 23:44 25.03.2020
5878 Clouds 7 1023 100 10000 1.5 300 23:26 25.03.2020
5879 Clouds 7 1023 93 10000 2.1 270 22:55 25.03.2020
5880 Clouds 7 1023 93 10000 2.1 270 22:37 25.03.2020
5881 Clouds 7 1023 100 8000 1.5 260 22:18 25.03.2020
5882 Clouds 8 1023 93 10000 1 0 21:43 25.03.2020
5883 Clouds 8 1023 93 10000 1 0 21:24 25.03.2020
5884 Clouds 8 1023 93 10000 0.5 0 20:59 25.03.2020
5885 Clouds 9 1023 93 10000 0.5 0 20:39 25.03.2020
5886 Clouds 9 1022 81 10000 1 0 20:19 25.03.2020
5887 Clouds 11 1022 87 10000 1 0 19:55 25.03.2020
5888 Clouds 11 1022 87 10000 1 0 19:37 25.03.2020
5889 Clouds 13 1022 76 10000 2.1 100 19:18 25.03.2020
5890 Clouds 13 1022 76 10000 1.5 0 18:43 25.03.2020
5891 Clouds 13 1021 71 10000 2.6 90 18:25 25.03.2020
5892 Clouds 14 1021 71 10000 2.1 110 17:58 25.03.2020
5893 Clouds 14 1021 71 10000 2.1 110 17:40 25.03.2020
5894 Clouds 14 1021 71 10000 2.6 100 17:21 25.03.2020
5895 Clouds 14 1021 71 10000 3.1 110 16:56 25.03.2020
5896 Clouds 14 1021 71 10000 3.1 110 16:38 25.03.2020
5897 Clouds 14 1021 71 10000 3.1 90 16:20 25.03.2020
5898 Clouds 14 1021 62 10000 2.1 120 15:42 25.03.2020
5899 Clouds 14 1021 67 10000 2.1 130 15:20 25.03.2020
5900 Clouds 14 1022 62 10000 3.1 140 14:57 25.03.2020
5901 Clouds 14 1022 62 10000 3.1 140 14:39 25.03.2020
5902 Clouds 14 1022 66 10000 2.6 120 14:19 25.03.2020
5903 Clouds 15 1021 58 10000 1 0 13:44 25.03.2020
5904 Clouds 15 1021 54 10000 2.1 270 13:24 25.03.2020
5905 Clouds 14 1021 62 10000 2.1 220 12:39 25.03.2020
5906 Clouds 14 1021 62 10000 2.1 220 12:39 25.03.2020
5907 Clouds 14 1021 58 10000 3.1 260 12:21 25.03.2020
5908 Clouds 14 1021 66 10000 3.1 260 11:57 25.03.2020
5909 Clouds 13 1021 66 10000 3.1 260 11:39 25.03.2020
5910 -273 0 0 0 0 0 11:20 25.03.2020
5911 Clouds 13 1021 66 10000 3.1 180 11:20 25.03.2020
5912 Clouds 13 1021 66 10000 3.1 180 11:20 25.03.2020
5913 Clouds 13 1021 62 10000 2.6 160 10:57 25.03.2020
5914 Clouds 13 1021 62 10000 2.6 160 10:39 25.03.2020
5915 Clouds 12 1021 66 10000 2.6 170 10:18 25.03.2020
5916 Clouds 10 1020 66 10000 3.1 160 09:43 25.03.2020
5917 Clouds 10 1020 71 10000 2.1 150 09:25 25.03.2020
5918 Clouds 9 1020 81 10000 1.5 180 08:58 25.03.2020
5919 Clouds 9 1020 81 10000 1.5 180 08:39 25.03.2020
5920 Clouds 8 1020 93 10000 1.5 0 08:20 25.03.2020
5921 Clouds 7 1020 93 10000 2.1 130 07:47 25.03.2020
5922 Clouds 8 1020 80 10000 0.5 360 07:26 25.03.2020
5923 Clouds 8 1020 87 10000 1.5 0 06:57 25.03.2020
5924 Clouds 8 1020 87 10000 1.5 0 06:37 25.03.2020
5925 Clouds 8 1019 81 10000 1 0 06:19 25.03.2020
5926 Clouds 8 1019 81 10000 2.1 190 05:42 25.03.2020
5927 Clouds 8 1019 75 10000 1.5 0 04:41 25.03.2020
5928 Clouds 8 1019 75 10000 3.6 190 03:53 25.03.2020
5929 Clouds 8 1019 75 10000 2.1 170 03:29 25.03.2020
5930 Clouds 8 1019 70 10000 4.6 200 01:39 25.03.2020
5931 Clouds 8 1019 75 10000 5.7 200 00:50 25.03.2020
5932 Clouds 8 1019 75 10000 5.1 190 00:26 25.03.2020
5933 Clouds 8 1019 75 10000 4.6 190 23:53 24.03.2020
5934 Clouds 8 1018 75 10000 4.1 190 23:28 24.03.2020
5935 Clouds 8 1018 75 10000 3.6 190 22:58 24.03.2020
5936 Clouds 8 1018 75 10000 3.6 190 22:38 24.03.2020
5937 Clouds 8 1018 75 10000 4.1 190 22:19 24.03.2020
5938 Clouds 8 1018 75 10000 4.1 190 22:19 24.03.2020
5939 Clouds 8 1018 75 10000 3.1 190 21:57 24.03.2020
5940 Clouds 8 1018 75 10000 3.1 190 21:57 24.03.2020
5941 Clouds 8 1018 75 10000 3.1 190 21:38 24.03.2020
5942 Clouds 9 1018 70 10000 5.1 200 21:18 24.03.2020
5943 Clouds 9 1017 70 10000 5.7 210 20:57 24.03.2020
5944 Clouds 9 1017 70 10000 5.7 210 20:39 24.03.2020
5945 Clouds 9 1017 70 10000 5.7 220 20:21 24.03.2020
5946 Clouds 10 1017 66 10000 4.1 230 19:45 24.03.2020
5947 Clouds 11 1017 62 10000 7.7 210 19:20 24.03.2020
5948 Clouds 11 1017 62 10000 8.7 220 18:56 24.03.2020
5949 Clouds 11 1016 66 10000 8.2 220 18:37 24.03.2020
5950 Clouds 11 1016 66 10000 8.2 220 18:19 24.03.2020
5951 Clouds 12 1016 66 10000 7.7 220 17:43 24.03.2020
5952 Clouds 12 1016 62 10000 7.2 230 17:24 24.03.2020
5953 Clouds 13 1016 58 10000 6.7 220 16:59 24.03.2020
5954 Clouds 13 1016 58 10000 6.7 220 16:41 24.03.2020
5955 Clouds 13 1016 58 10000 7.7 220 16:23 24.03.2020
5956 Clouds 13 1017 54 10000 6.2 220 15:59 24.03.2020
5957 Clouds 13 1017 54 10000 6.2 220 15:40 24.03.2020
5958 Clouds 13 1017 58 10000 4.1 230 15:22 24.03.2020
5959 Clouds 13 1017 58 10000 4.1 230 14:43 24.03.2020
5960 Clouds 13 1017 58 10000 4.1 230 14:43 24.03.2020
5961 Clouds 13 1017 58 10000 4.1 230 14:43 24.03.2020
5962 Clouds 14 1017 58 10000 5.7 220 14:22 24.03.2020
5963 Clouds 13 1017 58 10000 5.7 220 13:55 24.03.2020
5964 Clouds 13 1017 58 10000 5.7 220 13:36 24.03.2020
5965 Clouds 13 1017 58 10000 4.1 230 13:18 24.03.2020
5966 Clouds 12 1017 62 10000 3.6 220 12:41 24.03.2020
5967 Clouds 12 1017 62 10000 4.1 200 12:23 24.03.2020
5968 Clouds 12 1017 58 10000 1 0 11:41 24.03.2020
5969 Clouds 10 1018 66 10000 2.6 150 11:20 24.03.2020
5970 Clouds 10 1018 71 10000 3.6 200 10:57 24.03.2020
5971 Clouds 10 1018 71 10000 3.6 200 10:38 24.03.2020
5972 Clouds 10 1018 66 10000 3.6 220 10:18 24.03.2020
5973 Clouds 9 1018 76 10000 2.6 200 09:43 24.03.2020
5974 Clouds 9 1018 76 10000 1.5 0 09:25 24.03.2020
5975 Clouds 8 1018 81 10000 2.6 210 08:40 24.03.2020
5976 Clouds 8 1018 81 10000 2.6 290 08:21 24.03.2020
5977 Clouds 7 1018 75 10000 2.6 150 07:59 24.03.2020
5978 Clouds 7 1018 75 10000 2.6 150 07:41 24.03.2020
5979 Clouds 7 1018 81 10000 3.1 190 07:21 24.03.2020
5980 Clouds 8 1018 75 10000 2.6 210 06:35 24.03.2020
5981 Clouds 8 1018 65 10000 3.6 200 05:36 24.03.2020
5982 Clouds 8 1018 70 10000 4.6 210 04:50 24.03.2020
5983 Clouds 8 1019 66 10000 3.6 180 03:19 24.03.2020
5984 Clouds 8 1020 65 10000 3.1 140 02:25 24.03.2020
5985 Clouds 8 1020 75 10000 2.6 150 00:53 24.03.2020
5986 Clouds 8 1020 70 10000 2.1 110 00:26 24.03.2020
5987 Clouds 8 1021 70 10000 1.5 100 23:55 23.03.2020
5988 Clouds 8 1021 66 10000 1 160 23:36 23.03.2020
5989 Clouds 8 1021 66 10000 1 160 23:18 23.03.2020
5990 Clouds 8 1021 70 10000 1 0 22:42 23.03.2020
5991 Clouds 8 1020 81 10000 1 0 22:22 23.03.2020
5992 Clouds 8 1020 81 10000 1 0 22:22 23.03.2020
5993 Clouds 9 1021 70 10000 2.1 170 21:54 23.03.2020
5994 Clouds 9 1021 70 10000 2.1 170 21:36 23.03.2020
5995 Clouds 9 1021 66 10000 3.1 170 21:18 23.03.2020
5996 Clouds 9 1021 66 10000 3.1 170 20:42 23.03.2020
5997 Clouds 9 1021 66 10000 4.1 210 20:23 23.03.2020
5998 Clouds 10 1021 66 10000 3.6 220 19:55 23.03.2020
5999 Clouds 10 1021 66 10000 3.6 220 19:55 23.03.2020
6000 Clouds 10 1021 66 10000 3.6 220 19:55 23.03.2020
6001 Clouds 10 1021 66 10000 3.6 220 19:37 23.03.2020
6002 Clouds 10 1020 66 10000 4.1 190 19:18 23.03.2020
6003 Clouds 11 1020 71 10000 3.6 170 18:43 23.03.2020
6004 Clouds 11 1020 76 10000 4.1 170 18:24 23.03.2020
6005 Clouds 11 1020 71 10000 5.7 150 17:58 23.03.2020
6006 Clouds 12 1020 71 10000 5.1 150 17:39 23.03.2020
6007 Clouds 12 1020 71 10000 5.1 150 17:19 23.03.2020
6008 Clouds 12 1020 71 10000 5.1 150 16:43 23.03.2020
6009 Clouds 12 1020 66 10000 4.6 140 16:25 23.03.2020
6010 Clouds 13 1021 66 10000 5.1 150 15:44 23.03.2020
6011 Clouds 13 1021 62 10000 5.1 140 15:21 23.03.2020
6012 Clouds 13 1021 54 10000 4.1 140 14:57 23.03.2020
6013 Clouds 13 1021 54 10000 4.1 140 14:37 23.03.2020
6014 Clouds 13 1022 62 10000 4.1 140 14:18 23.03.2020
6015 Clouds 12 1022 58 10000 4.6 140 13:54 23.03.2020
6016 Clouds 12 1022 58 10000 4.6 140 13:54 23.03.2020
6017 Clouds 12 1022 62 10000 3.6 150 13:36 23.03.2020
6018 Clouds 12 1022 62 10000 3.6 150 13:36 23.03.2020
6019 Clouds 12 1022 62 10000 3.6 150 13:18 23.03.2020
6020 Clouds 11 1022 62 10000 3.6 140 12:41 23.03.2020
6021 Clouds 11 1023 62 10000 3.6 140 12:22 23.03.2020
6022 Clouds 11 1023 62 10000 3.6 140 12:22 23.03.2020
6023 Clouds 10 1023 66 10000 3.6 150 11:55 23.03.2020
6024 Clouds 9 1023 66 10000 3.6 150 11:37 23.03.2020
6025 Clouds 9 1023 66 10000 3.6 150 11:18 23.03.2020
6026 Clouds 8 1023 70 10000 3.6 150 10:41 23.03.2020
6027 Clouds 8 1023 65 10000 4.1 160 10:23 23.03.2020
6028 Clouds 7 1023 70 10000 4.1 160 09:59 23.03.2020
6029 Clouds 7 1023 70 10000 4.1 160 09:40 23.03.2020
6030 Clouds 6 1023 75 10000 4.1 160 09:19 23.03.2020
6031 Clouds 5 1022 80 10000 3.6 160 08:38 23.03.2020
6032 Clouds 4 1023 80 10000 2.6 160 08:19 23.03.2020
6033 Clouds 5 1022 75 10000 2.6 150 07:51 23.03.2020
6034 Clouds 5 1023 75 10000 1 0 07:32 23.03.2020
6035 Clouds 4 1023 92 10000 2.1 150 06:55 23.03.2020
6036 Clouds 4 1023 92 10000 2.6 150 06:32 23.03.2020
6037 Clouds 4 1023 75 10000 3.6 140 05:43 23.03.2020
6038 Clouds 3 1024 89 10000 2.1 200 03:54 23.03.2020
6039 Clouds 3 1024 89 10000 3.6 160 02:43 23.03.2020
6040 Clouds 2 1023 69 10000 1.5 0 01:39 23.03.2020
6041 Clouds 2 1025 83 10000 0.5 0 00:45 23.03.2020
6042 Clouds 1 1025 92 10000 1 260 23:58 22.03.2020
6043 Clouds 1 1025 92 10000 1 260 23:40 22.03.2020
6044 Clouds 1 1025 73 10000 1 0 23:22 22.03.2020
6045 Clouds 1 1025 92 10000 1 240 22:40 22.03.2020
6046 Clouds 3 1025 80 10000 3.73 140 22:20 22.03.2020
6047 Clouds 4 1025 75 10000 1 0 21:40 22.03.2020
6048 Clouds 4 1026 75 10000 1 0 21:21 22.03.2020
6049 Clouds 5 1026 75 10000 1 0 20:58 22.03.2020
6050 Clouds 5 1026 75 10000 2.6 130 20:40 22.03.2020
6051 Clouds 5 1025 75 10000 3.1 140 20:21 22.03.2020
6052 Clouds 6 1025 70 10000 4.6 140 19:56 22.03.2020
6053 Clouds 6 1025 70 10000 4.6 140 19:37 22.03.2020
6054 Clouds 7 1026 69 10000 4.1 140 19:19 22.03.2020
6055 Clouds 7 1026 69 10000 5.1 130 18:57 22.03.2020
6056 Clouds 8 1026 69 10000 5.1 130 18:38 22.03.2020
6057 Clouds 8 1026 69 10000 5.7 140 18:18 22.03.2020
6058 Clouds 8 1026 52 10000 6.7 140 17:56 22.03.2020
6059 Clouds 8 1026 52 10000 6.7 140 17:37 22.03.2020
6060 Clouds 8 1026 63 10000 6.7 140 17:19 22.03.2020
6061 Clouds 9 1026 63 10000 5.1 130 16:55 22.03.2020
6062 Clouds 9 1026 63 10000 5.1 130 16:36 22.03.2020
6063 Clouds 9 1026 63 10000 5.1 140 16:18 22.03.2020
6064 Clouds 9 1026 57 10000 5.1 130 15:39 22.03.2020
6065 Clouds 9 1026 63 10000 5.7 140 14:55 22.03.2020
6066 Clouds 9 1026 63 10000 5.7 140 14:37 22.03.2020
6067 Clouds 9 1027 57 10000 4.6 140 14:18 22.03.2020
6068 Clouds 9 1027 66 10000 5.1 140 13:41 22.03.2020
6069 Clouds 9 1027 61 10000 5.1 140 13:19 22.03.2020
6070 Clouds 8 1027 65 10000 5.7 140 12:47 22.03.2020
6071 Clouds 8 1027 65 10000 6.2 150 12:23 22.03.2020
6072 Clouds 8 1027 70 10000 6.2 150 11:59 22.03.2020
6073 Clouds 8 1027 70 10000 5.1 150 11:41 22.03.2020
6074 Clouds 7 1027 70 10000 5.1 150 11:23 22.03.2020
6075 Clouds 7 1027 75 10000 5.1 140 10:54 22.03.2020
6076 Clouds 7 1027 75 10000 5.1 140 10:36 22.03.2020
6077 Clouds 6 1027 75 10000 5.1 140 10:18 22.03.2020
6078 Clouds 5 1027 86 10000 1.5 0 09:41 22.03.2020
6079 Clouds 3 1027 76 10000 0.5 0 09:19 22.03.2020
6080 Clouds 3 1026 80 10000 2.1 130 08:43 22.03.2020
6081 Clouds 1 1027 91 10000 0.5 0 08:24 22.03.2020
6082 Clouds 1 1026 80 10000 1.5 130 07:51 22.03.2020
6083 Clouds 1 1026 80 10000 1 150 07:23 22.03.2020
6084 Clouds 2 1026 69 10000 2.6 160 06:35 22.03.2020
6085 Clouds 3 1026 69 10000 3.1 140 05:34 22.03.2020
6086 Clouds 5 1026 56 10000 5.1 140 03:30 22.03.2020
6087 Clouds 7 1025 69 10000 5.1 140 01:27 22.03.2020
6088 Clouds 7 1025 67 10000 4.1 140 00:47 22.03.2020
6089 Clouds 7 1025 56 10000 4.1 140 00:25 22.03.2020
6090 Clouds 7 1025 67 10000 4.1 130 23:43 21.03.2020
6091 Clouds 7 1024 69 10000 3.6 140 23:19 21.03.2020
6092 Clouds 7 1024 52 10000 4.6 140 22:55 21.03.2020
6093 Clouds 7 1024 52 10000 5.1 140 22:36 21.03.2020
6094 Clouds 7 1024 52 10000 5.1 140 22:18 21.03.2020
6095 Clouds 7 1024 61 10000 5.1 130 21:41 21.03.2020
6096 Clouds 7 1024 70 10000 3.1 130 21:23 21.03.2020
6097 Clouds 7 1024 75 10000 4.1 110 20:56 21.03.2020
6098 Clouds 7 1024 75 10000 4.1 110 20:38 21.03.2020
6099 Clouds 7 1023 70 10000 4.1 120 20:19 21.03.2020
6100 Clouds 7 1023 61 10000 4.1 110 19:43 21.03.2020
6101 Clouds 7 1023 75 10000 3.1 90 19:24 21.03.2020
6102 Clouds 7 1023 75 10000 3.1 90 19:24 21.03.2020
6103 Clouds 7 1023 65 10000 3.6 90 18:55 21.03.2020
6104 Clouds 7 1023 65 10000 3.6 90 18:37 21.03.2020
6105 Clouds 7 1023 70 10000 3.6 90 18:19 21.03.2020
6106 Clouds 7 1023 70 10000 4.1 90 17:55 21.03.2020
6107 Clouds 7 1023 70 10000 4.6 90 17:37 21.03.2020
6108 Clouds 7 1023 70 10000 4.6 90 17:18 21.03.2020
6109 Clouds 7 1023 70 10000 5.1 90 16:40 21.03.2020
6110 Clouds 7 1023 56 10000 6.2 100 16:19 21.03.2020
6111 Clouds 7 1023 65 10000 7.2 100 15:55 21.03.2020
6112 Clouds 7 1023 65 10000 7.2 100 15:36 21.03.2020
6113 Clouds 7 1024 65 10000 6.7 100 15:18 21.03.2020
6114 Clouds 6 1024 56 10000 7.2 100 14:54 21.03.2020
6115 Clouds 6 1024 56 10000 7.2 100 14:36 21.03.2020
6116 Clouds 6 1025 60 10000 5.7 110 14:18 21.03.2020
6117 Clouds 6 1025 60 10000 6.2 110 13:54 21.03.2020
6118 Clouds 6 1025 60 10000 6.2 110 13:36 21.03.2020
6119 Clouds 6 1025 56 10000 6.2 120 13:18 21.03.2020
6120 Clouds 6 1025 60 10000 5.7 120 12:39 21.03.2020
6121 Clouds 6 1025 60 10000 6.2 110 12:19 21.03.2020
6122 Clouds 5 1025 70 10000 6.7 110 11:57 21.03.2020
6123 Clouds 5 1025 70 10000 6.7 110 11:38 21.03.2020
6124 Clouds 5 1026 68 10000 6.7 110 11:19 21.03.2020
6125 Clouds 5 1026 75 10000 7.2 110 10:57 21.03.2020
6126 Clouds 5 1026 75 10000 7.2 110 10:38 21.03.2020
6127 Clouds 5 1026 75 10000 7.2 110 10:20 21.03.2020
6128 Clouds 5 1026 75 10000 7.2 100 09:56 21.03.2020
6129 Clouds 5 1026 75 10000 7.2 100 09:37 21.03.2020
6130 Clouds 5 1026 75 10000 5.7 110 09:19 21.03.2020
6131 Clouds 5 1026 75 10000 6.2 100 08:44 21.03.2020
6132 Clouds 4 1026 80 10000 5.7 110 08:24 21.03.2020
6133 Clouds 4 1026 80 10000 5.7 100 07:47 21.03.2020
6134 Clouds 5 1026 79 10000 5.7 100 07:28 21.03.2020
6135 Clouds 4 1027 80 10000 6.2 100 06:48 21.03.2020
6136 Clouds 4 1027 80 10000 6.2 100 06:28 21.03.2020
6137 Clouds 4 1027 80 10000 5.7 100 05:48 21.03.2020
6138 Clouds 5 1027 75 10000 6.2 100 04:47 21.03.2020
6139 Clouds 4 1028 78 10000 6.7 110 03:26 21.03.2020
6140 Clouds 5 1029 78 10000 7.2 100 02:34 21.03.2020
6141 Clouds 5 1029 65 10000 9.3 100 01:38 21.03.2020
6142 Clouds 5 1030 60 10000 9.8 100 01:18 21.03.2020
6143 Clouds 6 1030 60 10000 8.2 110 00:38 21.03.2020
6144 Clouds 6 1030 70 10000 9.3 100 23:58 20.03.2020
6145 Clouds 6 1030 70 10000 9.3 100 23:40 20.03.2020
6146 Clouds 6 1030 70 10000 8.2 100 23:18 20.03.2020
6147 Clouds 6 1030 73 10000 9.3 90 22:41 20.03.2020
6148 Clouds 6 1031 70 10000 8.7 90 22:22 20.03.2020
6149 Clouds 6 1030 73 10000 8.7 90 21:56 20.03.2020
6150 Clouds 6 1030 73 10000 8.7 90 21:38 20.03.2020
6151 Clouds 6 1030 75 10000 8.2 80 21:18 20.03.2020
6152 Clouds 6 1031 70 10000 7.7 70 20:57 20.03.2020
6153 Clouds 6 1031 70 10000 7.7 70 20:38 20.03.2020
6154 Clouds 6 1031 70 10000 7.2 70 20:18 20.03.2020
6155 Clouds 6 1031 70 10000 6.7 70 19:45 20.03.2020
6156 Clouds 6 1031 75 10000 7.7 70 19:19 20.03.2020
6157 Clouds 6 1031 75 10000 7.7 70 19:19 20.03.2020
6158 Clouds 6 1031 70 10000 7.7 60 18:55 20.03.2020
6159 Clouds 6 1031 70 10000 7.7 60 18:37 20.03.2020
6160 Clouds 6 1031 70 10000 7.2 70 18:19 20.03.2020
6161 Clouds 6 1031 70 10000 7.2 70 18:19 20.03.2020
6162 Clouds 7 1032 65 10000 7.7 70 17:39 20.03.2020
6163 Clouds 7 1032 65 10000 8.2 70 17:21 20.03.2020
6164 Clouds 7 1032 65 10000 8.2 70 17:21 20.03.2020
6165 Clouds 7 1032 65 10000 8.7 70 16:58 20.03.2020
6166 Clouds 7 1032 65 10000 8.7 70 16:58 20.03.2020
6167 Clouds 7 1032 65 10000 8.7 70 16:40 20.03.2020
6168 Clouds 8 1032 61 10000 9.3 80 16:19 20.03.2020
6169 Clouds 8 1032 61 10000 8.2 70 15:43 20.03.2020
6170 Clouds 8 1032 61 10000 8.7 70 15:22 20.03.2020
6171 Clouds 8 1032 61 10000 8.2 90 14:56 20.03.2020
6172 Clouds 8 1032 61 10000 8.2 90 14:38 20.03.2020
6173 Clouds 8 1033 65 10000 8.2 80 14:19 20.03.2020
6174 Clouds 8 1033 61 10000 7.7 80 13:45 20.03.2020
6175 Clouds 8 1033 70 10000 7.7 80 13:19 20.03.2020
6176 Clouds 7 1033 81 10000 7.2 70 12:41 20.03.2020
6177 Clouds 7 1033 81 10000 6.7 70 12:23 20.03.2020
6178 Clouds 7 1033 75 10000 7.7 60 11:59 20.03.2020
6179 Clouds 6 1033 81 10000 7.7 50 11:38 20.03.2020
6180 Clouds 6 1033 81 10000 7.7 50 11:19 20.03.2020
6181 Clouds 6 1033 75 10000 7.2 50 10:42 20.03.2020
6182 Clouds 4 1033 80 10000 6.7 40 10:21 20.03.2020
6183 Clouds 3 1033 80 10000 4.1 10 10:00 20.03.2020
6184 Clouds 3 1033 80 10000 4.1 10 09:41 20.03.2020
6185 Clouds 2 1033 74 10000 4.1 10 09:19 20.03.2020
6186 Clouds 0 1033 74 10000 4.1 360 08:43 20.03.2020
6187 Clouds -1 1033 92 10000 4.1 350 08:22 20.03.2020
6188 Clouds -1 1033 86 10000 3.1 350 07:57 20.03.2020
6189 Clouds -1 1033 86 10000 3.1 350 07:38 20.03.2020
6190 Clouds -1 1032 92 10000 3.1 350 07:19 20.03.2020
6191 Clouds -1 1032 92 10000 3.6 350 06:42 20.03.2020
6192 Clouds -1 1032 92 10000 3.1 340 04:57 20.03.2020
6193 Clouds -1 1032 100 10000 4.1 330 04:26 20.03.2020
6194 Clouds 1 1032 91 10000 3.6 340 02:27 20.03.2020
6195 Clouds 2 1032 86 10000 3.1 350 01:47 20.03.2020
6196 Clouds 3 1032 90 10000 4.1 350 00:33 20.03.2020
6197 Clouds 4 1032 90 10000 4.1 350 23:53 19.03.2020
6198 Clouds 4 1032 86 10000 3.6 360 23:34 19.03.2020
6199 Clouds 4 1032 93 10000 3.1 350 22:58 19.03.2020
6200 Clouds 4 1032 93 10000 3.1 360 22:38 19.03.2020
6201 Clouds 4 1032 93 10000 3.1 360 22:20 19.03.2020
6202 Clouds 4 1031 77 10000 3.1 360 21:56 19.03.2020
6203 Clouds 4 1031 77 10000 3.1 360 21:37 19.03.2020
6204 Clouds 4 1031 77 10000 3.1 360 21:18 19.03.2020
6205 Clouds 5 1030 60 10000 2.1 50 20:42 19.03.2020
6206 Clouds 5 1030 60 10000 2.1 50 20:23 19.03.2020
6207 Clouds 5 1030 81 10000 3.1 40 19:57 19.03.2020
6208 Clouds 6 1030 81 10000 3.1 40 19:38 19.03.2020
6209 Clouds 6 1030 70 10000 3.1 50 19:20 19.03.2020
6210 Clouds 6 1030 70 10000 3.6 50 18:56 19.03.2020
6211 Clouds 6 1030 70 10000 3.6 50 18:56 19.03.2020
6212 Clouds 7 1030 70 10000 3.6 50 18:38 19.03.2020
6213 Clouds 7 1030 70 10000 3.6 50 18:38 19.03.2020
6214 Clouds 7 1030 81 10000 3.1 60 18:19 19.03.2020
6215 Clouds 7 1029 65 10000 3.1 70 17:42 19.03.2020
6216 Clouds 7 1030 63 10000 3.1 70 17:19 19.03.2020
6217 Clouds 8 1029 52 10000 3.6 40 16:45 19.03.2020
6218 Clouds 8 1029 52 10000 3.6 40 16:45 19.03.2020
6219 Clouds 8 1030 52 10000 3.6 30 16:25 19.03.2020
6220 Clouds 8 1030 63 10000 4.1 30 15:55 19.03.2020
6221 Clouds 8 1030 63 10000 4.1 30 15:36 19.03.2020
6222 Clouds 8 1030 57 10000 4.1 20 15:18 19.03.2020
6223 Clouds 8 1030 61 10000 4.6 20 14:43 19.03.2020
6224 Clouds 7 1030 70 10000 4.6 20 14:21 19.03.2020
6225 Clouds 8 1030 70 10000 4.6 10 13:41 19.03.2020
6226 Clouds 7 1030 70 10000 3.1 10 13:20 19.03.2020
6227 Clouds 7 1029 70 10000 3.6 360 12:57 19.03.2020
6228 Clouds 7 1029 70 10000 3.6 360 12:39 19.03.2020
6229 Clouds 7 1029 65 10000 3.6 10 12:21 19.03.2020
6230 Clouds 6 1029 75 10000 3.1 340 11:42 19.03.2020
6231 Clouds 6 1029 75 10000 3.1 340 11:23 19.03.2020
6232 Clouds 5 1029 80 10000 3.6 320 10:57 19.03.2020
6233 Clouds 5 1029 80 10000 3.6 320 10:38 19.03.2020
6234 Clouds 4 1029 70 10000 4.1 300 10:19 19.03.2020
6235 Clouds 3 1029 70 10000 3.1 290 09:45 19.03.2020
6236 Clouds 2 1028 70 10000 3.6 290 09:27 19.03.2020
6237 Clouds 1 1028 70 10000 3.6 290 08:58 19.03.2020
6238 Clouds 1 1028 70 10000 3.6 290 08:40 19.03.2020
6239 Clouds 1 1028 92 10000 3.6 290 08:19 19.03.2020
6240 Clouds 0 1028 92 10000 3.6 290 07:44 19.03.2020
6241 Clouds 0 1028 100 10000 3.6 290 07:23 19.03.2020
6242 Clouds 1 1027 86 10000 3.1 300 06:32 19.03.2020
6243 Clouds 1 1027 92 10000 3.6 290 05:46 19.03.2020
6244 Clouds 1 1027 92 10000 3.6 290 04:51 19.03.2020
6245 Clouds 1 1027 92 10000 3.1 280 04:24 19.03.2020
6246 Clouds 2 1027 92 10000 3.6 300 02:34 19.03.2020
6247 Clouds 3 1027 83 10000 3.1 300 00:55 19.03.2020
6248 Clouds 3 1027 83 10000 3.1 300 00:20 19.03.2020
6249 Clouds 4 1027 83 10000 2.6 300 23:45 18.03.2020
6250 Clouds 4 1027 86 10000 1.5 0 23:26 18.03.2020
6251 Clouds 4 1027 86 10000 1.5 0 23:26 18.03.2020
6252 Clouds 4 1026 86 10000 2.1 300 22:43 18.03.2020
6253 Clouds 4 1026 86 10000 2.6 300 22:24 18.03.2020
6254 Clouds 5 1026 80 10000 3.1 290 21:59 18.03.2020
6255 Clouds 5 1026 80 10000 3.1 290 21:40 18.03.2020
6256 Clouds 5 1026 75 10000 3.6 280 21:21 18.03.2020
6257 Clouds 5 1026 75 10000 3.6 280 21:21 18.03.2020
6258 Rain 5 1026 75 10000 3.1 280 20:56 18.03.2020
6259 Rain 5 1026 75 10000 3.1 280 20:38 18.03.2020
6260 Rain 5 1025 75 10000 3.1 270 20:19 18.03.2020
6261 Clouds 6 1025 70 10000 3.6 280 19:42 18.03.2020
6262 Clouds 6 1025 70 10000 4.1 280 19:21 18.03.2020
6263 Clouds 7 1025 75 10000 4.1 280 18:59 18.03.2020
6264 Clouds 7 1025 75 10000 4.1 280 18:40 18.03.2020
6265 Clouds 7 1024 75 10000 3.6 280 18:19 18.03.2020
6266 Clouds 7 1024 75 10000 5.1 280 17:57 18.03.2020
6267 Clouds 7 1024 75 10000 5.7 280 17:39 18.03.2020
6268 Clouds 7 1024 75 10000 5.7 280 17:39 18.03.2020
6269 Clouds 7 1024 66 10000 5.7 280 17:19 18.03.2020
6270 Clouds 7 1024 56 10000 5.1 280 16:43 18.03.2020
6271 Clouds 7 1024 65 10000 4.6 280 16:22 18.03.2020
6272 Clouds 7 1024 65 10000 4.6 280 15:59 18.03.2020
6273 Clouds 7 1024 65 10000 4.6 280 15:39 18.03.2020
6274 Clouds 7 1024 65 10000 4.1 280 15:20 18.03.2020
6275 Clouds 7 1024 65 10000 5.1 290 14:44 18.03.2020
6276 Clouds 7 1024 61 10000 5.7 280 14:21 18.03.2020
6277 Clouds 7 1024 65 10000 5.1 270 13:42 18.03.2020
6278 Clouds 7 1024 70 10000 5.1 280 13:20 18.03.2020
6279 Clouds 7 1024 75 10000 5.1 280 12:58 18.03.2020
6280 Clouds 8 1024 70 10000 4.6 270 12:39 18.03.2020
6281 Clouds 7 1024 70 10000 4.6 270 12:19 18.03.2020
6282 Clouds 7 1024 81 10000 3.1 270 11:39 18.03.2020
6283 Clouds 6 1023 87 10000 2.6 260 11:19 18.03.2020
6284 Clouds 6 1023 87 10000 2.6 260 10:58 18.03.2020
6285 Clouds 6 1023 87 10000 2.6 260 10:38 18.03.2020
6286 Clouds 6 1023 87 10000 3.1 240 10:19 18.03.2020
6287 Clouds 6 1023 87 10000 2.6 240 09:43 18.03.2020
6288 Clouds 5 1022 93 10000 2.1 240 09:24 18.03.2020
6289 Clouds 5 1022 93 10000 3.1 250 08:56 18.03.2020
6290 Clouds 5 1022 93 10000 3.1 250 08:38 18.03.2020
6291 Clouds 5 1022 93 10000 3.1 250 08:38 18.03.2020
6292 Clouds 5 1022 93 10000 3.1 250 08:38 18.03.2020
6293 Clouds 5 1022 93 10000 2.6 250 08:20 18.03.2020
6294 Clouds 5 1022 93 10000 2.6 250 07:44 18.03.2020
6295 Clouds 5 1022 93 10000 2.1 240 07:25 18.03.2020
6296 Clouds 5 1022 93 10000 2.6 250 06:44 18.03.2020
6297 Clouds 5 1022 86 10000 2.1 230 06:18 18.03.2020
6298 Rain 5 1021 93 10000 4.1 260 05:34 18.03.2020
6299 Clouds 5 1021 93 10000 4.1 260 04:24 18.03.2020
6300 Clouds 6 1020 87 10000 4.1 270 02:42 18.03.2020
6301 Clouds 6 1020 93 10000 4.1 270 01:47 18.03.2020
6302 Rain 6 1020 93 10000 4.6 280 01:26 18.03.2020
6303 Rain 6 1019 93 10000 4.6 270 00:23 18.03.2020
6304 Rain 7 1019 93 10000 3.1 270 23:47 17.03.2020
6305 Rain 7 1019 93 10000 2.6 280 23:26 17.03.2020
6306 Drizzle 7 1018 93 6000 5.1 310 22:48 17.03.2020
6307 Rain 8 1017 93 9000 8.2 320 22:29 17.03.2020
6308 Rain 10 1016 93 10000 8.7 270 21:59 17.03.2020
6309 Rain 11 1016 93 10000 8.7 270 21:39 17.03.2020
6310 Rain 12 1015 93 10000 6.7 230 21:20 17.03.2020
6311 Rain 12 1014 93 10000 7.7 230 20:39 17.03.2020
6312 Rain 12 1014 93 10000 7.7 230 20:39 17.03.2020
6313 Rain 12 1014 87 10000 7.2 230 20:21 17.03.2020
6314 Rain 12 1013 82 10000 7.7 230 19:56 17.03.2020
6315 Rain 13 1013 82 10000 9.8 220 19:38 17.03.2020
6316 Rain 13 1013 82 10000 9.8 220 19:18 17.03.2020
6317 Clouds 13 1013 76 10000 8.2 220 18:54 17.03.2020
6318 Clouds 13 1013 71 10000 9.8 220 18:36 17.03.2020
6319 Clouds 13 1013 71 10000 9.8 220 18:18 17.03.2020
6320 Clouds 14 1013 71 10000 10.3 210 17:40 17.03.2020
6321 Clouds 14 1014 76 10000 9.3 210 17:20 17.03.2020
6322 Clouds 15 1014 72 10000 8.2 210 16:45 17.03.2020
6323 Clouds 14 1015 72 10000 10.8 210 16:20 17.03.2020
6324 Clouds 14 1015 76 10000 10.3 210 15:56 17.03.2020
6325 Clouds 14 1015 76 10000 10.3 210 15:56 17.03.2020
6326 Clouds 14 1015 76 10000 10.3 210 15:38 17.03.2020
6327 Clouds 14 1016 76 10000 7.7 210 15:18 17.03.2020
6328 Clouds 13 1017 76 10000 7.7 210 14:41 17.03.2020
6329 Clouds 12 1017 76 10000 5.1 190 14:18 17.03.2020
6330 Clouds 11 1018 76 10000 6.7 210 13:43 17.03.2020
6331 Clouds 11 1019 66 10000 6.2 210 13:24 17.03.2020
6332 Clouds 11 1019 71 10000 4.1 210 12:48 17.03.2020
6333 Clouds 11 1020 76 10000 4.1 210 12:26 17.03.2020
6334 Clouds 11 1020 76 10000 4.1 220 11:59 17.03.2020
6335 Clouds 11 1020 76 10000 4.1 220 11:40 17.03.2020
6336 Clouds 11 1020 76 10000 4.1 220 11:22 17.03.2020
6337 Clouds 10 1020 81 10000 4.1 210 10:56 17.03.2020
6338 Clouds 10 1020 81 10000 4.1 210 10:37 17.03.2020
6339 Clouds 10 1020 87 10000 3.6 220 10:18 17.03.2020
6340 Clouds 9 1020 87 10000 3.6 220 09:45 17.03.2020
6341 Clouds 9 1020 93 10000 3.1 210 09:20 17.03.2020
6342 Clouds 9 1020 87 10000 2.6 210 08:58 17.03.2020
6343 Clouds 9 1020 87 10000 2.6 210 08:58 17.03.2020
6344 Clouds 9 1020 87 10000 2.6 210 08:40 17.03.2020
6345 Clouds 8 1020 87 10000 3.1 220 08:18 17.03.2020
6346 Clouds 8 1020 93 10000 3.1 220 07:49 17.03.2020
6347 Clouds 8 1020 93 10000 3.1 230 07:20 17.03.2020
6348 Clouds 8 1019 93 10000 2.6 230 06:45 17.03.2020
6349 Clouds 9 1019 87 10000 3.1 220 06:25 17.03.2020
6350 Clouds 9 1019 87 10000 4.1 220 05:20 17.03.2020
6351 Clouds 9 1018 87 10000 4.1 220 03:31 17.03.2020
6352 Clouds 9 1017 87 10000 5.7 220 01:50 17.03.2020
6353 Clouds 9 1017 87 10000 5.7 220 01:31 17.03.2020
6354 Clouds 9 1017 87 10000 5.1 220 00:52 17.03.2020
6355 Rain 9 1017 87 10000 6.2 220 23:53 16.03.2020
6356 Clouds 9 1016 81 10000 5.7 230 23:34 16.03.2020
6357 Clouds 9 1016 87 10000 6.2 210 22:55 16.03.2020
6358 Clouds 9 1016 87 10000 6.2 210 22:37 16.03.2020
6359 Clouds 9 1016 87 10000 6.2 210 22:19 16.03.2020
6360 Clouds 9 1016 81 10000 6.7 210 21:44 16.03.2020
6361 Rain 9 1016 81 10000 8.2 220 21:25 16.03.2020
6362 Clouds 9 1016 81 10000 6.7 220 20:58 16.03.2020
6363 Clouds 9 1016 81 10000 6.7 220 20:38 16.03.2020
6364 Clouds 9 1016 81 10000 6.7 220 20:38 16.03.2020
6365 Clouds 9 1015 81 10000 7.2 210 20:20 16.03.2020
6366 Clouds 9 1015 81 10000 7.2 210 19:44 16.03.2020
6367 Clouds 9 1015 76 10000 7.7 210 19:23 16.03.2020
6368 Clouds 9 1015 76 10000 7.2 210 18:57 16.03.2020
6369 Clouds 9 1015 76 10000 7.2 210 18:38 16.03.2020
6370 Clouds 9 1015 76 10000 7.7 220 18:18 16.03.2020
6371 Clouds 9 1015 71 10000 8.7 220 17:45 16.03.2020
6372 Clouds 10 1015 71 10000 8.7 220 17:24 16.03.2020
6373 Clouds 10 1016 66 10000 7.7 220 16:49 16.03.2020
6374 Clouds 10 1016 66 10000 7.7 220 16:31 16.03.2020
6375 Clouds 10 1016 61 10000 8.2 200 15:58 16.03.2020
6376 Clouds 10 1016 61 10000 8.2 200 15:40 16.03.2020
6377 Clouds 10 1016 61 10000 9.3 210 15:20 16.03.2020
6378 Clouds 9 1017 66 10000 7.2 210 14:44 16.03.2020
6379 Clouds 9 1017 61 10000 7.7 200 14:20 16.03.2020
6380 Clouds 9 1017 61 10000 6.2 210 13:43 16.03.2020
6381 Clouds 8 1017 65 10000 7.2 210 13:25 16.03.2020
6382 Clouds 8 1018 61 10000 6.7 220 12:55 16.03.2020
6383 Clouds 8 1018 61 10000 6.7 220 12:36 16.03.2020
6384 Clouds 8 1018 61 10000 6.7 220 12:18 16.03.2020
6385 Clouds 8 1018 61 10000 6.2 220 11:41 16.03.2020
6386 Clouds 7 1018 79 10000 4.6 210 11:19 16.03.2020
6387 Clouds 7 1018 70 10000 4.6 200 10:43 16.03.2020
6388 Clouds 6 1018 75 10000 4.1 200 10:24 16.03.2020
6389 Clouds 5 1018 80 10000 3.6 200 09:46 16.03.2020
6390 Clouds 4 1018 79 10000 3.1 210 09:28 16.03.2020
6391 Clouds 4 1018 80 10000 3.1 210 08:58 16.03.2020
6392 Clouds 2 1018 86 10000 3.1 190 08:26 16.03.2020
6393 Clouds 0 1018 92 10000 2.6 210 07:54 16.03.2020
6394 Clouds 1 1018 80 10000 3.1 220 07:28 16.03.2020
6395 Clouds 1 1017 80 10000 2.6 240 06:54 16.03.2020
6396 Clouds 1 1017 80 10000 2.6 230 06:27 16.03.2020
6397 Clouds 1 1017 86 10000 2.6 240 05:54 16.03.2020
6398 Clouds 2 1016 94 10000 5.7 290 02:46 16.03.2020
6399 Clouds 3 1016 94 10000 3.6 250 01:20 16.03.2020
6400 Clouds 2 1016 94 10000 3.6 250 00:42 16.03.2020
6401 Clouds 3 1015 94 10000 3.1 250 23:49 15.03.2020
6402 Clouds 3 1014 86 10000 3.6 260 23:21 15.03.2020
6403 Clouds 3 1014 86 10000 4.6 270 22:56 15.03.2020
6404 Clouds 3 1014 86 10000 4.6 270 22:37 15.03.2020
6405 Clouds 3 1014 86 10000 4.1 270 22:19 15.03.2020
6406 Clouds 4 1013 86 10000 6.2 280 21:39 15.03.2020
6407 Clouds 5 1013 86 10000 6.2 290 21:19 15.03.2020
6408 Clouds 5 1012 86 10000 7.7 290 20:43 15.03.2020
6409 Clouds 6 1012 70 10000 6.2 300 20:22 15.03.2020
6410 Clouds 6 1011 70 10000 6.2 310 19:58 15.03.2020
6411 Clouds 6 1011 70 10000 6.2 310 19:40 15.03.2020
6412 Clouds 7 1011 56 10000 7.2 290 19:22 15.03.2020
6413 Clouds 8 1010 75 10000 5.1 300 18:57 15.03.2020
6414 Clouds 8 1010 75 10000 5.1 300 18:38 15.03.2020
6415 Clouds 8 1009 65 10000 7.2 310 18:20 15.03.2020
6416 Clouds 8 1009 65 10000 7.2 320 17:42 15.03.2020
6417 Clouds 9 1008 57 10000 9.8 310 17:22 15.03.2020
6418 Clouds 8 1007 65 10000 8.7 310 16:59 15.03.2020
6419 Clouds 8 1007 65 10000 8.7 310 16:40 15.03.2020
6420 Rain 9 1007 61 10000 8.2 310 16:22 15.03.2020
6421 Clouds 8 1006 65 10000 9.8 310 15:56 15.03.2020
6422 Rain 9 1006 65 10000 9.8 310 15:38 15.03.2020
6423 Clouds 9 1006 70 10000 8.7 300 15:19 15.03.2020
6424 Clouds 8 1005 70 10000 8.2 300 14:40 15.03.2020
6425 Clouds 7 1005 75 10000 9.3 290 14:22 15.03.2020
6426 Clouds 9 1005 70 10000 8.7 300 13:56 15.03.2020
6427 Clouds 9 1005 70 10000 8.7 300 13:37 15.03.2020
6428 Clouds 8 1004 81 10000 7.7 290 13:18 15.03.2020
6429 Rain 8 1004 70 10000 8.7 290 12:40 15.03.2020
6430 Clouds 8 1003 70 10000 8.7 290 12:22 15.03.2020
6431 Clouds 7 1003 81 10000 8.7 280 11:44 15.03.2020
6432 Clouds 7 1002 81 10000 7.7 270 11:25 15.03.2020
6433 Clouds 6 1001 87 10000 8.2 270 10:59 15.03.2020
6434 Clouds 6 1001 87 10000 8.2 270 10:40 15.03.2020
6435 Clouds 6 1001 87 10000 6.7 260 10:22 15.03.2020
6436 Clouds 6 1001 87 10000 6.7 260 09:59 15.03.2020
6437 Clouds 5 1000 86 10000 7.7 270 09:38 15.03.2020
6438 Clouds 5 1000 86 10000 6.2 260 09:19 15.03.2020
6439 Clouds 5 999 86 10000 5.7 250 08:41 15.03.2020
6440 Clouds 5 998 86 10000 6.2 250 08:19 15.03.2020
6441 Clouds 6 998 75 10000 6.7 250 07:48 15.03.2020
6442 Clouds 6 997 81 10000 6.7 230 07:22 15.03.2020
6443 Clouds 6 997 75 10000 6.7 230 06:43 15.03.2020
6444 Clouds 6 996 81 10000 6.7 230 05:48 15.03.2020
6445 Clouds 7 996 75 10000 7.2 220 04:56 15.03.2020
6446 Clouds 7 996 75 10000 7.2 220 04:37 15.03.2020
6447 Clouds 7 997 75 10000 6.2 230 04:18 15.03.2020
6448 Clouds 7 997 75 10000 6.7 220 02:54 15.03.2020
6449 Clouds 7 997 81 10000 6.7 220 02:21 15.03.2020
6450 Clouds 8 997 75 10000 7.2 230 00:57 15.03.2020
6451 Clouds 8 997 75 10000 7.2 230 00:39 15.03.2020
6452 Clouds 8 997 81 10000 6.7 230 00:18 15.03.2020
6453 Clouds 9 997 76 10000 7.2 230 23:38 14.03.2020
6454 Clouds 9 997 81 10000 5.7 240 23:19 14.03.2020
6455 Drizzle 9 997 81 10000 6.7 240 22:55 14.03.2020
6456 Drizzle 10 997 81 10000 6.7 240 22:37 14.03.2020
6457 Clouds 10 997 81 10000 8.2 230 22:19 14.03.2020
6458 Clouds 10 997 87 10000 7.7 220 21:54 14.03.2020
6459 Rain 10 997 87 10000 7.7 220 21:36 14.03.2020
6460 Rain 10 998 87 10000 7.7 230 21:18 14.03.2020
6461 Rain 10 998 93 8000 7.7 240 20:55 14.03.2020
6462 Rain 10 998 93 8000 7.7 240 20:36 14.03.2020
6463 Rain 10 998 93 10000 8.7 220 20:18 14.03.2020
6464 Rain 11 998 81 10000 8.2 220 19:40 14.03.2020
6465 Rain 11 998 81 10000 8.2 220 19:20 14.03.2020
6466 Rain 11 999 81 10000 8.2 210 18:39 14.03.2020
6467 Clouds 11 999 76 10000 8.2 210 18:20 14.03.2020
6468 Clouds 11 1000 76 10000 7.2 210 17:42 14.03.2020
6469 Clouds 11 1000 76 10000 7.7 210 17:21 14.03.2020
6470 Clouds 11 1001 81 10000 7.7 200 16:58 14.03.2020
6471 Clouds 11 1001 81 10000 7.7 200 16:38 14.03.2020
6472 Clouds 11 1002 81 10000 7.7 200 16:18 14.03.2020
6473 Rain 10 1003 87 10000 7.2 200 15:28 14.03.2020
6474 Rain 9 1004 87 7000 3.6 170 14:59 14.03.2020
6475 Rain 9 1004 87 7000 3.6 170 14:59 14.03.2020
6476 Rain 9 1004 87 7000 3.6 170 14:39 14.03.2020
6477 Rain 9 1005 87 7000 4.6 180 14:20 14.03.2020
6478 Rain 8 1005 87 9000 4.6 190 13:56 14.03.2020
6479 Rain 8 1005 87 9000 4.6 190 13:38 14.03.2020
6480 Rain 8 1006 75 10000 5.1 200 13:19 14.03.2020
6481 Clouds 9 1007 70 10000 5.7 210 12:44 14.03.2020
6482 Clouds 9 1007 70 10000 5.1 220 12:25 14.03.2020
6483 Clouds 8 1007 81 10000 4.1 230 11:44 14.03.2020
6484 Clouds 8 1007 81 10000 4.1 230 11:25 14.03.2020
6485 Clouds 7 1008 81 10000 4.6 230 10:48 14.03.2020
6486 Clouds 7 1008 81 10000 4.1 230 10:28 14.03.2020
6487 Clouds 7 1008 81 10000 4.6 250 09:59 14.03.2020
6488 Clouds 7 1008 81 10000 4.6 250 09:40 14.03.2020
6489 Rain 6 1008 87 10000 4.6 250 09:21 14.03.2020
6490 Drizzle 7 1008 87 10000 6.2 250 08:47 14.03.2020
6491 Drizzle 7 1008 93 9000 3.6 230 08:27 14.03.2020
6492 Clouds 7 1007 93 10000 3.6 220 07:45 14.03.2020
6493 Clouds 7 1007 93 10000 3.6 220 07:22 14.03.2020
6494 Clouds 7 1007 87 10000 3.1 220 06:55 14.03.2020
6495 Clouds 7 1007 93 10000 3.6 230 06:36 14.03.2020
6496 Rain 7 1007 93 10000 2.1 210 04:56 14.03.2020
6497 Clouds 6 1008 100 10000 2.1 170 03:37 14.03.2020
6498 Clouds 6 1008 100 9000 3.6 160 02:53 14.03.2020
6499 Drizzle 6 1009 100 9000 5.7 140 01:47 14.03.2020
6500 Drizzle 7 1009 100 6000 7.2 150 00:34 14.03.2020
6501 Drizzle 6 1010 93 7000 6.7 150 23:42 13.03.2020
6502 Clouds 6 1010 93 10000 8.2 150 23:23 13.03.2020
6503 Drizzle 6 1010 93 10000 7.7 150 22:45 13.03.2020
6504 Rain 6 1010 87 10000 7.2 150 22:22 13.03.2020
6505 Rain 6 1011 93 10000 7.2 140 21:41 13.03.2020
6506 Rain 6 1011 87 10000 7.2 140 21:19 13.03.2020
6507 Rain 6 1011 87 10000 7.2 150 20:43 13.03.2020
6508 Rain 6 1011 87 10000 6.2 150 20:23 13.03.2020
6509 Rain 7 1012 81 10000 7.2 150 19:58 13.03.2020
6510 Rain 6 1012 81 10000 7.2 150 19:39 13.03.2020
6511 Rain 7 1012 70 10000 5.7 150 19:19 13.03.2020
6512 Rain 7 1012 70 10000 4.6 140 18:43 13.03.2020
6513 Clouds 8 1012 66 10000 6.7 160 18:23 13.03.2020
6514 Clouds 8 1012 66 10000 6.2 150 17:43 13.03.2020
6515 Clouds 9 1013 70 10000 7.2 150 17:21 13.03.2020
6516 Clouds 9 1013 66 10000 6.7 150 16:57 13.03.2020
6517 Clouds 9 1013 66 10000 6.7 150 16:38 13.03.2020
6518 Clouds 10 1013 61 10000 4.1 140 16:20 13.03.2020
6519 Clouds 10 1014 70 10000 3.6 130 15:45 13.03.2020
6520 Clouds 10 1015 70 10000 4.1 120 15:22 13.03.2020
6521 Clouds 9 1015 76 10000 3.6 110 14:58 13.03.2020
6522 Clouds 9 1015 76 10000 3.6 110 14:40 13.03.2020
6523 Clouds 9 1015 66 10000 1.5 0 14:21 13.03.2020
6524 Clouds 9 1015 75 10000 2.1 250 13:42 13.03.2020
6525 Clouds 9 1015 81 10000 3.1 260 13:24 13.03.2020
6526 Clouds 8 1016 87 10000 3.1 230 12:59 13.03.2020
6527 Clouds 8 1016 87 10000 3.1 230 12:38 13.03.2020
6528 Clouds 7 1016 87 10000 4.6 250 12:19 13.03.2020
6529 Clouds 7 1016 87 10000 3.1 240 11:55 13.03.2020
6530 Clouds 7 1015 87 10000 3.6 230 11:36 13.03.2020
6531 Clouds 6 1015 93 8000 4.1 230 11:18 13.03.2020
6532 Clouds 6 1015 93 8000 4.1 230 10:46 13.03.2020
6533 Drizzle 6 1015 93 3500 4.1 240 10:25 13.03.2020
6534 Drizzle 5 1015 100 2500 3.1 230 09:48 13.03.2020
6535 Drizzle 5 1015 100 3000 3.1 230 09:28 13.03.2020
6536 Drizzle 5 1015 93 4500 2.6 250 08:59 13.03.2020
6537 Drizzle 5 1015 93 4500 2.6 250 08:38 13.03.2020
6538 Drizzle 5 1015 93 4500 2.6 250 08:38 13.03.2020
6539 Drizzle 5 1015 100 8000 2.1 250 08:20 13.03.2020
6540 Drizzle 5 1014 93 9000 4.1 260 07:44 13.03.2020
6541 Drizzle 5 1014 93 7000 4.1 260 07:25 13.03.2020
6542 Drizzle 5 1014 93 7000 5.1 260 06:46 13.03.2020
6543 Rain 5 1013 93 10000 5.1 260 06:21 13.03.2020
6544 Clouds 6 1013 87 10000 4.6 260 05:45 13.03.2020
6545 Rain 5 1013 93 10000 4.6 260 04:57 13.03.2020
6546 Clouds 5 1012 86 10000 5.7 260 04:25 13.03.2020
6547 Rain 5 1011 86 10000 7.7 260 02:42 13.03.2020
6548 Clouds 5 1010 93 10000 7.7 260 01:37 13.03.2020
6549 Clouds 5 1010 93 10000 7.7 260 01:18 13.03.2020
6550 Clouds 5 1010 86 10000 8.2 250 00:39 13.03.2020
6551 Clouds 5 1009 86 10000 8.2 260 00:19 13.03.2020
6552 Clouds 5 1009 86 10000 9.3 260 23:38 12.03.2020
6553 Clouds 5 1009 86 10000 9.3 260 23:19 12.03.2020
6554 Rain 5 1008 86 10000 7.7 260 22:44 12.03.2020
6555 Rain 5 1008 86 10000 9.8 270 22:25 12.03.2020
6556 Rain 5 1007 86 10000 9.3 270 21:56 12.03.2020
6557 Rain 5 1007 86 10000 9.3 270 21:38 12.03.2020
6558 Rain 5 1007 86 10000 7.2 250 21:20 12.03.2020
6559 Rain 5 1007 93 10000 6.2 260 20:42 12.03.2020
6560 Rain 4 1006 86 10000 7.2 270 20:20 12.03.2020
6561 Rain 5 1006 86 10000 10.3 280 19:42 12.03.2020
6562 Rain 6 1005 75 10000 8.2 250 19:22 12.03.2020
6563 Rain 6 1004 75 10000 8.2 250 18:59 12.03.2020
6564 Rain 6 1004 75 10000 8.2 250 18:41 12.03.2020
6565 Clouds 6 1004 75 10000 8.2 260 18:22 12.03.2020
6566 Rain 6 1003 81 10000 7.7 260 17:41 12.03.2020
6567 Rain 6 1003 81 10000 7.7 260 17:22 12.03.2020
6568 Rain 5 1003 86 4000 12.3 280 16:59 12.03.2020
6569 Rain 5 1003 86 4000 12.3 280 16:40 12.03.2020
6570 Clouds 8 1002 61 10000 13.9 260 16:22 12.03.2020
6571 Clouds 8 1001 65 10000 10.8 250 15:48 12.03.2020
6572 Clouds 8 1001 61 10000 9.3 250 15:28 12.03.2020
6573 Clouds 7 1001 75 10000 10.3 250 14:55 12.03.2020
6574 Clouds 7 1001 75 10000 10.3 250 14:37 12.03.2020
6575 Rain 8 1000 70 10000 8.7 240 14:18 12.03.2020
6576 Rain 7 1000 75 10000 8.2 240 13:38 12.03.2020
6577 Rain 6 1000 81 7000 8.7 240 13:20 12.03.2020
6578 Clouds 7 999 70 10000 10.8 240 12:43 12.03.2020
6579 Clouds 7 999 70 10000 11.8 230 12:24 12.03.2020
6580 Rain 6 999 70 10000 11.3 230 11:59 12.03.2020
6581 Rain 6 999 70 10000 11.3 230 11:59 12.03.2020
6582 Rain 6 999 70 10000 11.3 230 11:39 12.03.2020
6583 Clouds 6 999 70 10000 9.3 240 11:21 12.03.2020
6584 Clouds 5 999 75 10000 10.8 240 10:59 12.03.2020
6585 Clouds 5 999 75 10000 10.8 240 10:41 12.03.2020
6586 Clouds 5 999 74 10000 9.8 240 10:23 12.03.2020
6587 Clouds 4 1000 74 10000 8.2 240 09:49 12.03.2020
6588 Clouds 3 1000 74 10000 7.2 230 09:29 12.03.2020
6589 Clouds 3 1000 74 10000 7.7 230 08:55 12.03.2020
6590 Clouds 3 1000 74 10000 7.7 230 08:37 12.03.2020
6591 Clouds 3 1000 80 10000 8.7 230 08:18 12.03.2020
6592 Clouds 2 1000 83 10000 8.2 230 07:47 12.03.2020
6593 Clouds 2 1000 80 10000 6.7 230 07:21 12.03.2020
6594 Rain 2 1000 83 10000 6.7 240 06:18 12.03.2020
6595 Rain 2 1000 83 10000 7.7 240 05:34 12.03.2020
6596 Rain 1 1002 97 8000 6.7 240 03:34 12.03.2020
6597 Clouds 1 1001 86 10000 4.6 240 01:57 12.03.2020
6598 Clouds 1 1001 86 10000 5.1 240 01:21 12.03.2020
6599 Clouds 2 1000 80 10000 6.2 240 00:42 12.03.2020
6600 Rain 2 999 80 10000 8.2 250 23:57 11.03.2020
6601 Rain 2 998 91 10000 8.2 250 23:28 11.03.2020
6602 Rain 3 998 86 10000 5.1 240 22:58 11.03.2020
6603 Rain 3 998 86 10000 5.1 240 22:39 11.03.2020
6604 Clouds 3 997 93 10000 6.7 250 22:21 11.03.2020
6605 Rain 3 996 86 10000 11.8 270 21:56 11.03.2020
6606 Rain 4 995 86 8000 6.7 240 21:37 11.03.2020
6607 Rain 4 995 86 8000 6.7 240 21:19 11.03.2020
6608 Rain 5 995 93 10000 4.6 240 20:55 11.03.2020
6609 Rain 5 995 93 10000 4.6 240 20:55 11.03.2020
6610 Rain 5 995 93 10000 4.6 240 20:55 11.03.2020
6611 Rain 5 995 93 10000 4.6 240 20:36 11.03.2020
6612 Rain 5 995 87 10000 6.2 240 20:18 11.03.2020
6613 Rain 5 995 93 10000 4.6 240 19:42 11.03.2020
6614 Rain 5 995 93 10000 6.2 250 19:23 11.03.2020
6615 Rain 5 996 93 10000 8.2 280 18:56 11.03.2020
6616 Rain 6 996 93 10000 8.2 280 18:36 11.03.2020
6617 Rain 6 995 75 9000 9.8 220 18:18 11.03.2020
6618 Clouds 9 996 76 10000 8.2 220 17:40 11.03.2020
6619 Clouds 9 996 76 10000 8.2 220 17:21 11.03.2020
6620 Rain 9 997 87 10000 6.2 210 16:56 11.03.2020
6621 Rain 9 997 87 10000 6.2 210 16:38 11.03.2020
6622 Rain 9 998 87 10000 6.2 240 16:19 11.03.2020
6623 Rain 9 998 87 5000 5.1 240 15:42 11.03.2020
6624 Rain 10 999 66 10000 7.7 230 15:22 11.03.2020
6625 Rain 9 1000 66 10000 8.2 220 14:44 11.03.2020
6626 Clouds 10 1000 66 10000 5.1 230 14:24 11.03.2020
6627 Clouds 9 1001 76 10000 5.1 230 13:59 11.03.2020
6628 Clouds 9 1001 76 10000 5.1 230 13:39 11.03.2020
6629 Clouds 8 1002 76 10000 5.7 220 13:21 11.03.2020
6630 Rain 8 1002 81 10000 5.7 240 12:41 11.03.2020
6631 Rain 8 1002 81 10000 6.2 240 12:21 11.03.2020
6632 Rain 8 1002 75 10000 7.2 230 11:57 11.03.2020
6633 Rain 7 1002 75 10000 7.2 230 11:39 11.03.2020
6634 Rain 8 1002 70 10000 7.2 230 11:19 11.03.2020
6635 Rain 9 1002 76 10000 6.7 240 10:43 11.03.2020
6636 Clouds 9 1002 76 10000 6.7 240 10:19 11.03.2020
6637 Clouds 8 1002 81 10000 7.2 240 09:44 11.03.2020
6638 Clouds 8 1002 81 10000 7.7 230 09:25 11.03.2020
6639 Clouds 8 1002 75 10000 7.7 230 08:58 11.03.2020
6640 Clouds 8 1002 75 10000 7.7 230 08:40 11.03.2020
6641 Clouds 7 1002 81 10000 8.2 230 08:19 11.03.2020
6642 Clouds 7 1002 81 10000 7.7 230 07:44 11.03.2020
6643 Clouds 7 1002 81 10000 6.2 220 07:19 11.03.2020
6644 Clouds 7 1002 75 10000 7.7 230 06:46 11.03.2020
6645 Clouds 7 1002 75 10000 7.2 230 05:41 11.03.2020
6646 Clouds 6 1003 81 10000 5.7 230 04:50 11.03.2020
6647 Clouds 6 1005 81 10000 4.6 220 02:30 11.03.2020
6648 Clouds 6 1005 81 10000 5.1 220 01:43 11.03.2020
6649 Clouds 5 1005 86 10000 4.1 220 00:49 11.03.2020
6650 Clouds 5 1005 81 10000 2.6 230 00:21 11.03.2020
6651 Clouds 6 1005 81 10000 3.1 230 23:43 10.03.2020
6652 Clouds 6 1005 81 10000 2.6 240 23:22 10.03.2020
6653 Clouds 6 1005 81 10000 3.6 250 22:40 10.03.2020
6654 Clouds 6 1004 81 10000 4.1 250 22:20 10.03.2020
6655 Clouds 6 1004 81 10000 3.6 250 21:57 10.03.2020
6656 Clouds 6 1004 81 10000 3.6 250 21:39 10.03.2020
6657 Clouds 6 1004 81 10000 3.6 250 21:39 10.03.2020
6658 Clouds 6 1004 70 10000 4.6 260 21:20 10.03.2020
6659 Clouds 7 1004 75 10000 6.2 260 20:59 10.03.2020
6660 Clouds 7 1004 75 10000 6.2 260 20:41 10.03.2020
6661 Clouds 7 1003 87 10000 7.7 280 20:18 10.03.2020
6662 Rain 8 1003 75 10000 6.7 270 19:57 10.03.2020
6663 Rain 8 1003 75 10000 6.7 270 19:57 10.03.2020
6664 Rain 8 1003 75 10000 6.7 270 19:38 10.03.2020
6665 Rain 8 1002 70 10000 7.7 260 19:19 10.03.2020
6666 Rain 9 1002 75 10000 6.2 250 18:44 10.03.2020
6667 Clouds 9 1002 70 10000 7.2 270 18:26 10.03.2020
6668 Clouds 9 1001 70 10000 7.7 280 17:57 10.03.2020
6669 Clouds 10 1001 70 10000 7.7 280 17:39 10.03.2020
6670 Clouds 10 1001 66 10000 10.3 280 17:21 10.03.2020
6671 Clouds 10 1001 66 10000 10.8 280 16:39 10.03.2020
6672 Clouds 11 1000 66 10000 9.8 270 16:19 10.03.2020
6673 Clouds 11 999 71 10000 10.3 270 15:56 10.03.2020
6674 Clouds 11 999 71 10000 10.3 270 15:56 10.03.2020
6675 Clouds 11 999 71 10000 10.3 270 15:37 10.03.2020
6676 Clouds 11 999 66 10000 11.3 270 15:19 10.03.2020
6677 Clouds 11 998 76 10000 9.3 250 14:41 10.03.2020
6678 Clouds 11 998 81 10000 10.8 260 14:20 10.03.2020
6679 Clouds 11 998 81 10000 10.8 260 13:57 10.03.2020
6680 Drizzle 11 998 87 6000 9.3 250 13:38 10.03.2020
6681 Rain 11 997 76 10000 9.8 250 13:19 10.03.2020
6682 Rain 11 997 76 10000 9.3 250 12:41 10.03.2020
6683 Rain 10 996 76 10000 10.8 260 12:19 10.03.2020